<?xml version="1.0" encoding="utf-8"?>
<gpx xmlns:xsi="http://www.w3.org/2001/XMLSchema-instance" xmlns:xsd="http://www.w3.org/2001/XMLSchema" version="1.1" creator="Shapelink.com" xmlns="http://www.topografix.com/GPX/1/1" xmlns:gpxtpx="http://www.garmin.com/xmlschemas/TrackPointExtension/v1">
  <metadata>
    <name>Cykling 23.02 km, 2016-04-25</name>
    <desc></desc>
    <author><name>Alexander Engvall</name></author> 
    <time>2016-04-25T19:04:18Z</time>
  </metadata>
  <trk>
    <name>Cykling 23.02 km, 2016-04-25</name>
    <trkseg>
      <trkpt lat="59.219086747948" lon="17.908149039599">
        <ele>72.8</ele>
        <time>2016-04-25T19:04:18Z</time>
      </trkpt>
      <trkpt lat="59.219123209213" lon="17.908253142797">
        <ele>73</ele>
        <time>2016-04-25T19:04:20Z</time>
      </trkpt>
      <trkpt lat="59.21941850355" lon="17.909003239028">
        <ele>73</ele>
        <time>2016-04-25T19:04:27Z</time>
      </trkpt>
      <trkpt lat="59.219650765999" lon="17.909549487451">
        <ele>73</ele>
        <time>2016-04-25T19:04:32Z</time>
      </trkpt>
      <trkpt lat="59.219713881706" lon="17.909610507683">
        <ele>73</ele>
        <time>2016-04-25T19:04:33Z</time>
      </trkpt>
      <trkpt lat="59.219839610206" lon="17.909754676363">
        <ele>73</ele>
        <time>2016-04-25T19:04:35Z</time>
      </trkpt>
      <trkpt lat="59.219890236882" lon="17.909862467597">
        <ele>73</ele>
        <time>2016-04-25T19:04:36Z</time>
      </trkpt>
      <trkpt lat="59.220153763818" lon="17.910553639071">
        <ele>73</ele>
        <time>2016-04-25T19:04:42Z</time>
      </trkpt>
      <trkpt lat="59.220410836691" lon="17.911231986238">
        <ele>73</ele>
        <time>2016-04-25T19:04:48Z</time>
      </trkpt>
      <trkpt lat="59.220653576515" lon="17.911873369226">
        <ele>73</ele>
        <time>2016-04-25T19:04:54Z</time>
      </trkpt>
      <trkpt lat="59.220741335008" lon="17.912086437124">
        <ele>73</ele>
        <time>2016-04-25T19:04:56Z</time>
      </trkpt>
      <trkpt lat="59.220864800395" lon="17.912404027315">
        <ele>73.4</ele>
        <time>2016-04-25T19:04:59Z</time>
      </trkpt>
      <trkpt lat="59.22091048175" lon="17.912509890712">
        <ele>73.8</ele>
        <time>2016-04-25T19:05:00Z</time>
      </trkpt>
      <trkpt lat="59.220953145621" lon="17.912612066073">
        <ele>74.2</ele>
        <time>2016-04-25T19:05:01Z</time>
      </trkpt>
      <trkpt lat="59.220990193619" lon="17.912715582538">
        <ele>74.6</ele>
        <time>2016-04-25T19:05:02Z</time>
      </trkpt>
      <trkpt lat="59.221030678196" lon="17.912819182822">
        <ele>75</ele>
        <time>2016-04-25T19:05:03Z</time>
      </trkpt>
      <trkpt lat="59.22115188047" lon="17.913122523783">
        <ele>75</ele>
        <time>2016-04-25T19:05:06Z</time>
      </trkpt>
      <trkpt lat="59.221267718328" lon="17.913439778698">
        <ele>75</ele>
        <time>2016-04-25T19:05:09Z</time>
      </trkpt>
      <trkpt lat="59.221323290325" lon="17.9136709515">
        <ele>75</ele>
        <time>2016-04-25T19:05:11Z</time>
      </trkpt>
      <trkpt lat="59.221344161256" lon="17.913792153774">
        <ele>75</ele>
        <time>2016-04-25T19:05:12Z</time>
      </trkpt>
      <trkpt lat="59.221505512831" lon="17.914158610442">
        <ele>75</ele>
        <time>2016-04-25T19:05:16Z</time>
      </trkpt>
      <trkpt lat="59.221562928846" lon="17.914218792484">
        <ele>75.4</ele>
        <time>2016-04-25T19:05:17Z</time>
      </trkpt>
      <trkpt lat="59.221622524155" lon="17.914283333114">
        <ele>75.8</ele>
        <time>2016-04-25T19:05:18Z</time>
      </trkpt>
      <trkpt lat="59.221672647917" lon="17.914365475734">
        <ele>76.2</ele>
        <time>2016-04-25T19:05:19Z</time>
      </trkpt>
      <trkpt lat="59.221723442231" lon="17.914449797648">
        <ele>76.6</ele>
        <time>2016-04-25T19:05:20Z</time>
      </trkpt>
      <trkpt lat="59.221773985088" lon="17.914535041571">
        <ele>77</ele>
        <time>2016-04-25T19:05:21Z</time>
      </trkpt>
      <trkpt lat="59.222061400439" lon="17.915077182863">
        <ele>77</ele>
        <time>2016-04-25T19:05:27Z</time>
      </trkpt>
      <trkpt lat="59.222106746518" lon="17.915166450098">
        <ele>77</ele>
        <time>2016-04-25T19:05:28Z</time>
      </trkpt>
      <trkpt lat="59.22237647606" lon="17.915686882269">
        <ele>77.4</ele>
        <time>2016-04-25T19:05:34Z</time>
      </trkpt>
      <trkpt lat="59.222419056112" lon="17.915760391532">
        <ele>77.8</ele>
        <time>2016-04-25T19:05:35Z</time>
      </trkpt>
      <trkpt lat="59.222461300888" lon="17.915832894967">
        <ele>78.2</ele>
        <time>2016-04-25T19:05:36Z</time>
      </trkpt>
      <trkpt lat="59.222504300035" lon="17.915910846637">
        <ele>78.6</ele>
        <time>2016-04-25T19:05:37Z</time>
      </trkpt>
      <trkpt lat="59.222544365517" lon="17.915990558506">
        <ele>79.2</ele>
        <time>2016-04-25T19:05:38Z</time>
      </trkpt>
      <trkpt lat="59.222620724626" lon="17.916142857629">
        <ele>79.6</ele>
        <time>2016-04-25T19:05:40Z</time>
      </trkpt>
      <trkpt lat="59.222657940262" lon="17.916225503163">
        <ele>80.2</ele>
        <time>2016-04-25T19:05:41Z</time>
      </trkpt>
      <trkpt lat="59.222692976604" lon="17.916311585276">
        <ele>80.6</ele>
        <time>2016-04-25T19:05:42Z</time>
      </trkpt>
      <trkpt lat="59.222727174756" lon="17.916399511407">
        <ele>81.2</ele>
        <time>2016-04-25T19:05:43Z</time>
      </trkpt>
      <trkpt lat="59.222760283261" lon="17.916491796126">
        <ele>81.6</ele>
        <time>2016-04-25T19:05:44Z</time>
      </trkpt>
      <trkpt lat="59.22290285938" lon="17.91702874064">
        <ele>81.6</ele>
        <time>2016-04-25T19:05:49Z</time>
      </trkpt>
      <trkpt lat="59.223117184563" lon="17.91773701119">
        <ele>81.6</ele>
        <time>2016-04-25T19:05:55Z</time>
        <extensions><gpxtpx:TrackPointExtension><gpxtpx:hr>72</gpxtpx:hr></gpxtpx:TrackPointExtension></extensions>
      </trkpt>
      <trkpt lat="59.223143336091" lon="17.917865505717">
        <ele>81.6</ele>
        <time>2016-04-25T19:05:56Z</time>
        <extensions><gpxtpx:TrackPointExtension><gpxtpx:hr>89</gpxtpx:hr></gpxtpx:TrackPointExtension></extensions>
      </trkpt>
      <trkpt lat="59.223209972196" lon="17.918240931018">
        <ele>81.6</ele>
        <time>2016-04-25T19:05:57Z</time>
        <extensions><gpxtpx:TrackPointExtension><gpxtpx:hr>122</gpxtpx:hr></gpxtpx:TrackPointExtension></extensions>
      </trkpt>
      <trkpt lat="59.223209972196" lon="17.918240931018">
        <ele>81.6</ele>
        <time>2016-04-25T19:05:59Z</time>
        <extensions><gpxtpx:TrackPointExtension><gpxtpx:hr>122</gpxtpx:hr></gpxtpx:TrackPointExtension></extensions>
      </trkpt>
      <trkpt lat="59.223233190059" lon="17.918363055301">
        <ele>81.6</ele>
        <time>2016-04-25T19:06:00Z</time>
        <extensions><gpxtpx:TrackPointExtension><gpxtpx:hr>129</gpxtpx:hr></gpxtpx:TrackPointExtension></extensions>
      </trkpt>
      <trkpt lat="59.223284738744" lon="17.918612584464">
        <ele>81.6</ele>
        <time>2016-04-25T19:06:02Z</time>
        <extensions><gpxtpx:TrackPointExtension><gpxtpx:hr>131</gpxtpx:hr></gpxtpx:TrackPointExtension></extensions>
      </trkpt>
      <trkpt lat="59.223306531684" lon="17.918734960204">
        <ele>81.6</ele>
        <time>2016-04-25T19:06:03Z</time>
        <extensions><gpxtpx:TrackPointExtension><gpxtpx:hr>135</gpxtpx:hr></gpxtpx:TrackPointExtension></extensions>
      </trkpt>
      <trkpt lat="59.223358415645" lon="17.918970743051">
        <ele>81.6</ele>
        <time>2016-04-25T19:06:05Z</time>
        <extensions><gpxtpx:TrackPointExtension><gpxtpx:hr>139</gpxtpx:hr></gpxtpx:TrackPointExtension></extensions>
      </trkpt>
      <trkpt lat="59.223423878284" lon="17.919316664064">
        <ele>81.6</ele>
        <time>2016-04-25T19:06:08Z</time>
        <extensions><gpxtpx:TrackPointExtension><gpxtpx:hr>142</gpxtpx:hr></gpxtpx:TrackPointExtension></extensions>
      </trkpt>
      <trkpt lat="59.223438881885" lon="17.919429232981">
        <ele>82</ele>
        <time>2016-04-25T19:06:09Z</time>
        <extensions><gpxtpx:TrackPointExtension><gpxtpx:hr>143</gpxtpx:hr></gpxtpx:TrackPointExtension></extensions>
      </trkpt>
      <trkpt lat="59.223454136943" lon="17.919539874061">
        <ele>82.4</ele>
        <time>2016-04-25T19:06:10Z</time>
        <extensions><gpxtpx:TrackPointExtension><gpxtpx:hr>143</gpxtpx:hr></gpxtpx:TrackPointExtension></extensions>
      </trkpt>
      <trkpt lat="59.223470900743" lon="17.919648335847">
        <ele>83</ele>
        <time>2016-04-25T19:06:11Z</time>
        <extensions><gpxtpx:TrackPointExtension><gpxtpx:hr>144</gpxtpx:hr></gpxtpx:TrackPointExtension></extensions>
      </trkpt>
      <trkpt lat="59.223490179113" lon="17.919759396022">
        <ele>83.4</ele>
        <time>2016-04-25T19:06:12Z</time>
        <extensions><gpxtpx:TrackPointExtension><gpxtpx:hr>144</gpxtpx:hr></gpxtpx:TrackPointExtension></extensions>
      </trkpt>
      <trkpt lat="59.223508619293" lon="17.919867857808">
        <ele>84</ele>
        <time>2016-04-25T19:06:13Z</time>
        <extensions><gpxtpx:TrackPointExtension><gpxtpx:hr>145</gpxtpx:hr></gpxtpx:TrackPointExtension></extensions>
      </trkpt>
      <trkpt lat="59.223530496052" lon="17.919972212463">
        <ele>84.4</ele>
        <time>2016-04-25T19:06:14Z</time>
        <extensions><gpxtpx:TrackPointExtension><gpxtpx:hr>144</gpxtpx:hr></gpxtpx:TrackPointExtension></extensions>
      </trkpt>
      <trkpt lat="59.223550109698" lon="17.920075645109">
        <ele>85</ele>
        <time>2016-04-25T19:06:15Z</time>
        <extensions><gpxtpx:TrackPointExtension><gpxtpx:hr>145</gpxtpx:hr></gpxtpx:TrackPointExtension></extensions>
      </trkpt>
      <trkpt lat="59.223572992285" lon="17.920185699456">
        <ele>85.6</ele>
        <time>2016-04-25T19:06:16Z</time>
        <extensions><gpxtpx:TrackPointExtension><gpxtpx:hr>145</gpxtpx:hr></gpxtpx:TrackPointExtension></extensions>
      </trkpt>
      <trkpt lat="59.223593611759" lon="17.920296591993">
        <ele>86</ele>
        <time>2016-04-25T19:06:17Z</time>
        <extensions><gpxtpx:TrackPointExtension><gpxtpx:hr>145</gpxtpx:hr></gpxtpx:TrackPointExtension></extensions>
      </trkpt>
      <trkpt lat="59.223762758501" lon="17.921010310778">
        <ele>86</ele>
        <time>2016-04-25T19:06:23Z</time>
        <extensions><gpxtpx:TrackPointExtension><gpxtpx:hr>145</gpxtpx:hr></gpxtpx:TrackPointExtension></extensions>
      </trkpt>
      <trkpt lat="59.224036427536" lon="17.922041787392">
        <ele>86</ele>
        <time>2016-04-25T19:06:31Z</time>
        <extensions><gpxtpx:TrackPointExtension><gpxtpx:hr>146</gpxtpx:hr></gpxtpx:TrackPointExtension></extensions>
      </trkpt>
      <trkpt lat="59.224297523721" lon="17.922985086418">
        <ele>86</ele>
        <time>2016-04-25T19:06:38Z</time>
        <extensions><gpxtpx:TrackPointExtension><gpxtpx:hr>146</gpxtpx:hr></gpxtpx:TrackPointExtension></extensions>
      </trkpt>
      <trkpt lat="59.224484691548" lon="17.923684053059">
        <ele>85.6</ele>
        <time>2016-04-25T19:06:43Z</time>
        <extensions><gpxtpx:TrackPointExtension><gpxtpx:hr>147</gpxtpx:hr></gpxtpx:TrackPointExtension></extensions>
      </trkpt>
      <trkpt lat="59.2245188897" lon="17.923823527875">
        <ele>85.2</ele>
        <time>2016-04-25T19:06:44Z</time>
        <extensions><gpxtpx:TrackPointExtension><gpxtpx:hr>146</gpxtpx:hr></gpxtpx:TrackPointExtension></extensions>
      </trkpt>
      <trkpt lat="59.224549818911" lon="17.923965517261">
        <ele>84.8</ele>
        <time>2016-04-25T19:06:45Z</time>
        <extensions><gpxtpx:TrackPointExtension><gpxtpx:hr>146</gpxtpx:hr></gpxtpx:TrackPointExtension></extensions>
      </trkpt>
      <trkpt lat="59.224582424502" lon="17.924117229651">
        <ele>84.2</ele>
        <time>2016-04-25T19:06:46Z</time>
        <extensions><gpxtpx:TrackPointExtension><gpxtpx:hr>146</gpxtpx:hr></gpxtpx:TrackPointExtension></extensions>
      </trkpt>
      <trkpt lat="59.224613940446" lon="17.924257626476">
        <ele>83.8</ele>
        <time>2016-04-25T19:06:47Z</time>
        <extensions><gpxtpx:TrackPointExtension><gpxtpx:hr>146</gpxtpx:hr></gpxtpx:TrackPointExtension></extensions>
      </trkpt>
      <trkpt lat="59.224800018626" lon="17.924927256467">
        <ele>83.8</ele>
        <time>2016-04-25T19:06:52Z</time>
        <extensions><gpxtpx:TrackPointExtension><gpxtpx:hr>146</gpxtpx:hr></gpxtpx:TrackPointExtension></extensions>
      </trkpt>
      <trkpt lat="59.225046614124" lon="17.925658074328">
        <ele>83.8</ele>
        <time>2016-04-25T19:06:58Z</time>
        <extensions><gpxtpx:TrackPointExtension><gpxtpx:hr>144</gpxtpx:hr></gpxtpx:TrackPointExtension></extensions>
      </trkpt>
      <trkpt lat="59.225311230707" lon="17.926392496406">
        <ele>84.2</ele>
        <time>2016-04-25T19:07:05Z</time>
        <extensions><gpxtpx:TrackPointExtension><gpxtpx:hr>142</gpxtpx:hr></gpxtpx:TrackPointExtension></extensions>
      </trkpt>
      <trkpt lat="59.225345009764" lon="17.926480757813">
        <ele>85.2</ele>
        <time>2016-04-25T19:07:06Z</time>
        <extensions><gpxtpx:TrackPointExtension><gpxtpx:hr>142</gpxtpx:hr></gpxtpx:TrackPointExtension></extensions>
      </trkpt>
      <trkpt lat="59.225381471029" lon="17.926567761935">
        <ele>85.6</ele>
        <time>2016-04-25T19:07:07Z</time>
        <extensions><gpxtpx:TrackPointExtension><gpxtpx:hr>142</gpxtpx:hr></gpxtpx:TrackPointExtension></extensions>
      </trkpt>
      <trkpt lat="59.225414747172" lon="17.926656526256">
        <ele>86</ele>
        <time>2016-04-25T19:07:08Z</time>
        <extensions><gpxtpx:TrackPointExtension><gpxtpx:hr>142</gpxtpx:hr></gpxtpx:TrackPointExtension></extensions>
      </trkpt>
      <trkpt lat="59.225450202609" lon="17.92675174464">
        <ele>86.6</ele>
        <time>2016-04-25T19:07:09Z</time>
        <extensions><gpxtpx:TrackPointExtension><gpxtpx:hr>143</gpxtpx:hr></gpxtpx:TrackPointExtension></extensions>
      </trkpt>
      <trkpt lat="59.225490268091" lon="17.926842855893">
        <ele>87</ele>
        <time>2016-04-25T19:07:10Z</time>
        <extensions><gpxtpx:TrackPointExtension><gpxtpx:hr>144</gpxtpx:hr></gpxtpx:TrackPointExtension></extensions>
      </trkpt>
      <trkpt lat="59.225523963329" lon="17.926940840304">
        <ele>87.6</ele>
        <time>2016-04-25T19:07:11Z</time>
        <extensions><gpxtpx:TrackPointExtension><gpxtpx:hr>144</gpxtpx:hr></gpxtpx:TrackPointExtension></extensions>
      </trkpt>
      <trkpt lat="59.225558832033" lon="17.927038573258">
        <ele>88</ele>
        <time>2016-04-25T19:07:12Z</time>
        <extensions><gpxtpx:TrackPointExtension><gpxtpx:hr>145</gpxtpx:hr></gpxtpx:TrackPointExtension></extensions>
      </trkpt>
      <trkpt lat="59.22559009652" lon="17.927136557669">
        <ele>88.6</ele>
        <time>2016-04-25T19:07:13Z</time>
        <extensions><gpxtpx:TrackPointExtension><gpxtpx:hr>146</gpxtpx:hr></gpxtpx:TrackPointExtension></extensions>
      </trkpt>
      <trkpt lat="59.225618846437" lon="17.92724543855">
        <ele>89</ele>
        <time>2016-04-25T19:07:14Z</time>
        <extensions><gpxtpx:TrackPointExtension><gpxtpx:hr>146</gpxtpx:hr></gpxtpx:TrackPointExtension></extensions>
      </trkpt>
      <trkpt lat="59.225651619666" lon="17.927352140137">
        <ele>89.4</ele>
        <time>2016-04-25T19:07:15Z</time>
        <extensions><gpxtpx:TrackPointExtension><gpxtpx:hr>146</gpxtpx:hr></gpxtpx:TrackPointExtension></extensions>
      </trkpt>
      <trkpt lat="59.225685566361" lon="17.927472671859">
        <ele>89.8</ele>
        <time>2016-04-25T19:07:16Z</time>
        <extensions><gpxtpx:TrackPointExtension><gpxtpx:hr>148</gpxtpx:hr></gpxtpx:TrackPointExtension></extensions>
      </trkpt>
      <trkpt lat="59.22572169235" lon="17.927596723979">
        <ele>90.2</ele>
        <time>2016-04-25T19:07:17Z</time>
        <extensions><gpxtpx:TrackPointExtension><gpxtpx:hr>149</gpxtpx:hr></gpxtpx:TrackPointExtension></extensions>
      </trkpt>
      <trkpt lat="59.225746670412" lon="17.927729577094">
        <ele>90.2</ele>
        <time>2016-04-25T19:07:18Z</time>
        <extensions><gpxtpx:TrackPointExtension><gpxtpx:hr>150</gpxtpx:hr></gpxtpx:TrackPointExtension></extensions>
      </trkpt>
      <trkpt lat="59.225794447242" lon="17.928021518671">
        <ele>90.2</ele>
        <time>2016-04-25T19:07:20Z</time>
        <extensions><gpxtpx:TrackPointExtension><gpxtpx:hr>157</gpxtpx:hr></gpxtpx:TrackPointExtension></extensions>
      </trkpt>
      <trkpt lat="59.225812803603" lon="17.928179936581">
        <ele>90.2</ele>
        <time>2016-04-25T19:07:21Z</time>
        <extensions><gpxtpx:TrackPointExtension><gpxtpx:hr>157</gpxtpx:hr></gpxtpx:TrackPointExtension></extensions>
      </trkpt>
      <trkpt lat="59.225832836344" lon="17.928645802583">
        <ele>90.2</ele>
        <time>2016-04-25T19:07:24Z</time>
        <extensions><gpxtpx:TrackPointExtension><gpxtpx:hr>156</gpxtpx:hr></gpxtpx:TrackPointExtension></extensions>
      </trkpt>
      <trkpt lat="59.22582562791" lon="17.928807992348">
        <ele>90.2</ele>
        <time>2016-04-25T19:07:25Z</time>
        <extensions><gpxtpx:TrackPointExtension><gpxtpx:hr>156</gpxtpx:hr></gpxtpx:TrackPointExtension></extensions>
      </trkpt>
      <trkpt lat="59.2258180842" lon="17.928963141317">
        <ele>89.8</ele>
        <time>2016-04-25T19:07:26Z</time>
        <extensions><gpxtpx:TrackPointExtension><gpxtpx:hr>156</gpxtpx:hr></gpxtpx:TrackPointExtension></extensions>
      </trkpt>
      <trkpt lat="59.225814144707" lon="17.929125666358">
        <ele>89.4</ele>
        <time>2016-04-25T19:07:27Z</time>
        <extensions><gpxtpx:TrackPointExtension><gpxtpx:hr>156</gpxtpx:hr></gpxtpx:TrackPointExtension></extensions>
      </trkpt>
      <trkpt lat="59.225812719784" lon="17.929283162259">
        <ele>88.8</ele>
        <time>2016-04-25T19:07:28Z</time>
        <extensions><gpxtpx:TrackPointExtension><gpxtpx:hr>156</gpxtpx:hr></gpxtpx:TrackPointExtension></extensions>
      </trkpt>
      <trkpt lat="59.225809450843" lon="17.929439484694">
        <ele>88.4</ele>
        <time>2016-04-25T19:07:29Z</time>
        <extensions><gpxtpx:TrackPointExtension><gpxtpx:hr>156</gpxtpx:hr></gpxtpx:TrackPointExtension></extensions>
      </trkpt>
      <trkpt lat="59.225802745323" lon="17.929603518477">
        <ele>88</ele>
        <time>2016-04-25T19:07:30Z</time>
        <extensions><gpxtpx:TrackPointExtension><gpxtpx:hr>156</gpxtpx:hr></gpxtpx:TrackPointExtension></extensions>
      </trkpt>
      <trkpt lat="59.225796207441" lon="17.929911637121">
        <ele>88</ele>
        <time>2016-04-25T19:07:32Z</time>
        <extensions><gpxtpx:TrackPointExtension><gpxtpx:hr>156</gpxtpx:hr></gpxtpx:TrackPointExtension></extensions>
      </trkpt>
      <trkpt lat="59.225796458898" lon="17.930064020063">
        <ele>88</ele>
        <time>2016-04-25T19:07:33Z</time>
        <extensions><gpxtpx:TrackPointExtension><gpxtpx:hr>151</gpxtpx:hr></gpxtpx:TrackPointExtension></extensions>
      </trkpt>
      <trkpt lat="59.225792184129" lon="17.930214223711">
        <ele>88</ele>
        <time>2016-04-25T19:07:34Z</time>
        <extensions><gpxtpx:TrackPointExtension><gpxtpx:hr>151</gpxtpx:hr></gpxtpx:TrackPointExtension></extensions>
      </trkpt>
      <trkpt lat="59.225822358969" lon="17.930975467869">
        <ele>87.4</ele>
        <time>2016-04-25T19:07:39Z</time>
        <extensions><gpxtpx:TrackPointExtension><gpxtpx:hr>154</gpxtpx:hr></gpxtpx:TrackPointExtension></extensions>
      </trkpt>
      <trkpt lat="59.225840212416" lon="17.931128437544">
        <ele>87</ele>
        <time>2016-04-25T19:07:40Z</time>
        <extensions><gpxtpx:TrackPointExtension><gpxtpx:hr>154</gpxtpx:hr></gpxtpx:TrackPointExtension></extensions>
      </trkpt>
      <trkpt lat="59.225859742243" lon="17.931279814658">
        <ele>86.6</ele>
        <time>2016-04-25T19:07:41Z</time>
        <extensions><gpxtpx:TrackPointExtension><gpxtpx:hr>153</gpxtpx:hr></gpxtpx:TrackPointExtension></extensions>
      </trkpt>
      <trkpt lat="59.225882121916" lon="17.9314321976">
        <ele>86.2</ele>
        <time>2016-04-25T19:07:42Z</time>
        <extensions><gpxtpx:TrackPointExtension><gpxtpx:hr>153</gpxtpx:hr></gpxtpx:TrackPointExtension></extensions>
      </trkpt>
      <trkpt lat="59.225903160485" lon="17.931592794804">
        <ele>85.8</ele>
        <time>2016-04-25T19:07:43Z</time>
        <extensions><gpxtpx:TrackPointExtension><gpxtpx:hr>153</gpxtpx:hr></gpxtpx:TrackPointExtension></extensions>
      </trkpt>
      <trkpt lat="59.225938615922" lon="17.931922790207">
        <ele>85.8</ele>
        <time>2016-04-25T19:07:45Z</time>
        <extensions><gpxtpx:TrackPointExtension><gpxtpx:hr>152</gpxtpx:hr></gpxtpx:TrackPointExtension></extensions>
      </trkpt>
      <trkpt lat="59.22597985487" lon="17.932279440052">
        <ele>85.4</ele>
        <time>2016-04-25T19:07:47Z</time>
        <extensions><gpxtpx:TrackPointExtension><gpxtpx:hr>152</gpxtpx:hr></gpxtpx:TrackPointExtension></extensions>
      </trkpt>
      <trkpt lat="59.22600416238" lon="17.932458225979">
        <ele>85</ele>
        <time>2016-04-25T19:07:48Z</time>
        <extensions><gpxtpx:TrackPointExtension><gpxtpx:hr>152</gpxtpx:hr></gpxtpx:TrackPointExtension></extensions>
      </trkpt>
      <trkpt lat="59.226029391899" lon="17.932639694114">
        <ele>84.6</ele>
        <time>2016-04-25T19:07:49Z</time>
        <extensions><gpxtpx:TrackPointExtension><gpxtpx:hr>152</gpxtpx:hr></gpxtpx:TrackPointExtension></extensions>
      </trkpt>
      <trkpt lat="59.226054537599" lon="17.932820407878">
        <ele>84</ele>
        <time>2016-04-25T19:07:50Z</time>
        <extensions><gpxtpx:TrackPointExtension><gpxtpx:hr>151</gpxtpx:hr></gpxtpx:TrackPointExtension></extensions>
      </trkpt>
      <trkpt lat="59.226083455154" lon="17.93300548023">
        <ele>83.6</ele>
        <time>2016-04-25T19:07:51Z</time>
        <extensions><gpxtpx:TrackPointExtension><gpxtpx:hr>150</gpxtpx:hr></gpxtpx:TrackPointExtension></extensions>
      </trkpt>
      <trkpt lat="59.22611480346" lon="17.933192983333">
        <ele>83.2</ele>
        <time>2016-04-25T19:07:52Z</time>
        <extensions><gpxtpx:TrackPointExtension><gpxtpx:hr>150</gpxtpx:hr></gpxtpx:TrackPointExtension></extensions>
      </trkpt>
      <trkpt lat="59.226152186734" lon="17.93337596021">
        <ele>82.8</ele>
        <time>2016-04-25T19:07:53Z</time>
        <extensions><gpxtpx:TrackPointExtension><gpxtpx:hr>149</gpxtpx:hr></gpxtpx:TrackPointExtension></extensions>
      </trkpt>
      <trkpt lat="59.226187139257" lon="17.933575700887">
        <ele>82.4</ele>
        <time>2016-04-25T19:07:54Z</time>
        <extensions><gpxtpx:TrackPointExtension><gpxtpx:hr>148</gpxtpx:hr></gpxtpx:TrackPointExtension></extensions>
      </trkpt>
      <trkpt lat="59.226219325753" lon="17.933765886198">
        <ele>81.6</ele>
        <time>2016-04-25T19:07:55Z</time>
        <extensions><gpxtpx:TrackPointExtension><gpxtpx:hr>148</gpxtpx:hr></gpxtpx:TrackPointExtension></extensions>
      </trkpt>
      <trkpt lat="59.226254194457" lon="17.933960094821">
        <ele>81.6</ele>
        <time>2016-04-25T19:07:56Z</time>
        <extensions><gpxtpx:TrackPointExtension><gpxtpx:hr>147</gpxtpx:hr></gpxtpx:TrackPointExtension></extensions>
      </trkpt>
      <trkpt lat="59.226292248283" lon="17.934153968168">
        <ele>81</ele>
        <time>2016-04-25T19:07:57Z</time>
        <extensions><gpxtpx:TrackPointExtension><gpxtpx:hr>147</gpxtpx:hr></gpxtpx:TrackPointExtension></extensions>
      </trkpt>
      <trkpt lat="59.226334995973" lon="17.934348176791">
        <ele>80.6</ele>
        <time>2016-04-25T19:07:58Z</time>
        <extensions><gpxtpx:TrackPointExtension><gpxtpx:hr>147</gpxtpx:hr></gpxtpx:TrackPointExtension></extensions>
      </trkpt>
      <trkpt lat="59.226381096423" lon="17.934542217776">
        <ele>80.2</ele>
        <time>2016-04-25T19:07:59Z</time>
        <extensions><gpxtpx:TrackPointExtension><gpxtpx:hr>146</gpxtpx:hr></gpxtpx:TrackPointExtension></extensions>
      </trkpt>
      <trkpt lat="59.226432142194" lon="17.934730223793">
        <ele>79.6</ele>
        <time>2016-04-25T19:08:00Z</time>
        <extensions><gpxtpx:TrackPointExtension><gpxtpx:hr>145</gpxtpx:hr></gpxtpx:TrackPointExtension></extensions>
      </trkpt>
      <trkpt lat="59.226488384743" lon="17.934930215927">
        <ele>78.8</ele>
        <time>2016-04-25T19:08:01Z</time>
        <extensions><gpxtpx:TrackPointExtension><gpxtpx:hr>145</gpxtpx:hr></gpxtpx:TrackPointExtension></extensions>
      </trkpt>
      <trkpt lat="59.226546974224" lon="17.935113276623">
        <ele>78.2</ele>
        <time>2016-04-25T19:08:02Z</time>
        <extensions><gpxtpx:TrackPointExtension><gpxtpx:hr>144</gpxtpx:hr></gpxtpx:TrackPointExtension></extensions>
      </trkpt>
      <trkpt lat="59.226617466003" lon="17.935287536324">
        <ele>77.6</ele>
        <time>2016-04-25T19:08:03Z</time>
        <extensions><gpxtpx:TrackPointExtension><gpxtpx:hr>144</gpxtpx:hr></gpxtpx:TrackPointExtension></extensions>
      </trkpt>
      <trkpt lat="59.226696255863" lon="17.93544545132">
        <ele>76.8</ele>
        <time>2016-04-25T19:08:04Z</time>
        <extensions><gpxtpx:TrackPointExtension><gpxtpx:hr>144</gpxtpx:hr></gpxtpx:TrackPointExtension></extensions>
      </trkpt>
      <trkpt lat="59.226778230845" lon="17.93559716371">
        <ele>76.4</ele>
        <time>2016-04-25T19:08:05Z</time>
        <extensions><gpxtpx:TrackPointExtension><gpxtpx:hr>143</gpxtpx:hr></gpxtpx:TrackPointExtension></extensions>
      </trkpt>
      <trkpt lat="59.226860541103" lon="17.935748457005">
        <ele>76</ele>
        <time>2016-04-25T19:08:06Z</time>
        <extensions><gpxtpx:TrackPointExtension><gpxtpx:hr>142</gpxtpx:hr></gpxtpx:TrackPointExtension></extensions>
      </trkpt>
      <trkpt lat="59.226947377587" lon="17.935890781667">
        <ele>75.4</ele>
        <time>2016-04-25T19:08:07Z</time>
        <extensions><gpxtpx:TrackPointExtension><gpxtpx:hr>141</gpxtpx:hr></gpxtpx:TrackPointExtension></extensions>
      </trkpt>
      <trkpt lat="59.227042763609" lon="17.936015504339">
        <ele>75</ele>
        <time>2016-04-25T19:08:08Z</time>
        <extensions><gpxtpx:TrackPointExtension><gpxtpx:hr>141</gpxtpx:hr></gpxtpx:TrackPointExtension></extensions>
      </trkpt>
      <trkpt lat="59.22714745354" lon="17.936137125708">
        <ele>74.6</ele>
        <time>2016-04-25T19:08:09Z</time>
        <extensions><gpxtpx:TrackPointExtension><gpxtpx:hr>141</gpxtpx:hr></gpxtpx:TrackPointExtension></extensions>
      </trkpt>
      <trkpt lat="59.227247449607" lon="17.936252209195">
        <ele>74</ele>
        <time>2016-04-25T19:08:10Z</time>
        <extensions><gpxtpx:TrackPointExtension><gpxtpx:hr>140</gpxtpx:hr></gpxtpx:TrackPointExtension></extensions>
      </trkpt>
      <trkpt lat="59.227346523665" lon="17.936361760628">
        <ele>73.6</ele>
        <time>2016-04-25T19:08:11Z</time>
        <extensions><gpxtpx:TrackPointExtension><gpxtpx:hr>138</gpxtpx:hr></gpxtpx:TrackPointExtension></extensions>
      </trkpt>
      <trkpt lat="59.227446519732" lon="17.936458236297">
        <ele>73</ele>
        <time>2016-04-25T19:08:12Z</time>
        <extensions><gpxtpx:TrackPointExtension><gpxtpx:hr>138</gpxtpx:hr></gpxtpx:TrackPointExtension></extensions>
      </trkpt>
      <trkpt lat="59.227547521627" lon="17.936545743333">
        <ele>72.4</ele>
        <time>2016-04-25T19:08:13Z</time>
        <extensions><gpxtpx:TrackPointExtension><gpxtpx:hr>138</gpxtpx:hr></gpxtpx:TrackPointExtension></extensions>
      </trkpt>
      <trkpt lat="59.227651876282" lon="17.936636603129">
        <ele>71.8</ele>
        <time>2016-04-25T19:08:14Z</time>
        <extensions><gpxtpx:TrackPointExtension><gpxtpx:hr>138</gpxtpx:hr></gpxtpx:TrackPointExtension></extensions>
      </trkpt>
      <trkpt lat="59.227763607009" lon="17.936707430184">
        <ele>71.2</ele>
        <time>2016-04-25T19:08:15Z</time>
        <extensions><gpxtpx:TrackPointExtension><gpxtpx:hr>138</gpxtpx:hr></gpxtpx:TrackPointExtension></extensions>
      </trkpt>
      <trkpt lat="59.227879947781" lon="17.936772641366">
        <ele>70.8</ele>
        <time>2016-04-25T19:08:16Z</time>
        <extensions><gpxtpx:TrackPointExtension><gpxtpx:hr>138</gpxtpx:hr></gpxtpx:TrackPointExtension></extensions>
      </trkpt>
      <trkpt lat="59.227991594689" lon="17.936834918883">
        <ele>70.2</ele>
        <time>2016-04-25T19:08:17Z</time>
        <extensions><gpxtpx:TrackPointExtension><gpxtpx:hr>138</gpxtpx:hr></gpxtpx:TrackPointExtension></extensions>
      </trkpt>
      <trkpt lat="59.228106845814" lon="17.936895436201">
        <ele>69.8</ele>
        <time>2016-04-25T19:08:18Z</time>
        <extensions><gpxtpx:TrackPointExtension><gpxtpx:hr>138</gpxtpx:hr></gpxtpx:TrackPointExtension></extensions>
      </trkpt>
      <trkpt lat="59.22822285131" lon="17.936962659039">
        <ele>69.4</ele>
        <time>2016-04-25T19:08:19Z</time>
        <extensions><gpxtpx:TrackPointExtension><gpxtpx:hr>137</gpxtpx:hr></gpxtpx:TrackPointExtension></extensions>
      </trkpt>
      <trkpt lat="59.228342293385" lon="17.937030552429">
        <ele>68.4</ele>
        <time>2016-04-25T19:08:20Z</time>
        <extensions><gpxtpx:TrackPointExtension><gpxtpx:hr>137</gpxtpx:hr></gpxtpx:TrackPointExtension></extensions>
      </trkpt>
      <trkpt lat="59.228461567822" lon="17.937090902109">
        <ele>67.6</ele>
        <time>2016-04-25T19:08:21Z</time>
        <extensions><gpxtpx:TrackPointExtension><gpxtpx:hr>136</gpxtpx:hr></gpxtpx:TrackPointExtension></extensions>
      </trkpt>
      <trkpt lat="59.228582518639" lon="17.93714194788">
        <ele>67</ele>
        <time>2016-04-25T19:08:22Z</time>
        <extensions><gpxtpx:TrackPointExtension><gpxtpx:hr>136</gpxtpx:hr></gpxtpx:TrackPointExtension></extensions>
      </trkpt>
      <trkpt lat="59.228705481112" lon="17.937194921488">
        <ele>66.2</ele>
        <time>2016-04-25T19:08:23Z</time>
        <extensions><gpxtpx:TrackPointExtension><gpxtpx:hr>136</gpxtpx:hr></gpxtpx:TrackPointExtension></extensions>
      </trkpt>
      <trkpt lat="59.228831461069" lon="17.937245129069">
        <ele>65.4</ele>
        <time>2016-04-25T19:08:24Z</time>
        <extensions><gpxtpx:TrackPointExtension><gpxtpx:hr>136</gpxtpx:hr></gpxtpx:TrackPointExtension></extensions>
      </trkpt>
      <trkpt lat="59.228954172085" lon="17.937288966406">
        <ele>64.4</ele>
        <time>2016-04-25T19:08:25Z</time>
        <extensions><gpxtpx:TrackPointExtension><gpxtpx:hr>136</gpxtpx:hr></gpxtpx:TrackPointExtension></extensions>
      </trkpt>
      <trkpt lat="59.229077888929" lon="17.93733556977">
        <ele>63.6</ele>
        <time>2016-04-25T19:08:26Z</time>
        <extensions><gpxtpx:TrackPointExtension><gpxtpx:hr>136</gpxtpx:hr></gpxtpx:TrackPointExtension></extensions>
      </trkpt>
      <trkpt lat="59.229197331004" lon="17.937382424591">
        <ele>63</ele>
        <time>2016-04-25T19:08:27Z</time>
        <extensions><gpxtpx:TrackPointExtension><gpxtpx:hr>136</gpxtpx:hr></gpxtpx:TrackPointExtension></extensions>
      </trkpt>
      <trkpt lat="59.229318281821" lon="17.937430536697">
        <ele>62.2</ele>
        <time>2016-04-25T19:08:28Z</time>
        <extensions><gpxtpx:TrackPointExtension><gpxtpx:hr>136</gpxtpx:hr></gpxtpx:TrackPointExtension></extensions>
      </trkpt>
      <trkpt lat="59.229429090539" lon="17.937476301871">
        <ele>61.4</ele>
        <time>2016-04-25T19:08:29Z</time>
        <extensions><gpxtpx:TrackPointExtension><gpxtpx:hr>136</gpxtpx:hr></gpxtpx:TrackPointExtension></extensions>
      </trkpt>
      <trkpt lat="59.229540988904" lon="17.937518043733">
        <ele>60.6</ele>
        <time>2016-04-25T19:08:30Z</time>
        <extensions><gpxtpx:TrackPointExtension><gpxtpx:hr>140</gpxtpx:hr></gpxtpx:TrackPointExtension></extensions>
      </trkpt>
      <trkpt lat="59.229650624156" lon="17.937556935749">
        <ele>60</ele>
        <time>2016-04-25T19:08:31Z</time>
        <extensions><gpxtpx:TrackPointExtension><gpxtpx:hr>140</gpxtpx:hr></gpxtpx:TrackPointExtension></extensions>
      </trkpt>
      <trkpt lat="59.229760594684" lon="17.937592139729">
        <ele>59.2</ele>
        <time>2016-04-25T19:08:32Z</time>
        <extensions><gpxtpx:TrackPointExtension><gpxtpx:hr>135</gpxtpx:hr></gpxtpx:TrackPointExtension></extensions>
      </trkpt>
      <trkpt lat="59.229863859692" lon="17.937618123619">
        <ele>58.6</ele>
        <time>2016-04-25T19:08:33Z</time>
        <extensions><gpxtpx:TrackPointExtension><gpxtpx:hr>133</gpxtpx:hr></gpxtpx:TrackPointExtension></extensions>
      </trkpt>
      <trkpt lat="59.230071395536" lon="17.937686855199">
        <ele>58.6</ele>
        <time>2016-04-25T19:08:35Z</time>
        <extensions><gpxtpx:TrackPointExtension><gpxtpx:hr>125</gpxtpx:hr></gpxtpx:TrackPointExtension></extensions>
      </trkpt>
      <trkpt lat="59.230264430693" lon="17.937763381946">
        <ele>58.6</ele>
        <time>2016-04-25T19:08:37Z</time>
        <extensions><gpxtpx:TrackPointExtension><gpxtpx:hr>122</gpxtpx:hr></gpxtpx:TrackPointExtension></extensions>
      </trkpt>
      <trkpt lat="59.2303526921" lon="17.937805542903">
        <ele>58.6</ele>
        <time>2016-04-25T19:08:38Z</time>
        <extensions><gpxtpx:TrackPointExtension><gpxtpx:hr>121</gpxtpx:hr></gpxtpx:TrackPointExtension></extensions>
      </trkpt>
      <trkpt lat="59.230520413919" lon="17.937875615587">
        <ele>58.6</ele>
        <time>2016-04-25T19:08:40Z</time>
        <extensions><gpxtpx:TrackPointExtension><gpxtpx:hr>118</gpxtpx:hr></gpxtpx:TrackPointExtension></extensions>
      </trkpt>
      <trkpt lat="59.230626025859" lon="17.937916016345">
        <ele>58.6</ele>
        <time>2016-04-25T19:08:42Z</time>
        <extensions><gpxtpx:TrackPointExtension><gpxtpx:hr>117</gpxtpx:hr></gpxtpx:TrackPointExtension></extensions>
      </trkpt>
      <trkpt lat="59.230654943414" lon="17.937927080453">
        <ele>59</ele>
        <time>2016-04-25T19:08:43Z</time>
        <extensions><gpxtpx:TrackPointExtension><gpxtpx:hr>115</gpxtpx:hr></gpxtpx:TrackPointExtension></extensions>
      </trkpt>
      <trkpt lat="59.230673048318" lon="17.937932444869">
        <ele>59.6</ele>
        <time>2016-04-25T19:08:44Z</time>
        <extensions><gpxtpx:TrackPointExtension><gpxtpx:hr>113</gpxtpx:hr></gpxtpx:TrackPointExtension></extensions>
      </trkpt>
      <trkpt lat="59.230683609512" lon="17.937935462353">
        <ele>60.6</ele>
        <time>2016-04-25T19:08:45Z</time>
        <extensions><gpxtpx:TrackPointExtension><gpxtpx:hr>111</gpxtpx:hr></gpxtpx:TrackPointExtension></extensions>
      </trkpt>
      <trkpt lat="59.23069299724" lon="17.937937054914">
        <ele>61.2</ele>
        <time>2016-04-25T19:08:46Z</time>
        <extensions><gpxtpx:TrackPointExtension><gpxtpx:hr>108</gpxtpx:hr></gpxtpx:TrackPointExtension></extensions>
      </trkpt>
      <trkpt lat="59.230704480443" lon="17.937945352995">
        <ele>61.2</ele>
        <time>2016-04-25T19:08:49Z</time>
        <extensions><gpxtpx:TrackPointExtension><gpxtpx:hr>105</gpxtpx:hr></gpxtpx:TrackPointExtension></extensions>
      </trkpt>
      <trkpt lat="59.230713784352" lon="17.937954489266">
        <ele>63.2</ele>
        <time>2016-04-25T19:09:17Z</time>
        <extensions><gpxtpx:TrackPointExtension><gpxtpx:hr>91</gpxtpx:hr></gpxtpx:TrackPointExtension></extensions>
      </trkpt>
      <trkpt lat="59.230735912568" lon="17.937962619709">
        <ele>63.2</ele>
        <time>2016-04-25T19:09:18Z</time>
        <extensions><gpxtpx:TrackPointExtension><gpxtpx:hr>91</gpxtpx:hr></gpxtpx:TrackPointExtension></extensions>
      </trkpt>
      <trkpt lat="59.230850744598" lon="17.937950633592">
        <ele>63.2</ele>
        <time>2016-04-25T19:09:21Z</time>
        <extensions><gpxtpx:TrackPointExtension><gpxtpx:hr>94</gpxtpx:hr></gpxtpx:TrackPointExtension></extensions>
      </trkpt>
      <trkpt lat="59.23090086836" lon="17.93790637716">
        <ele>63.2</ele>
        <time>2016-04-25T19:09:22Z</time>
        <extensions><gpxtpx:TrackPointExtension><gpxtpx:hr>99</gpxtpx:hr></gpxtpx:TrackPointExtension></extensions>
      </trkpt>
      <trkpt lat="59.23093858691" lon="17.937817193744">
        <ele>63.2</ele>
        <time>2016-04-25T19:09:23Z</time>
        <extensions><gpxtpx:TrackPointExtension><gpxtpx:hr>104</gpxtpx:hr></gpxtpx:TrackPointExtension></extensions>
      </trkpt>
      <trkpt lat="59.230949902475" lon="17.937700517696">
        <ele>63.2</ele>
        <time>2016-04-25T19:09:24Z</time>
        <extensions><gpxtpx:TrackPointExtension><gpxtpx:hr>108</gpxtpx:hr></gpxtpx:TrackPointExtension></extensions>
      </trkpt>
      <trkpt lat="59.23096373261" lon="17.937561713432">
        <ele>63.2</ele>
        <time>2016-04-25T19:09:25Z</time>
        <extensions><gpxtpx:TrackPointExtension><gpxtpx:hr>109</gpxtpx:hr></gpxtpx:TrackPointExtension></extensions>
      </trkpt>
      <trkpt lat="59.230969013207" lon="17.937413605259">
        <ele>63.2</ele>
        <time>2016-04-25T19:09:26Z</time>
        <extensions><gpxtpx:TrackPointExtension><gpxtpx:hr>109</gpxtpx:hr></gpxtpx:TrackPointExtension></extensions>
      </trkpt>
      <trkpt lat="59.230985022636" lon="17.937102385312">
        <ele>63.2</ele>
        <time>2016-04-25T19:09:28Z</time>
        <extensions><gpxtpx:TrackPointExtension><gpxtpx:hr>113</gpxtpx:hr></gpxtpx:TrackPointExtension></extensions>
      </trkpt>
      <trkpt lat="59.230995751468" lon="17.936943213031">
        <ele>63.2</ele>
        <time>2016-04-25T19:09:29Z</time>
        <extensions><gpxtpx:TrackPointExtension><gpxtpx:hr>116</gpxtpx:hr></gpxtpx:TrackPointExtension></extensions>
      </trkpt>
      <trkpt lat="59.231007486128" lon="17.936772641366">
        <ele>63.2</ele>
        <time>2016-04-25T19:09:30Z</time>
        <extensions><gpxtpx:TrackPointExtension><gpxtpx:hr>119</gpxtpx:hr></gpxtpx:TrackPointExtension></extensions>
      </trkpt>
      <trkpt lat="59.231037409511" lon="17.936431665674">
        <ele>63.2</ele>
        <time>2016-04-25T19:09:32Z</time>
        <extensions><gpxtpx:TrackPointExtension><gpxtpx:hr>122</gpxtpx:hr></gpxtpx:TrackPointExtension></extensions>
      </trkpt>
      <trkpt lat="59.231073786957" lon="17.936092701638">
        <ele>63.2</ele>
        <time>2016-04-25T19:09:34Z</time>
        <extensions><gpxtpx:TrackPointExtension><gpxtpx:hr>126</gpxtpx:hr></gpxtpx:TrackPointExtension></extensions>
      </trkpt>
      <trkpt lat="59.231122234339" lon="17.935752145041">
        <ele>62.8</ele>
        <time>2016-04-25T19:09:36Z</time>
        <extensions><gpxtpx:TrackPointExtension><gpxtpx:hr>128</gpxtpx:hr></gpxtpx:TrackPointExtension></extensions>
      </trkpt>
      <trkpt lat="59.231147715315" lon="17.935580316091">
        <ele>62.4</ele>
        <time>2016-04-25T19:09:37Z</time>
        <extensions><gpxtpx:TrackPointExtension><gpxtpx:hr>128</gpxtpx:hr></gpxtpx:TrackPointExtension></extensions>
      </trkpt>
      <trkpt lat="59.231175375585" lon="17.935400859612">
        <ele>62</ele>
        <time>2016-04-25T19:09:38Z</time>
        <extensions><gpxtpx:TrackPointExtension><gpxtpx:hr>128</gpxtpx:hr></gpxtpx:TrackPointExtension></extensions>
      </trkpt>
      <trkpt lat="59.231205382787" lon="17.935233892164">
        <ele>61.4</ele>
        <time>2016-04-25T19:09:39Z</time>
        <extensions><gpxtpx:TrackPointExtension><gpxtpx:hr>128</gpxtpx:hr></gpxtpx:TrackPointExtension></extensions>
      </trkpt>
      <trkpt lat="59.231239832396" lon="17.935066924716">
        <ele>61</ele>
        <time>2016-04-25T19:09:40Z</time>
        <extensions><gpxtpx:TrackPointExtension><gpxtpx:hr>130</gpxtpx:hr></gpxtpx:TrackPointExtension></extensions>
      </trkpt>
      <trkpt lat="59.231317281152" lon="17.934744137747">
        <ele>61</ele>
        <time>2016-04-25T19:09:42Z</time>
        <extensions><gpxtpx:TrackPointExtension><gpxtpx:hr>133</gpxtpx:hr></gpxtpx:TrackPointExtension></extensions>
      </trkpt>
      <trkpt lat="59.231396657745" lon="17.934420847864">
        <ele>61</ele>
        <time>2016-04-25T19:09:44Z</time>
        <extensions><gpxtpx:TrackPointExtension><gpxtpx:hr>136</gpxtpx:hr></gpxtpx:TrackPointExtension></extensions>
      </trkpt>
      <trkpt lat="59.231534288543" lon="17.933957161156">
        <ele>61</ele>
        <time>2016-04-25T19:09:47Z</time>
        <extensions><gpxtpx:TrackPointExtension><gpxtpx:hr>139</gpxtpx:hr></gpxtpx:TrackPointExtension></extensions>
      </trkpt>
      <trkpt lat="59.231632943506" lon="17.933661028629">
        <ele>61</ele>
        <time>2016-04-25T19:09:49Z</time>
        <extensions><gpxtpx:TrackPointExtension><gpxtpx:hr>142</gpxtpx:hr></gpxtpx:TrackPointExtension></extensions>
      </trkpt>
      <trkpt lat="59.231910635853" lon="17.932962145807">
        <ele>61</ele>
        <time>2016-04-25T19:09:54Z</time>
        <extensions><gpxtpx:TrackPointExtension><gpxtpx:hr>145</gpxtpx:hr></gpxtpx:TrackPointExtension></extensions>
      </trkpt>
      <trkpt lat="59.232129738719" lon="17.932434589021">
        <ele>61</ele>
        <time>2016-04-25T19:09:58Z</time>
        <extensions><gpxtpx:TrackPointExtension><gpxtpx:hr>148</gpxtpx:hr></gpxtpx:TrackPointExtension></extensions>
      </trkpt>
      <trkpt lat="59.232346243196" lon="17.931894459385">
        <ele>61</ele>
        <time>2016-04-25T19:10:02Z</time>
        <extensions><gpxtpx:TrackPointExtension><gpxtpx:hr>151</gpxtpx:hr></gpxtpx:TrackPointExtension></extensions>
      </trkpt>
      <trkpt lat="59.232681854472" lon="17.930890894498">
        <ele>61</ele>
        <time>2016-04-25T19:10:09Z</time>
        <extensions><gpxtpx:TrackPointExtension><gpxtpx:hr>153</gpxtpx:hr></gpxtpx:TrackPointExtension></extensions>
      </trkpt>
      <trkpt lat="59.232953008937" lon="17.92979940348">
        <ele>61</ele>
        <time>2016-04-25T19:10:16Z</time>
        <extensions><gpxtpx:TrackPointExtension><gpxtpx:hr>153</gpxtpx:hr></gpxtpx:TrackPointExtension></extensions>
      </trkpt>
      <trkpt lat="59.233159538953" lon="17.928813859678">
        <ele>61</ele>
        <time>2016-04-25T19:10:22Z</time>
        <extensions><gpxtpx:TrackPointExtension><gpxtpx:hr>151</gpxtpx:hr></gpxtpx:TrackPointExtension></extensions>
      </trkpt>
      <trkpt lat="59.233194323838" lon="17.92865192137">
        <ele>61</ele>
        <time>2016-04-25T19:10:23Z</time>
        <extensions><gpxtpx:TrackPointExtension><gpxtpx:hr>151</gpxtpx:hr></gpxtpx:TrackPointExtension></extensions>
      </trkpt>
      <trkpt lat="59.233397333456" lon="17.927655564917">
        <ele>61</ele>
        <time>2016-04-25T19:10:29Z</time>
        <extensions><gpxtpx:TrackPointExtension><gpxtpx:hr>149</gpxtpx:hr></gpxtpx:TrackPointExtension></extensions>
      </trkpt>
      <trkpt lat="59.233431531608" lon="17.927485328528">
        <ele>61</ele>
        <time>2016-04-25T19:10:30Z</time>
        <extensions><gpxtpx:TrackPointExtension><gpxtpx:hr>149</gpxtpx:hr></gpxtpx:TrackPointExtension></extensions>
      </trkpt>
      <trkpt lat="59.233628841534" lon="17.926479584347">
        <ele>61</ele>
        <time>2016-04-25T19:10:36Z</time>
        <extensions><gpxtpx:TrackPointExtension><gpxtpx:hr>149</gpxtpx:hr></gpxtpx:TrackPointExtension></extensions>
      </trkpt>
      <trkpt lat="59.233753648025" lon="17.925810038175">
        <ele>61</ele>
        <time>2016-04-25T19:10:40Z</time>
        <extensions><gpxtpx:TrackPointExtension><gpxtpx:hr>149</gpxtpx:hr></gpxtpx:TrackPointExtension></extensions>
      </trkpt>
      <trkpt lat="59.233936876359" lon="17.924821560708">
        <ele>61</ele>
        <time>2016-04-25T19:10:46Z</time>
        <extensions><gpxtpx:TrackPointExtension><gpxtpx:hr>151</gpxtpx:hr></gpxtpx:TrackPointExtension></extensions>
      </trkpt>
      <trkpt lat="59.234000662618" lon="17.924505982173">
        <ele>61</ele>
        <time>2016-04-25T19:10:48Z</time>
        <extensions><gpxtpx:TrackPointExtension><gpxtpx:hr>152</gpxtpx:hr></gpxtpx:TrackPointExtension></extensions>
      </trkpt>
      <trkpt lat="59.234185567332" lon="17.923360846995">
        <ele>61</ele>
        <time>2016-04-25T19:10:55Z</time>
        <extensions><gpxtpx:TrackPointExtension><gpxtpx:hr>153</gpxtpx:hr></gpxtpx:TrackPointExtension></extensions>
      </trkpt>
      <trkpt lat="59.234378015756" lon="17.922226859744">
        <ele>61</ele>
        <time>2016-04-25T19:11:02Z</time>
        <extensions><gpxtpx:TrackPointExtension><gpxtpx:hr>153</gpxtpx:hr></gpxtpx:TrackPointExtension></extensions>
      </trkpt>
      <trkpt lat="59.234568536343" lon="17.921232095852">
        <ele>61</ele>
        <time>2016-04-25T19:11:08Z</time>
        <extensions><gpxtpx:TrackPointExtension><gpxtpx:hr>153</gpxtpx:hr></gpxtpx:TrackPointExtension></extensions>
      </trkpt>
      <trkpt lat="59.234602734495" lon="17.921078204168">
        <ele>61</ele>
        <time>2016-04-25T19:11:09Z</time>
        <extensions><gpxtpx:TrackPointExtension><gpxtpx:hr>153</gpxtpx:hr></gpxtpx:TrackPointExtension></extensions>
      </trkpt>
      <trkpt lat="59.234809851244" lon="17.920330957783">
        <ele>61.4</ele>
        <time>2016-04-25T19:11:14Z</time>
        <extensions><gpxtpx:TrackPointExtension><gpxtpx:hr>154</gpxtpx:hr></gpxtpx:TrackPointExtension></extensions>
      </trkpt>
      <trkpt lat="59.234850084364" lon="17.920188549302">
        <ele>61.8</ele>
        <time>2016-04-25T19:11:15Z</time>
        <extensions><gpxtpx:TrackPointExtension><gpxtpx:hr>155</gpxtpx:hr></gpxtpx:TrackPointExtension></extensions>
      </trkpt>
      <trkpt lat="59.234892496778" lon="17.920044799717">
        <ele>62.2</ele>
        <time>2016-04-25T19:11:16Z</time>
        <extensions><gpxtpx:TrackPointExtension><gpxtpx:hr>155</gpxtpx:hr></gpxtpx:TrackPointExtension></extensions>
      </trkpt>
      <trkpt lat="59.234935495925" lon="17.919909180575">
        <ele>62.6</ele>
        <time>2016-04-25T19:11:17Z</time>
        <extensions><gpxtpx:TrackPointExtension><gpxtpx:hr>155</gpxtpx:hr></gpxtpx:TrackPointExtension></extensions>
      </trkpt>
      <trkpt lat="59.234979752357" lon="17.919774064347">
        <ele>63</ele>
        <time>2016-04-25T19:11:18Z</time>
        <extensions><gpxtpx:TrackPointExtension><gpxtpx:hr>155</gpxtpx:hr></gpxtpx:TrackPointExtension></extensions>
      </trkpt>
      <trkpt lat="59.235263731129" lon="17.91894400479">
        <ele>63</ele>
        <time>2016-04-25T19:11:24Z</time>
        <extensions><gpxtpx:TrackPointExtension><gpxtpx:hr>155</gpxtpx:hr></gpxtpx:TrackPointExtension></extensions>
      </trkpt>
      <trkpt lat="59.235561456217" lon="17.918064575842">
        <ele>63</ele>
        <time>2016-04-25T19:11:30Z</time>
        <extensions><gpxtpx:TrackPointExtension><gpxtpx:hr>155</gpxtpx:hr></gpxtpx:TrackPointExtension></extensions>
      </trkpt>
      <trkpt lat="59.235661955198" lon="17.917776489939">
        <ele>63</ele>
        <time>2016-04-25T19:11:32Z</time>
        <extensions><gpxtpx:TrackPointExtension><gpxtpx:hr>154</gpxtpx:hr></gpxtpx:TrackPointExtension></extensions>
      </trkpt>
      <trkpt lat="59.235944425228" lon="17.916932432609">
        <ele>63</ele>
        <time>2016-04-25T19:11:38Z</time>
        <extensions><gpxtpx:TrackPointExtension><gpxtpx:hr>151</gpxtpx:hr></gpxtpx:TrackPointExtension></extensions>
      </trkpt>
      <trkpt lat="59.236039895069" lon="17.916655494633">
        <ele>63</ele>
        <time>2016-04-25T19:11:40Z</time>
        <extensions><gpxtpx:TrackPointExtension><gpxtpx:hr>150</gpxtpx:hr></gpxtpx:TrackPointExtension></extensions>
      </trkpt>
      <trkpt lat="59.236185488672" lon="17.916237656918">
        <ele>63</ele>
        <time>2016-04-25T19:11:43Z</time>
        <extensions><gpxtpx:TrackPointExtension><gpxtpx:hr>147</gpxtpx:hr></gpxtpx:TrackPointExtension></extensions>
      </trkpt>
      <trkpt lat="59.236417080569" lon="17.915528967273">
        <ele>63</ele>
        <time>2016-04-25T19:11:48Z</time>
        <extensions><gpxtpx:TrackPointExtension><gpxtpx:hr>144</gpxtpx:hr></gpxtpx:TrackPointExtension></extensions>
      </trkpt>
      <trkpt lat="59.236461337001" lon="17.915391923208">
        <ele>63</ele>
        <time>2016-04-25T19:11:49Z</time>
        <extensions><gpxtpx:TrackPointExtension><gpxtpx:hr>145</gpxtpx:hr></gpxtpx:TrackPointExtension></extensions>
      </trkpt>
      <trkpt lat="59.236784626884" lon="17.914371091607">
        <ele>63</ele>
        <time>2016-04-25T19:11:56Z</time>
        <extensions><gpxtpx:TrackPointExtension><gpxtpx:hr>146</gpxtpx:hr></gpxtpx:TrackPointExtension></extensions>
      </trkpt>
      <trkpt lat="59.236825782013" lon="17.914215104448">
        <ele>63</ele>
        <time>2016-04-25T19:11:57Z</time>
        <extensions><gpxtpx:TrackPointExtension><gpxtpx:hr>146</gpxtpx:hr></gpxtpx:TrackPointExtension></extensions>
      </trkpt>
      <trkpt lat="59.237002388646" lon="17.913617223521">
        <ele>63</ele>
        <time>2016-04-25T19:12:01Z</time>
        <extensions><gpxtpx:TrackPointExtension><gpxtpx:hr>143</gpxtpx:hr></gpxtpx:TrackPointExtension></extensions>
      </trkpt>
      <trkpt lat="59.237145551498" lon="17.91319485958">
        <ele>63</ele>
        <time>2016-04-25T19:12:04Z</time>
        <extensions><gpxtpx:TrackPointExtension><gpxtpx:hr>140</gpxtpx:hr></gpxtpx:TrackPointExtension></extensions>
      </trkpt>
      <trkpt lat="59.237462974051" lon="17.912147708813">
        <ele>63</ele>
        <time>2016-04-25T19:12:11Z</time>
        <extensions><gpxtpx:TrackPointExtension><gpxtpx:hr>139</gpxtpx:hr></gpxtpx:TrackPointExtension></extensions>
      </trkpt>
      <trkpt lat="59.237754999447" lon="17.911103910806">
        <ele>63</ele>
        <time>2016-04-25T19:12:18Z</time>
        <extensions><gpxtpx:TrackPointExtension><gpxtpx:hr>140</gpxtpx:hr></gpxtpx:TrackPointExtension></extensions>
      </trkpt>
      <trkpt lat="59.238034619631" lon="17.910067824147">
        <ele>63</ele>
        <time>2016-04-25T19:12:25Z</time>
        <extensions><gpxtpx:TrackPointExtension><gpxtpx:hr>141</gpxtpx:hr></gpxtpx:TrackPointExtension></extensions>
      </trkpt>
      <trkpt lat="59.238203012002" lon="17.909488299581">
        <ele>63</ele>
        <time>2016-04-25T19:12:29Z</time>
        <extensions><gpxtpx:TrackPointExtension><gpxtpx:hr>143</gpxtpx:hr></gpxtpx:TrackPointExtension></extensions>
      </trkpt>
      <trkpt lat="59.238358328609" lon="17.908901566581">
        <ele>63</ele>
        <time>2016-04-25T19:12:33Z</time>
        <extensions><gpxtpx:TrackPointExtension><gpxtpx:hr>146</gpxtpx:hr></gpxtpx:TrackPointExtension></extensions>
      </trkpt>
      <trkpt lat="59.238552537232" lon="17.908160019888">
        <ele>63</ele>
        <time>2016-04-25T19:12:38Z</time>
        <extensions><gpxtpx:TrackPointExtension><gpxtpx:hr>148</gpxtpx:hr></gpxtpx:TrackPointExtension></extensions>
      </trkpt>
      <trkpt lat="59.23881086739" lon="17.907136003165">
        <ele>63</ele>
        <time>2016-04-25T19:12:45Z</time>
        <extensions><gpxtpx:TrackPointExtension><gpxtpx:hr>148</gpxtpx:hr></gpxtpx:TrackPointExtension></extensions>
      </trkpt>
      <trkpt lat="59.238876330029" lon="17.906864429605">
        <ele>63</ele>
        <time>2016-04-25T19:12:47Z</time>
        <extensions><gpxtpx:TrackPointExtension><gpxtpx:hr>148</gpxtpx:hr></gpxtpx:TrackPointExtension></extensions>
      </trkpt>
      <trkpt lat="59.239041453459" lon="17.906200666944">
        <ele>63.6</ele>
        <time>2016-04-25T19:12:52Z</time>
        <extensions><gpxtpx:TrackPointExtension><gpxtpx:hr>148</gpxtpx:hr></gpxtpx:TrackPointExtension></extensions>
      </trkpt>
      <trkpt lat="59.239071712118" lon="17.906067143277">
        <ele>64</ele>
        <time>2016-04-25T19:12:53Z</time>
        <extensions><gpxtpx:TrackPointExtension><gpxtpx:hr>148</gpxtpx:hr></gpxtpx:TrackPointExtension></extensions>
      </trkpt>
      <trkpt lat="59.239102725148" lon="17.905937056189">
        <ele>64.4</ele>
        <time>2016-04-25T19:12:54Z</time>
        <extensions><gpxtpx:TrackPointExtension><gpxtpx:hr>149</gpxtpx:hr></gpxtpx:TrackPointExtension></extensions>
      </trkpt>
      <trkpt lat="59.23913440873" lon="17.905808561662">
        <ele>65</ele>
        <time>2016-04-25T19:12:55Z</time>
        <extensions><gpxtpx:TrackPointExtension><gpxtpx:hr>149</gpxtpx:hr></gpxtpx:TrackPointExtension></extensions>
      </trkpt>
      <trkpt lat="59.239166343769" lon="17.905686102103">
        <ele>65.4</ele>
        <time>2016-04-25T19:12:56Z</time>
        <extensions><gpxtpx:TrackPointExtension><gpxtpx:hr>149</gpxtpx:hr></gpxtpx:TrackPointExtension></extensions>
      </trkpt>
      <trkpt lat="59.239384021712" lon="17.904816647616">
        <ele>65.4</ele>
        <time>2016-04-25T19:13:03Z</time>
        <extensions><gpxtpx:TrackPointExtension><gpxtpx:hr>149</gpxtpx:hr></gpxtpx:TrackPointExtension></extensions>
      </trkpt>
      <trkpt lat="59.239544535097" lon="17.904174174981">
        <ele>65.8</ele>
        <time>2016-04-25T19:13:08Z</time>
        <extensions><gpxtpx:TrackPointExtension><gpxtpx:hr>149</gpxtpx:hr></gpxtpx:TrackPointExtension></extensions>
      </trkpt>
      <trkpt lat="59.239575129032" lon="17.90404517754">
        <ele>66.2</ele>
        <time>2016-04-25T19:13:09Z</time>
        <extensions><gpxtpx:TrackPointExtension><gpxtpx:hr>148</gpxtpx:hr></gpxtpx:TrackPointExtension></extensions>
      </trkpt>
      <trkpt lat="59.239605136234" lon="17.903920957782">
        <ele>66.6</ele>
        <time>2016-04-25T19:13:10Z</time>
        <extensions><gpxtpx:TrackPointExtension><gpxtpx:hr>149</gpxtpx:hr></gpxtpx:TrackPointExtension></extensions>
      </trkpt>
      <trkpt lat="59.239637490368" lon="17.903793217626">
        <ele>67</ele>
        <time>2016-04-25T19:13:11Z</time>
        <extensions><gpxtpx:TrackPointExtension><gpxtpx:hr>149</gpxtpx:hr></gpxtpx:TrackPointExtension></extensions>
      </trkpt>
      <trkpt lat="59.239666072647" lon="17.90366380109">
        <ele>67.4</ele>
        <time>2016-04-25T19:13:12Z</time>
        <extensions><gpxtpx:TrackPointExtension><gpxtpx:hr>149</gpxtpx:hr></gpxtpx:TrackPointExtension></extensions>
      </trkpt>
      <trkpt lat="59.239730613277" lon="17.90339893305">
        <ele>67.4</ele>
        <time>2016-04-25T19:13:14Z</time>
        <extensions><gpxtpx:TrackPointExtension><gpxtpx:hr>149</gpxtpx:hr></gpxtpx:TrackPointExtension></extensions>
      </trkpt>
      <trkpt lat="59.239794734812" lon="17.903143620376">
        <ele>67.4</ele>
        <time>2016-04-25T19:13:16Z</time>
        <extensions><gpxtpx:TrackPointExtension><gpxtpx:hr>149</gpxtpx:hr></gpxtpx:TrackPointExtension></extensions>
      </trkpt>
      <trkpt lat="59.240019285913" lon="17.902262934143">
        <ele>67.8</ele>
        <time>2016-04-25T19:13:23Z</time>
        <extensions><gpxtpx:TrackPointExtension><gpxtpx:hr>148</gpxtpx:hr></gpxtpx:TrackPointExtension></extensions>
      </trkpt>
      <trkpt lat="59.240050047486" lon="17.902139468756">
        <ele>68.2</ele>
        <time>2016-04-25T19:13:24Z</time>
        <extensions><gpxtpx:TrackPointExtension><gpxtpx:hr>148</gpxtpx:hr></gpxtpx:TrackPointExtension></extensions>
      </trkpt>
      <trkpt lat="59.240078881222" lon="17.902023547079">
        <ele>68.6</ele>
        <time>2016-04-25T19:13:25Z</time>
        <extensions><gpxtpx:TrackPointExtension><gpxtpx:hr>148</gpxtpx:hr></gpxtpx:TrackPointExtension></extensions>
      </trkpt>
      <trkpt lat="59.240104446017" lon="17.901911397257">
        <ele>69</ele>
        <time>2016-04-25T19:13:26Z</time>
        <extensions><gpxtpx:TrackPointExtension><gpxtpx:hr>148</gpxtpx:hr></gpxtpx:TrackPointExtension></extensions>
      </trkpt>
      <trkpt lat="59.24012766388" lon="17.901806539688">
        <ele>69.4</ele>
        <time>2016-04-25T19:13:27Z</time>
        <extensions><gpxtpx:TrackPointExtension><gpxtpx:hr>147</gpxtpx:hr></gpxtpx:TrackPointExtension></extensions>
      </trkpt>
      <trkpt lat="59.240181810954" lon="17.901611325237">
        <ele>69.4</ele>
        <time>2016-04-25T19:13:29Z</time>
        <extensions><gpxtpx:TrackPointExtension><gpxtpx:hr>146</gpxtpx:hr></gpxtpx:TrackPointExtension></extensions>
      </trkpt>
      <trkpt lat="59.240280633555" lon="17.901283928223">
        <ele>69.4</ele>
        <time>2016-04-25T19:13:33Z</time>
        <extensions><gpxtpx:TrackPointExtension><gpxtpx:hr>146</gpxtpx:hr></gpxtpx:TrackPointExtension></extensions>
      </trkpt>
      <trkpt lat="59.240321369589" lon="17.901264817491">
        <ele>69.4</ele>
        <time>2016-04-25T19:13:34Z</time>
        <extensions><gpxtpx:TrackPointExtension><gpxtpx:hr>145</gpxtpx:hr></gpxtpx:TrackPointExtension></extensions>
      </trkpt>
      <trkpt lat="59.240461766414" lon="17.901367411947">
        <ele>69.4</ele>
        <time>2016-04-25T19:13:37Z</time>
        <extensions><gpxtpx:TrackPointExtension><gpxtpx:hr>143</gpxtpx:hr></gpxtpx:TrackPointExtension></extensions>
      </trkpt>
      <trkpt lat="59.240498730593" lon="17.901404795221">
        <ele>69.4</ele>
        <time>2016-04-25T19:13:38Z</time>
        <extensions><gpxtpx:TrackPointExtension><gpxtpx:hr>142</gpxtpx:hr></gpxtpx:TrackPointExtension></extensions>
      </trkpt>
      <trkpt lat="59.240600905954" lon="17.901459277571">
        <ele>69.4</ele>
        <time>2016-04-25T19:13:40Z</time>
        <extensions><gpxtpx:TrackPointExtension><gpxtpx:hr>139</gpxtpx:hr></gpxtpx:TrackPointExtension></extensions>
      </trkpt>
      <trkpt lat="59.240655220666" lon="17.901494230094">
        <ele>69.8</ele>
        <time>2016-04-25T19:13:41Z</time>
        <extensions><gpxtpx:TrackPointExtension><gpxtpx:hr>139</gpxtpx:hr></gpxtpx:TrackPointExtension></extensions>
      </trkpt>
      <trkpt lat="59.2407127205" lon="17.901519543432">
        <ele>70.4</ele>
        <time>2016-04-25T19:13:42Z</time>
        <extensions><gpxtpx:TrackPointExtension><gpxtpx:hr>138</gpxtpx:hr></gpxtpx:TrackPointExtension></extensions>
      </trkpt>
      <trkpt lat="59.240765610289" lon="17.901552987213">
        <ele>70.8</ele>
        <time>2016-04-25T19:13:43Z</time>
        <extensions><gpxtpx:TrackPointExtension><gpxtpx:hr>138</gpxtpx:hr></gpxtpx:TrackPointExtension></extensions>
      </trkpt>
      <trkpt lat="59.24082000882" lon="17.901579390198">
        <ele>71.2</ele>
        <time>2016-04-25T19:13:44Z</time>
        <extensions><gpxtpx:TrackPointExtension><gpxtpx:hr>137</gpxtpx:hr></gpxtpx:TrackPointExtension></extensions>
      </trkpt>
      <trkpt lat="59.240867031279" lon="17.901607469563">
        <ele>71.6</ele>
        <time>2016-04-25T19:13:45Z</time>
        <extensions><gpxtpx:TrackPointExtension><gpxtpx:hr>137</gpxtpx:hr></gpxtpx:TrackPointExtension></extensions>
      </trkpt>
      <trkpt lat="59.24091975343" lon="17.901626831752">
        <ele>71.6</ele>
        <time>2016-04-25T19:13:46Z</time>
        <extensions><gpxtpx:TrackPointExtension><gpxtpx:hr>137</gpxtpx:hr></gpxtpx:TrackPointExtension></extensions>
      </trkpt>
      <trkpt lat="59.241025113913" lon="17.901679721541">
        <ele>72</ele>
        <time>2016-04-25T19:13:48Z</time>
        <extensions><gpxtpx:TrackPointExtension><gpxtpx:hr>137</gpxtpx:hr></gpxtpx:TrackPointExtension></extensions>
      </trkpt>
      <trkpt lat="59.241076243503" lon="17.901698916092">
        <ele>72.4</ele>
        <time>2016-04-25T19:13:49Z</time>
        <extensions><gpxtpx:TrackPointExtension><gpxtpx:hr>138</gpxtpx:hr></gpxtpx:TrackPointExtension></extensions>
      </trkpt>
      <trkpt lat="59.241118991193" lon="17.901718278281">
        <ele>72.8</ele>
        <time>2016-04-25T19:13:50Z</time>
        <extensions><gpxtpx:TrackPointExtension><gpxtpx:hr>138</gpxtpx:hr></gpxtpx:TrackPointExtension></extensions>
      </trkpt>
      <trkpt lat="59.241159978684" lon="17.901739065393">
        <ele>73.2</ele>
        <time>2016-04-25T19:13:51Z</time>
        <extensions><gpxtpx:TrackPointExtension><gpxtpx:hr>137</gpxtpx:hr></gpxtpx:TrackPointExtension></extensions>
      </trkpt>
      <trkpt lat="59.241197361958" lon="17.901753901356">
        <ele>73.6</ele>
        <time>2016-04-25T19:13:52Z</time>
        <extensions><gpxtpx:TrackPointExtension><gpxtpx:hr>137</gpxtpx:hr></gpxtpx:TrackPointExtension></extensions>
      </trkpt>
      <trkpt lat="59.241309344142" lon="17.90184241422">
        <ele>73.6</ele>
        <time>2016-04-25T19:13:56Z</time>
        <extensions><gpxtpx:TrackPointExtension><gpxtpx:hr>137</gpxtpx:hr></gpxtpx:TrackPointExtension></extensions>
      </trkpt>
      <trkpt lat="59.241412860607" lon="17.901908715049">
        <ele>74.2</ele>
        <time>2016-04-25T19:13:59Z</time>
        <extensions><gpxtpx:TrackPointExtension><gpxtpx:hr>137</gpxtpx:hr></gpxtpx:TrackPointExtension></extensions>
      </trkpt>
      <trkpt lat="59.241445214741" lon="17.901926903772">
        <ele>74.6</ele>
        <time>2016-04-25T19:14:00Z</time>
        <extensions><gpxtpx:TrackPointExtension><gpxtpx:hr>137</gpxtpx:hr></gpxtpx:TrackPointExtension></extensions>
      </trkpt>
      <trkpt lat="59.241469773708" lon="17.901936878233">
        <ele>75</ele>
        <time>2016-04-25T19:14:01Z</time>
        <extensions><gpxtpx:TrackPointExtension><gpxtpx:hr>137</gpxtpx:hr></gpxtpx:TrackPointExtension></extensions>
      </trkpt>
      <trkpt lat="59.241498775082" lon="17.90195892263">
        <ele>75.4</ele>
        <time>2016-04-25T19:14:02Z</time>
        <extensions><gpxtpx:TrackPointExtension><gpxtpx:hr>137</gpxtpx:hr></gpxtpx:TrackPointExtension></extensions>
      </trkpt>
      <trkpt lat="59.241527022085" lon="17.901975351154">
        <ele>75.8</ele>
        <time>2016-04-25T19:14:03Z</time>
        <extensions><gpxtpx:TrackPointExtension><gpxtpx:hr>136</gpxtpx:hr></gpxtpx:TrackPointExtension></extensions>
      </trkpt>
      <trkpt lat="59.241556861649" lon="17.902014494627">
        <ele>75.8</ele>
        <time>2016-04-25T19:14:04Z</time>
        <extensions><gpxtpx:TrackPointExtension><gpxtpx:hr>137</gpxtpx:hr></gpxtpx:TrackPointExtension></extensions>
      </trkpt>
      <trkpt lat="59.241571949069" lon="17.902064450751">
        <ele>75.8</ele>
        <time>2016-04-25T19:14:05Z</time>
        <extensions><gpxtpx:TrackPointExtension><gpxtpx:hr>137</gpxtpx:hr></gpxtpx:TrackPointExtension></extensions>
      </trkpt>
      <trkpt lat="59.241589215783" lon="17.902188083776">
        <ele>76.2</ele>
        <time>2016-04-25T19:14:07Z</time>
        <extensions><gpxtpx:TrackPointExtension><gpxtpx:hr>137</gpxtpx:hr></gpxtpx:TrackPointExtension></extensions>
      </trkpt>
      <trkpt lat="59.241601034262" lon="17.902255390433">
        <ele>76.6</ele>
        <time>2016-04-25T19:14:08Z</time>
        <extensions><gpxtpx:TrackPointExtension><gpxtpx:hr>137</gpxtpx:hr></gpxtpx:TrackPointExtension></extensions>
      </trkpt>
      <trkpt lat="59.241608913248" lon="17.902330324619">
        <ele>77.2</ele>
        <time>2016-04-25T19:14:09Z</time>
        <extensions><gpxtpx:TrackPointExtension><gpxtpx:hr>137</gpxtpx:hr></gpxtpx:TrackPointExtension></extensions>
      </trkpt>
      <trkpt lat="59.24162131846" lon="17.902405342624">
        <ele>77.6</ele>
        <time>2016-04-25T19:14:10Z</time>
        <extensions><gpxtpx:TrackPointExtension><gpxtpx:hr>137</gpxtpx:hr></gpxtpx:TrackPointExtension></extensions>
      </trkpt>
      <trkpt lat="59.241629448903" lon="17.902486563235">
        <ele>78</ele>
        <time>2016-04-25T19:14:11Z</time>
        <extensions><gpxtpx:TrackPointExtension><gpxtpx:hr>138</gpxtpx:hr></gpxtpx:TrackPointExtension></extensions>
      </trkpt>
      <trkpt lat="59.241646967074" lon="17.902641879842">
        <ele>78</ele>
        <time>2016-04-25T19:14:13Z</time>
        <extensions><gpxtpx:TrackPointExtension><gpxtpx:hr>138</gpxtpx:hr></gpxtpx:TrackPointExtension></extensions>
      </trkpt>
      <trkpt lat="59.241670687851" lon="17.902965085906">
        <ele>78</ele>
        <time>2016-04-25T19:14:17Z</time>
        <extensions><gpxtpx:TrackPointExtension><gpxtpx:hr>141</gpxtpx:hr></gpxtpx:TrackPointExtension></extensions>
      </trkpt>
      <trkpt lat="59.241687116375" lon="17.903211346128">
        <ele>78.4</ele>
        <time>2016-04-25T19:14:20Z</time>
        <extensions><gpxtpx:TrackPointExtension><gpxtpx:hr>144</gpxtpx:hr></gpxtpx:TrackPointExtension></extensions>
      </trkpt>
      <trkpt lat="59.241689128031" lon="17.903303295571">
        <ele>78.8</ele>
        <time>2016-04-25T19:14:21Z</time>
        <extensions><gpxtpx:TrackPointExtension><gpxtpx:hr>145</gpxtpx:hr></gpxtpx:TrackPointExtension></extensions>
      </trkpt>
      <trkpt lat="59.241694827723" lon="17.903394658281">
        <ele>79.2</ele>
        <time>2016-04-25T19:14:22Z</time>
        <extensions><gpxtpx:TrackPointExtension><gpxtpx:hr>146</gpxtpx:hr></gpxtpx:TrackPointExtension></extensions>
      </trkpt>
      <trkpt lat="59.241700359777" lon="17.903482668231">
        <ele>79.6</ele>
        <time>2016-04-25T19:14:23Z</time>
        <extensions><gpxtpx:TrackPointExtension><gpxtpx:hr>147</gpxtpx:hr></gpxtpx:TrackPointExtension></extensions>
      </trkpt>
      <trkpt lat="59.241707987306" lon="17.903570762">
        <ele>80</ele>
        <time>2016-04-25T19:14:24Z</time>
        <extensions><gpxtpx:TrackPointExtension><gpxtpx:hr>148</gpxtpx:hr></gpxtpx:TrackPointExtension></extensions>
      </trkpt>
      <trkpt lat="59.241718297043" lon="17.903904529258">
        <ele>80.4</ele>
        <time>2016-04-25T19:14:28Z</time>
        <extensions><gpxtpx:TrackPointExtension><gpxtpx:hr>151</gpxtpx:hr></gpxtpx:TrackPointExtension></extensions>
      </trkpt>
      <trkpt lat="59.241723242364" lon="17.903985163136">
        <ele>81</ele>
        <time>2016-04-25T19:14:29Z</time>
        <extensions><gpxtpx:TrackPointExtension><gpxtpx:hr>151</gpxtpx:hr></gpxtpx:TrackPointExtension></extensions>
      </trkpt>
      <trkpt lat="59.241726511305" lon="17.904065545557">
        <ele>81.4</ele>
        <time>2016-04-25T19:14:30Z</time>
        <extensions><gpxtpx:TrackPointExtension><gpxtpx:hr>151</gpxtpx:hr></gpxtpx:TrackPointExtension></extensions>
      </trkpt>
      <trkpt lat="59.241729780246" lon="17.904149699833">
        <ele>82.2</ele>
        <time>2016-04-25T19:14:31Z</time>
        <extensions><gpxtpx:TrackPointExtension><gpxtpx:hr>151</gpxtpx:hr></gpxtpx:TrackPointExtension></extensions>
      </trkpt>
      <trkpt lat="59.241754339213" lon="17.904487909498">
        <ele>82.2</ele>
        <time>2016-04-25T19:14:35Z</time>
        <extensions><gpxtpx:TrackPointExtension><gpxtpx:hr>151</gpxtpx:hr></gpxtpx:TrackPointExtension></extensions>
      </trkpt>
      <trkpt lat="59.241753836299" lon="17.904579020751">
        <ele>82.2</ele>
        <time>2016-04-25T19:14:36Z</time>
        <extensions><gpxtpx:TrackPointExtension><gpxtpx:hr>151</gpxtpx:hr></gpxtpx:TrackPointExtension></extensions>
      </trkpt>
      <trkpt lat="59.241753501023" lon="17.904833746692">
        <ele>82.2</ele>
        <time>2016-04-25T19:14:39Z</time>
        <extensions><gpxtpx:TrackPointExtension><gpxtpx:hr>153</gpxtpx:hr></gpxtpx:TrackPointExtension></extensions>
      </trkpt>
      <trkpt lat="59.241750232082" lon="17.904910692534">
        <ele>82.6</ele>
        <time>2016-04-25T19:14:40Z</time>
        <extensions><gpxtpx:TrackPointExtension><gpxtpx:hr>153</gpxtpx:hr></gpxtpx:TrackPointExtension></extensions>
      </trkpt>
      <trkpt lat="59.241747633693" lon="17.904980681399">
        <ele>83</ele>
        <time>2016-04-25T19:14:41Z</time>
        <extensions><gpxtpx:TrackPointExtension><gpxtpx:hr>154</gpxtpx:hr></gpxtpx:TrackPointExtension></extensions>
      </trkpt>
      <trkpt lat="59.241743778019" lon="17.905055531766">
        <ele>83.4</ele>
        <time>2016-04-25T19:14:42Z</time>
        <extensions><gpxtpx:TrackPointExtension><gpxtpx:hr>155</gpxtpx:hr></gpxtpx:TrackPointExtension></extensions>
      </trkpt>
      <trkpt lat="59.241739754707" lon="17.905137842024">
        <ele>83.8</ele>
        <time>2016-04-25T19:14:43Z</time>
        <extensions><gpxtpx:TrackPointExtension><gpxtpx:hr>155</gpxtpx:hr></gpxtpx:TrackPointExtension></extensions>
      </trkpt>
      <trkpt lat="59.241730115522" lon="17.905228366544">
        <ele>84.2</ele>
        <time>2016-04-25T19:14:44Z</time>
        <extensions><gpxtpx:TrackPointExtension><gpxtpx:hr>155</gpxtpx:hr></gpxtpx:TrackPointExtension></extensions>
      </trkpt>
      <trkpt lat="59.241703377261" lon="17.905396591277">
        <ele>84.2</ele>
        <time>2016-04-25T19:14:46Z</time>
        <extensions><gpxtpx:TrackPointExtension><gpxtpx:hr>156</gpxtpx:hr></gpxtpx:TrackPointExtension></extensions>
      </trkpt>
      <trkpt lat="59.241637663165" lon="17.905785846713">
        <ele>84.2</ele>
        <time>2016-04-25T19:14:51Z</time>
        <extensions><gpxtpx:TrackPointExtension><gpxtpx:hr>157</gpxtpx:hr></gpxtpx:TrackPointExtension></extensions>
      </trkpt>
      <trkpt lat="59.241554598536" lon="17.906222376065">
        <ele>84.2</ele>
        <time>2016-04-25T19:14:57Z</time>
        <extensions><gpxtpx:TrackPointExtension><gpxtpx:hr>156</gpxtpx:hr></gpxtpx:TrackPointExtension></extensions>
      </trkpt>
      <trkpt lat="59.24150816281" lon="17.906502918258">
        <ele>84.8</ele>
        <time>2016-04-25T19:15:01Z</time>
        <extensions><gpxtpx:TrackPointExtension><gpxtpx:hr>155</gpxtpx:hr></gpxtpx:TrackPointExtension></extensions>
      </trkpt>
      <trkpt lat="59.241499529453" lon="17.906562597386">
        <ele>85.2</ele>
        <time>2016-04-25T19:15:02Z</time>
        <extensions><gpxtpx:TrackPointExtension><gpxtpx:hr>155</gpxtpx:hr></gpxtpx:TrackPointExtension></extensions>
      </trkpt>
      <trkpt lat="59.241483520024" lon="17.906619761944">
        <ele>85.6</ele>
        <time>2016-04-25T19:15:03Z</time>
        <extensions><gpxtpx:TrackPointExtension><gpxtpx:hr>154</gpxtpx:hr></gpxtpx:TrackPointExtension></extensions>
      </trkpt>
      <trkpt lat="59.241468097328" lon="17.906686649506">
        <ele>86</ele>
        <time>2016-04-25T19:15:04Z</time>
        <extensions><gpxtpx:TrackPointExtension><gpxtpx:hr>154</gpxtpx:hr></gpxtpx:TrackPointExtension></extensions>
      </trkpt>
      <trkpt lat="59.241465918034" lon="17.906748005014">
        <ele>86.4</ele>
        <time>2016-04-25T19:15:05Z</time>
        <extensions><gpxtpx:TrackPointExtension><gpxtpx:hr>154</gpxtpx:hr></gpxtpx:TrackPointExtension></extensions>
      </trkpt>
      <trkpt lat="59.241455775935" lon="17.906881277224">
        <ele>86.4</ele>
        <time>2016-04-25T19:15:07Z</time>
        <extensions><gpxtpx:TrackPointExtension><gpxtpx:hr>153</gpxtpx:hr></gpxtpx:TrackPointExtension></extensions>
      </trkpt>
      <trkpt lat="59.241413363521" lon="17.90729735474">
        <ele>86.4</ele>
        <time>2016-04-25T19:15:12Z</time>
        <extensions><gpxtpx:TrackPointExtension><gpxtpx:hr>154</gpxtpx:hr></gpxtpx:TrackPointExtension></extensions>
      </trkpt>
      <trkpt lat="59.241437922488" lon="17.90758401572">
        <ele>86.8</ele>
        <time>2016-04-25T19:15:16Z</time>
        <extensions><gpxtpx:TrackPointExtension><gpxtpx:hr>154</gpxtpx:hr></gpxtpx:TrackPointExtension></extensions>
      </trkpt>
      <trkpt lat="59.241456781763" lon="17.907644197762">
        <ele>87.2</ele>
        <time>2016-04-25T19:15:17Z</time>
        <extensions><gpxtpx:TrackPointExtension><gpxtpx:hr>154</gpxtpx:hr></gpxtpx:TrackPointExtension></extensions>
      </trkpt>
      <trkpt lat="59.241478407065" lon="17.907711923514">
        <ele>87.6</ele>
        <time>2016-04-25T19:15:18Z</time>
        <extensions><gpxtpx:TrackPointExtension><gpxtpx:hr>154</gpxtpx:hr></gpxtpx:TrackPointExtension></extensions>
      </trkpt>
      <trkpt lat="59.241496511969" lon="17.907775709773">
        <ele>88</ele>
        <time>2016-04-25T19:15:19Z</time>
        <extensions><gpxtpx:TrackPointExtension><gpxtpx:hr>154</gpxtpx:hr></gpxtpx:TrackPointExtension></extensions>
      </trkpt>
      <trkpt lat="59.241518388728" lon="17.907839831308">
        <ele>88.4</ele>
        <time>2016-04-25T19:15:20Z</time>
        <extensions><gpxtpx:TrackPointExtension><gpxtpx:hr>153</gpxtpx:hr></gpxtpx:TrackPointExtension></extensions>
      </trkpt>
      <trkpt lat="59.241564237721" lon="17.907985005816">
        <ele>88.4</ele>
        <time>2016-04-25T19:15:22Z</time>
        <extensions><gpxtpx:TrackPointExtension><gpxtpx:hr>153</gpxtpx:hr></gpxtpx:TrackPointExtension></extensions>
      </trkpt>
      <trkpt lat="59.24161628932" lon="17.908118194207">
        <ele>88.4</ele>
        <time>2016-04-25T19:15:24Z</time>
        <extensions><gpxtpx:TrackPointExtension><gpxtpx:hr>153</gpxtpx:hr></gpxtpx:TrackPointExtension></extensions>
      </trkpt>
      <trkpt lat="59.241639507183" lon="17.908209892193">
        <ele>88.4</ele>
        <time>2016-04-25T19:15:25Z</time>
        <extensions><gpxtpx:TrackPointExtension><gpxtpx:hr>153</gpxtpx:hr></gpxtpx:TrackPointExtension></extensions>
      </trkpt>
      <trkpt lat="59.241729612608" lon="17.90856302164">
        <ele>88.4</ele>
        <time>2016-04-25T19:15:29Z</time>
        <extensions><gpxtpx:TrackPointExtension><gpxtpx:hr>152</gpxtpx:hr></gpxtpx:TrackPointExtension></extensions>
      </trkpt>
      <trkpt lat="59.241800020568" lon="17.908926041729">
        <ele>88.4</ele>
        <time>2016-04-25T19:15:34Z</time>
        <extensions><gpxtpx:TrackPointExtension><gpxtpx:hr>151</gpxtpx:hr></gpxtpx:TrackPointExtension></extensions>
      </trkpt>
      <trkpt lat="59.241840588964" lon="17.909174984159">
        <ele>88.4</ele>
        <time>2016-04-25T19:15:37Z</time>
        <extensions><gpxtpx:TrackPointExtension><gpxtpx:hr>148</gpxtpx:hr></gpxtpx:TrackPointExtension></extensions>
      </trkpt>
      <trkpt lat="59.241848216493" lon="17.909301383211">
        <ele>88.4</ele>
        <time>2016-04-25T19:15:38Z</time>
        <extensions><gpxtpx:TrackPointExtension><gpxtpx:hr>147</gpxtpx:hr></gpxtpx:TrackPointExtension></extensions>
      </trkpt>
      <trkpt lat="59.241860789343" lon="17.909556779704">
        <ele>88.4</ele>
        <time>2016-04-25T19:15:40Z</time>
        <extensions><gpxtpx:TrackPointExtension><gpxtpx:hr>146</gpxtpx:hr></gpxtpx:TrackPointExtension></extensions>
      </trkpt>
      <trkpt lat="59.241929940018" lon="17.910269073566">
        <ele>88.4</ele>
        <time>2016-04-25T19:15:45Z</time>
        <extensions><gpxtpx:TrackPointExtension><gpxtpx:hr>143</gpxtpx:hr></gpxtpx:TrackPointExtension></extensions>
      </trkpt>
      <trkpt lat="59.241935472072" lon="17.910392455134">
        <ele>88.4</ele>
        <time>2016-04-25T19:15:46Z</time>
        <extensions><gpxtpx:TrackPointExtension><gpxtpx:hr>142</gpxtpx:hr></gpxtpx:TrackPointExtension></extensions>
      </trkpt>
      <trkpt lat="59.241949805121" lon="17.91089318984">
        <ele>88.4</ele>
        <time>2016-04-25T19:15:50Z</time>
        <extensions><gpxtpx:TrackPointExtension><gpxtpx:hr>140</gpxtpx:hr></gpxtpx:TrackPointExtension></extensions>
      </trkpt>
      <trkpt lat="59.241953157881" lon="17.911740516111">
        <ele>88.4</ele>
        <time>2016-04-25T19:15:56Z</time>
        <extensions><gpxtpx:TrackPointExtension><gpxtpx:hr>137</gpxtpx:hr></gpxtpx:TrackPointExtension></extensions>
      </trkpt>
      <trkpt lat="59.241954582804" lon="17.911895245985">
        <ele>88.4</ele>
        <time>2016-04-25T19:15:57Z</time>
        <extensions><gpxtpx:TrackPointExtension><gpxtpx:hr>137</gpxtpx:hr></gpxtpx:TrackPointExtension></extensions>
      </trkpt>
      <trkpt lat="59.241967239473" lon="17.912032709145">
        <ele>88.4</ele>
        <time>2016-04-25T19:15:58Z</time>
        <extensions><gpxtpx:TrackPointExtension><gpxtpx:hr>137</gpxtpx:hr></gpxtpx:TrackPointExtension></extensions>
      </trkpt>
      <trkpt lat="59.241993223363" lon="17.912287351267">
        <ele>88.4</ele>
        <time>2016-04-25T19:16:00Z</time>
        <extensions><gpxtpx:TrackPointExtension><gpxtpx:hr>137</gpxtpx:hr></gpxtpx:TrackPointExtension></extensions>
      </trkpt>
      <trkpt lat="59.242015519217" lon="17.91259220097">
        <ele>88.8</ele>
        <time>2016-04-25T19:16:03Z</time>
        <extensions><gpxtpx:TrackPointExtension><gpxtpx:hr>139</gpxtpx:hr></gpxtpx:TrackPointExtension></extensions>
      </trkpt>
      <trkpt lat="59.242023062927" lon="17.91268775463">
        <ele>89.4</ele>
        <time>2016-04-25T19:16:04Z</time>
        <extensions><gpxtpx:TrackPointExtension><gpxtpx:hr>139</gpxtpx:hr></gpxtpx:TrackPointExtension></extensions>
      </trkpt>
      <trkpt lat="59.242035971053" lon="17.91277073544">
        <ele>89.8</ele>
        <time>2016-04-25T19:16:05Z</time>
        <extensions><gpxtpx:TrackPointExtension><gpxtpx:hr>140</gpxtpx:hr></gpxtpx:TrackPointExtension></extensions>
      </trkpt>
      <trkpt lat="59.242052651034" lon="17.912862181969">
        <ele>90.2</ele>
        <time>2016-04-25T19:16:06Z</time>
        <extensions><gpxtpx:TrackPointExtension><gpxtpx:hr>141</gpxtpx:hr></gpxtpx:TrackPointExtension></extensions>
      </trkpt>
      <trkpt lat="59.242070085386" lon="17.912970979031">
        <ele>90.8</ele>
        <time>2016-04-25T19:16:07Z</time>
        <extensions><gpxtpx:TrackPointExtension><gpxtpx:hr>141</gpxtpx:hr></gpxtpx:TrackPointExtension></extensions>
      </trkpt>
      <trkpt lat="59.242075533621" lon="17.913079440817">
        <ele>91.4</ele>
        <time>2016-04-25T19:16:08Z</time>
        <extensions><gpxtpx:TrackPointExtension><gpxtpx:hr>142</gpxtpx:hr></gpxtpx:TrackPointExtension></extensions>
      </trkpt>
      <trkpt lat="59.242092967973" lon="17.913171641717">
        <ele>92</ele>
        <time>2016-04-25T19:16:09Z</time>
        <extensions><gpxtpx:TrackPointExtension><gpxtpx:hr>143</gpxtpx:hr></gpxtpx:TrackPointExtension></extensions>
      </trkpt>
      <trkpt lat="59.242114006542" lon="17.913260406038">
        <ele>93</ele>
        <time>2016-04-25T19:16:10Z</time>
        <extensions><gpxtpx:TrackPointExtension><gpxtpx:hr>144</gpxtpx:hr></gpxtpx:TrackPointExtension></extensions>
      </trkpt>
      <trkpt lat="59.242133284912" lon="17.913362749037">
        <ele>93</ele>
        <time>2016-04-25T19:16:11Z</time>
        <extensions><gpxtpx:TrackPointExtension><gpxtpx:hr>145</gpxtpx:hr></gpxtpx:TrackPointExtension></extensions>
      </trkpt>
      <trkpt lat="59.242186677615" lon="17.913558717859">
        <ele>93</ele>
        <time>2016-04-25T19:16:13Z</time>
        <extensions><gpxtpx:TrackPointExtension><gpxtpx:hr>148</gpxtpx:hr></gpxtpx:TrackPointExtension></extensions>
      </trkpt>
      <trkpt lat="59.242209560202" lon="17.913652678958">
        <ele>93.4</ele>
        <time>2016-04-25T19:16:14Z</time>
        <extensions><gpxtpx:TrackPointExtension><gpxtpx:hr>149</gpxtpx:hr></gpxtpx:TrackPointExtension></extensions>
      </trkpt>
      <trkpt lat="59.242236298463" lon="17.913733312836">
        <ele>93.8</ele>
        <time>2016-04-25T19:16:15Z</time>
        <extensions><gpxtpx:TrackPointExtension><gpxtpx:hr>151</gpxtpx:hr></gpxtpx:TrackPointExtension></extensions>
      </trkpt>
      <trkpt lat="59.24226253381" lon="17.913810677773">
        <ele>94.2</ele>
        <time>2016-04-25T19:16:16Z</time>
        <extensions><gpxtpx:TrackPointExtension><gpxtpx:hr>152</gpxtpx:hr></gpxtpx:TrackPointExtension></extensions>
      </trkpt>
      <trkpt lat="59.242284578207" lon="17.913890054366">
        <ele>94.6</ele>
        <time>2016-04-25T19:16:17Z</time>
        <extensions><gpxtpx:TrackPointExtension><gpxtpx:hr>153</gpxtpx:hr></gpxtpx:TrackPointExtension></extensions>
      </trkpt>
      <trkpt lat="59.242308969536" lon="17.913968592769">
        <ele>95</ele>
        <time>2016-04-25T19:16:18Z</time>
        <extensions><gpxtpx:TrackPointExtension><gpxtpx:hr>154</gpxtpx:hr></gpxtpx:TrackPointExtension></extensions>
      </trkpt>
      <trkpt lat="59.242329086096" lon="17.914066493361">
        <ele>95</ele>
        <time>2016-04-25T19:16:19Z</time>
        <extensions><gpxtpx:TrackPointExtension><gpxtpx:hr>154</gpxtpx:hr></gpxtpx:TrackPointExtension></extensions>
      </trkpt>
      <trkpt lat="59.242381137695" lon="17.914453066589">
        <ele>95</ele>
        <time>2016-04-25T19:16:22Z</time>
        <extensions><gpxtpx:TrackPointExtension><gpxtpx:hr>155</gpxtpx:hr></gpxtpx:TrackPointExtension></extensions>
      </trkpt>
      <trkpt lat="59.242380383324" lon="17.914619279666">
        <ele>94.6</ele>
        <time>2016-04-25T19:16:23Z</time>
        <extensions><gpxtpx:TrackPointExtension><gpxtpx:hr>154</gpxtpx:hr></gpxtpx:TrackPointExtension></extensions>
      </trkpt>
      <trkpt lat="59.242360182945" lon="17.914785157467">
        <ele>94.2</ele>
        <time>2016-04-25T19:16:24Z</time>
        <extensions><gpxtpx:TrackPointExtension><gpxtpx:hr>154</gpxtpx:hr></gpxtpx:TrackPointExtension></extensions>
      </trkpt>
      <trkpt lat="59.24232623625" lon="17.914962099376">
        <ele>93.4</ele>
        <time>2016-04-25T19:16:25Z</time>
        <extensions><gpxtpx:TrackPointExtension><gpxtpx:hr>153</gpxtpx:hr></gpxtpx:TrackPointExtension></extensions>
      </trkpt>
      <trkpt lat="59.242299833265" lon="17.915104843133">
        <ele>92.6</ele>
        <time>2016-04-25T19:16:26Z</time>
        <extensions><gpxtpx:TrackPointExtension><gpxtpx:hr>152</gpxtpx:hr></gpxtpx:TrackPointExtension></extensions>
      </trkpt>
      <trkpt lat="59.242276615402" lon="17.915219591344">
        <ele>91.8</ele>
        <time>2016-04-25T19:16:27Z</time>
        <extensions><gpxtpx:TrackPointExtension><gpxtpx:hr>152</gpxtpx:hr></gpxtpx:TrackPointExtension></extensions>
      </trkpt>
      <trkpt lat="59.242259097231" lon="17.915301398688">
        <ele>90.8</ele>
        <time>2016-04-25T19:16:28Z</time>
        <extensions><gpxtpx:TrackPointExtension><gpxtpx:hr>151</gpxtpx:hr></gpxtpx:TrackPointExtension></extensions>
      </trkpt>
      <trkpt lat="59.242247865485" lon="17.915345487482">
        <ele>89.8</ele>
        <time>2016-04-25T19:16:29Z</time>
        <extensions><gpxtpx:TrackPointExtension><gpxtpx:hr>151</gpxtpx:hr></gpxtpx:TrackPointExtension></extensions>
      </trkpt>
      <trkpt lat="59.242224899079" lon="17.915389324819">
        <ele>89</ele>
        <time>2016-04-25T19:16:30Z</time>
        <extensions><gpxtpx:TrackPointExtension><gpxtpx:hr>149</gpxtpx:hr></gpxtpx:TrackPointExtension></extensions>
      </trkpt>
      <trkpt lat="59.242180558828" lon="17.915434419441">
        <ele>88</ele>
        <time>2016-04-25T19:16:31Z</time>
        <extensions><gpxtpx:TrackPointExtension><gpxtpx:hr>148</gpxtpx:hr></gpxtpx:TrackPointExtension></extensions>
      </trkpt>
      <trkpt lat="59.242046113152" lon="17.915368370069">
        <ele>88</ele>
        <time>2016-04-25T19:16:34Z</time>
        <extensions><gpxtpx:TrackPointExtension><gpxtpx:hr>146</gpxtpx:hr></gpxtpx:TrackPointExtension></extensions>
      </trkpt>
      <trkpt lat="59.241944943619" lon="17.915297626833">
        <ele>88</ele>
        <time>2016-04-25T19:16:36Z</time>
        <extensions><gpxtpx:TrackPointExtension><gpxtpx:hr>142</gpxtpx:hr></gpxtpx:TrackPointExtension></extensions>
      </trkpt>
      <trkpt lat="59.241797422179" lon="17.915155218352">
        <ele>88</ele>
        <time>2016-04-25T19:16:39Z</time>
        <extensions><gpxtpx:TrackPointExtension><gpxtpx:hr>139</gpxtpx:hr></gpxtpx:TrackPointExtension></extensions>
      </trkpt>
      <trkpt lat="59.241746879322" lon="17.915108866445">
        <ele>88</ele>
        <time>2016-04-25T19:16:40Z</time>
        <extensions><gpxtpx:TrackPointExtension><gpxtpx:hr>138</gpxtpx:hr></gpxtpx:TrackPointExtension></extensions>
      </trkpt>
      <trkpt lat="59.241638836631" lon="17.915042481797">
        <ele>88</ele>
        <time>2016-04-25T19:16:42Z</time>
        <extensions><gpxtpx:TrackPointExtension><gpxtpx:hr>136</gpxtpx:hr></gpxtpx:TrackPointExtension></extensions>
      </trkpt>
      <trkpt lat="59.241516125615" lon="17.914965535955">
        <ele>87.6</ele>
        <time>2016-04-25T19:16:44Z</time>
        <extensions><gpxtpx:TrackPointExtension><gpxtpx:hr>134</gpxtpx:hr></gpxtpx:TrackPointExtension></extensions>
      </trkpt>
      <trkpt lat="59.241444795646" lon="17.914937875685">
        <ele>87.2</ele>
        <time>2016-04-25T19:16:45Z</time>
        <extensions><gpxtpx:TrackPointExtension><gpxtpx:hr>134</gpxtpx:hr></gpxtpx:TrackPointExtension></extensions>
      </trkpt>
      <trkpt lat="59.241367179252" lon="17.914979030814">
        <ele>86.8</ele>
        <time>2016-04-25T19:16:46Z</time>
        <extensions><gpxtpx:TrackPointExtension><gpxtpx:hr>134</gpxtpx:hr></gpxtpx:TrackPointExtension></extensions>
      </trkpt>
      <trkpt lat="59.241293250894" lon="17.91505647957">
        <ele>86</ele>
        <time>2016-04-25T19:16:47Z</time>
        <extensions><gpxtpx:TrackPointExtension><gpxtpx:hr>134</gpxtpx:hr></gpxtpx:TrackPointExtension></extensions>
      </trkpt>
      <trkpt lat="59.241218819622" lon="17.915152536144">
        <ele>85.4</ele>
        <time>2016-04-25T19:16:48Z</time>
        <extensions><gpxtpx:TrackPointExtension><gpxtpx:hr>133</gpxtpx:hr></gpxtpx:TrackPointExtension></extensions>
      </trkpt>
      <trkpt lat="59.241144136893" lon="17.915252532211">
        <ele>84.8</ele>
        <time>2016-04-25T19:16:49Z</time>
        <extensions><gpxtpx:TrackPointExtension><gpxtpx:hr>133</gpxtpx:hr></gpxtpx:TrackPointExtension></extensions>
      </trkpt>
      <trkpt lat="59.241068280698" lon="17.91535319883">
        <ele>83.8</ele>
        <time>2016-04-25T19:16:50Z</time>
        <extensions><gpxtpx:TrackPointExtension><gpxtpx:hr>132</gpxtpx:hr></gpxtpx:TrackPointExtension></extensions>
      </trkpt>
      <trkpt lat="59.240989071743" lon="17.915440873504">
        <ele>83</ele>
        <time>2016-04-25T19:16:51Z</time>
        <extensions><gpxtpx:TrackPointExtension><gpxtpx:hr>130</gpxtpx:hr></gpxtpx:TrackPointExtension></extensions>
      </trkpt>
      <trkpt lat="59.240905336562" lon="17.915508850713">
        <ele>82.2</ele>
        <time>2016-04-25T19:16:52Z</time>
        <extensions><gpxtpx:TrackPointExtension><gpxtpx:hr>129</gpxtpx:hr></gpxtpx:TrackPointExtension></extensions>
      </trkpt>
      <trkpt lat="59.240819757363" lon="17.915572385515">
        <ele>81.4</ele>
        <time>2016-04-25T19:16:53Z</time>
        <extensions><gpxtpx:TrackPointExtension><gpxtpx:hr>128</gpxtpx:hr></gpxtpx:TrackPointExtension></extensions>
      </trkpt>
      <trkpt lat="59.240734597259" lon="17.915628041331">
        <ele>80.4</ele>
        <time>2016-04-25T19:16:54Z</time>
        <extensions><gpxtpx:TrackPointExtension><gpxtpx:hr>127</gpxtpx:hr></gpxtpx:TrackPointExtension></extensions>
      </trkpt>
      <trkpt lat="59.240649688612" lon="17.915685205889">
        <ele>80</ele>
        <time>2016-04-25T19:16:55Z</time>
        <extensions><gpxtpx:TrackPointExtension><gpxtpx:hr>127</gpxtpx:hr></gpxtpx:TrackPointExtension></extensions>
      </trkpt>
      <trkpt lat="59.240568384182" lon="17.915731725434">
        <ele>79.6</ele>
        <time>2016-04-25T19:16:56Z</time>
        <extensions><gpxtpx:TrackPointExtension><gpxtpx:hr>127</gpxtpx:hr></gpxtpx:TrackPointExtension></extensions>
      </trkpt>
      <trkpt lat="59.240488672313" lon="17.915781933015">
        <ele>79.2</ele>
        <time>2016-04-25T19:16:57Z</time>
        <extensions><gpxtpx:TrackPointExtension><gpxtpx:hr>126</gpxtpx:hr></gpxtpx:TrackPointExtension></extensions>
      </trkpt>
      <trkpt lat="59.240409798634" lon="17.915830296578">
        <ele>78.6</ele>
        <time>2016-04-25T19:16:58Z</time>
        <extensions><gpxtpx:TrackPointExtension><gpxtpx:hr>126</gpxtpx:hr></gpxtpx:TrackPointExtension></extensions>
      </trkpt>
      <trkpt lat="59.240329500032" lon="17.915876145571">
        <ele>78.2</ele>
        <time>2016-04-25T19:16:59Z</time>
        <extensions><gpxtpx:TrackPointExtension><gpxtpx:hr>125</gpxtpx:hr></gpxtpx:TrackPointExtension></extensions>
      </trkpt>
      <trkpt lat="59.240161442937" lon="17.915957785277">
        <ele>78.2</ele>
        <time>2016-04-25T19:17:01Z</time>
        <extensions><gpxtpx:TrackPointExtension><gpxtpx:hr>121</gpxtpx:hr></gpxtpx:TrackPointExtension></extensions>
      </trkpt>
      <trkpt lat="59.240069493494" lon="17.915988463031">
        <ele>77.8</ele>
        <time>2016-04-25T19:17:02Z</time>
        <extensions><gpxtpx:TrackPointExtension><gpxtpx:hr>119</gpxtpx:hr></gpxtpx:TrackPointExtension></extensions>
      </trkpt>
      <trkpt lat="59.239970251798" lon="17.915998186035">
        <ele>77.4</ele>
        <time>2016-04-25T19:17:03Z</time>
        <extensions><gpxtpx:TrackPointExtension><gpxtpx:hr>117</gpxtpx:hr></gpxtpx:TrackPointExtension></extensions>
      </trkpt>
      <trkpt lat="59.239876877432" lon="17.916004221003">
        <ele>76.6</ele>
        <time>2016-04-25T19:17:04Z</time>
        <extensions><gpxtpx:TrackPointExtension><gpxtpx:hr>114</gpxtpx:hr></gpxtpx:TrackPointExtension></extensions>
      </trkpt>
      <trkpt lat="59.239776713727" lon="17.916019643699">
        <ele>75.8</ele>
        <time>2016-04-25T19:17:05Z</time>
        <extensions><gpxtpx:TrackPointExtension><gpxtpx:hr>112</gpxtpx:hr></gpxtpx:TrackPointExtension></extensions>
      </trkpt>
      <trkpt lat="59.239682333533" lon="17.916032803282">
        <ele>74.8</ele>
        <time>2016-04-25T19:17:06Z</time>
        <extensions><gpxtpx:TrackPointExtension><gpxtpx:hr>109</gpxtpx:hr></gpxtpx:TrackPointExtension></extensions>
      </trkpt>
      <trkpt lat="59.239587366606" lon="17.916039089707">
        <ele>73.8</ele>
        <time>2016-04-25T19:17:07Z</time>
        <extensions><gpxtpx:TrackPointExtension><gpxtpx:hr>107</gpxtpx:hr></gpxtpx:TrackPointExtension></extensions>
      </trkpt>
      <trkpt lat="59.239494662792" lon="17.916040430811">
        <ele>72.6</ele>
        <time>2016-04-25T19:17:08Z</time>
        <extensions><gpxtpx:TrackPointExtension><gpxtpx:hr>107</gpxtpx:hr></gpxtpx:TrackPointExtension></extensions>
      </trkpt>
      <trkpt lat="59.239403719177" lon="17.916034982576">
        <ele>71.6</ele>
        <time>2016-04-25T19:17:09Z</time>
        <extensions><gpxtpx:TrackPointExtension><gpxtpx:hr>107</gpxtpx:hr></gpxtpx:TrackPointExtension></extensions>
      </trkpt>
      <trkpt lat="59.239314284304" lon="17.91604219101">
        <ele>70.6</ele>
        <time>2016-04-25T19:17:10Z</time>
        <extensions><gpxtpx:TrackPointExtension><gpxtpx:hr>108</gpxtpx:hr></gpxtpx:TrackPointExtension></extensions>
      </trkpt>
      <trkpt lat="59.239221329033" lon="17.916064403045">
        <ele>69.6</ele>
        <time>2016-04-25T19:17:11Z</time>
        <extensions><gpxtpx:TrackPointExtension><gpxtpx:hr>108</gpxtpx:hr></gpxtpx:TrackPointExtension></extensions>
      </trkpt>
      <trkpt lat="59.239140695155" lon="17.916098685016">
        <ele>68.6</ele>
        <time>2016-04-25T19:17:12Z</time>
        <extensions><gpxtpx:TrackPointExtension><gpxtpx:hr>108</gpxtpx:hr></gpxtpx:TrackPointExtension></extensions>
      </trkpt>
      <trkpt lat="59.239073639955" lon="17.916134140453">
        <ele>67.6</ele>
        <time>2016-04-25T19:17:13Z</time>
        <extensions><gpxtpx:TrackPointExtension><gpxtpx:hr>107</gpxtpx:hr></gpxtpx:TrackPointExtension></extensions>
      </trkpt>
      <trkpt lat="59.239016475397" lon="17.916164650569">
        <ele>66.4</ele>
        <time>2016-04-25T19:17:14Z</time>
        <extensions><gpxtpx:TrackPointExtension><gpxtpx:hr>107</gpxtpx:hr></gpxtpx:TrackPointExtension></extensions>
      </trkpt>
      <trkpt lat="59.238965261988" lon="17.916179067437">
        <ele>66</ele>
        <time>2016-04-25T19:17:15Z</time>
        <extensions><gpxtpx:TrackPointExtension><gpxtpx:hr>107</gpxtpx:hr></gpxtpx:TrackPointExtension></extensions>
      </trkpt>
      <trkpt lat="59.238920335004" lon="17.916190969735">
        <ele>65.6</ele>
        <time>2016-04-25T19:17:16Z</time>
        <extensions><gpxtpx:TrackPointExtension><gpxtpx:hr>106</gpxtpx:hr></gpxtpx:TrackPointExtension></extensions>
      </trkpt>
      <trkpt lat="59.238889321974" lon="17.916143947276">
        <ele>65.2</ele>
        <time>2016-04-25T19:17:17Z</time>
        <extensions><gpxtpx:TrackPointExtension><gpxtpx:hr>106</gpxtpx:hr></gpxtpx:TrackPointExtension></extensions>
      </trkpt>
      <trkpt lat="59.23887037888" lon="17.916075970067">
        <ele>64.8</ele>
        <time>2016-04-25T19:17:18Z</time>
        <extensions><gpxtpx:TrackPointExtension><gpxtpx:hr>105</gpxtpx:hr></gpxtpx:TrackPointExtension></extensions>
      </trkpt>
      <trkpt lat="59.238859230953" lon="17.916012267627">
        <ele>64.4</ele>
        <time>2016-04-25T19:17:19Z</time>
        <extensions><gpxtpx:TrackPointExtension><gpxtpx:hr>106</gpxtpx:hr></gpxtpx:TrackPointExtension></extensions>
      </trkpt>
      <trkpt lat="59.238827212095" lon="17.915802301032">
        <ele>64.4</ele>
        <time>2016-04-25T19:17:22Z</time>
        <extensions><gpxtpx:TrackPointExtension><gpxtpx:hr>109</gpxtpx:hr></gpxtpx:TrackPointExtension></extensions>
      </trkpt>
      <trkpt lat="59.238794774142" lon="17.915460654788">
        <ele>64.4</ele>
        <time>2016-04-25T19:17:28Z</time>
        <extensions><gpxtpx:TrackPointExtension><gpxtpx:hr>109</gpxtpx:hr></gpxtpx:TrackPointExtension></extensions>
      </trkpt>
      <trkpt lat="59.238784632043" lon="17.915412626501">
        <ele>64.4</ele>
        <time>2016-04-25T19:17:30Z</time>
        <extensions><gpxtpx:TrackPointExtension><gpxtpx:hr>110</gpxtpx:hr></gpxtpx:TrackPointExtension></extensions>
      </trkpt>
      <trkpt lat="59.238779099989" lon="17.915449255404">
        <ele>64.4</ele>
        <time>2016-04-25T19:17:31Z</time>
        <extensions><gpxtpx:TrackPointExtension><gpxtpx:hr>111</gpxtpx:hr></gpxtpx:TrackPointExtension></extensions>
      </trkpt>
      <trkpt lat="59.238807011716" lon="17.915548916195">
        <ele>64.4</ele>
        <time>2016-04-25T19:17:33Z</time>
        <extensions><gpxtpx:TrackPointExtension><gpxtpx:hr>114</gpxtpx:hr></gpxtpx:TrackPointExtension></extensions>
      </trkpt>
      <trkpt lat="59.238821847679" lon="17.915624856209">
        <ele>64.4</ele>
        <time>2016-04-25T19:17:34Z</time>
        <extensions><gpxtpx:TrackPointExtension><gpxtpx:hr>115</gpxtpx:hr></gpxtpx:TrackPointExtension></extensions>
      </trkpt>
      <trkpt lat="59.238844059714" lon="17.915852424794">
        <ele>64.4</ele>
        <time>2016-04-25T19:17:36Z</time>
        <extensions><gpxtpx:TrackPointExtension><gpxtpx:hr>119</gpxtpx:hr></gpxtpx:TrackPointExtension></extensions>
      </trkpt>
      <trkpt lat="59.238857973668" lon="17.91596675391">
        <ele>64.4</ele>
        <time>2016-04-25T19:17:37Z</time>
        <extensions><gpxtpx:TrackPointExtension><gpxtpx:hr>121</gpxtpx:hr></gpxtpx:TrackPointExtension></extensions>
      </trkpt>
      <trkpt lat="59.23888127535" lon="17.916078568456">
        <ele>64.4</ele>
        <time>2016-04-25T19:17:38Z</time>
        <extensions><gpxtpx:TrackPointExtension><gpxtpx:hr>123</gpxtpx:hr></gpxtpx:TrackPointExtension></extensions>
      </trkpt>
      <trkpt lat="59.238983031616" lon="17.916192729934">
        <ele>64.4</ele>
        <time>2016-04-25T19:17:40Z</time>
        <extensions><gpxtpx:TrackPointExtension><gpxtpx:hr>126</gpxtpx:hr></gpxtpx:TrackPointExtension></extensions>
      </trkpt>
      <trkpt lat="59.239168858339" lon="17.916115616454">
        <ele>64.4</ele>
        <time>2016-04-25T19:17:43Z</time>
        <extensions><gpxtpx:TrackPointExtension><gpxtpx:hr>130</gpxtpx:hr></gpxtpx:TrackPointExtension></extensions>
      </trkpt>
      <trkpt lat="59.239302801101" lon="17.916088542917">
        <ele>64.4</ele>
        <time>2016-04-25T19:17:45Z</time>
        <extensions><gpxtpx:TrackPointExtension><gpxtpx:hr>133</gpxtpx:hr></gpxtpx:TrackPointExtension></extensions>
      </trkpt>
      <trkpt lat="59.239436743863" lon="17.916088123822">
        <ele>64.4</ele>
        <time>2016-04-25T19:17:47Z</time>
        <extensions><gpxtpx:TrackPointExtension><gpxtpx:hr>138</gpxtpx:hr></gpxtpx:TrackPointExtension></extensions>
      </trkpt>
      <trkpt lat="59.239498350828" lon="17.916080915388">
        <ele>65</ele>
        <time>2016-04-25T19:17:48Z</time>
        <extensions><gpxtpx:TrackPointExtension><gpxtpx:hr>139</gpxtpx:hr></gpxtpx:TrackPointExtension></extensions>
      </trkpt>
      <trkpt lat="59.239562304725" lon="17.91607571861">
        <ele>66</ele>
        <time>2016-04-25T19:17:49Z</time>
        <extensions><gpxtpx:TrackPointExtension><gpxtpx:hr>142</gpxtpx:hr></gpxtpx:TrackPointExtension></extensions>
      </trkpt>
      <trkpt lat="59.239620894206" lon="17.916065576511">
        <ele>66.6</ele>
        <time>2016-04-25T19:17:50Z</time>
        <extensions><gpxtpx:TrackPointExtension><gpxtpx:hr>144</gpxtpx:hr></gpxtpx:TrackPointExtension></extensions>
      </trkpt>
      <trkpt lat="59.239672778167" lon="17.916059457724">
        <ele>67.4</ele>
        <time>2016-04-25T19:17:51Z</time>
        <extensions><gpxtpx:TrackPointExtension><gpxtpx:hr>147</gpxtpx:hr></gpxtpx:TrackPointExtension></extensions>
      </trkpt>
      <trkpt lat="59.239733127847" lon="17.916062139932">
        <ele>68</ele>
        <time>2016-04-25T19:17:52Z</time>
        <extensions><gpxtpx:TrackPointExtension><gpxtpx:hr>149</gpxtpx:hr></gpxtpx:TrackPointExtension></extensions>
      </trkpt>
      <trkpt lat="59.239787945473" lon="17.916072533488">
        <ele>68.8</ele>
        <time>2016-04-25T19:17:53Z</time>
        <extensions><gpxtpx:TrackPointExtension><gpxtpx:hr>151</gpxtpx:hr></gpxtpx:TrackPointExtension></extensions>
      </trkpt>
      <trkpt lat="59.239846786411" lon="17.916071192384">
        <ele>69.6</ele>
        <time>2016-04-25T19:17:54Z</time>
        <extensions><gpxtpx:TrackPointExtension><gpxtpx:hr>153</gpxtpx:hr></gpxtpx:TrackPointExtension></extensions>
      </trkpt>
      <trkpt lat="59.239904621521" lon="17.916065492692">
        <ele>70.4</ele>
        <time>2016-04-25T19:17:55Z</time>
        <extensions><gpxtpx:TrackPointExtension><gpxtpx:hr>157</gpxtpx:hr></gpxtpx:TrackPointExtension></extensions>
      </trkpt>
      <trkpt lat="59.239961786079" lon="17.916058870991">
        <ele>71.2</ele>
        <time>2016-04-25T19:17:56Z</time>
        <extensions><gpxtpx:TrackPointExtension><gpxtpx:hr>159</gpxtpx:hr></gpxtpx:TrackPointExtension></extensions>
      </trkpt>
      <trkpt lat="59.240021129931" lon="17.916048728892">
        <ele>71.8</ele>
        <time>2016-04-25T19:17:57Z</time>
        <extensions><gpxtpx:TrackPointExtension><gpxtpx:hr>161</gpxtpx:hr></gpxtpx:TrackPointExtension></extensions>
      </trkpt>
      <trkpt lat="59.240077037204" lon="17.916038670612">
        <ele>72.4</ele>
        <time>2016-04-25T19:17:58Z</time>
        <extensions><gpxtpx:TrackPointExtension><gpxtpx:hr>163</gpxtpx:hr></gpxtpx:TrackPointExtension></extensions>
      </trkpt>
      <trkpt lat="59.240126490414" lon="17.916022661183">
        <ele>73.2</ele>
        <time>2016-04-25T19:17:59Z</time>
        <extensions><gpxtpx:TrackPointExtension><gpxtpx:hr>165</gpxtpx:hr></gpxtpx:TrackPointExtension></extensions>
      </trkpt>
      <trkpt lat="59.240181894773" lon="17.916000616786">
        <ele>73.8</ele>
        <time>2016-04-25T19:18:00Z</time>
        <extensions><gpxtpx:TrackPointExtension><gpxtpx:hr>166</gpxtpx:hr></gpxtpx:TrackPointExtension></extensions>
      </trkpt>
      <trkpt lat="59.240238388779" lon="17.915978572389">
        <ele>74.6</ele>
        <time>2016-04-25T19:18:01Z</time>
        <extensions><gpxtpx:TrackPointExtension><gpxtpx:hr>168</gpxtpx:hr></gpxtpx:TrackPointExtension></extensions>
      </trkpt>
      <trkpt lat="59.240288512541" lon="17.915941943486">
        <ele>75.4</ele>
        <time>2016-04-25T19:18:02Z</time>
        <extensions><gpxtpx:TrackPointExtension><gpxtpx:hr>169</gpxtpx:hr></gpxtpx:TrackPointExtension></extensions>
      </trkpt>
      <trkpt lat="59.240341989063" lon="17.915910678999">
        <ele>76.2</ele>
        <time>2016-04-25T19:18:03Z</time>
        <extensions><gpxtpx:TrackPointExtension><gpxtpx:hr>170</gpxtpx:hr></gpxtpx:TrackPointExtension></extensions>
      </trkpt>
      <trkpt lat="59.240401584372" lon="17.915879498331">
        <ele>77</ele>
        <time>2016-04-25T19:18:04Z</time>
        <extensions><gpxtpx:TrackPointExtension><gpxtpx:hr>171</gpxtpx:hr></gpxtpx:TrackPointExtension></extensions>
      </trkpt>
      <trkpt lat="59.240451372858" lon="17.915841528324">
        <ele>77.4</ele>
        <time>2016-04-25T19:18:05Z</time>
        <extensions><gpxtpx:TrackPointExtension><gpxtpx:hr>172</gpxtpx:hr></gpxtpx:TrackPointExtension></extensions>
      </trkpt>
      <trkpt lat="59.240511471081" lon="17.915804731783">
        <ele>77.8</ele>
        <time>2016-04-25T19:18:06Z</time>
        <extensions><gpxtpx:TrackPointExtension><gpxtpx:hr>173</gpxtpx:hr></gpxtpx:TrackPointExtension></extensions>
      </trkpt>
      <trkpt lat="59.240575676435" lon="17.915773048201">
        <ele>78.2</ele>
        <time>2016-04-25T19:18:07Z</time>
        <extensions><gpxtpx:TrackPointExtension><gpxtpx:hr>174</gpxtpx:hr></gpxtpx:TrackPointExtension></extensions>
      </trkpt>
      <trkpt lat="59.240632589536" lon="17.915733988547">
        <ele>78.6</ele>
        <time>2016-04-25T19:18:08Z</time>
        <extensions><gpxtpx:TrackPointExtension><gpxtpx:hr>174</gpxtpx:hr></gpxtpx:TrackPointExtension></extensions>
      </trkpt>
      <trkpt lat="59.2406959567" lon="17.915697527282">
        <ele>79</ele>
        <time>2016-04-25T19:18:09Z</time>
        <extensions><gpxtpx:TrackPointExtension><gpxtpx:hr>174</gpxtpx:hr></gpxtpx:TrackPointExtension></extensions>
      </trkpt>
      <trkpt lat="59.240889159495" lon="17.915556962819">
        <ele>79</ele>
        <time>2016-04-25T19:18:12Z</time>
        <extensions><gpxtpx:TrackPointExtension><gpxtpx:hr>175</gpxtpx:hr></gpxtpx:TrackPointExtension></extensions>
      </trkpt>
      <trkpt lat="59.241165846014" lon="17.915247000157">
        <ele>79.4</ele>
        <time>2016-04-25T19:18:17Z</time>
        <extensions><gpxtpx:TrackPointExtension><gpxtpx:hr>175</gpxtpx:hr></gpxtpx:TrackPointExtension></extensions>
      </trkpt>
      <trkpt lat="59.241221753287" lon="17.915186734296">
        <ele>80</ele>
        <time>2016-04-25T19:18:18Z</time>
        <extensions><gpxtpx:TrackPointExtension><gpxtpx:hr>175</gpxtpx:hr></gpxtpx:TrackPointExtension></extensions>
      </trkpt>
      <trkpt lat="59.24128017513" lon="17.915137532543">
        <ele>80.4</ele>
        <time>2016-04-25T19:18:19Z</time>
        <extensions><gpxtpx:TrackPointExtension><gpxtpx:hr>175</gpxtpx:hr></gpxtpx:TrackPointExtension></extensions>
      </trkpt>
      <trkpt lat="59.241341446819" lon="17.915101909468">
        <ele>80.8</ele>
        <time>2016-04-25T19:18:20Z</time>
        <extensions><gpxtpx:TrackPointExtension><gpxtpx:hr>175</gpxtpx:hr></gpxtpx:TrackPointExtension></extensions>
      </trkpt>
      <trkpt lat="59.241399952481" lon="17.915079026881">
        <ele>81.2</ele>
        <time>2016-04-25T19:18:21Z</time>
        <extensions><gpxtpx:TrackPointExtension><gpxtpx:hr>176</gpxtpx:hr></gpxtpx:TrackPointExtension></extensions>
      </trkpt>
      <trkpt lat="59.241455775935" lon="17.915073075732">
        <ele>81.8</ele>
        <time>2016-04-25T19:18:22Z</time>
        <extensions><gpxtpx:TrackPointExtension><gpxtpx:hr>175</gpxtpx:hr></gpxtpx:TrackPointExtension></extensions>
      </trkpt>
      <trkpt lat="59.241513275769" lon="17.915082631098">
        <ele>82.2</ele>
        <time>2016-04-25T19:18:23Z</time>
        <extensions><gpxtpx:TrackPointExtension><gpxtpx:hr>175</gpxtpx:hr></gpxtpx:TrackPointExtension></extensions>
      </trkpt>
      <trkpt lat="59.24156264516" lon="17.915102999115">
        <ele>82.8</ele>
        <time>2016-04-25T19:18:24Z</time>
        <extensions><gpxtpx:TrackPointExtension><gpxtpx:hr>176</gpxtpx:hr></gpxtpx:TrackPointExtension></extensions>
      </trkpt>
      <trkpt lat="59.241611763094" lon="17.915141220579">
        <ele>83.2</ele>
        <time>2016-04-25T19:18:25Z</time>
        <extensions><gpxtpx:TrackPointExtension><gpxtpx:hr>176</gpxtpx:hr></gpxtpx:TrackPointExtension></extensions>
      </trkpt>
      <trkpt lat="59.241660797209" lon="17.915188494495">
        <ele>83.8</ele>
        <time>2016-04-25T19:18:26Z</time>
        <extensions><gpxtpx:TrackPointExtension><gpxtpx:hr>176</gpxtpx:hr></gpxtpx:TrackPointExtension></extensions>
      </trkpt>
      <trkpt lat="59.24171519574" lon="17.915235349316">
        <ele>84.4</ele>
        <time>2016-04-25T19:18:27Z</time>
        <extensions><gpxtpx:TrackPointExtension><gpxtpx:hr>176</gpxtpx:hr></gpxtpx:TrackPointExtension></extensions>
      </trkpt>
      <trkpt lat="59.241821226775" lon="17.915327634035">
        <ele>85.6</ele>
        <time>2016-04-25T19:18:28Z</time>
        <extensions><gpxtpx:TrackPointExtension><gpxtpx:hr>177</gpxtpx:hr></gpxtpx:TrackPointExtension></extensions>
      </trkpt>
      <trkpt lat="59.241878894247" lon="17.915375243227">
        <ele>86.2</ele>
        <time>2016-04-25T19:18:30Z</time>
        <extensions><gpxtpx:TrackPointExtension><gpxtpx:hr>177</gpxtpx:hr></gpxtpx:TrackPointExtension></extensions>
      </trkpt>
      <trkpt lat="59.24210243952" lon="17.91557531918">
        <ele>86.2</ele>
        <time>2016-04-25T19:18:34Z</time>
        <extensions><gpxtpx:TrackPointExtension><gpxtpx:hr>178</gpxtpx:hr></gpxtpx:TrackPointExtension></extensions>
      </trkpt>
      <trkpt lat="59.242314753047" lon="17.915731641615">
        <ele>86.2</ele>
        <time>2016-04-25T19:18:38Z</time>
        <extensions><gpxtpx:TrackPointExtension><gpxtpx:hr>178</gpxtpx:hr></gpxtpx:TrackPointExtension></extensions>
      </trkpt>
      <trkpt lat="59.242361272592" lon="17.915770785088">
        <ele>86.6</ele>
        <time>2016-04-25T19:18:39Z</time>
        <extensions><gpxtpx:TrackPointExtension><gpxtpx:hr>178</gpxtpx:hr></gpxtpx:TrackPointExtension></extensions>
      </trkpt>
      <trkpt lat="59.242404355558" lon="17.915818561918">
        <ele>87</ele>
        <time>2016-04-25T19:18:40Z</time>
        <extensions><gpxtpx:TrackPointExtension><gpxtpx:hr>179</gpxtpx:hr></gpxtpx:TrackPointExtension></extensions>
      </trkpt>
      <trkpt lat="59.242464202324" lon="17.915839600487">
        <ele>87.4</ele>
        <time>2016-04-25T19:18:41Z</time>
        <extensions><gpxtpx:TrackPointExtension><gpxtpx:hr>179</gpxtpx:hr></gpxtpx:TrackPointExtension></extensions>
      </trkpt>
      <trkpt lat="59.242511057145" lon="17.915879749788">
        <ele>88</ele>
        <time>2016-04-25T19:18:42Z</time>
        <extensions><gpxtpx:TrackPointExtension><gpxtpx:hr>179</gpxtpx:hr></gpxtpx:TrackPointExtension></extensions>
      </trkpt>
      <trkpt lat="59.24255590031" lon="17.91591394794">
        <ele>88.6</ele>
        <time>2016-04-25T19:18:43Z</time>
        <extensions><gpxtpx:TrackPointExtension><gpxtpx:hr>179</gpxtpx:hr></gpxtpx:TrackPointExtension></extensions>
      </trkpt>
      <trkpt lat="59.242589763186" lon="17.915940350925">
        <ele>89.2</ele>
        <time>2016-04-25T19:18:44Z</time>
        <extensions><gpxtpx:TrackPointExtension><gpxtpx:hr>179</gpxtpx:hr></gpxtpx:TrackPointExtension></extensions>
      </trkpt>
      <trkpt lat="59.242631169772" lon="17.915979745855">
        <ele>89.8</ele>
        <time>2016-04-25T19:18:45Z</time>
        <extensions><gpxtpx:TrackPointExtension><gpxtpx:hr>179</gpxtpx:hr></gpxtpx:TrackPointExtension></extensions>
      </trkpt>
      <trkpt lat="59.242679365697" lon="17.916023918468">
        <ele>90.4</ele>
        <time>2016-04-25T19:18:46Z</time>
        <extensions><gpxtpx:TrackPointExtension><gpxtpx:hr>179</gpxtpx:hr></gpxtpx:TrackPointExtension></extensions>
      </trkpt>
      <trkpt lat="59.242732255486" lon="17.916055769688">
        <ele>90.8</ele>
        <time>2016-04-25T19:18:47Z</time>
        <extensions><gpxtpx:TrackPointExtension><gpxtpx:hr>180</gpxtpx:hr></gpxtpx:TrackPointExtension></extensions>
      </trkpt>
      <trkpt lat="59.242778942669" lon="17.916078568456">
        <ele>91.4</ele>
        <time>2016-04-25T19:18:48Z</time>
        <extensions><gpxtpx:TrackPointExtension><gpxtpx:hr>180</gpxtpx:hr></gpxtpx:TrackPointExtension></extensions>
      </trkpt>
      <trkpt lat="59.24282998844" lon="17.916107066916">
        <ele>92</ele>
        <time>2016-04-25T19:18:49Z</time>
        <extensions><gpxtpx:TrackPointExtension><gpxtpx:hr>180</gpxtpx:hr></gpxtpx:TrackPointExtension></extensions>
      </trkpt>
      <trkpt lat="59.242881369487" lon="17.916131625883">
        <ele>92.6</ele>
        <time>2016-04-25T19:18:50Z</time>
        <extensions><gpxtpx:TrackPointExtension><gpxtpx:hr>180</gpxtpx:hr></gpxtpx:TrackPointExtension></extensions>
      </trkpt>
      <trkpt lat="59.242933001991" lon="17.916152161538">
        <ele>93</ele>
        <time>2016-04-25T19:18:51Z</time>
        <extensions><gpxtpx:TrackPointExtension><gpxtpx:hr>180</gpxtpx:hr></gpxtpx:TrackPointExtension></extensions>
      </trkpt>
      <trkpt lat="59.243040625587" lon="17.916187616975">
        <ele>93</ele>
        <time>2016-04-25T19:18:53Z</time>
        <extensions><gpxtpx:TrackPointExtension><gpxtpx:hr>180</gpxtpx:hr></gpxtpx:TrackPointExtension></extensions>
      </trkpt>
      <trkpt lat="59.243201390429" lon="17.916226928086">
        <ele>93.4</ele>
        <time>2016-04-25T19:18:56Z</time>
        <extensions><gpxtpx:TrackPointExtension><gpxtpx:hr>181</gpxtpx:hr></gpxtpx:TrackPointExtension></extensions>
      </trkpt>
      <trkpt lat="59.243255621322" lon="17.916235896719">
        <ele>94</ele>
        <time>2016-04-25T19:18:57Z</time>
        <extensions><gpxtpx:TrackPointExtension><gpxtpx:hr>180</gpxtpx:hr></gpxtpx:TrackPointExtension></extensions>
      </trkpt>
      <trkpt lat="59.243311025681" lon="17.916238746565">
        <ele>94.4</ele>
        <time>2016-04-25T19:18:58Z</time>
        <extensions><gpxtpx:TrackPointExtension><gpxtpx:hr>180</gpxtpx:hr></gpxtpx:TrackPointExtension></extensions>
      </trkpt>
      <trkpt lat="59.243365172755" lon="17.916235226167">
        <ele>94.8</ele>
        <time>2016-04-25T19:18:59Z</time>
        <extensions><gpxtpx:TrackPointExtension><gpxtpx:hr>180</gpxtpx:hr></gpxtpx:TrackPointExtension></extensions>
      </trkpt>
      <trkpt lat="59.243419822743" lon="17.916223575326">
        <ele>95.2</ele>
        <time>2016-04-25T19:19:00Z</time>
        <extensions><gpxtpx:TrackPointExtension><gpxtpx:hr>180</gpxtpx:hr></gpxtpx:TrackPointExtension></extensions>
      </trkpt>
      <trkpt lat="59.243473802179" lon="17.916202201481">
        <ele>95.2</ele>
        <time>2016-04-25T19:19:01Z</time>
        <extensions><gpxtpx:TrackPointExtension><gpxtpx:hr>180</gpxtpx:hr></gpxtpx:TrackPointExtension></extensions>
      </trkpt>
      <trkpt lat="59.243682679127" lon="17.9161603758">
        <ele>95.6</ele>
        <time>2016-04-25T19:19:05Z</time>
        <extensions><gpxtpx:TrackPointExtension><gpxtpx:hr>180</gpxtpx:hr></gpxtpx:TrackPointExtension></extensions>
      </trkpt>
      <trkpt lat="59.243728025206" lon="17.916145875113">
        <ele>96</ele>
        <time>2016-04-25T19:19:06Z</time>
        <extensions><gpxtpx:TrackPointExtension><gpxtpx:hr>179</gpxtpx:hr></gpxtpx:TrackPointExtension></extensions>
      </trkpt>
      <trkpt lat="59.243773706561" lon="17.916130787693">
        <ele>96.4</ele>
        <time>2016-04-25T19:19:07Z</time>
        <extensions><gpxtpx:TrackPointExtension><gpxtpx:hr>179</gpxtpx:hr></gpxtpx:TrackPointExtension></extensions>
      </trkpt>
      <trkpt lat="59.243823075952" lon="17.916122992526">
        <ele>97</ele>
        <time>2016-04-25T19:19:08Z</time>
        <extensions><gpxtpx:TrackPointExtension><gpxtpx:hr>179</gpxtpx:hr></gpxtpx:TrackPointExtension></extensions>
      </trkpt>
      <trkpt lat="59.243864566357" lon="17.916115364997">
        <ele>97.4</ele>
        <time>2016-04-25T19:19:09Z</time>
        <extensions><gpxtpx:TrackPointExtension><gpxtpx:hr>179</gpxtpx:hr></gpxtpx:TrackPointExtension></extensions>
      </trkpt>
      <trkpt lat="59.24390873897" lon="17.916126261467">
        <ele>98</ele>
        <time>2016-04-25T19:19:10Z</time>
        <extensions><gpxtpx:TrackPointExtension><gpxtpx:hr>179</gpxtpx:hr></gpxtpx:TrackPointExtension></extensions>
      </trkpt>
      <trkpt lat="59.243950229375" lon="17.916148138226">
        <ele>98.4</ele>
        <time>2016-04-25T19:19:11Z</time>
        <extensions><gpxtpx:TrackPointExtension><gpxtpx:hr>179</gpxtpx:hr></gpxtpx:TrackPointExtension></extensions>
      </trkpt>
      <trkpt lat="59.243992809427" lon="17.916160711076">
        <ele>99</ele>
        <time>2016-04-25T19:19:12Z</time>
        <extensions><gpxtpx:TrackPointExtension><gpxtpx:hr>179</gpxtpx:hr></gpxtpx:TrackPointExtension></extensions>
      </trkpt>
      <trkpt lat="59.244032874909" lon="17.916177558695">
        <ele>99.4</ele>
        <time>2016-04-25T19:19:13Z</time>
        <extensions><gpxtpx:TrackPointExtension><gpxtpx:hr>179</gpxtpx:hr></gpxtpx:TrackPointExtension></extensions>
      </trkpt>
      <trkpt lat="59.244078472445" lon="17.916189963907">
        <ele>100</ele>
        <time>2016-04-25T19:19:14Z</time>
        <extensions><gpxtpx:TrackPointExtension><gpxtpx:hr>180</gpxtpx:hr></gpxtpx:TrackPointExtension></extensions>
      </trkpt>
      <trkpt lat="59.244112586778" lon="17.916204213137">
        <ele>100.6</ele>
        <time>2016-04-25T19:19:15Z</time>
        <extensions><gpxtpx:TrackPointExtension><gpxtpx:hr>180</gpxtpx:hr></gpxtpx:TrackPointExtension></extensions>
      </trkpt>
      <trkpt lat="59.244149215681" lon="17.916220390204">
        <ele>101.2</ele>
        <time>2016-04-25T19:19:16Z</time>
        <extensions><gpxtpx:TrackPointExtension><gpxtpx:hr>180</gpxtpx:hr></gpxtpx:TrackPointExtension></extensions>
      </trkpt>
      <trkpt lat="59.244189700258" lon="17.916228185371">
        <ele>101.8</ele>
        <time>2016-04-25T19:19:17Z</time>
        <extensions><gpxtpx:TrackPointExtension><gpxtpx:hr>180</gpxtpx:hr></gpxtpx:TrackPointExtension></extensions>
      </trkpt>
      <trkpt lat="59.244229933378" lon="17.916239920031">
        <ele>102.4</ele>
        <time>2016-04-25T19:19:18Z</time>
        <extensions><gpxtpx:TrackPointExtension><gpxtpx:hr>180</gpxtpx:hr></gpxtpx:TrackPointExtension></extensions>
      </trkpt>
      <trkpt lat="59.244270669412" lon="17.916261964428">
        <ele>103</ele>
        <time>2016-04-25T19:19:19Z</time>
        <extensions><gpxtpx:TrackPointExtension><gpxtpx:hr>180</gpxtpx:hr></gpxtpx:TrackPointExtension></extensions>
      </trkpt>
      <trkpt lat="59.244309477609" lon="17.91626766412">
        <ele>103.6</ele>
        <time>2016-04-25T19:19:20Z</time>
        <extensions><gpxtpx:TrackPointExtension><gpxtpx:hr>180</gpxtpx:hr></gpxtpx:TrackPointExtension></extensions>
      </trkpt>
      <trkpt lat="59.244345771236" lon="17.916277806219">
        <ele>104.2</ele>
        <time>2016-04-25T19:19:21Z</time>
        <extensions><gpxtpx:TrackPointExtension><gpxtpx:hr>180</gpxtpx:hr></gpxtpx:TrackPointExtension></extensions>
      </trkpt>
      <trkpt lat="59.244386758727" lon="17.916286020481">
        <ele>104.8</ele>
        <time>2016-04-25T19:19:22Z</time>
        <extensions><gpxtpx:TrackPointExtension><gpxtpx:hr>180</gpxtpx:hr></gpxtpx:TrackPointExtension></extensions>
      </trkpt>
      <trkpt lat="59.244429841693" lon="17.916279901694">
        <ele>105.2</ele>
        <time>2016-04-25T19:19:23Z</time>
        <extensions><gpxtpx:TrackPointExtension><gpxtpx:hr>181</gpxtpx:hr></gpxtpx:TrackPointExtension></extensions>
      </trkpt>
      <trkpt lat="59.244469907175" lon="17.916287613042">
        <ele>105.8</ele>
        <time>2016-04-25T19:19:24Z</time>
        <extensions><gpxtpx:TrackPointExtension><gpxtpx:hr>181</gpxtpx:hr></gpxtpx:TrackPointExtension></extensions>
      </trkpt>
      <trkpt lat="59.244514415064" lon="17.916293061277">
        <ele>106.2</ele>
        <time>2016-04-25T19:19:25Z</time>
        <extensions><gpxtpx:TrackPointExtension><gpxtpx:hr>181</gpxtpx:hr></gpxtpx:TrackPointExtension></extensions>
      </trkpt>
      <trkpt lat="59.244553726175" lon="17.916294821476">
        <ele>106.8</ele>
        <time>2016-04-25T19:19:26Z</time>
        <extensions><gpxtpx:TrackPointExtension><gpxtpx:hr>181</gpxtpx:hr></gpxtpx:TrackPointExtension></extensions>
      </trkpt>
      <trkpt lat="59.244595803313" lon="17.916302784281">
        <ele>107.2</ele>
        <time>2016-04-25T19:19:27Z</time>
        <extensions><gpxtpx:TrackPointExtension><gpxtpx:hr>181</gpxtpx:hr></gpxtpx:TrackPointExtension></extensions>
      </trkpt>
      <trkpt lat="59.244638215727" lon="17.916302616643">
        <ele>107.6</ele>
        <time>2016-04-25T19:19:28Z</time>
        <extensions><gpxtpx:TrackPointExtension><gpxtpx:hr>181</gpxtpx:hr></gpxtpx:TrackPointExtension></extensions>
      </trkpt>
      <trkpt lat="59.244684819091" lon="17.916303371014">
        <ele>108.4</ele>
        <time>2016-04-25T19:19:29Z</time>
        <extensions><gpxtpx:TrackPointExtension><gpxtpx:hr>181</gpxtpx:hr></gpxtpx:TrackPointExtension></extensions>
      </trkpt>
      <trkpt lat="59.244732763559" lon="17.916280907522">
        <ele>109</ele>
        <time>2016-04-25T19:19:30Z</time>
        <extensions><gpxtpx:TrackPointExtension><gpxtpx:hr>181</gpxtpx:hr></gpxtpx:TrackPointExtension></extensions>
      </trkpt>
      <trkpt lat="59.24488942127" lon="17.916171439908">
        <ele>109</ele>
        <time>2016-04-25T19:19:33Z</time>
        <extensions><gpxtpx:TrackPointExtension><gpxtpx:hr>181</gpxtpx:hr></gpxtpx:TrackPointExtension></extensions>
      </trkpt>
      <trkpt lat="59.244938455385" lon="17.916119053033">
        <ele>109</ele>
        <time>2016-04-25T19:19:34Z</time>
        <extensions><gpxtpx:TrackPointExtension><gpxtpx:hr>181</gpxtpx:hr></gpxtpx:TrackPointExtension></extensions>
      </trkpt>
      <trkpt lat="59.245181698123" lon="17.915893663742">
        <ele>109</ele>
        <time>2016-04-25T19:19:39Z</time>
        <extensions><gpxtpx:TrackPointExtension><gpxtpx:hr>181</gpxtpx:hr></gpxtpx:TrackPointExtension></extensions>
      </trkpt>
      <trkpt lat="59.245270713901" lon="17.915842617971">
        <ele>109.4</ele>
        <time>2016-04-25T19:19:41Z</time>
        <extensions><gpxtpx:TrackPointExtension><gpxtpx:hr>180</gpxtpx:hr></gpxtpx:TrackPointExtension></extensions>
      </trkpt>
      <trkpt lat="59.245318909826" lon="17.915809928561">
        <ele>110</ele>
        <time>2016-04-25T19:19:42Z</time>
        <extensions><gpxtpx:TrackPointExtension><gpxtpx:hr>180</gpxtpx:hr></gpxtpx:TrackPointExtension></extensions>
      </trkpt>
      <trkpt lat="59.245361070783" lon="17.915787297431">
        <ele>110.4</ele>
        <time>2016-04-25T19:19:43Z</time>
        <extensions><gpxtpx:TrackPointExtension><gpxtpx:hr>180</gpxtpx:hr></gpxtpx:TrackPointExtension></extensions>
      </trkpt>
      <trkpt lat="59.245402645007" lon="17.915766929414">
        <ele>111</ele>
        <time>2016-04-25T19:19:44Z</time>
        <extensions><gpxtpx:TrackPointExtension><gpxtpx:hr>180</gpxtpx:hr></gpxtpx:TrackPointExtension></extensions>
      </trkpt>
      <trkpt lat="59.24544597943" lon="17.915748656872">
        <ele>111.4</ele>
        <time>2016-04-25T19:19:45Z</time>
        <extensions><gpxtpx:TrackPointExtension><gpxtpx:hr>180</gpxtpx:hr></gpxtpx:TrackPointExtension></extensions>
      </trkpt>
      <trkpt lat="59.245534073199" lon="17.915730049054">
        <ele>111.4</ele>
        <time>2016-04-25T19:19:47Z</time>
        <extensions><gpxtpx:TrackPointExtension><gpxtpx:hr>180</gpxtpx:hr></gpxtpx:TrackPointExtension></extensions>
      </trkpt>
      <trkpt lat="59.245771029512" lon="17.915662574759">
        <ele>112</ele>
        <time>2016-04-25T19:19:52Z</time>
        <extensions><gpxtpx:TrackPointExtension><gpxtpx:hr>178</gpxtpx:hr></gpxtpx:TrackPointExtension></extensions>
      </trkpt>
      <trkpt lat="59.245826266233" lon="17.915646732968">
        <ele>113</ele>
        <time>2016-04-25T19:19:53Z</time>
        <extensions><gpxtpx:TrackPointExtension><gpxtpx:hr>177</gpxtpx:hr></gpxtpx:TrackPointExtension></extensions>
      </trkpt>
      <trkpt lat="59.245868008095" lon="17.915628376607">
        <ele>113.4</ele>
        <time>2016-04-25T19:19:54Z</time>
        <extensions><gpxtpx:TrackPointExtension><gpxtpx:hr>177</gpxtpx:hr></gpxtpx:TrackPointExtension></extensions>
      </trkpt>
      <trkpt lat="59.24592374773" lon="17.91561722868">
        <ele>114</ele>
        <time>2016-04-25T19:19:55Z</time>
        <extensions><gpxtpx:TrackPointExtension><gpxtpx:hr>177</gpxtpx:hr></gpxtpx:TrackPointExtension></extensions>
      </trkpt>
      <trkpt lat="59.245979487365" lon="17.915604907287">
        <ele>113.4</ele>
        <time>2016-04-25T19:19:56Z</time>
        <extensions><gpxtpx:TrackPointExtension><gpxtpx:hr>176</gpxtpx:hr></gpxtpx:TrackPointExtension></extensions>
      </trkpt>
      <trkpt lat="59.246039250312" lon="17.91559795031">
        <ele>113</ele>
        <time>2016-04-25T19:19:57Z</time>
        <extensions><gpxtpx:TrackPointExtension><gpxtpx:hr>176</gpxtpx:hr></gpxtpx:TrackPointExtension></extensions>
      </trkpt>
      <trkpt lat="59.24610395858" lon="17.915574061895">
        <ele>112.6</ele>
        <time>2016-04-25T19:19:58Z</time>
        <extensions><gpxtpx:TrackPointExtension><gpxtpx:hr>175</gpxtpx:hr></gpxtpx:TrackPointExtension></extensions>
      </trkpt>
      <trkpt lat="59.246157518921" lon="17.915552101317">
        <ele>112.2</ele>
        <time>2016-04-25T19:19:59Z</time>
        <extensions><gpxtpx:TrackPointExtension><gpxtpx:hr>175</gpxtpx:hr></gpxtpx:TrackPointExtension></extensions>
      </trkpt>
      <trkpt lat="59.246209319063" lon="17.915544976702">
        <ele>111.8</ele>
        <time>2016-04-25T19:20:00Z</time>
        <extensions><gpxtpx:TrackPointExtension><gpxtpx:hr>174</gpxtpx:hr></gpxtpx:TrackPointExtension></extensions>
      </trkpt>
      <trkpt lat="59.246270255476" lon="17.915545060521">
        <ele>111.8</ele>
        <time>2016-04-25T19:20:01Z</time>
        <extensions><gpxtpx:TrackPointExtension><gpxtpx:hr>173</gpxtpx:hr></gpxtpx:TrackPointExtension></extensions>
      </trkpt>
      <trkpt lat="59.246511067463" lon="17.915582108519">
        <ele>111.8</ele>
        <time>2016-04-25T19:20:05Z</time>
        <extensions><gpxtpx:TrackPointExtension><gpxtpx:hr>171</gpxtpx:hr></gpxtpx:TrackPointExtension></extensions>
      </trkpt>
      <trkpt lat="59.246708042113" lon="17.91565913818">
        <ele>111.8</ele>
        <time>2016-04-25T19:20:09Z</time>
        <extensions><gpxtpx:TrackPointExtension><gpxtpx:hr>168</gpxtpx:hr></gpxtpx:TrackPointExtension></extensions>
      </trkpt>
      <trkpt lat="59.246812983501" lon="17.915778496436">
        <ele>111.8</ele>
        <time>2016-04-25T19:20:12Z</time>
        <extensions><gpxtpx:TrackPointExtension><gpxtpx:hr>167</gpxtpx:hr></gpxtpx:TrackPointExtension></extensions>
      </trkpt>
      <trkpt lat="59.246826729817" lon="17.915813113683">
        <ele>111.8</ele>
        <time>2016-04-25T19:20:13Z</time>
        <extensions><gpxtpx:TrackPointExtension><gpxtpx:hr>166</gpxtpx:hr></gpxtpx:TrackPointExtension></extensions>
      </trkpt>
      <trkpt lat="59.246880038701" lon="17.915757709324">
        <ele>111.8</ele>
        <time>2016-04-25T19:20:16Z</time>
        <extensions><gpxtpx:TrackPointExtension><gpxtpx:hr>164</gpxtpx:hr></gpxtpx:TrackPointExtension></extensions>
      </trkpt>
      <trkpt lat="59.246874841923" lon="17.915702221146">
        <ele>111.8</ele>
        <time>2016-04-25T19:20:18Z</time>
        <extensions><gpxtpx:TrackPointExtension><gpxtpx:hr>161</gpxtpx:hr></gpxtpx:TrackPointExtension></extensions>
      </trkpt>
      <trkpt lat="59.246854641544" lon="17.915690570305">
        <ele>111.8</ele>
        <time>2016-04-25T19:20:19Z</time>
        <extensions><gpxtpx:TrackPointExtension><gpxtpx:hr>160</gpxtpx:hr></gpxtpx:TrackPointExtension></extensions>
      </trkpt>
      <trkpt lat="59.246779791177" lon="17.915596776844">
        <ele>111.8</ele>
        <time>2016-04-25T19:20:22Z</time>
        <extensions><gpxtpx:TrackPointExtension><gpxtpx:hr>157</gpxtpx:hr></gpxtpx:TrackPointExtension></extensions>
      </trkpt>
      <trkpt lat="59.246745760663" lon="17.915582443795">
        <ele>111.8</ele>
        <time>2016-04-25T19:20:23Z</time>
        <extensions><gpxtpx:TrackPointExtension><gpxtpx:hr>157</gpxtpx:hr></gpxtpx:TrackPointExtension></extensions>
      </trkpt>
      <trkpt lat="59.246709383217" lon="17.91556190814">
        <ele>111.8</ele>
        <time>2016-04-25T19:20:24Z</time>
        <extensions><gpxtpx:TrackPointExtension><gpxtpx:hr>157</gpxtpx:hr></gpxtpx:TrackPointExtension></extensions>
      </trkpt>
      <trkpt lat="59.246635203402" lon="17.915496696958">
        <ele>111.8</ele>
        <time>2016-04-25T19:20:26Z</time>
        <extensions><gpxtpx:TrackPointExtension><gpxtpx:hr>157</gpxtpx:hr></gpxtpx:TrackPointExtension></extensions>
      </trkpt>
      <trkpt lat="59.246547528728" lon="17.915476664217">
        <ele>111.8</ele>
        <time>2016-04-25T19:20:28Z</time>
        <extensions><gpxtpx:TrackPointExtension><gpxtpx:hr>156</gpxtpx:hr></gpxtpx:TrackPointExtension></extensions>
      </trkpt>
      <trkpt lat="59.246373939579" lon="17.915449003947">
        <ele>111.8</ele>
        <time>2016-04-25T19:20:32Z</time>
        <extensions><gpxtpx:TrackPointExtension><gpxtpx:hr>156</gpxtpx:hr></gpxtpx:TrackPointExtension></extensions>
      </trkpt>
      <trkpt lat="59.246280146118" lon="17.915454368363">
        <ele>111.8</ele>
        <time>2016-04-25T19:20:34Z</time>
        <extensions><gpxtpx:TrackPointExtension><gpxtpx:hr>155</gpxtpx:hr></gpxtpx:TrackPointExtension></extensions>
      </trkpt>
      <trkpt lat="59.246138240551" lon="17.915483872651">
        <ele>111.8</ele>
        <time>2016-04-25T19:20:37Z</time>
        <extensions><gpxtpx:TrackPointExtension><gpxtpx:hr>154</gpxtpx:hr></gpxtpx:TrackPointExtension></extensions>
      </trkpt>
      <trkpt lat="59.245951659457" lon="17.915550341118">
        <ele>111.8</ele>
        <time>2016-04-25T19:20:41Z</time>
        <extensions><gpxtpx:TrackPointExtension><gpxtpx:hr>153</gpxtpx:hr></gpxtpx:TrackPointExtension></extensions>
      </trkpt>
      <trkpt lat="59.245799779429" lon="17.915595771016">
        <ele>111.8</ele>
        <time>2016-04-25T19:20:44Z</time>
        <extensions><gpxtpx:TrackPointExtension><gpxtpx:hr>152</gpxtpx:hr></gpxtpx:TrackPointExtension></extensions>
      </trkpt>
      <trkpt lat="59.245696514421" lon="17.915642290561">
        <ele>111.8</ele>
        <time>2016-04-25T19:20:46Z</time>
        <extensions><gpxtpx:TrackPointExtension><gpxtpx:hr>151</gpxtpx:hr></gpxtpx:TrackPointExtension></extensions>
      </trkpt>
      <trkpt lat="59.245639936596" lon="17.915675315247">
        <ele>111.8</ele>
        <time>2016-04-25T19:20:47Z</time>
        <extensions><gpxtpx:TrackPointExtension><gpxtpx:hr>150</gpxtpx:hr></gpxtpx:TrackPointExtension></extensions>
      </trkpt>
      <trkpt lat="59.245586208617" lon="17.915674979971">
        <ele>111.8</ele>
        <time>2016-04-25T19:20:48Z</time>
        <extensions><gpxtpx:TrackPointExtension><gpxtpx:hr>150</gpxtpx:hr></gpxtpx:TrackPointExtension></extensions>
      </trkpt>
      <trkpt lat="59.245409853441" lon="17.915769527803">
        <ele>111.8</ele>
        <time>2016-04-25T19:20:51Z</time>
        <extensions><gpxtpx:TrackPointExtension><gpxtpx:hr>150</gpxtpx:hr></gpxtpx:TrackPointExtension></extensions>
      </trkpt>
      <trkpt lat="59.24520206614" lon="17.915935070328">
        <ele>111.2</ele>
        <time>2016-04-25T19:20:54Z</time>
        <extensions><gpxtpx:TrackPointExtension><gpxtpx:hr>149</gpxtpx:hr></gpxtpx:TrackPointExtension></extensions>
      </trkpt>
      <trkpt lat="59.245130233257" lon="17.915991731972">
        <ele>110.8</ele>
        <time>2016-04-25T19:20:55Z</time>
        <extensions><gpxtpx:TrackPointExtension><gpxtpx:hr>148</gpxtpx:hr></gpxtpx:TrackPointExtension></extensions>
      </trkpt>
      <trkpt lat="59.245061166401" lon="17.916057529887">
        <ele>110.4</ele>
        <time>2016-04-25T19:20:56Z</time>
        <extensions><gpxtpx:TrackPointExtension><gpxtpx:hr>147</gpxtpx:hr></gpxtpx:TrackPointExtension></extensions>
      </trkpt>
      <trkpt lat="59.244991009898" lon="17.916106480183">
        <ele>109.8</ele>
        <time>2016-04-25T19:20:57Z</time>
        <extensions><gpxtpx:TrackPointExtension><gpxtpx:hr>146</gpxtpx:hr></gpxtpx:TrackPointExtension></extensions>
      </trkpt>
      <trkpt lat="59.244925714897" lon="17.916146713303">
        <ele>109.4</ele>
        <time>2016-04-25T19:20:58Z</time>
        <extensions><gpxtpx:TrackPointExtension><gpxtpx:hr>146</gpxtpx:hr></gpxtpx:TrackPointExtension></extensions>
      </trkpt>
      <trkpt lat="59.244849271969" lon="17.91617630141">
        <ele>109.4</ele>
        <time>2016-04-25T19:20:59Z</time>
        <extensions><gpxtpx:TrackPointExtension><gpxtpx:hr>145</gpxtpx:hr></gpxtpx:TrackPointExtension></extensions>
      </trkpt>
      <trkpt lat="59.244771068842" lon="17.916182084921">
        <ele>109.4</ele>
        <time>2016-04-25T19:21:00Z</time>
        <extensions><gpxtpx:TrackPointExtension><gpxtpx:hr>144</gpxtpx:hr></gpxtpx:TrackPointExtension></extensions>
      </trkpt>
      <trkpt lat="59.244609130534" lon="17.916156771583">
        <ele>109</ele>
        <time>2016-04-25T19:21:02Z</time>
        <extensions><gpxtpx:TrackPointExtension><gpxtpx:hr>142</gpxtpx:hr></gpxtpx:TrackPointExtension></extensions>
      </trkpt>
      <trkpt lat="59.24451391215" lon="17.916138331403">
        <ele>108.6</ele>
        <time>2016-04-25T19:21:03Z</time>
        <extensions><gpxtpx:TrackPointExtension><gpxtpx:hr>140</gpxtpx:hr></gpxtpx:TrackPointExtension></extensions>
      </trkpt>
      <trkpt lat="59.244415089549" lon="17.916112096056">
        <ele>108</ele>
        <time>2016-04-25T19:21:04Z</time>
        <extensions><gpxtpx:TrackPointExtension><gpxtpx:hr>138</gpxtpx:hr></gpxtpx:TrackPointExtension></extensions>
      </trkpt>
      <trkpt lat="59.244308220324" lon="17.916084854881">
        <ele>106.2</ele>
        <time>2016-04-25T19:21:05Z</time>
        <extensions><gpxtpx:TrackPointExtension><gpxtpx:hr>137</gpxtpx:hr></gpxtpx:TrackPointExtension></extensions>
      </trkpt>
      <trkpt lat="59.244202776022" lon="17.91604470558">
        <ele>105.4</ele>
        <time>2016-04-25T19:21:06Z</time>
        <extensions><gpxtpx:TrackPointExtension><gpxtpx:hr>136</gpxtpx:hr></gpxtpx:TrackPointExtension></extensions>
      </trkpt>
      <trkpt lat="59.244092554037" lon="17.916016290939">
        <ele>104</ele>
        <time>2016-04-25T19:21:07Z</time>
        <extensions><gpxtpx:TrackPointExtension><gpxtpx:hr>135</gpxtpx:hr></gpxtpx:TrackPointExtension></extensions>
      </trkpt>
      <trkpt lat="59.243976883817" lon="17.915995000913">
        <ele>102.8</ele>
        <time>2016-04-25T19:21:08Z</time>
        <extensions><gpxtpx:TrackPointExtension><gpxtpx:hr>134</gpxtpx:hr></gpxtpx:TrackPointExtension></extensions>
      </trkpt>
      <trkpt lat="59.243859872493" lon="17.915998186035">
        <ele>101.4</ele>
        <time>2016-04-25T19:21:09Z</time>
        <extensions><gpxtpx:TrackPointExtension><gpxtpx:hr>133</gpxtpx:hr></gpxtpx:TrackPointExtension></extensions>
      </trkpt>
      <trkpt lat="59.243739759866" lon="17.916033892929">
        <ele>100</ele>
        <time>2016-04-25T19:21:10Z</time>
        <extensions><gpxtpx:TrackPointExtension><gpxtpx:hr>132</gpxtpx:hr></gpxtpx:TrackPointExtension></extensions>
      </trkpt>
      <trkpt lat="59.243609756597" lon="17.916090470754">
        <ele>98.6</ele>
        <time>2016-04-25T19:21:11Z</time>
        <extensions><gpxtpx:TrackPointExtension><gpxtpx:hr>132</gpxtpx:hr></gpxtpx:TrackPointExtension></extensions>
      </trkpt>
      <trkpt lat="59.243492409997" lon="17.916129614227">
        <ele>97.2</ele>
        <time>2016-04-25T19:21:12Z</time>
        <extensions><gpxtpx:TrackPointExtension><gpxtpx:hr>132</gpxtpx:hr></gpxtpx:TrackPointExtension></extensions>
      </trkpt>
      <trkpt lat="59.24337481194" lon="17.916125926191">
        <ele>95.8</ele>
        <time>2016-04-25T19:21:13Z</time>
        <extensions><gpxtpx:TrackPointExtension><gpxtpx:hr>132</gpxtpx:hr></gpxtpx:TrackPointExtension></extensions>
      </trkpt>
      <trkpt lat="59.243262159204" lon="17.916096505722">
        <ele>94.8</ele>
        <time>2016-04-25T19:21:14Z</time>
        <extensions><gpxtpx:TrackPointExtension><gpxtpx:hr>132</gpxtpx:hr></gpxtpx:TrackPointExtension></extensions>
      </trkpt>
      <trkpt lat="59.243153445961" lon="17.916051662557">
        <ele>93.8</ele>
        <time>2016-04-25T19:21:15Z</time>
        <extensions><gpxtpx:TrackPointExtension><gpxtpx:hr>131</gpxtpx:hr></gpxtpx:TrackPointExtension></extensions>
      </trkpt>
      <trkpt lat="59.243043056338" lon="17.916020230432">
        <ele>92.8</ele>
        <time>2016-04-25T19:21:16Z</time>
        <extensions><gpxtpx:TrackPointExtension><gpxtpx:hr>130</gpxtpx:hr></gpxtpx:TrackPointExtension></extensions>
      </trkpt>
      <trkpt lat="59.242934846009" lon="17.915978069475">
        <ele>91.8</ele>
        <time>2016-04-25T19:21:17Z</time>
        <extensions><gpxtpx:TrackPointExtension><gpxtpx:hr>129</gpxtpx:hr></gpxtpx:TrackPointExtension></extensions>
      </trkpt>
      <trkpt lat="59.242825881309" lon="17.91590975699">
        <ele>90.8</ele>
        <time>2016-04-25T19:21:18Z</time>
        <extensions><gpxtpx:TrackPointExtension><gpxtpx:hr>128</gpxtpx:hr></gpxtpx:TrackPointExtension></extensions>
      </trkpt>
      <trkpt lat="59.242639216396" lon="17.915791404562">
        <ele>90.8</ele>
        <time>2016-04-25T19:21:20Z</time>
        <extensions><gpxtpx:TrackPointExtension><gpxtpx:hr>126</gpxtpx:hr></gpxtpx:TrackPointExtension></extensions>
      </trkpt>
      <trkpt lat="59.24249471244" lon="17.915683948604">
        <ele>90.4</ele>
        <time>2016-04-25T19:21:22Z</time>
        <extensions><gpxtpx:TrackPointExtension><gpxtpx:hr>125</gpxtpx:hr></gpxtpx:TrackPointExtension></extensions>
      </trkpt>
      <trkpt lat="59.242441487375" lon="17.91563315429">
        <ele>90</ele>
        <time>2016-04-25T19:21:23Z</time>
        <extensions><gpxtpx:TrackPointExtension><gpxtpx:hr>126</gpxtpx:hr></gpxtpx:TrackPointExtension></extensions>
      </trkpt>
      <trkpt lat="59.242395973658" lon="17.915607254219">
        <ele>89.6</ele>
        <time>2016-04-25T19:21:24Z</time>
        <extensions><gpxtpx:TrackPointExtension><gpxtpx:hr>125</gpxtpx:hr></gpxtpx:TrackPointExtension></extensions>
      </trkpt>
      <trkpt lat="59.242366804646" lon="17.915591831523">
        <ele>89.2</ele>
        <time>2016-04-25T19:21:25Z</time>
        <extensions><gpxtpx:TrackPointExtension><gpxtpx:hr>125</gpxtpx:hr></gpxtpx:TrackPointExtension></extensions>
      </trkpt>
      <trkpt lat="59.242322380576" lon="17.915559980303">
        <ele>88.8</ele>
        <time>2016-04-25T19:21:26Z</time>
        <extensions><gpxtpx:TrackPointExtension><gpxtpx:hr>125</gpxtpx:hr></gpxtpx:TrackPointExtension></extensions>
      </trkpt>
      <trkpt lat="59.242170165272" lon="17.915417907098">
        <ele>88.2</ele>
        <time>2016-04-25T19:21:29Z</time>
        <extensions><gpxtpx:TrackPointExtension><gpxtpx:hr>124</gpxtpx:hr></gpxtpx:TrackPointExtension></extensions>
      </trkpt>
      <trkpt lat="59.242113252171" lon="17.915365687861">
        <ele>87.2</ele>
        <time>2016-04-25T19:21:30Z</time>
        <extensions><gpxtpx:TrackPointExtension><gpxtpx:hr>124</gpxtpx:hr></gpxtpx:TrackPointExtension></extensions>
      </trkpt>
      <trkpt lat="59.242052315758" lon="17.915313720081">
        <ele>86.8</ele>
        <time>2016-04-25T19:21:31Z</time>
        <extensions><gpxtpx:TrackPointExtension><gpxtpx:hr>124</gpxtpx:hr></gpxtpx:TrackPointExtension></extensions>
      </trkpt>
      <trkpt lat="59.241991211707" lon="17.915265607975">
        <ele>86.2</ele>
        <time>2016-04-25T19:21:32Z</time>
        <extensions><gpxtpx:TrackPointExtension><gpxtpx:hr>124</gpxtpx:hr></gpxtpx:TrackPointExtension></extensions>
      </trkpt>
      <trkpt lat="59.241752662833" lon="17.915070896438">
        <ele>86.2</ele>
        <time>2016-04-25T19:21:36Z</time>
        <extensions><gpxtpx:TrackPointExtension><gpxtpx:hr>121</gpxtpx:hr></gpxtpx:TrackPointExtension></extensions>
      </trkpt>
      <trkpt lat="59.241690720592" lon="17.915037955571">
        <ele>86.2</ele>
        <time>2016-04-25T19:21:37Z</time>
        <extensions><gpxtpx:TrackPointExtension><gpxtpx:hr>122</gpxtpx:hr></gpxtpx:TrackPointExtension></extensions>
      </trkpt>
      <trkpt lat="59.241558118934" lon="17.914980623375">
        <ele>85.8</ele>
        <time>2016-04-25T19:21:39Z</time>
        <extensions><gpxtpx:TrackPointExtension><gpxtpx:hr>123</gpxtpx:hr></gpxtpx:TrackPointExtension></extensions>
      </trkpt>
      <trkpt lat="59.241486788965" lon="17.914947850146">
        <ele>85.2</ele>
        <time>2016-04-25T19:21:40Z</time>
        <extensions><gpxtpx:TrackPointExtension><gpxtpx:hr>124</gpxtpx:hr></gpxtpx:TrackPointExtension></extensions>
      </trkpt>
      <trkpt lat="59.24140087449" lon="17.914972073837">
        <ele>84.8</ele>
        <time>2016-04-25T19:21:41Z</time>
        <extensions><gpxtpx:TrackPointExtension><gpxtpx:hr>124</gpxtpx:hr></gpxtpx:TrackPointExtension></extensions>
      </trkpt>
      <trkpt lat="59.241317306947" lon="17.915056144294">
        <ele>84.2</ele>
        <time>2016-04-25T19:21:42Z</time>
        <extensions><gpxtpx:TrackPointExtension><gpxtpx:hr>124</gpxtpx:hr></gpxtpx:TrackPointExtension></extensions>
      </trkpt>
      <trkpt lat="59.241240612562" lon="17.915158654931">
        <ele>83.6</ele>
        <time>2016-04-25T19:21:43Z</time>
        <extensions><gpxtpx:TrackPointExtension><gpxtpx:hr>124</gpxtpx:hr></gpxtpx:TrackPointExtension></extensions>
      </trkpt>
      <trkpt lat="59.241170456059" lon="17.915266110889">
        <ele>83</ele>
        <time>2016-04-25T19:21:44Z</time>
        <extensions><gpxtpx:TrackPointExtension><gpxtpx:hr>123</gpxtpx:hr></gpxtpx:TrackPointExtension></extensions>
      </trkpt>
      <trkpt lat="59.241094599864" lon="17.915355964857">
        <ele>82.2</ele>
        <time>2016-04-25T19:21:45Z</time>
        <extensions><gpxtpx:TrackPointExtension><gpxtpx:hr>123</gpxtpx:hr></gpxtpx:TrackPointExtension></extensions>
      </trkpt>
      <trkpt lat="59.241015223271" lon="17.915433832708">
        <ele>81.4</ele>
        <time>2016-04-25T19:21:46Z</time>
        <extensions><gpxtpx:TrackPointExtension><gpxtpx:hr>123</gpxtpx:hr></gpxtpx:TrackPointExtension></extensions>
      </trkpt>
      <trkpt lat="59.240930230805" lon="17.915500636451">
        <ele>80.6</ele>
        <time>2016-04-25T19:21:47Z</time>
        <extensions><gpxtpx:TrackPointExtension><gpxtpx:hr>122</gpxtpx:hr></gpxtpx:TrackPointExtension></extensions>
      </trkpt>
      <trkpt lat="59.240839119552" lon="17.915551346946">
        <ele>79.8</ele>
        <time>2016-04-25T19:21:48Z</time>
        <extensions><gpxtpx:TrackPointExtension><gpxtpx:hr>121</gpxtpx:hr></gpxtpx:TrackPointExtension></extensions>
      </trkpt>
      <trkpt lat="59.240750858145" lon="17.915608260047">
        <ele>79</ele>
        <time>2016-04-25T19:21:49Z</time>
        <extensions><gpxtpx:TrackPointExtension><gpxtpx:hr>120</gpxtpx:hr></gpxtpx:TrackPointExtension></extensions>
      </trkpt>
      <trkpt lat="59.24066494367" lon="17.915641620009">
        <ele>78.6</ele>
        <time>2016-04-25T19:21:50Z</time>
        <extensions><gpxtpx:TrackPointExtension><gpxtpx:hr>119</gpxtpx:hr></gpxtpx:TrackPointExtension></extensions>
      </trkpt>
      <trkpt lat="59.240585818534" lon="17.915697862558">
        <ele>78</ele>
        <time>2016-04-25T19:21:51Z</time>
        <extensions><gpxtpx:TrackPointExtension><gpxtpx:hr>118</gpxtpx:hr></gpxtpx:TrackPointExtension></extensions>
      </trkpt>
      <trkpt lat="59.240502586267" lon="17.915745304112">
        <ele>77.6</ele>
        <time>2016-04-25T19:21:52Z</time>
        <extensions><gpxtpx:TrackPointExtension><gpxtpx:hr>117</gpxtpx:hr></gpxtpx:TrackPointExtension></extensions>
      </trkpt>
      <trkpt lat="59.240421617113" lon="17.915782771205">
        <ele>77.2</ele>
        <time>2016-04-25T19:21:53Z</time>
        <extensions><gpxtpx:TrackPointExtension><gpxtpx:hr>117</gpxtpx:hr></gpxtpx:TrackPointExtension></extensions>
      </trkpt>
      <trkpt lat="59.240337714294" lon="17.915845803093">
        <ele>76.8</ele>
        <time>2016-04-25T19:21:54Z</time>
        <extensions><gpxtpx:TrackPointExtension><gpxtpx:hr>116</gpxtpx:hr></gpxtpx:TrackPointExtension></extensions>
      </trkpt>
      <trkpt lat="59.240071924245" lon="17.91594496097">
        <ele>76.2</ele>
        <time>2016-04-25T19:21:57Z</time>
        <extensions><gpxtpx:TrackPointExtension><gpxtpx:hr>113</gpxtpx:hr></gpxtpx:TrackPointExtension></extensions>
      </trkpt>
      <trkpt lat="59.23998684796" lon="17.915964742254">
        <ele>75.8</ele>
        <time>2016-04-25T19:21:58Z</time>
        <extensions><gpxtpx:TrackPointExtension><gpxtpx:hr>112</gpxtpx:hr></gpxtpx:TrackPointExtension></extensions>
      </trkpt>
      <trkpt lat="59.239905711168" lon="17.915980416407">
        <ele>75.2</ele>
        <time>2016-04-25T19:21:59Z</time>
        <extensions><gpxtpx:TrackPointExtension><gpxtpx:hr>112</gpxtpx:hr></gpxtpx:TrackPointExtension></extensions>
      </trkpt>
      <trkpt lat="59.239822143625" lon="17.916001706433">
        <ele>74.6</ele>
        <time>2016-04-25T19:22:00Z</time>
        <extensions><gpxtpx:TrackPointExtension><gpxtpx:hr>111</gpxtpx:hr></gpxtpx:TrackPointExtension></extensions>
      </trkpt>
      <trkpt lat="59.239728517802" lon="17.915982847158">
        <ele>74</ele>
        <time>2016-04-25T19:22:01Z</time>
        <extensions><gpxtpx:TrackPointExtension><gpxtpx:hr>111</gpxtpx:hr></gpxtpx:TrackPointExtension></extensions>
      </trkpt>
      <trkpt lat="59.239630784848" lon="17.915985529366">
        <ele>73</ele>
        <time>2016-04-25T19:22:02Z</time>
        <extensions><gpxtpx:TrackPointExtension><gpxtpx:hr>111</gpxtpx:hr></gpxtpx:TrackPointExtension></extensions>
      </trkpt>
      <trkpt lat="59.23953673993" lon="17.916012435265">
        <ele>72</ele>
        <time>2016-04-25T19:22:03Z</time>
        <extensions><gpxtpx:TrackPointExtension><gpxtpx:hr>111</gpxtpx:hr></gpxtpx:TrackPointExtension></extensions>
      </trkpt>
      <trkpt lat="59.239453172387" lon="17.916017715862">
        <ele>71</ele>
        <time>2016-04-25T19:22:04Z</time>
        <extensions><gpxtpx:TrackPointExtension><gpxtpx:hr>112</gpxtpx:hr></gpxtpx:TrackPointExtension></extensions>
      </trkpt>
      <trkpt lat="59.239366252084" lon="17.916019476061">
        <ele>70</ele>
        <time>2016-04-25T19:22:05Z</time>
        <extensions><gpxtpx:TrackPointExtension><gpxtpx:hr>111</gpxtpx:hr></gpxtpx:TrackPointExtension></extensions>
      </trkpt>
      <trkpt lat="59.239276733392" lon="17.916024672839">
        <ele>68.8</ele>
        <time>2016-04-25T19:22:06Z</time>
        <extensions><gpxtpx:TrackPointExtension><gpxtpx:hr>112</gpxtpx:hr></gpxtpx:TrackPointExtension></extensions>
      </trkpt>
      <trkpt lat="59.239184951587" lon="17.91605560205">
        <ele>67.8</ele>
        <time>2016-04-25T19:22:07Z</time>
        <extensions><gpxtpx:TrackPointExtension><gpxtpx:hr>113</gpxtpx:hr></gpxtpx:TrackPointExtension></extensions>
      </trkpt>
      <trkpt lat="59.239108089564" lon="17.916090722211">
        <ele>66.6</ele>
        <time>2016-04-25T19:22:08Z</time>
        <extensions><gpxtpx:TrackPointExtension><gpxtpx:hr>114</gpxtpx:hr></gpxtpx:TrackPointExtension></extensions>
      </trkpt>
      <trkpt lat="59.239048578074" lon="17.916113604798">
        <ele>65.6</ele>
        <time>2016-04-25T19:22:09Z</time>
        <extensions><gpxtpx:TrackPointExtension><gpxtpx:hr>115</gpxtpx:hr></gpxtpx:TrackPointExtension></extensions>
      </trkpt>
      <trkpt lat="59.239000633606" lon="17.916132799349">
        <ele>64.6</ele>
        <time>2016-04-25T19:22:10Z</time>
        <extensions><gpxtpx:TrackPointExtension><gpxtpx:hr>116</gpxtpx:hr></gpxtpx:TrackPointExtension></extensions>
      </trkpt>
      <trkpt lat="59.238888316146" lon="17.916122405793">
        <ele>64.6</ele>
        <time>2016-04-25T19:22:13Z</time>
        <extensions><gpxtpx:TrackPointExtension><gpxtpx:hr>113</gpxtpx:hr></gpxtpx:TrackPointExtension></extensions>
      </trkpt>
      <trkpt lat="59.238864846826" lon="17.916060966466">
        <ele>64.6</ele>
        <time>2016-04-25T19:22:14Z</time>
        <extensions><gpxtpx:TrackPointExtension><gpxtpx:hr>113</gpxtpx:hr></gpxtpx:TrackPointExtension></extensions>
      </trkpt>
      <trkpt lat="59.238799719463" lon="17.915788554716">
        <ele>64.6</ele>
        <time>2016-04-25T19:22:18Z</time>
        <extensions><gpxtpx:TrackPointExtension><gpxtpx:hr>112</gpxtpx:hr></gpxtpx:TrackPointExtension></extensions>
      </trkpt>
      <trkpt lat="59.238741381439" lon="17.915687888097">
        <ele>64.6</ele>
        <time>2016-04-25T19:22:21Z</time>
        <extensions><gpxtpx:TrackPointExtension><gpxtpx:hr>113</gpxtpx:hr></gpxtpx:TrackPointExtension></extensions>
      </trkpt>
      <trkpt lat="59.238727216028" lon="17.915746561397">
        <ele>64.6</ele>
        <time>2016-04-25T19:22:22Z</time>
        <extensions><gpxtpx:TrackPointExtension><gpxtpx:hr>114</gpxtpx:hr></gpxtpx:TrackPointExtension></extensions>
      </trkpt>
      <trkpt lat="59.238769125528" lon="17.915923419487">
        <ele>64.6</ele>
        <time>2016-04-25T19:22:24Z</time>
        <extensions><gpxtpx:TrackPointExtension><gpxtpx:hr>117</gpxtpx:hr></gpxtpx:TrackPointExtension></extensions>
      </trkpt>
      <trkpt lat="59.238845736094" lon="17.916118047205">
        <ele>64.6</ele>
        <time>2016-04-25T19:22:26Z</time>
        <extensions><gpxtpx:TrackPointExtension><gpxtpx:hr>121</gpxtpx:hr></gpxtpx:TrackPointExtension></extensions>
      </trkpt>
      <trkpt lat="59.239034328844" lon="17.916139001955">
        <ele>64.6</ele>
        <time>2016-04-25T19:22:29Z</time>
        <extensions><gpxtpx:TrackPointExtension><gpxtpx:hr>128</gpxtpx:hr></gpxtpx:TrackPointExtension></extensions>
      </trkpt>
      <trkpt lat="59.239173300746" lon="17.916093823514">
        <ele>64.6</ele>
        <time>2016-04-25T19:22:31Z</time>
        <extensions><gpxtpx:TrackPointExtension><gpxtpx:hr>132</gpxtpx:hr></gpxtpx:TrackPointExtension></extensions>
      </trkpt>
      <trkpt lat="59.239245217448" lon="17.916077562628">
        <ele>64.6</ele>
        <time>2016-04-25T19:22:32Z</time>
        <extensions><gpxtpx:TrackPointExtension><gpxtpx:hr>134</gpxtpx:hr></gpxtpx:TrackPointExtension></extensions>
      </trkpt>
      <trkpt lat="59.239390224318" lon="17.916071276203">
        <ele>64.6</ele>
        <time>2016-04-25T19:22:33Z</time>
        <extensions><gpxtpx:TrackPointExtension><gpxtpx:hr>140</gpxtpx:hr></gpxtpx:TrackPointExtension></extensions>
      </trkpt>
      <trkpt lat="59.239390224318" lon="17.916071276203">
        <ele>64.6</ele>
        <time>2016-04-25T19:22:34Z</time>
        <extensions><gpxtpx:TrackPointExtension><gpxtpx:hr>140</gpxtpx:hr></gpxtpx:TrackPointExtension></extensions>
      </trkpt>
      <trkpt lat="59.239516204275" lon="17.916050824367">
        <ele>64.6</ele>
        <time>2016-04-25T19:22:36Z</time>
        <extensions><gpxtpx:TrackPointExtension><gpxtpx:hr>144</gpxtpx:hr></gpxtpx:TrackPointExtension></extensions>
      </trkpt>
      <trkpt lat="59.239579739077" lon="17.916043448295">
        <ele>65</ele>
        <time>2016-04-25T19:22:37Z</time>
        <extensions><gpxtpx:TrackPointExtension><gpxtpx:hr>147</gpxtpx:hr></gpxtpx:TrackPointExtension></extensions>
      </trkpt>
      <trkpt lat="59.239640926947" lon="17.916040263173">
        <ele>65.6</ele>
        <time>2016-04-25T19:22:38Z</time>
        <extensions><gpxtpx:TrackPointExtension><gpxtpx:hr>149</gpxtpx:hr></gpxtpx:TrackPointExtension></extensions>
      </trkpt>
      <trkpt lat="59.2397068925" lon="17.91602794178">
        <ele>66</ele>
        <time>2016-04-25T19:22:39Z</time>
        <extensions><gpxtpx:TrackPointExtension><gpxtpx:hr>151</gpxtpx:hr></gpxtpx:TrackPointExtension></extensions>
      </trkpt>
      <trkpt lat="59.239772522777" lon="17.916049399444">
        <ele>66.8</ele>
        <time>2016-04-25T19:22:40Z</time>
        <extensions><gpxtpx:TrackPointExtension><gpxtpx:hr>153</gpxtpx:hr></gpxtpx:TrackPointExtension></extensions>
      </trkpt>
      <trkpt lat="59.239832118086" lon="17.916019643699">
        <ele>67.6</ele>
        <time>2016-04-25T19:22:41Z</time>
        <extensions><gpxtpx:TrackPointExtension><gpxtpx:hr>156</gpxtpx:hr></gpxtpx:TrackPointExtension></extensions>
      </trkpt>
      <trkpt lat="59.23988626516" lon="17.916031378359">
        <ele>69.2</ele>
        <time>2016-04-25T19:22:42Z</time>
        <extensions><gpxtpx:TrackPointExtension><gpxtpx:hr>159</gpxtpx:hr></gpxtpx:TrackPointExtension></extensions>
      </trkpt>
      <trkpt lat="59.239936975655" lon="17.916013776369">
        <ele>70</ele>
        <time>2016-04-25T19:22:43Z</time>
        <extensions><gpxtpx:TrackPointExtension><gpxtpx:hr>161</gpxtpx:hr></gpxtpx:TrackPointExtension></extensions>
      </trkpt>
      <trkpt lat="59.239978968974" lon="17.916000030053">
        <ele>70.6</ele>
        <time>2016-04-25T19:22:44Z</time>
        <extensions><gpxtpx:TrackPointExtension><gpxtpx:hr>163</gpxtpx:hr></gpxtpx:TrackPointExtension></extensions>
      </trkpt>
      <trkpt lat="59.240019285913" lon="17.91598603228">
        <ele>71.4</ele>
        <time>2016-04-25T19:22:45Z</time>
        <extensions><gpxtpx:TrackPointExtension><gpxtpx:hr>165</gpxtpx:hr></gpxtpx:TrackPointExtension></extensions>
      </trkpt>
      <trkpt lat="59.240058429386" lon="17.915982763339">
        <ele>72.2</ele>
        <time>2016-04-25T19:22:46Z</time>
        <extensions><gpxtpx:TrackPointExtension><gpxtpx:hr>166</gpxtpx:hr></gpxtpx:TrackPointExtension></extensions>
      </trkpt>
      <trkpt lat="59.240108050234" lon="17.915964742254">
        <ele>73</ele>
        <time>2016-04-25T19:22:47Z</time>
        <extensions><gpxtpx:TrackPointExtension><gpxtpx:hr>168</gpxtpx:hr></gpxtpx:TrackPointExtension></extensions>
      </trkpt>
      <trkpt lat="59.240157084349" lon="17.915941524391">
        <ele>73.8</ele>
        <time>2016-04-25T19:22:48Z</time>
        <extensions><gpxtpx:TrackPointExtension><gpxtpx:hr>169</gpxtpx:hr></gpxtpx:TrackPointExtension></extensions>
      </trkpt>
      <trkpt lat="59.240193126519" lon="17.915919479994">
        <ele>74.4</ele>
        <time>2016-04-25T19:22:49Z</time>
        <extensions><gpxtpx:TrackPointExtension><gpxtpx:hr>170</gpxtpx:hr></gpxtpx:TrackPointExtension></extensions>
      </trkpt>
      <trkpt lat="59.240247860326" lon="17.915913445026">
        <ele>75</ele>
        <time>2016-04-25T19:22:50Z</time>
        <extensions><gpxtpx:TrackPointExtension><gpxtpx:hr>171</gpxtpx:hr></gpxtpx:TrackPointExtension></extensions>
      </trkpt>
      <trkpt lat="59.240293374043" lon="17.915885952394">
        <ele>75.6</ele>
        <time>2016-04-25T19:22:51Z</time>
        <extensions><gpxtpx:TrackPointExtension><gpxtpx:hr>172</gpxtpx:hr></gpxtpx:TrackPointExtension></extensions>
      </trkpt>
      <trkpt lat="59.240352969352" lon="17.915856783382">
        <ele>76.2</ele>
        <time>2016-04-25T19:22:52Z</time>
        <extensions><gpxtpx:TrackPointExtension><gpxtpx:hr>172</gpxtpx:hr></gpxtpx:TrackPointExtension></extensions>
      </trkpt>
      <trkpt lat="59.240406278236" lon="17.915822752868">
        <ele>76.8</ele>
        <time>2016-04-25T19:22:53Z</time>
        <extensions><gpxtpx:TrackPointExtension><gpxtpx:hr>173</gpxtpx:hr></gpxtpx:TrackPointExtension></extensions>
      </trkpt>
      <trkpt lat="59.240453971247" lon="17.915794254408">
        <ele>76.8</ele>
        <time>2016-04-25T19:22:54Z</time>
        <extensions><gpxtpx:TrackPointExtension><gpxtpx:hr>173</gpxtpx:hr></gpxtpx:TrackPointExtension></extensions>
      </trkpt>
      <trkpt lat="59.240754881457" lon="17.91561722868">
        <ele>76.8</ele>
        <time>2016-04-25T19:22:59Z</time>
        <extensions><gpxtpx:TrackPointExtension><gpxtpx:hr>175</gpxtpx:hr></gpxtpx:TrackPointExtension></extensions>
      </trkpt>
      <trkpt lat="59.240825959969" lon="17.915576241189">
        <ele>76.8</ele>
        <time>2016-04-25T19:23:00Z</time>
        <extensions><gpxtpx:TrackPointExtension><gpxtpx:hr>175</gpxtpx:hr></gpxtpx:TrackPointExtension></extensions>
      </trkpt>
      <trkpt lat="59.240877592473" lon="17.915526871798">
        <ele>77.2</ele>
        <time>2016-04-25T19:23:01Z</time>
        <extensions><gpxtpx:TrackPointExtension><gpxtpx:hr>175</gpxtpx:hr></gpxtpx:TrackPointExtension></extensions>
      </trkpt>
      <trkpt lat="59.240939283257" lon="17.915474987837">
        <ele>77.6</ele>
        <time>2016-04-25T19:23:02Z</time>
        <extensions><gpxtpx:TrackPointExtension><gpxtpx:hr>175</gpxtpx:hr></gpxtpx:TrackPointExtension></extensions>
      </trkpt>
      <trkpt lat="59.241000638765" lon="17.915415727804">
        <ele>78</ele>
        <time>2016-04-25T19:23:03Z</time>
        <extensions><gpxtpx:TrackPointExtension><gpxtpx:hr>175</gpxtpx:hr></gpxtpx:TrackPointExtension></extensions>
      </trkpt>
      <trkpt lat="59.241056294581" lon="17.915351270993">
        <ele>78.4</ele>
        <time>2016-04-25T19:23:04Z</time>
        <extensions><gpxtpx:TrackPointExtension><gpxtpx:hr>176</gpxtpx:hr></gpxtpx:TrackPointExtension></extensions>
      </trkpt>
      <trkpt lat="59.241109603465" lon="17.91528698182">
        <ele>79</ele>
        <time>2016-04-25T19:23:05Z</time>
        <extensions><gpxtpx:TrackPointExtension><gpxtpx:hr>176</gpxtpx:hr></gpxtpx:TrackPointExtension></extensions>
      </trkpt>
      <trkpt lat="59.241214544853" lon="17.915174329084">
        <ele>79</ele>
        <time>2016-04-25T19:23:07Z</time>
        <extensions><gpxtpx:TrackPointExtension><gpxtpx:hr>176</gpxtpx:hr></gpxtpx:TrackPointExtension></extensions>
      </trkpt>
      <trkpt lat="59.241327029951" lon="17.91512185839">
        <ele>79.4</ele>
        <time>2016-04-25T19:23:09Z</time>
        <extensions><gpxtpx:TrackPointExtension><gpxtpx:hr>176</gpxtpx:hr></gpxtpx:TrackPointExtension></extensions>
      </trkpt>
      <trkpt lat="59.241374555324" lon="17.915116577793">
        <ele>80</ele>
        <time>2016-04-25T19:23:10Z</time>
        <extensions><gpxtpx:TrackPointExtension><gpxtpx:hr>176</gpxtpx:hr></gpxtpx:TrackPointExtension></extensions>
      </trkpt>
      <trkpt lat="59.241424930543" lon="17.915096209776">
        <ele>80.4</ele>
        <time>2016-04-25T19:23:11Z</time>
        <extensions><gpxtpx:TrackPointExtension><gpxtpx:hr>176</gpxtpx:hr></gpxtpx:TrackPointExtension></extensions>
      </trkpt>
      <trkpt lat="59.241473042649" lon="17.915118002716">
        <ele>81</ele>
        <time>2016-04-25T19:23:12Z</time>
        <extensions><gpxtpx:TrackPointExtension><gpxtpx:hr>176</gpxtpx:hr></gpxtpx:TrackPointExtension></extensions>
      </trkpt>
      <trkpt lat="59.241521322393" lon="17.91512521115">
        <ele>81.4</ele>
        <time>2016-04-25T19:23:13Z</time>
        <extensions><gpxtpx:TrackPointExtension><gpxtpx:hr>176</gpxtpx:hr></gpxtpx:TrackPointExtension></extensions>
      </trkpt>
      <trkpt lat="59.241580163331" lon="17.915155637447">
        <ele>82</ele>
        <time>2016-04-25T19:23:14Z</time>
        <extensions><gpxtpx:TrackPointExtension><gpxtpx:hr>176</gpxtpx:hr></gpxtpx:TrackPointExtension></extensions>
      </trkpt>
      <trkpt lat="59.241617211329" lon="17.915193272178">
        <ele>82.4</ele>
        <time>2016-04-25T19:23:15Z</time>
        <extensions><gpxtpx:TrackPointExtension><gpxtpx:hr>176</gpxtpx:hr></gpxtpx:TrackPointExtension></extensions>
      </trkpt>
      <trkpt lat="59.24166406615" lon="17.915222944104">
        <ele>83</ele>
        <time>2016-04-25T19:23:16Z</time>
        <extensions><gpxtpx:TrackPointExtension><gpxtpx:hr>176</gpxtpx:hr></gpxtpx:TrackPointExtension></extensions>
      </trkpt>
      <trkpt lat="59.24171268117" lon="17.915257812808">
        <ele>83.4</ele>
        <time>2016-04-25T19:23:17Z</time>
        <extensions><gpxtpx:TrackPointExtension><gpxtpx:hr>177</gpxtpx:hr></gpxtpx:TrackPointExtension></extensions>
      </trkpt>
      <trkpt lat="59.241760122724" lon="17.915300895774">
        <ele>84</ele>
        <time>2016-04-25T19:23:18Z</time>
        <extensions><gpxtpx:TrackPointExtension><gpxtpx:hr>177</gpxtpx:hr></gpxtpx:TrackPointExtension></extensions>
      </trkpt>
      <trkpt lat="59.242073438146" lon="17.915594094636">
        <ele>84</ele>
        <time>2016-04-25T19:23:24Z</time>
        <extensions><gpxtpx:TrackPointExtension><gpxtpx:hr>178</gpxtpx:hr></gpxtpx:TrackPointExtension></extensions>
      </trkpt>
      <trkpt lat="59.242125992659" lon="17.915635333584">
        <ele>84</ele>
        <time>2016-04-25T19:23:25Z</time>
        <extensions><gpxtpx:TrackPointExtension><gpxtpx:hr>178</gpxtpx:hr></gpxtpx:TrackPointExtension></extensions>
      </trkpt>
      <trkpt lat="59.242276280126" lon="17.915734323823">
        <ele>84</ele>
        <time>2016-04-25T19:23:28Z</time>
        <extensions><gpxtpx:TrackPointExtension><gpxtpx:hr>178</gpxtpx:hr></gpxtpx:TrackPointExtension></extensions>
      </trkpt>
      <trkpt lat="59.242320536558" lon="17.915765336853">
        <ele>84.4</ele>
        <time>2016-04-25T19:23:29Z</time>
        <extensions><gpxtpx:TrackPointExtension><gpxtpx:hr>178</gpxtpx:hr></gpxtpx:TrackPointExtension></extensions>
      </trkpt>
      <trkpt lat="59.242357333099" lon="17.91580163048">
        <ele>85</ele>
        <time>2016-04-25T19:23:30Z</time>
        <extensions><gpxtpx:TrackPointExtension><gpxtpx:hr>178</gpxtpx:hr></gpxtpx:TrackPointExtension></extensions>
      </trkpt>
      <trkpt lat="59.242410222888" lon="17.915830715673">
        <ele>85.4</ele>
        <time>2016-04-25T19:23:31Z</time>
        <extensions><gpxtpx:TrackPointExtension><gpxtpx:hr>178</gpxtpx:hr></gpxtpx:TrackPointExtension></extensions>
      </trkpt>
      <trkpt lat="59.242455988062" lon="17.915868182766">
        <ele>86.6</ele>
        <time>2016-04-25T19:23:32Z</time>
        <extensions><gpxtpx:TrackPointExtension><gpxtpx:hr>178</gpxtpx:hr></gpxtpx:TrackPointExtension></extensions>
      </trkpt>
      <trkpt lat="59.242498400476" lon="17.915906571868">
        <ele>87</ele>
        <time>2016-04-25T19:23:33Z</time>
        <extensions><gpxtpx:TrackPointExtension><gpxtpx:hr>178</gpxtpx:hr></gpxtpx:TrackPointExtension></extensions>
      </trkpt>
      <trkpt lat="59.242541734899" lon="17.915940434744">
        <ele>87.6</ele>
        <time>2016-04-25T19:23:34Z</time>
        <extensions><gpxtpx:TrackPointExtension><gpxtpx:hr>179</gpxtpx:hr></gpxtpx:TrackPointExtension></extensions>
      </trkpt>
      <trkpt lat="59.242582135657" lon="17.91597262124">
        <ele>88</ele>
        <time>2016-04-25T19:23:35Z</time>
        <extensions><gpxtpx:TrackPointExtension><gpxtpx:hr>178</gpxtpx:hr></gpxtpx:TrackPointExtension></extensions>
      </trkpt>
      <trkpt lat="59.242628906659" lon="17.916006232659">
        <ele>88.6</ele>
        <time>2016-04-25T19:23:36Z</time>
        <extensions><gpxtpx:TrackPointExtension><gpxtpx:hr>179</gpxtpx:hr></gpxtpx:TrackPointExtension></extensions>
      </trkpt>
      <trkpt lat="59.24267324691" lon="17.91602877997">
        <ele>89</ele>
        <time>2016-04-25T19:23:37Z</time>
        <extensions><gpxtpx:TrackPointExtension><gpxtpx:hr>179</gpxtpx:hr></gpxtpx:TrackPointExtension></extensions>
      </trkpt>
      <trkpt lat="59.242728651269" lon="17.916054260946">
        <ele>89.6</ele>
        <time>2016-04-25T19:23:38Z</time>
        <extensions><gpxtpx:TrackPointExtension><gpxtpx:hr>179</gpxtpx:hr></gpxtpx:TrackPointExtension></extensions>
      </trkpt>
      <trkpt lat="59.242777266289" lon="17.916077562628">
        <ele>90</ele>
        <time>2016-04-25T19:23:39Z</time>
        <extensions><gpxtpx:TrackPointExtension><gpxtpx:hr>179</gpxtpx:hr></gpxtpx:TrackPointExtension></extensions>
      </trkpt>
      <trkpt lat="59.242828814974" lon="17.916100529034">
        <ele>90.6</ele>
        <time>2016-04-25T19:23:40Z</time>
        <extensions><gpxtpx:TrackPointExtension><gpxtpx:hr>179</gpxtpx:hr></gpxtpx:TrackPointExtension></extensions>
      </trkpt>
      <trkpt lat="59.242877010899" lon="17.916123830716">
        <ele>91.2</ele>
        <time>2016-04-25T19:23:41Z</time>
        <extensions><gpxtpx:TrackPointExtension><gpxtpx:hr>180</gpxtpx:hr></gpxtpx:TrackPointExtension></extensions>
      </trkpt>
      <trkpt lat="59.243018832647" lon="17.916180157084">
        <ele>91.2</ele>
        <time>2016-04-25T19:23:44Z</time>
        <extensions><gpxtpx:TrackPointExtension><gpxtpx:hr>180</gpxtpx:hr></gpxtpx:TrackPointExtension></extensions>
      </trkpt>
      <trkpt lat="59.243072057712" lon="17.916187700794">
        <ele>91.6</ele>
        <time>2016-04-25T19:23:45Z</time>
        <extensions><gpxtpx:TrackPointExtension><gpxtpx:hr>180</gpxtpx:hr></gpxtpx:TrackPointExtension></extensions>
      </trkpt>
      <trkpt lat="59.243125618053" lon="17.91619725616">
        <ele>92</ele>
        <time>2016-04-25T19:23:46Z</time>
        <extensions><gpxtpx:TrackPointExtension><gpxtpx:hr>180</gpxtpx:hr></gpxtpx:TrackPointExtension></extensions>
      </trkpt>
      <trkpt lat="59.243179346032" lon="17.916204296956">
        <ele>92.4</ele>
        <time>2016-04-25T19:23:47Z</time>
        <extensions><gpxtpx:TrackPointExtension><gpxtpx:hr>180</gpxtpx:hr></gpxtpx:TrackPointExtension></extensions>
      </trkpt>
      <trkpt lat="59.243232152002" lon="17.916212175942">
        <ele>92.8</ele>
        <time>2016-04-25T19:23:48Z</time>
        <extensions><gpxtpx:TrackPointExtension><gpxtpx:hr>180</gpxtpx:hr></gpxtpx:TrackPointExtension></extensions>
      </trkpt>
      <trkpt lat="59.243283365411" lon="17.916220976937">
        <ele>93.2</ele>
        <time>2016-04-25T19:23:49Z</time>
        <extensions><gpxtpx:TrackPointExtension><gpxtpx:hr>180</gpxtpx:hr></gpxtpx:TrackPointExtension></extensions>
      </trkpt>
      <trkpt lat="59.243431641222" lon="17.916208236449">
        <ele>93.2</ele>
        <time>2016-04-25T19:23:52Z</time>
        <extensions><gpxtpx:TrackPointExtension><gpxtpx:hr>179</gpxtpx:hr></gpxtpx:TrackPointExtension></extensions>
      </trkpt>
      <trkpt lat="59.243583856526" lon="17.916165656397">
        <ele>93.2</ele>
        <time>2016-04-25T19:23:55Z</time>
        <extensions><gpxtpx:TrackPointExtension><gpxtpx:hr>179</gpxtpx:hr></gpxtpx:TrackPointExtension></extensions>
      </trkpt>
      <trkpt lat="59.24362710713" lon="17.916151658624">
        <ele>94</ele>
        <time>2016-04-25T19:23:56Z</time>
        <extensions><gpxtpx:TrackPointExtension><gpxtpx:hr>180</gpxtpx:hr></gpxtpx:TrackPointExtension></extensions>
      </trkpt>
      <trkpt lat="59.243662730205" lon="17.916131206788">
        <ele>94.4</ele>
        <time>2016-04-25T19:23:57Z</time>
        <extensions><gpxtpx:TrackPointExtension><gpxtpx:hr>180</gpxtpx:hr></gpxtpx:TrackPointExtension></extensions>
      </trkpt>
      <trkpt lat="59.243695671072" lon="17.916120477956">
        <ele>94.8</ele>
        <time>2016-04-25T19:23:58Z</time>
        <extensions><gpxtpx:TrackPointExtension><gpxtpx:hr>179</gpxtpx:hr></gpxtpx:TrackPointExtension></extensions>
      </trkpt>
      <trkpt lat="59.243728947215" lon="17.916124417449">
        <ele>95.2</ele>
        <time>2016-04-25T19:23:59Z</time>
        <extensions><gpxtpx:TrackPointExtension><gpxtpx:hr>179</gpxtpx:hr></gpxtpx:TrackPointExtension></extensions>
      </trkpt>
      <trkpt lat="59.24376624667" lon="17.916145623656">
        <ele>95.6</ele>
        <time>2016-04-25T19:24:00Z</time>
        <extensions><gpxtpx:TrackPointExtension><gpxtpx:hr>179</gpxtpx:hr></gpxtpx:TrackPointExtension></extensions>
      </trkpt>
      <trkpt lat="59.243802875573" lon="17.916136403566">
        <ele>96.2</ele>
        <time>2016-04-25T19:24:01Z</time>
        <extensions><gpxtpx:TrackPointExtension><gpxtpx:hr>179</gpxtpx:hr></gpxtpx:TrackPointExtension></extensions>
      </trkpt>
      <trkpt lat="59.243843863064" lon="17.916139337231">
        <ele>96.6</ele>
        <time>2016-04-25T19:24:02Z</time>
        <extensions><gpxtpx:TrackPointExtension><gpxtpx:hr>178</gpxtpx:hr></gpxtpx:TrackPointExtension></extensions>
      </trkpt>
      <trkpt lat="59.243890969342" lon="17.916140510697">
        <ele>97</ele>
        <time>2016-04-25T19:24:03Z</time>
        <extensions><gpxtpx:TrackPointExtension><gpxtpx:hr>178</gpxtpx:hr></gpxtpx:TrackPointExtension></extensions>
      </trkpt>
      <trkpt lat="59.243938494715" lon="17.916148557321">
        <ele>97.6</ele>
        <time>2016-04-25T19:24:04Z</time>
        <extensions><gpxtpx:TrackPointExtension><gpxtpx:hr>179</gpxtpx:hr></gpxtpx:TrackPointExtension></extensions>
      </trkpt>
      <trkpt lat="59.243979901301" lon="17.916156436307">
        <ele>98</ele>
        <time>2016-04-25T19:24:05Z</time>
        <extensions><gpxtpx:TrackPointExtension><gpxtpx:hr>179</gpxtpx:hr></gpxtpx:TrackPointExtension></extensions>
      </trkpt>
      <trkpt lat="59.244018960955" lon="17.916158950877">
        <ele>98.6</ele>
        <time>2016-04-25T19:24:06Z</time>
        <extensions><gpxtpx:TrackPointExtension><gpxtpx:hr>178</gpxtpx:hr></gpxtpx:TrackPointExtension></extensions>
      </trkpt>
      <trkpt lat="59.24405793679" lon="17.916183426025">
        <ele>99</ele>
        <time>2016-04-25T19:24:07Z</time>
        <extensions><gpxtpx:TrackPointExtension><gpxtpx:hr>179</gpxtpx:hr></gpxtpx:TrackPointExtension></extensions>
      </trkpt>
      <trkpt lat="59.244113592606" lon="17.916197591436">
        <ele>99.6</ele>
        <time>2016-04-25T19:24:08Z</time>
        <extensions><gpxtpx:TrackPointExtension><gpxtpx:hr>179</gpxtpx:hr></gpxtpx:TrackPointExtension></extensions>
      </trkpt>
      <trkpt lat="59.244154831554" lon="17.916208655544">
        <ele>100.2</ele>
        <time>2016-04-25T19:24:09Z</time>
        <extensions><gpxtpx:TrackPointExtension><gpxtpx:hr>179</gpxtpx:hr></gpxtpx:TrackPointExtension></extensions>
      </trkpt>
      <trkpt lat="59.244192550104" lon="17.916219216738">
        <ele>100.8</ele>
        <time>2016-04-25T19:24:10Z</time>
        <extensions><gpxtpx:TrackPointExtension><gpxtpx:hr>180</gpxtpx:hr></gpxtpx:TrackPointExtension></extensions>
      </trkpt>
      <trkpt lat="59.244232364129" lon="17.916225503163">
        <ele>101.4</ele>
        <time>2016-04-25T19:24:11Z</time>
        <extensions><gpxtpx:TrackPointExtension><gpxtpx:hr>180</gpxtpx:hr></gpxtpx:TrackPointExtension></extensions>
      </trkpt>
      <trkpt lat="59.244270417955" lon="17.916237070185">
        <ele>102</ele>
        <time>2016-04-25T19:24:12Z</time>
        <extensions><gpxtpx:TrackPointExtension><gpxtpx:hr>180</gpxtpx:hr></gpxtpx:TrackPointExtension></extensions>
      </trkpt>
      <trkpt lat="59.24431777569" lon="17.916247799017">
        <ele>102.6</ele>
        <time>2016-04-25T19:24:13Z</time>
        <extensions><gpxtpx:TrackPointExtension><gpxtpx:hr>180</gpxtpx:hr></gpxtpx:TrackPointExtension></extensions>
      </trkpt>
      <trkpt lat="59.244362283579" lon="17.916252995795">
        <ele>103</ele>
        <time>2016-04-25T19:24:14Z</time>
        <extensions><gpxtpx:TrackPointExtension><gpxtpx:hr>181</gpxtpx:hr></gpxtpx:TrackPointExtension></extensions>
      </trkpt>
      <trkpt lat="59.244407713477" lon="17.91627436964">
        <ele>103.6</ele>
        <time>2016-04-25T19:24:15Z</time>
        <extensions><gpxtpx:TrackPointExtension><gpxtpx:hr>181</gpxtpx:hr></gpxtpx:TrackPointExtension></extensions>
      </trkpt>
      <trkpt lat="59.244468901347" lon="17.916287026309">
        <ele>104.2</ele>
        <time>2016-04-25T19:24:16Z</time>
        <extensions><gpxtpx:TrackPointExtension><gpxtpx:hr>181</gpxtpx:hr></gpxtpx:TrackPointExtension></extensions>
      </trkpt>
      <trkpt lat="59.244520198575" lon="17.916288367413">
        <ele>104.8</ele>
        <time>2016-04-25T19:24:17Z</time>
        <extensions><gpxtpx:TrackPointExtension><gpxtpx:hr>182</gpxtpx:hr></gpxtpx:TrackPointExtension></extensions>
      </trkpt>
      <trkpt lat="59.244564957921" lon="17.916287361585">
        <ele>105.4</ele>
        <time>2016-04-25T19:24:18Z</time>
        <extensions><gpxtpx:TrackPointExtension><gpxtpx:hr>182</gpxtpx:hr></gpxtpx:TrackPointExtension></extensions>
      </trkpt>
      <trkpt lat="59.244612483294" lon="17.916280488427">
        <ele>106</ele>
        <time>2016-04-25T19:24:19Z</time>
        <extensions><gpxtpx:TrackPointExtension><gpxtpx:hr>183</gpxtpx:hr></gpxtpx:TrackPointExtension></extensions>
      </trkpt>
      <trkpt lat="59.244665373083" lon="17.916261712971">
        <ele>106.4</ele>
        <time>2016-04-25T19:24:20Z</time>
        <extensions><gpxtpx:TrackPointExtension><gpxtpx:hr>183</gpxtpx:hr></gpxtpx:TrackPointExtension></extensions>
      </trkpt>
      <trkpt lat="59.244982963274" lon="17.916074293687">
        <ele>106.4</ele>
        <time>2016-04-25T19:24:25Z</time>
        <extensions><gpxtpx:TrackPointExtension><gpxtpx:hr>184</gpxtpx:hr></gpxtpx:TrackPointExtension></extensions>
      </trkpt>
      <trkpt lat="59.245147835247" lon="17.915917887433">
        <ele>106.8</ele>
        <time>2016-04-25T19:24:28Z</time>
        <extensions><gpxtpx:TrackPointExtension><gpxtpx:hr>183</gpxtpx:hr></gpxtpx:TrackPointExtension></extensions>
      </trkpt>
      <trkpt lat="59.245197707552" lon="17.915875055924">
        <ele>107.2</ele>
        <time>2016-04-25T19:24:29Z</time>
        <extensions><gpxtpx:TrackPointExtension><gpxtpx:hr>183</gpxtpx:hr></gpxtpx:TrackPointExtension></extensions>
      </trkpt>
      <trkpt lat="59.24524397564" lon="17.915840019582">
        <ele>107.6</ele>
        <time>2016-04-25T19:24:30Z</time>
        <extensions><gpxtpx:TrackPointExtension><gpxtpx:hr>183</gpxtpx:hr></gpxtpx:TrackPointExtension></extensions>
      </trkpt>
      <trkpt lat="59.245289070262" lon="17.915808084543">
        <ele>108.2</ele>
        <time>2016-04-25T19:24:31Z</time>
        <extensions><gpxtpx:TrackPointExtension><gpxtpx:hr>183</gpxtpx:hr></gpxtpx:TrackPointExtension></extensions>
      </trkpt>
      <trkpt lat="59.245337098549" lon="17.915783441757">
        <ele>108.6</ele>
        <time>2016-04-25T19:24:32Z</time>
        <extensions><gpxtpx:TrackPointExtension><gpxtpx:hr>183</gpxtpx:hr></gpxtpx:TrackPointExtension></extensions>
      </trkpt>
      <trkpt lat="59.245388060501" lon="17.915769443984">
        <ele>109</ele>
        <time>2016-04-25T19:24:33Z</time>
        <extensions><gpxtpx:TrackPointExtension><gpxtpx:hr>182</gpxtpx:hr></gpxtpx:TrackPointExtension></extensions>
      </trkpt>
      <trkpt lat="59.245438770996" lon="17.915752680184">
        <ele>109.4</ele>
        <time>2016-04-25T19:24:34Z</time>
        <extensions><gpxtpx:TrackPointExtension><gpxtpx:hr>182</gpxtpx:hr></gpxtpx:TrackPointExtension></extensions>
      </trkpt>
      <trkpt lat="59.245486296369" lon="17.915733988547">
        <ele>109.8</ele>
        <time>2016-04-25T19:24:35Z</time>
        <extensions><gpxtpx:TrackPointExtension><gpxtpx:hr>182</gpxtpx:hr></gpxtpx:TrackPointExtension></extensions>
      </trkpt>
      <trkpt lat="59.245536671588" lon="17.915723175896">
        <ele>110.2</ele>
        <time>2016-04-25T19:24:36Z</time>
        <extensions><gpxtpx:TrackPointExtension><gpxtpx:hr>182</gpxtpx:hr></gpxtpx:TrackPointExtension></extensions>
      </trkpt>
      <trkpt lat="59.245631303239" lon="17.91569266578">
        <ele>111</ele>
        <time>2016-04-25T19:24:38Z</time>
        <extensions><gpxtpx:TrackPointExtension><gpxtpx:hr>181</gpxtpx:hr></gpxtpx:TrackPointExtension></extensions>
      </trkpt>
      <trkpt lat="59.245677068413" lon="17.915675985799">
        <ele>111.6</ele>
        <time>2016-04-25T19:24:39Z</time>
        <extensions><gpxtpx:TrackPointExtension><gpxtpx:hr>181</gpxtpx:hr></gpxtpx:TrackPointExtension></extensions>
      </trkpt>
      <trkpt lat="59.245721576302" lon="17.915664251139">
        <ele>112</ele>
        <time>2016-04-25T19:24:40Z</time>
        <extensions><gpxtpx:TrackPointExtension><gpxtpx:hr>180</gpxtpx:hr></gpxtpx:TrackPointExtension></extensions>
      </trkpt>
      <trkpt lat="59.245766000372" lon="17.915642625837">
        <ele>112.4</ele>
        <time>2016-04-25T19:24:41Z</time>
        <extensions><gpxtpx:TrackPointExtension><gpxtpx:hr>180</gpxtpx:hr></gpxtpx:TrackPointExtension></extensions>
      </trkpt>
      <trkpt lat="59.245813777202" lon="17.91561974325">
        <ele>112.8</ele>
        <time>2016-04-25T19:24:42Z</time>
        <extensions><gpxtpx:TrackPointExtension><gpxtpx:hr>179</gpxtpx:hr></gpxtpx:TrackPointExtension></extensions>
      </trkpt>
      <trkpt lat="59.24590530755" lon="17.915576576465">
        <ele>112.4</ele>
        <time>2016-04-25T19:24:44Z</time>
        <extensions><gpxtpx:TrackPointExtension><gpxtpx:hr>178</gpxtpx:hr></gpxtpx:TrackPointExtension></extensions>
      </trkpt>
      <trkpt lat="59.245958197339" lon="17.915556124629">
        <ele>112</ele>
        <time>2016-04-25T19:24:45Z</time>
        <extensions><gpxtpx:TrackPointExtension><gpxtpx:hr>177</gpxtpx:hr></gpxtpx:TrackPointExtension></extensions>
      </trkpt>
      <trkpt lat="59.246013853155" lon="17.915536594802">
        <ele>111.6</ele>
        <time>2016-04-25T19:24:46Z</time>
        <extensions><gpxtpx:TrackPointExtension><gpxtpx:hr>177</gpxtpx:hr></gpxtpx:TrackPointExtension></extensions>
      </trkpt>
      <trkpt lat="59.246070766256" lon="17.915528212902">
        <ele>110.6</ele>
        <time>2016-04-25T19:24:47Z</time>
        <extensions><gpxtpx:TrackPointExtension><gpxtpx:hr>176</gpxtpx:hr></gpxtpx:TrackPointExtension></extensions>
      </trkpt>
      <trkpt lat="59.246178389852" lon="17.915514885681">
        <ele>110.6</ele>
        <time>2016-04-25T19:24:49Z</time>
        <extensions><gpxtpx:TrackPointExtension><gpxtpx:hr>176</gpxtpx:hr></gpxtpx:TrackPointExtension></extensions>
      </trkpt>
      <trkpt lat="59.246480473528" lon="17.915527458531">
        <ele>110.6</ele>
        <time>2016-04-25T19:24:54Z</time>
        <extensions><gpxtpx:TrackPointExtension><gpxtpx:hr>174</gpxtpx:hr></gpxtpx:TrackPointExtension></extensions>
      </trkpt>
      <trkpt lat="59.246630509538" lon="17.915576325008">
        <ele>110.6</ele>
        <time>2016-04-25T19:24:57Z</time>
        <extensions><gpxtpx:TrackPointExtension><gpxtpx:hr>171</gpxtpx:hr></gpxtpx:TrackPointExtension></extensions>
      </trkpt>
      <trkpt lat="59.246674179237" lon="17.915598453224">
        <ele>110.6</ele>
        <time>2016-04-25T19:24:58Z</time>
        <extensions><gpxtpx:TrackPointExtension><gpxtpx:hr>171</gpxtpx:hr></gpxtpx:TrackPointExtension></extensions>
      </trkpt>
      <trkpt lat="59.246765709585" lon="17.915675734342">
        <ele>110.6</ele>
        <time>2016-04-25T19:25:00Z</time>
        <extensions><gpxtpx:TrackPointExtension><gpxtpx:hr>170</gpxtpx:hr></gpxtpx:TrackPointExtension></extensions>
      </trkpt>
      <trkpt lat="59.246824131428" lon="17.915755865306">
        <ele>110.6</ele>
        <time>2016-04-25T19:25:02Z</time>
        <extensions><gpxtpx:TrackPointExtension><gpxtpx:hr>169</gpxtpx:hr></gpxtpx:TrackPointExtension></extensions>
      </trkpt>
      <trkpt lat="59.246924714228" lon="17.915766510319">
        <ele>110.6</ele>
        <time>2016-04-25T19:25:05Z</time>
        <extensions><gpxtpx:TrackPointExtension><gpxtpx:hr>166</gpxtpx:hr></gpxtpx:TrackPointExtension></extensions>
      </trkpt>
      <trkpt lat="59.246924043676" lon="17.915705406268">
        <ele>110.6</ele>
        <time>2016-04-25T19:25:08Z</time>
        <extensions><gpxtpx:TrackPointExtension><gpxtpx:hr>163</gpxtpx:hr></gpxtpx:TrackPointExtension></extensions>
      </trkpt>
      <trkpt lat="59.246804517782" lon="17.915631729367">
        <ele>110.6</ele>
        <time>2016-04-25T19:25:12Z</time>
        <extensions><gpxtpx:TrackPointExtension><gpxtpx:hr>161</gpxtpx:hr></gpxtpx:TrackPointExtension></extensions>
      </trkpt>
      <trkpt lat="59.246762859739" lon="17.915611948083">
        <ele>110.6</ele>
        <time>2016-04-25T19:25:13Z</time>
        <extensions><gpxtpx:TrackPointExtension><gpxtpx:hr>161</gpxtpx:hr></gpxtpx:TrackPointExtension></extensions>
      </trkpt>
      <trkpt lat="59.246622965828" lon="17.91551245493">
        <ele>110.6</ele>
        <time>2016-04-25T19:25:17Z</time>
        <extensions><gpxtpx:TrackPointExtension><gpxtpx:hr>159</gpxtpx:hr></gpxtpx:TrackPointExtension></extensions>
      </trkpt>
      <trkpt lat="59.246375113045" lon="17.915475071656">
        <ele>110.6</ele>
        <time>2016-04-25T19:25:23Z</time>
        <extensions><gpxtpx:TrackPointExtension><gpxtpx:hr>156</gpxtpx:hr></gpxtpx:TrackPointExtension></extensions>
      </trkpt>
      <trkpt lat="59.246329515509" lon="17.915481190443">
        <ele>110.6</ele>
        <time>2016-04-25T19:25:24Z</time>
        <extensions><gpxtpx:TrackPointExtension><gpxtpx:hr>156</gpxtpx:hr></gpxtpx:TrackPointExtension></extensions>
      </trkpt>
      <trkpt lat="59.246202865" lon="17.915513125482">
        <ele>110.6</ele>
        <time>2016-04-25T19:25:27Z</time>
        <extensions><gpxtpx:TrackPointExtension><gpxtpx:hr>155</gpxtpx:hr></gpxtpx:TrackPointExtension></extensions>
      </trkpt>
      <trkpt lat="59.246005638893" lon="17.915533828775">
        <ele>110.6</ele>
        <time>2016-04-25T19:25:32Z</time>
        <extensions><gpxtpx:TrackPointExtension><gpxtpx:hr>154</gpxtpx:hr></gpxtpx:TrackPointExtension></extensions>
      </trkpt>
      <trkpt lat="59.245839174359" lon="17.915563081606">
        <ele>110.6</ele>
        <time>2016-04-25T19:25:36Z</time>
        <extensions><gpxtpx:TrackPointExtension><gpxtpx:hr>151</gpxtpx:hr></gpxtpx:TrackPointExtension></extensions>
      </trkpt>
      <trkpt lat="59.245793912099" lon="17.915580851234">
        <ele>110.6</ele>
        <time>2016-04-25T19:25:37Z</time>
        <extensions><gpxtpx:TrackPointExtension><gpxtpx:hr>151</gpxtpx:hr></gpxtpx:TrackPointExtension></extensions>
      </trkpt>
      <trkpt lat="59.245656448939" lon="17.915644721312">
        <ele>110.6</ele>
        <time>2016-04-25T19:25:40Z</time>
        <extensions><gpxtpx:TrackPointExtension><gpxtpx:hr>148</gpxtpx:hr></gpxtpx:TrackPointExtension></extensions>
      </trkpt>
      <trkpt lat="59.245502724893" lon="17.915705573906">
        <ele>110.6</ele>
        <time>2016-04-25T19:25:43Z</time>
        <extensions><gpxtpx:TrackPointExtension><gpxtpx:hr>147</gpxtpx:hr></gpxtpx:TrackPointExtension></extensions>
      </trkpt>
      <trkpt lat="59.245322011129" lon="17.915819316289">
        <ele>110.2</ele>
        <time>2016-04-25T19:25:46Z</time>
        <extensions><gpxtpx:TrackPointExtension><gpxtpx:hr>146</gpxtpx:hr></gpxtpx:TrackPointExtension></extensions>
      </trkpt>
      <trkpt lat="59.245257470499" lon="17.915869104775">
        <ele>109.8</ele>
        <time>2016-04-25T19:25:47Z</time>
        <extensions><gpxtpx:TrackPointExtension><gpxtpx:hr>145</gpxtpx:hr></gpxtpx:TrackPointExtension></extensions>
      </trkpt>
      <trkpt lat="59.24519033148" lon="17.915921324012">
        <ele>109.4</ele>
        <time>2016-04-25T19:25:48Z</time>
        <extensions><gpxtpx:TrackPointExtension><gpxtpx:hr>145</gpxtpx:hr></gpxtpx:TrackPointExtension></extensions>
      </trkpt>
      <trkpt lat="59.245126377583" lon="17.915974800534">
        <ele>109</ele>
        <time>2016-04-25T19:25:49Z</time>
        <extensions><gpxtpx:TrackPointExtension><gpxtpx:hr>144</gpxtpx:hr></gpxtpx:TrackPointExtension></extensions>
      </trkpt>
      <trkpt lat="59.245060747306" lon="17.916028277056">
        <ele>108.4</ele>
        <time>2016-04-25T19:25:50Z</time>
        <extensions><gpxtpx:TrackPointExtension><gpxtpx:hr>143</gpxtpx:hr></gpxtpx:TrackPointExtension></extensions>
      </trkpt>
      <trkpt lat="59.244925295802" lon="17.916134140453">
        <ele>108.4</ele>
        <time>2016-04-25T19:25:52Z</time>
        <extensions><gpxtpx:TrackPointExtension><gpxtpx:hr>141</gpxtpx:hr></gpxtpx:TrackPointExtension></extensions>
      </trkpt>
      <trkpt lat="59.244860252258" lon="17.916155430479">
        <ele>108.4</ele>
        <time>2016-04-25T19:25:53Z</time>
        <extensions><gpxtpx:TrackPointExtension><gpxtpx:hr>140</gpxtpx:hr></gpxtpx:TrackPointExtension></extensions>
      </trkpt>
      <trkpt lat="59.244793699972" lon="17.916162638913">
        <ele>108</ele>
        <time>2016-04-25T19:25:54Z</time>
        <extensions><gpxtpx:TrackPointExtension><gpxtpx:hr>140</gpxtpx:hr></gpxtpx:TrackPointExtension></extensions>
      </trkpt>
      <trkpt lat="59.244723040555" lon="17.916157945049">
        <ele>107.6</ele>
        <time>2016-04-25T19:25:55Z</time>
        <extensions><gpxtpx:TrackPointExtension><gpxtpx:hr>140</gpxtpx:hr></gpxtpx:TrackPointExtension></extensions>
      </trkpt>
      <trkpt lat="59.244648609283" lon="17.916142689991">
        <ele>107.2</ele>
        <time>2016-04-25T19:25:56Z</time>
        <extensions><gpxtpx:TrackPointExtension><gpxtpx:hr>139</gpxtpx:hr></gpxtpx:TrackPointExtension></extensions>
      </trkpt>
      <trkpt lat="59.244569903242" lon="17.916121483784">
        <ele>106.8</ele>
        <time>2016-04-25T19:25:57Z</time>
        <extensions><gpxtpx:TrackPointExtension><gpxtpx:hr>140</gpxtpx:hr></gpxtpx:TrackPointExtension></extensions>
      </trkpt>
      <trkpt lat="59.244487006251" lon="17.916102205414">
        <ele>106.4</ele>
        <time>2016-04-25T19:25:58Z</time>
        <extensions><gpxtpx:TrackPointExtension><gpxtpx:hr>139</gpxtpx:hr></gpxtpx:TrackPointExtension></extensions>
      </trkpt>
      <trkpt lat="59.244398325749" lon="17.916075802429">
        <ele>105.8</ele>
        <time>2016-04-25T19:25:59Z</time>
        <extensions><gpxtpx:TrackPointExtension><gpxtpx:hr>138</gpxtpx:hr></gpxtpx:TrackPointExtension></extensions>
      </trkpt>
      <trkpt lat="59.244304867564" lon="17.916038419155">
        <ele>105.2</ele>
        <time>2016-04-25T19:26:00Z</time>
        <extensions><gpxtpx:TrackPointExtension><gpxtpx:hr>137</gpxtpx:hr></gpxtpx:TrackPointExtension></extensions>
      </trkpt>
      <trkpt lat="59.244209984456" lon="17.916007070849">
        <ele>103.2</ele>
        <time>2016-04-25T19:26:01Z</time>
        <extensions><gpxtpx:TrackPointExtension><gpxtpx:hr>136</gpxtpx:hr></gpxtpx:TrackPointExtension></extensions>
      </trkpt>
      <trkpt lat="59.244109401656" lon="17.915978740027">
        <ele>102</ele>
        <time>2016-04-25T19:26:02Z</time>
        <extensions><gpxtpx:TrackPointExtension><gpxtpx:hr>135</gpxtpx:hr></gpxtpx:TrackPointExtension></extensions>
      </trkpt>
      <trkpt lat="59.244000688413" lon="17.915968765566">
        <ele>100.8</ele>
        <time>2016-04-25T19:26:03Z</time>
        <extensions><gpxtpx:TrackPointExtension><gpxtpx:hr>135</gpxtpx:hr></gpxtpx:TrackPointExtension></extensions>
      </trkpt>
      <trkpt lat="59.243891053161" lon="17.915979578217">
        <ele>99.6</ele>
        <time>2016-04-25T19:26:04Z</time>
        <extensions><gpxtpx:TrackPointExtension><gpxtpx:hr>135</gpxtpx:hr></gpxtpx:TrackPointExtension></extensions>
      </trkpt>
      <trkpt lat="59.243777059321" lon="17.916011597075">
        <ele>98.2</ele>
        <time>2016-04-25T19:26:05Z</time>
        <extensions><gpxtpx:TrackPointExtension><gpxtpx:hr>135</gpxtpx:hr></gpxtpx:TrackPointExtension></extensions>
      </trkpt>
      <trkpt lat="59.243661724377" lon="17.916046465779">
        <ele>96.8</ele>
        <time>2016-04-25T19:26:06Z</time>
        <extensions><gpxtpx:TrackPointExtension><gpxtpx:hr>135</gpxtpx:hr></gpxtpx:TrackPointExtension></extensions>
      </trkpt>
      <trkpt lat="59.243540103008" lon="17.916073120221">
        <ele>95.4</ele>
        <time>2016-04-25T19:26:07Z</time>
        <extensions><gpxtpx:TrackPointExtension><gpxtpx:hr>134</gpxtpx:hr></gpxtpx:TrackPointExtension></extensions>
      </trkpt>
      <trkpt lat="59.243425857711" lon="17.916084687243">
        <ele>94</ele>
        <time>2016-04-25T19:26:08Z</time>
        <extensions><gpxtpx:TrackPointExtension><gpxtpx:hr>133</gpxtpx:hr></gpxtpx:TrackPointExtension></extensions>
      </trkpt>
      <trkpt lat="59.243314629898" lon="17.916078819913">
        <ele>92.6</ele>
        <time>2016-04-25T19:26:09Z</time>
        <extensions><gpxtpx:TrackPointExtension><gpxtpx:hr>132</gpxtpx:hr></gpxtpx:TrackPointExtension></extensions>
      </trkpt>
      <trkpt lat="59.24320382118" lon="17.916058451896">
        <ele>91.2</ele>
        <time>2016-04-25T19:26:10Z</time>
        <extensions><gpxtpx:TrackPointExtension><gpxtpx:hr>131</gpxtpx:hr></gpxtpx:TrackPointExtension></extensions>
      </trkpt>
      <trkpt lat="59.242987065246" lon="17.915987960117">
        <ele>90.8</ele>
        <time>2016-04-25T19:26:12Z</time>
        <extensions><gpxtpx:TrackPointExtension><gpxtpx:hr>128</gpxtpx:hr></gpxtpx:TrackPointExtension></extensions>
      </trkpt>
      <trkpt lat="59.242885895713" lon="17.915941943486">
        <ele>90.4</ele>
        <time>2016-04-25T19:26:13Z</time>
        <extensions><gpxtpx:TrackPointExtension><gpxtpx:hr>126</gpxtpx:hr></gpxtpx:TrackPointExtension></extensions>
      </trkpt>
      <trkpt lat="59.242796796116" lon="17.915881845263">
        <ele>90</ele>
        <time>2016-04-25T19:26:14Z</time>
        <extensions><gpxtpx:TrackPointExtension><gpxtpx:hr>125</gpxtpx:hr></gpxtpx:TrackPointExtension></extensions>
      </trkpt>
      <trkpt lat="59.242709205261" lon="17.915820741212">
        <ele>89.6</ele>
        <time>2016-04-25T19:26:15Z</time>
        <extensions><gpxtpx:TrackPointExtension><gpxtpx:hr>124</gpxtpx:hr></gpxtpx:TrackPointExtension></extensions>
      </trkpt>
      <trkpt lat="59.242634103437" lon="17.915768186699">
        <ele>89.2</ele>
        <time>2016-04-25T19:26:16Z</time>
        <extensions><gpxtpx:TrackPointExtension><gpxtpx:hr>123</gpxtpx:hr></gpxtpx:TrackPointExtension></extensions>
      </trkpt>
      <trkpt lat="59.24245028837" lon="17.915647319701">
        <ele>88.8</ele>
        <time>2016-04-25T19:26:19Z</time>
        <extensions><gpxtpx:TrackPointExtension><gpxtpx:hr>122</gpxtpx:hr></gpxtpx:TrackPointExtension></extensions>
      </trkpt>
      <trkpt lat="59.242411228716" lon="17.915624604752">
        <ele>88.4</ele>
        <time>2016-04-25T19:26:20Z</time>
        <extensions><gpxtpx:TrackPointExtension><gpxtpx:hr>123</gpxtpx:hr></gpxtpx:TrackPointExtension></extensions>
      </trkpt>
      <trkpt lat="59.242390190147" lon="17.915610439341">
        <ele>88</ele>
        <time>2016-04-25T19:26:21Z</time>
        <extensions><gpxtpx:TrackPointExtension><gpxtpx:hr>123</gpxtpx:hr></gpxtpx:TrackPointExtension></extensions>
      </trkpt>
      <trkpt lat="59.242374096899" lon="17.915593172627">
        <ele>87.6</ele>
        <time>2016-04-25T19:26:22Z</time>
        <extensions><gpxtpx:TrackPointExtension><gpxtpx:hr>122</gpxtpx:hr></gpxtpx:TrackPointExtension></extensions>
      </trkpt>
      <trkpt lat="59.24235054376" lon="17.915574816266">
        <ele>87.2</ele>
        <time>2016-04-25T19:26:23Z</time>
        <extensions><gpxtpx:TrackPointExtension><gpxtpx:hr>121</gpxtpx:hr></gpxtpx:TrackPointExtension></extensions>
      </trkpt>
      <trkpt lat="59.242318608721" lon="17.915550341118">
        <ele>87.2</ele>
        <time>2016-04-25T19:26:24Z</time>
        <extensions><gpxtpx:TrackPointExtension><gpxtpx:hr>120</gpxtpx:hr></gpxtpx:TrackPointExtension></extensions>
      </trkpt>
      <trkpt lat="59.24227845942" lon="17.915522932305">
        <ele>87.2</ele>
        <time>2016-04-25T19:26:25Z</time>
        <extensions><gpxtpx:TrackPointExtension><gpxtpx:hr>119</gpxtpx:hr></gpxtpx:TrackPointExtension></extensions>
      </trkpt>
      <trkpt lat="59.242236466101" lon="17.915489320886">
        <ele>86.8</ele>
        <time>2016-04-25T19:26:26Z</time>
        <extensions><gpxtpx:TrackPointExtension><gpxtpx:hr>117</gpxtpx:hr></gpxtpx:TrackPointExtension></extensions>
      </trkpt>
      <trkpt lat="59.24219212585" lon="17.915455793286">
        <ele>86.2</ele>
        <time>2016-04-25T19:26:27Z</time>
        <extensions><gpxtpx:TrackPointExtension><gpxtpx:hr>117</gpxtpx:hr></gpxtpx:TrackPointExtension></extensions>
      </trkpt>
      <trkpt lat="59.242148791427" lon="17.915419583478">
        <ele>85.8</ele>
        <time>2016-04-25T19:26:28Z</time>
        <extensions><gpxtpx:TrackPointExtension><gpxtpx:hr>116</gpxtpx:hr></gpxtpx:TrackPointExtension></extensions>
      </trkpt>
      <trkpt lat="59.24210327771" lon="17.915383122213">
        <ele>85.4</ele>
        <time>2016-04-25T19:26:29Z</time>
        <extensions><gpxtpx:TrackPointExtension><gpxtpx:hr>117</gpxtpx:hr></gpxtpx:TrackPointExtension></extensions>
      </trkpt>
      <trkpt lat="59.242060613839" lon="17.915348253509">
        <ele>85</ele>
        <time>2016-04-25T19:26:30Z</time>
        <extensions><gpxtpx:TrackPointExtension><gpxtpx:hr>117</gpxtpx:hr></gpxtpx:TrackPointExtension></extensions>
      </trkpt>
      <trkpt lat="59.241980734332" lon="17.915278097006">
        <ele>85</ele>
        <time>2016-04-25T19:26:32Z</time>
        <extensions><gpxtpx:TrackPointExtension><gpxtpx:hr>118</gpxtpx:hr></gpxtpx:TrackPointExtension></extensions>
      </trkpt>
      <trkpt lat="59.241900268092" lon="17.915206767037">
        <ele>85</ele>
        <time>2016-04-25T19:26:34Z</time>
        <extensions><gpxtpx:TrackPointExtension><gpxtpx:hr>119</gpxtpx:hr></gpxtpx:TrackPointExtension></extensions>
      </trkpt>
      <trkpt lat="59.241784178777" lon="17.915100316907">
        <ele>85</ele>
        <time>2016-04-25T19:26:36Z</time>
        <extensions><gpxtpx:TrackPointExtension><gpxtpx:hr>123</gpxtpx:hr></gpxtpx:TrackPointExtension></extensions>
      </trkpt>
      <trkpt lat="59.241784178777" lon="17.915100316907">
        <ele>85</ele>
        <time>2016-04-25T19:26:37Z</time>
        <extensions><gpxtpx:TrackPointExtension><gpxtpx:hr>123</gpxtpx:hr></gpxtpx:TrackPointExtension></extensions>
      </trkpt>
      <trkpt lat="59.241692732248" lon="17.915047678575">
        <ele>85</ele>
        <time>2016-04-25T19:26:39Z</time>
        <extensions><gpxtpx:TrackPointExtension><gpxtpx:hr>123</gpxtpx:hr></gpxtpx:TrackPointExtension></extensions>
      </trkpt>
      <trkpt lat="59.241522244402" lon="17.91498271885">
        <ele>84.6</ele>
        <time>2016-04-25T19:26:42Z</time>
        <extensions><gpxtpx:TrackPointExtension><gpxtpx:hr>122</gpxtpx:hr></gpxtpx:TrackPointExtension></extensions>
      </trkpt>
      <trkpt lat="59.241455189202" lon="17.91499110075">
        <ele>84.2</ele>
        <time>2016-04-25T19:26:43Z</time>
        <extensions><gpxtpx:TrackPointExtension><gpxtpx:hr>121</gpxtpx:hr></gpxtpx:TrackPointExtension></extensions>
      </trkpt>
      <trkpt lat="59.241382182853" lon="17.915033680802">
        <ele>83.8</ele>
        <time>2016-04-25T19:26:44Z</time>
        <extensions><gpxtpx:TrackPointExtension><gpxtpx:hr>121</gpxtpx:hr></gpxtpx:TrackPointExtension></extensions>
      </trkpt>
      <trkpt lat="59.241306913391" lon="17.915105346047">
        <ele>83.2</ele>
        <time>2016-04-25T19:26:45Z</time>
        <extensions><gpxtpx:TrackPointExtension><gpxtpx:hr>121</gpxtpx:hr></gpxtpx:TrackPointExtension></extensions>
      </trkpt>
      <trkpt lat="59.241233152671" lon="17.915195535291">
        <ele>82.6</ele>
        <time>2016-04-25T19:26:46Z</time>
        <extensions><gpxtpx:TrackPointExtension><gpxtpx:hr>121</gpxtpx:hr></gpxtpx:TrackPointExtension></extensions>
      </trkpt>
      <trkpt lat="59.241157296476" lon="17.915283712879">
        <ele>81.8</ele>
        <time>2016-04-25T19:26:47Z</time>
        <extensions><gpxtpx:TrackPointExtension><gpxtpx:hr>121</gpxtpx:hr></gpxtpx:TrackPointExtension></extensions>
      </trkpt>
      <trkpt lat="59.241079177168" lon="17.915364011481">
        <ele>81</ele>
        <time>2016-04-25T19:26:48Z</time>
        <extensions><gpxtpx:TrackPointExtension><gpxtpx:hr>121</gpxtpx:hr></gpxtpx:TrackPointExtension></extensions>
      </trkpt>
      <trkpt lat="59.240999046204" lon="17.915431401957">
        <ele>80.2</ele>
        <time>2016-04-25T19:26:49Z</time>
        <extensions><gpxtpx:TrackPointExtension><gpxtpx:hr>122</gpxtpx:hr></gpxtpx:TrackPointExtension></extensions>
      </trkpt>
      <trkpt lat="59.240914975747" lon="17.915492506008">
        <ele>79.4</ele>
        <time>2016-04-25T19:26:50Z</time>
        <extensions><gpxtpx:TrackPointExtension><gpxtpx:hr>122</gpxtpx:hr></gpxtpx:TrackPointExtension></extensions>
      </trkpt>
      <trkpt lat="59.240830150919" lon="17.915551346946">
        <ele>78.2</ele>
        <time>2016-04-25T19:26:51Z</time>
        <extensions><gpxtpx:TrackPointExtension><gpxtpx:hr>123</gpxtpx:hr></gpxtpx:TrackPointExtension></extensions>
      </trkpt>
      <trkpt lat="59.240749349403" lon="17.915603230907">
        <ele>77.4</ele>
        <time>2016-04-25T19:26:52Z</time>
        <extensions><gpxtpx:TrackPointExtension><gpxtpx:hr>122</gpxtpx:hr></gpxtpx:TrackPointExtension></extensions>
      </trkpt>
      <trkpt lat="59.240670559543" lon="17.915653019393">
        <ele>76.8</ele>
        <time>2016-04-25T19:26:53Z</time>
        <extensions><gpxtpx:TrackPointExtension><gpxtpx:hr>123</gpxtpx:hr></gpxtpx:TrackPointExtension></extensions>
      </trkpt>
      <trkpt lat="59.240593194606" lon="17.915698365472">
        <ele>76.2</ele>
        <time>2016-04-25T19:26:54Z</time>
        <extensions><gpxtpx:TrackPointExtension><gpxtpx:hr>122</gpxtpx:hr></gpxtpx:TrackPointExtension></extensions>
      </trkpt>
      <trkpt lat="59.240518092782" lon="17.915741783714">
        <ele>76.2</ele>
        <time>2016-04-25T19:26:55Z</time>
        <extensions><gpxtpx:TrackPointExtension><gpxtpx:hr>121</gpxtpx:hr></gpxtpx:TrackPointExtension></extensions>
      </trkpt>
      <trkpt lat="59.240360093967" lon="17.915828871655">
        <ele>76.2</ele>
        <time>2016-04-25T19:26:57Z</time>
        <extensions><gpxtpx:TrackPointExtension><gpxtpx:hr>117</gpxtpx:hr></gpxtpx:TrackPointExtension></extensions>
      </trkpt>
      <trkpt lat="59.240195473451" lon="17.91590556604">
        <ele>75.8</ele>
        <time>2016-04-25T19:26:59Z</time>
        <extensions><gpxtpx:TrackPointExtension><gpxtpx:hr>113</gpxtpx:hr></gpxtpx:TrackPointExtension></extensions>
      </trkpt>
      <trkpt lat="59.240112744098" lon="17.915933813043">
        <ele>75.4</ele>
        <time>2016-04-25T19:27:00Z</time>
        <extensions><gpxtpx:TrackPointExtension><gpxtpx:hr>113</gpxtpx:hr></gpxtpx:TrackPointExtension></extensions>
      </trkpt>
      <trkpt lat="59.24002875746" lon="17.915952085585">
        <ele>75</ele>
        <time>2016-04-25T19:27:01Z</time>
        <extensions><gpxtpx:TrackPointExtension><gpxtpx:hr>112</gpxtpx:hr></gpxtpx:TrackPointExtension></extensions>
      </trkpt>
      <trkpt lat="59.239947536849" lon="17.915965831901">
        <ele>74.2</ele>
        <time>2016-04-25T19:27:02Z</time>
        <extensions><gpxtpx:TrackPointExtension><gpxtpx:hr>112</gpxtpx:hr></gpxtpx:TrackPointExtension></extensions>
      </trkpt>
      <trkpt lat="59.239864807496" lon="17.915979159122">
        <ele>73.4</ele>
        <time>2016-04-25T19:27:03Z</time>
        <extensions><gpxtpx:TrackPointExtension><gpxtpx:hr>112</gpxtpx:hr></gpxtpx:TrackPointExtension></extensions>
      </trkpt>
      <trkpt lat="59.239776629908" lon="17.915992653981">
        <ele>72.6</ele>
        <time>2016-04-25T19:27:04Z</time>
        <extensions><gpxtpx:TrackPointExtension><gpxtpx:hr>112</gpxtpx:hr></gpxtpx:TrackPointExtension></extensions>
      </trkpt>
      <trkpt lat="59.239684764284" lon="17.916003885727">
        <ele>71.8</ele>
        <time>2016-04-25T19:27:05Z</time>
        <extensions><gpxtpx:TrackPointExtension><gpxtpx:hr>112</gpxtpx:hr></gpxtpx:TrackPointExtension></extensions>
      </trkpt>
      <trkpt lat="59.239589126805" lon="17.916005478288">
        <ele>70.8</ele>
        <time>2016-04-25T19:27:06Z</time>
        <extensions><gpxtpx:TrackPointExtension><gpxtpx:hr>112</gpxtpx:hr></gpxtpx:TrackPointExtension></extensions>
      </trkpt>
      <trkpt lat="59.239498937561" lon="17.916006400297">
        <ele>69.8</ele>
        <time>2016-04-25T19:27:07Z</time>
        <extensions><gpxtpx:TrackPointExtension><gpxtpx:hr>111</gpxtpx:hr></gpxtpx:TrackPointExtension></extensions>
      </trkpt>
      <trkpt lat="59.239410424697" lon="17.916010675066">
        <ele>68.8</ele>
        <time>2016-04-25T19:27:08Z</time>
        <extensions><gpxtpx:TrackPointExtension><gpxtpx:hr>110</gpxtpx:hr></gpxtpx:TrackPointExtension></extensions>
      </trkpt>
      <trkpt lat="59.239327862982" lon="17.916019224604">
        <ele>67.8</ele>
        <time>2016-04-25T19:27:09Z</time>
        <extensions><gpxtpx:TrackPointExtension><gpxtpx:hr>109</gpxtpx:hr></gpxtpx:TrackPointExtension></extensions>
      </trkpt>
      <trkpt lat="59.239248737846" lon="17.916039257345">
        <ele>66.8</ele>
        <time>2016-04-25T19:27:10Z</time>
        <extensions><gpxtpx:TrackPointExtension><gpxtpx:hr>110</gpxtpx:hr></gpxtpx:TrackPointExtension></extensions>
      </trkpt>
      <trkpt lat="59.23917464185" lon="17.91606649852">
        <ele>65.6</ele>
        <time>2016-04-25T19:27:11Z</time>
        <extensions><gpxtpx:TrackPointExtension><gpxtpx:hr>110</gpxtpx:hr></gpxtpx:TrackPointExtension></extensions>
      </trkpt>
      <trkpt lat="59.239107670469" lon="17.916089800202">
        <ele>64.6</ele>
        <time>2016-04-25T19:27:12Z</time>
        <extensions><gpxtpx:TrackPointExtension><gpxtpx:hr>110</gpxtpx:hr></gpxtpx:TrackPointExtension></extensions>
      </trkpt>
      <trkpt lat="59.239045225314" lon="17.916117879567">
        <ele>63.6</ele>
        <time>2016-04-25T19:27:13Z</time>
        <extensions><gpxtpx:TrackPointExtension><gpxtpx:hr>110</gpxtpx:hr></gpxtpx:TrackPointExtension></extensions>
      </trkpt>
      <trkpt lat="59.238994347181" lon="17.916145623656">
        <ele>63.2</ele>
        <time>2016-04-25T19:27:14Z</time>
        <extensions><gpxtpx:TrackPointExtension><gpxtpx:hr>108</gpxtpx:hr></gpxtpx:TrackPointExtension></extensions>
      </trkpt>
      <trkpt lat="59.238951934767" lon="17.916139588688">
        <ele>62.2</ele>
        <time>2016-04-25T19:27:15Z</time>
        <extensions><gpxtpx:TrackPointExtension><gpxtpx:hr>106</gpxtpx:hr></gpxtpx:TrackPointExtension></extensions>
      </trkpt>
      <trkpt lat="59.238919245357" lon="17.916099104111">
        <ele>61.8</ele>
        <time>2016-04-25T19:27:16Z</time>
        <extensions><gpxtpx:TrackPointExtension><gpxtpx:hr>106</gpxtpx:hr></gpxtpx:TrackPointExtension></extensions>
      </trkpt>
      <trkpt lat="59.238898542064" lon="17.916038335336">
        <ele>61.4</ele>
        <time>2016-04-25T19:27:17Z</time>
        <extensions><gpxtpx:TrackPointExtension><gpxtpx:hr>104</gpxtpx:hr></gpxtpx:TrackPointExtension></extensions>
      </trkpt>
      <trkpt lat="59.238883538463" lon="17.915910092266">
        <ele>61.4</ele>
        <time>2016-04-25T19:27:19Z</time>
        <extensions><gpxtpx:TrackPointExtension><gpxtpx:hr>103</gpxtpx:hr></gpxtpx:TrackPointExtension></extensions>
      </trkpt>
      <trkpt lat="59.238838024746" lon="17.915692749599">
        <ele>61.4</ele>
        <time>2016-04-25T19:27:23Z</time>
        <extensions><gpxtpx:TrackPointExtension><gpxtpx:hr>107</gpxtpx:hr></gpxtpx:TrackPointExtension></extensions>
      </trkpt>
      <trkpt lat="59.23883098395" lon="17.915645056588">
        <ele>61.4</ele>
        <time>2016-04-25T19:27:24Z</time>
        <extensions><gpxtpx:TrackPointExtension><gpxtpx:hr>108</gpxtpx:hr></gpxtpx:TrackPointExtension></extensions>
      </trkpt>
      <trkpt lat="59.238782285111" lon="17.9153557134">
        <ele>61.4</ele>
        <time>2016-04-25T19:27:30Z</time>
        <extensions><gpxtpx:TrackPointExtension><gpxtpx:hr>108</gpxtpx:hr></gpxtpx:TrackPointExtension></extensions>
      </trkpt>
      <trkpt lat="59.238748506054" lon="17.915387061706">
        <ele>61.4</ele>
        <time>2016-04-25T19:27:32Z</time>
        <extensions><gpxtpx:TrackPointExtension><gpxtpx:hr>109</gpxtpx:hr></gpxtpx:TrackPointExtension></extensions>
      </trkpt>
      <trkpt lat="59.238787314251" lon="17.915549000014">
        <ele>61.4</ele>
        <time>2016-04-25T19:27:35Z</time>
        <extensions><gpxtpx:TrackPointExtension><gpxtpx:hr>110</gpxtpx:hr></gpxtpx:TrackPointExtension></extensions>
      </trkpt>
      <trkpt lat="59.238823607878" lon="17.915837085917">
        <ele>61.4</ele>
        <time>2016-04-25T19:27:38Z</time>
        <extensions><gpxtpx:TrackPointExtension><gpxtpx:hr>112</gpxtpx:hr></gpxtpx:TrackPointExtension></extensions>
      </trkpt>
      <trkpt lat="59.238834252891" lon="17.915944290418">
        <ele>61.4</ele>
        <time>2016-04-25T19:27:39Z</time>
        <extensions><gpxtpx:TrackPointExtension><gpxtpx:hr>114</gpxtpx:hr></gpxtpx:TrackPointExtension></extensions>
      </trkpt>
      <trkpt lat="59.238852273976" lon="17.916050740548">
        <ele>61.4</ele>
        <time>2016-04-25T19:27:40Z</time>
        <extensions><gpxtpx:TrackPointExtension><gpxtpx:hr>115</gpxtpx:hr></gpxtpx:TrackPointExtension></extensions>
      </trkpt>
      <trkpt lat="59.239044135667" lon="17.916178396885">
        <ele>61.4</ele>
        <time>2016-04-25T19:27:44Z</time>
        <extensions><gpxtpx:TrackPointExtension><gpxtpx:hr>121</gpxtpx:hr></gpxtpx:TrackPointExtension></extensions>
      </trkpt>
      <trkpt lat="59.239106664641" lon="17.916156603945">
        <ele>61.4</ele>
        <time>2016-04-25T19:27:45Z</time>
        <extensions><gpxtpx:TrackPointExtension><gpxtpx:hr>123</gpxtpx:hr></gpxtpx:TrackPointExtension></extensions>
      </trkpt>
      <trkpt lat="59.23924504981" lon="17.916111257866">
        <ele>61.4</ele>
        <time>2016-04-25T19:27:47Z</time>
        <extensions><gpxtpx:TrackPointExtension><gpxtpx:hr>127</gpxtpx:hr></gpxtpx:TrackPointExtension></extensions>
      </trkpt>
      <trkpt lat="59.239391230146" lon="17.916083429958">
        <ele>61.4</ele>
        <time>2016-04-25T19:27:49Z</time>
        <extensions><gpxtpx:TrackPointExtension><gpxtpx:hr>131</gpxtpx:hr></gpxtpx:TrackPointExtension></extensions>
      </trkpt>
      <trkpt lat="59.239469768549" lon="17.916074377506">
        <ele>61.8</ele>
        <time>2016-04-25T19:27:50Z</time>
        <extensions><gpxtpx:TrackPointExtension><gpxtpx:hr>133</gpxtpx:hr></gpxtpx:TrackPointExtension></extensions>
      </trkpt>
      <trkpt lat="59.239539925052" lon="17.91606649852">
        <ele>62.2</ele>
        <time>2016-04-25T19:27:51Z</time>
        <extensions><gpxtpx:TrackPointExtension><gpxtpx:hr>134</gpxtpx:hr></gpxtpx:TrackPointExtension></extensions>
      </trkpt>
      <trkpt lat="59.239605890605" lon="17.916060715009">
        <ele>62.8</ele>
        <time>2016-04-25T19:27:52Z</time>
        <extensions><gpxtpx:TrackPointExtension><gpxtpx:hr>137</gpxtpx:hr></gpxtpx:TrackPointExtension></extensions>
      </trkpt>
      <trkpt lat="59.239674873642" lon="17.916057194611">
        <ele>63.4</ele>
        <time>2016-04-25T19:27:53Z</time>
        <extensions><gpxtpx:TrackPointExtension><gpxtpx:hr>139</gpxtpx:hr></gpxtpx:TrackPointExtension></extensions>
      </trkpt>
      <trkpt lat="59.239742683213" lon="17.916051578738">
        <ele>64.2</ele>
        <time>2016-04-25T19:27:54Z</time>
        <extensions><gpxtpx:TrackPointExtension><gpxtpx:hr>142</gpxtpx:hr></gpxtpx:TrackPointExtension></extensions>
      </trkpt>
      <trkpt lat="59.239809738413" lon="17.916044957037">
        <ele>65</ele>
        <time>2016-04-25T19:27:55Z</time>
        <extensions><gpxtpx:TrackPointExtension><gpxtpx:hr>143</gpxtpx:hr></gpxtpx:TrackPointExtension></extensions>
      </trkpt>
      <trkpt lat="59.239878553812" lon="17.916038251517">
        <ele>65.8</ele>
        <time>2016-04-25T19:27:56Z</time>
        <extensions><gpxtpx:TrackPointExtension><gpxtpx:hr>146</gpxtpx:hr></gpxtpx:TrackPointExtension></extensions>
      </trkpt>
      <trkpt lat="59.239943932632" lon="17.916032384187">
        <ele>66.6</ele>
        <time>2016-04-25T19:27:57Z</time>
        <extensions><gpxtpx:TrackPointExtension><gpxtpx:hr>148</gpxtpx:hr></gpxtpx:TrackPointExtension></extensions>
      </trkpt>
      <trkpt lat="59.240008473262" lon="17.916020733346">
        <ele>67.6</ele>
        <time>2016-04-25T19:27:58Z</time>
        <extensions><gpxtpx:TrackPointExtension><gpxtpx:hr>151</gpxtpx:hr></gpxtpx:TrackPointExtension></extensions>
      </trkpt>
      <trkpt lat="59.240067900933" lon="17.9160095016">
        <ele>68.4</ele>
        <time>2016-04-25T19:27:59Z</time>
        <extensions><gpxtpx:TrackPointExtension><gpxtpx:hr>153</gpxtpx:hr></gpxtpx:TrackPointExtension></extensions>
      </trkpt>
      <trkpt lat="59.240123053835" lon="17.915992989257">
        <ele>69.4</ele>
        <time>2016-04-25T19:28:00Z</time>
        <extensions><gpxtpx:TrackPointExtension><gpxtpx:hr>155</gpxtpx:hr></gpxtpx:TrackPointExtension></extensions>
      </trkpt>
      <trkpt lat="59.240177452366" lon="17.915973710887">
        <ele>70.2</ele>
        <time>2016-04-25T19:28:01Z</time>
        <extensions><gpxtpx:TrackPointExtension><gpxtpx:hr>158</gpxtpx:hr></gpxtpx:TrackPointExtension></extensions>
      </trkpt>
      <trkpt lat="59.240232772906" lon="17.915952337042">
        <ele>71</ele>
        <time>2016-04-25T19:28:02Z</time>
        <extensions><gpxtpx:TrackPointExtension><gpxtpx:hr>160</gpxtpx:hr></gpxtpx:TrackPointExtension></extensions>
      </trkpt>
      <trkpt lat="59.240290021283" lon="17.915924509134">
        <ele>71.8</ele>
        <time>2016-04-25T19:28:03Z</time>
        <extensions><gpxtpx:TrackPointExtension><gpxtpx:hr>162</gpxtpx:hr></gpxtpx:TrackPointExtension></extensions>
      </trkpt>
      <trkpt lat="59.240342659615" lon="17.915893915199">
        <ele>72.6</ele>
        <time>2016-04-25T19:28:04Z</time>
        <extensions><gpxtpx:TrackPointExtension><gpxtpx:hr>164</gpxtpx:hr></gpxtpx:TrackPointExtension></extensions>
      </trkpt>
      <trkpt lat="59.24039337011" lon="17.915865584377">
        <ele>74</ele>
        <time>2016-04-25T19:28:05Z</time>
        <extensions><gpxtpx:TrackPointExtension><gpxtpx:hr>165</gpxtpx:hr></gpxtpx:TrackPointExtension></extensions>
      </trkpt>
      <trkpt lat="59.240448020098" lon="17.915838846116">
        <ele>74.6</ele>
        <time>2016-04-25T19:28:06Z</time>
        <extensions><gpxtpx:TrackPointExtension><gpxtpx:hr>167</gpxtpx:hr></gpxtpx:TrackPointExtension></extensions>
      </trkpt>
      <trkpt lat="59.240501748077" lon="17.915809677104">
        <ele>75.2</ele>
        <time>2016-04-25T19:28:07Z</time>
        <extensions><gpxtpx:TrackPointExtension><gpxtpx:hr>168</gpxtpx:hr></gpxtpx:TrackPointExtension></extensions>
      </trkpt>
      <trkpt lat="59.240553715857" lon="17.915783274119">
        <ele>76</ele>
        <time>2016-04-25T19:28:08Z</time>
        <extensions><gpxtpx:TrackPointExtension><gpxtpx:hr>169</gpxtpx:hr></gpxtpx:TrackPointExtension></extensions>
      </trkpt>
      <trkpt lat="59.240722694961" lon="17.915682942776">
        <ele>76</ele>
        <time>2016-04-25T19:28:11Z</time>
        <extensions><gpxtpx:TrackPointExtension><gpxtpx:hr>172</gpxtpx:hr></gpxtpx:TrackPointExtension></extensions>
      </trkpt>
      <trkpt lat="59.240844735425" lon="17.91560046488">
        <ele>76</ele>
        <time>2016-04-25T19:28:13Z</time>
        <extensions><gpxtpx:TrackPointExtension><gpxtpx:hr>172</gpxtpx:hr></gpxtpx:TrackPointExtension></extensions>
      </trkpt>
      <trkpt lat="59.241007260466" lon="17.915442466065">
        <ele>76</ele>
        <time>2016-04-25T19:28:16Z</time>
        <extensions><gpxtpx:TrackPointExtension><gpxtpx:hr>173</gpxtpx:hr></gpxtpx:TrackPointExtension></extensions>
      </trkpt>
      <trkpt lat="59.241059898798" lon="17.915380775281">
        <ele>76.4</ele>
        <time>2016-04-25T19:28:17Z</time>
        <extensions><gpxtpx:TrackPointExtension><gpxtpx:hr>173</gpxtpx:hr></gpxtpx:TrackPointExtension></extensions>
      </trkpt>
      <trkpt lat="59.241111615121" lon="17.915318413945">
        <ele>76.8</ele>
        <time>2016-04-25T19:28:18Z</time>
        <extensions><gpxtpx:TrackPointExtension><gpxtpx:hr>173</gpxtpx:hr></gpxtpx:TrackPointExtension></extensions>
      </trkpt>
      <trkpt lat="59.241160565417" lon="17.915255801152">
        <ele>77.2</ele>
        <time>2016-04-25T19:28:19Z</time>
        <extensions><gpxtpx:TrackPointExtension><gpxtpx:hr>174</gpxtpx:hr></gpxtpx:TrackPointExtension></extensions>
      </trkpt>
      <trkpt lat="59.241209683351" lon="17.91520064825">
        <ele>77.8</ele>
        <time>2016-04-25T19:28:20Z</time>
        <extensions><gpxtpx:TrackPointExtension><gpxtpx:hr>173</gpxtpx:hr></gpxtpx:TrackPointExtension></extensions>
      </trkpt>
      <trkpt lat="59.241260310027" lon="17.915152452325">
        <ele>78.2</ele>
        <time>2016-04-25T19:28:21Z</time>
        <extensions><gpxtpx:TrackPointExtension><gpxtpx:hr>173</gpxtpx:hr></gpxtpx:TrackPointExtension></extensions>
      </trkpt>
      <trkpt lat="59.24135393585" lon="17.915095371586">
        <ele>78.2</ele>
        <time>2016-04-25T19:28:23Z</time>
        <extensions><gpxtpx:TrackPointExtension><gpxtpx:hr>173</gpxtpx:hr></gpxtpx:TrackPointExtension></extensions>
      </trkpt>
      <trkpt lat="59.241394923341" lon="17.915076763768">
        <ele>78.6</ele>
        <time>2016-04-25T19:28:24Z</time>
        <extensions><gpxtpx:TrackPointExtension><gpxtpx:hr>174</gpxtpx:hr></gpxtpx:TrackPointExtension></extensions>
      </trkpt>
      <trkpt lat="59.241435743194" lon="17.915067878954">
        <ele>79</ele>
        <time>2016-04-25T19:28:25Z</time>
        <extensions><gpxtpx:TrackPointExtension><gpxtpx:hr>174</gpxtpx:hr></gpxtpx:TrackPointExtension></extensions>
      </trkpt>
      <trkpt lat="59.241477485056" lon="17.915072069904">
        <ele>79.4</ele>
        <time>2016-04-25T19:28:26Z</time>
        <extensions><gpxtpx:TrackPointExtension><gpxtpx:hr>173</gpxtpx:hr></gpxtpx:TrackPointExtension></extensions>
      </trkpt>
      <trkpt lat="59.241519562194" lon="17.915087995514">
        <ele>79.8</ele>
        <time>2016-04-25T19:28:27Z</time>
        <extensions><gpxtpx:TrackPointExtension><gpxtpx:hr>174</gpxtpx:hr></gpxtpx:TrackPointExtension></extensions>
      </trkpt>
      <trkpt lat="59.241564908273" lon="17.915112386843">
        <ele>80.4</ele>
        <time>2016-04-25T19:28:28Z</time>
        <extensions><gpxtpx:TrackPointExtension><gpxtpx:hr>174</gpxtpx:hr></gpxtpx:TrackPointExtension></extensions>
      </trkpt>
      <trkpt lat="59.241606482497" lon="17.915143316054">
        <ele>81.6</ele>
        <time>2016-04-25T19:28:29Z</time>
        <extensions><gpxtpx:TrackPointExtension><gpxtpx:hr>174</gpxtpx:hr></gpxtpx:TrackPointExtension></extensions>
      </trkpt>
      <trkpt lat="59.241646883255" lon="17.915177598025">
        <ele>82</ele>
        <time>2016-04-25T19:28:30Z</time>
        <extensions><gpxtpx:TrackPointExtension><gpxtpx:hr>174</gpxtpx:hr></gpxtpx:TrackPointExtension></extensions>
      </trkpt>
      <trkpt lat="59.241688708936" lon="17.915213807833">
        <ele>82.6</ele>
        <time>2016-04-25T19:28:31Z</time>
        <extensions><gpxtpx:TrackPointExtension><gpxtpx:hr>174</gpxtpx:hr></gpxtpx:TrackPointExtension></extensions>
      </trkpt>
      <trkpt lat="59.241777892352" lon="17.915286059811">
        <ele>82.6</ele>
        <time>2016-04-25T19:28:33Z</time>
        <extensions><gpxtpx:TrackPointExtension><gpxtpx:hr>175</gpxtpx:hr></gpxtpx:TrackPointExtension></extensions>
      </trkpt>
      <trkpt lat="59.242064134237" lon="17.915564674167">
        <ele>82.6</ele>
        <time>2016-04-25T19:28:39Z</time>
        <extensions><gpxtpx:TrackPointExtension><gpxtpx:hr>175</gpxtpx:hr></gpxtpx:TrackPointExtension></extensions>
      </trkpt>
      <trkpt lat="59.2422130806" lon="17.915685205889">
        <ele>83</ele>
        <time>2016-04-25T19:28:42Z</time>
        <extensions><gpxtpx:TrackPointExtension><gpxtpx:hr>175</gpxtpx:hr></gpxtpx:TrackPointExtension></extensions>
      </trkpt>
      <trkpt lat="59.242258761955" lon="17.915708088476">
        <ele>83.6</ele>
        <time>2016-04-25T19:28:43Z</time>
        <extensions><gpxtpx:TrackPointExtension><gpxtpx:hr>175</gpxtpx:hr></gpxtpx:TrackPointExtension></extensions>
      </trkpt>
      <trkpt lat="59.242303269844" lon="17.91573038433">
        <ele>84</ele>
        <time>2016-04-25T19:28:44Z</time>
        <extensions><gpxtpx:TrackPointExtension><gpxtpx:hr>176</gpxtpx:hr></gpxtpx:TrackPointExtension></extensions>
      </trkpt>
      <trkpt lat="59.24234300005" lon="17.915761313541">
        <ele>84.4</ele>
        <time>2016-04-25T19:28:45Z</time>
        <extensions><gpxtpx:TrackPointExtension><gpxtpx:hr>175</gpxtpx:hr></gpxtpx:TrackPointExtension></extensions>
      </trkpt>
      <trkpt lat="59.242386669749" lon="17.915792661847">
        <ele>84.8</ele>
        <time>2016-04-25T19:28:46Z</time>
        <extensions><gpxtpx:TrackPointExtension><gpxtpx:hr>175</gpxtpx:hr></gpxtpx:TrackPointExtension></extensions>
      </trkpt>
      <trkpt lat="59.242430674724" lon="17.915818897194">
        <ele>84.8</ele>
        <time>2016-04-25T19:28:47Z</time>
        <extensions><gpxtpx:TrackPointExtension><gpxtpx:hr>175</gpxtpx:hr></gpxtpx:TrackPointExtension></extensions>
      </trkpt>
      <trkpt lat="59.242472668043" lon="17.91585192188">
        <ele>85.2</ele>
        <time>2016-04-25T19:28:48Z</time>
        <extensions><gpxtpx:TrackPointExtension><gpxtpx:hr>175</gpxtpx:hr></gpxtpx:TrackPointExtension></extensions>
      </trkpt>
      <trkpt lat="59.242513068801" lon="17.91588461129">
        <ele>85.6</ele>
        <time>2016-04-25T19:28:49Z</time>
        <extensions><gpxtpx:TrackPointExtension><gpxtpx:hr>175</gpxtpx:hr></gpxtpx:TrackPointExtension></extensions>
      </trkpt>
      <trkpt lat="59.242553050464" lon="17.915912103922">
        <ele>86.2</ele>
        <time>2016-04-25T19:28:50Z</time>
        <extensions><gpxtpx:TrackPointExtension><gpxtpx:hr>175</gpxtpx:hr></gpxtpx:TrackPointExtension></extensions>
      </trkpt>
      <trkpt lat="59.242590098462" lon="17.915939764192">
        <ele>86.6</ele>
        <time>2016-04-25T19:28:51Z</time>
        <extensions><gpxtpx:TrackPointExtension><gpxtpx:hr>175</gpxtpx:hr></gpxtpx:TrackPointExtension></extensions>
      </trkpt>
      <trkpt lat="59.242627230279" lon="17.915967675919">
        <ele>87</ele>
        <time>2016-04-25T19:28:52Z</time>
        <extensions><gpxtpx:TrackPointExtension><gpxtpx:hr>175</gpxtpx:hr></gpxtpx:TrackPointExtension></extensions>
      </trkpt>
      <trkpt lat="59.242662601897" lon="17.915994581818">
        <ele>87.6</ele>
        <time>2016-04-25T19:28:53Z</time>
        <extensions><gpxtpx:TrackPointExtension><gpxtpx:hr>175</gpxtpx:hr></gpxtpx:TrackPointExtension></extensions>
      </trkpt>
      <trkpt lat="59.242700823361" lon="17.916020146613">
        <ele>88.6</ele>
        <time>2016-04-25T19:28:54Z</time>
        <extensions><gpxtpx:TrackPointExtension><gpxtpx:hr>176</gpxtpx:hr></gpxtpx:TrackPointExtension></extensions>
      </trkpt>
      <trkpt lat="59.242742481404" lon="17.916044035028">
        <ele>89</ele>
        <time>2016-04-25T19:28:55Z</time>
        <extensions><gpxtpx:TrackPointExtension><gpxtpx:hr>176</gpxtpx:hr></gpxtpx:TrackPointExtension></extensions>
      </trkpt>
      <trkpt lat="59.242787324569" lon="17.916070186556">
        <ele>89.4</ele>
        <time>2016-04-25T19:28:56Z</time>
        <extensions><gpxtpx:TrackPointExtension><gpxtpx:hr>176</gpxtpx:hr></gpxtpx:TrackPointExtension></extensions>
      </trkpt>
      <trkpt lat="59.242835185218" lon="17.91609415879">
        <ele>89.8</ele>
        <time>2016-04-25T19:28:57Z</time>
        <extensions><gpxtpx:TrackPointExtension><gpxtpx:hr>176</gpxtpx:hr></gpxtpx:TrackPointExtension></extensions>
      </trkpt>
      <trkpt lat="59.24288447079" lon="17.91612014268">
        <ele>90.2</ele>
        <time>2016-04-25T19:28:58Z</time>
        <extensions><gpxtpx:TrackPointExtension><gpxtpx:hr>177</gpxtpx:hr></gpxtpx:TrackPointExtension></extensions>
      </trkpt>
      <trkpt lat="59.242932834353" lon="17.916142606172">
        <ele>90.6</ele>
        <time>2016-04-25T19:28:59Z</time>
        <extensions><gpxtpx:TrackPointExtension><gpxtpx:hr>177</gpxtpx:hr></gpxtpx:TrackPointExtension></extensions>
      </trkpt>
      <trkpt lat="59.242985724142" lon="17.916160962533">
        <ele>91</ele>
        <time>2016-04-25T19:29:00Z</time>
        <extensions><gpxtpx:TrackPointExtension><gpxtpx:hr>177</gpxtpx:hr></gpxtpx:TrackPointExtension></extensions>
      </trkpt>
      <trkpt lat="59.24319041014" lon="17.916202872033">
        <ele>91</ele>
        <time>2016-04-25T19:29:04Z</time>
        <extensions><gpxtpx:TrackPointExtension><gpxtpx:hr>177</gpxtpx:hr></gpxtpx:TrackPointExtension></extensions>
      </trkpt>
      <trkpt lat="59.243436921819" lon="17.916215528702">
        <ele>91</ele>
        <time>2016-04-25T19:29:09Z</time>
        <extensions><gpxtpx:TrackPointExtension><gpxtpx:hr>177</gpxtpx:hr></gpxtpx:TrackPointExtension></extensions>
      </trkpt>
      <trkpt lat="59.243483106088" lon="17.916199016359">
        <ele>91.6</ele>
        <time>2016-04-25T19:29:10Z</time>
        <extensions><gpxtpx:TrackPointExtension><gpxtpx:hr>177</gpxtpx:hr></gpxtpx:TrackPointExtension></extensions>
      </trkpt>
      <trkpt lat="59.243526859606" lon="17.916180240903">
        <ele>92</ele>
        <time>2016-04-25T19:29:11Z</time>
        <extensions><gpxtpx:TrackPointExtension><gpxtpx:hr>177</gpxtpx:hr></gpxtpx:TrackPointExtension></extensions>
      </trkpt>
      <trkpt lat="59.243570194029" lon="17.91616791951">
        <ele>92.4</ele>
        <time>2016-04-25T19:29:12Z</time>
        <extensions><gpxtpx:TrackPointExtension><gpxtpx:hr>176</gpxtpx:hr></gpxtpx:TrackPointExtension></extensions>
      </trkpt>
      <trkpt lat="59.243610510968" lon="17.916158028868">
        <ele>92.8</ele>
        <time>2016-04-25T19:29:13Z</time>
        <extensions><gpxtpx:TrackPointExtension><gpxtpx:hr>176</gpxtpx:hr></gpxtpx:TrackPointExtension></extensions>
      </trkpt>
      <trkpt lat="59.243648313337" lon="17.916149730787">
        <ele>93.2</ele>
        <time>2016-04-25T19:29:14Z</time>
        <extensions><gpxtpx:TrackPointExtension><gpxtpx:hr>176</gpxtpx:hr></gpxtpx:TrackPointExtension></extensions>
      </trkpt>
      <trkpt lat="59.243684858421" lon="17.916144282552">
        <ele>93.2</ele>
        <time>2016-04-25T19:29:15Z</time>
        <extensions><gpxtpx:TrackPointExtension><gpxtpx:hr>176</gpxtpx:hr></gpxtpx:TrackPointExtension></extensions>
      </trkpt>
      <trkpt lat="59.243763815919" lon="17.916128440761">
        <ele>93.6</ele>
        <time>2016-04-25T19:29:17Z</time>
        <extensions><gpxtpx:TrackPointExtension><gpxtpx:hr>175</gpxtpx:hr></gpxtpx:TrackPointExtension></extensions>
      </trkpt>
      <trkpt lat="59.243800444822" lon="17.916125758553">
        <ele>94.2</ele>
        <time>2016-04-25T19:29:18Z</time>
        <extensions><gpxtpx:TrackPointExtension><gpxtpx:hr>175</gpxtpx:hr></gpxtpx:TrackPointExtension></extensions>
      </trkpt>
      <trkpt lat="59.243837744277" lon="17.916126177648">
        <ele>95</ele>
        <time>2016-04-25T19:29:19Z</time>
        <extensions><gpxtpx:TrackPointExtension><gpxtpx:hr>175</gpxtpx:hr></gpxtpx:TrackPointExtension></extensions>
      </trkpt>
      <trkpt lat="59.24387604956" lon="17.916131625883">
        <ele>95.4</ele>
        <time>2016-04-25T19:29:20Z</time>
        <extensions><gpxtpx:TrackPointExtension><gpxtpx:hr>175</gpxtpx:hr></gpxtpx:TrackPointExtension></extensions>
      </trkpt>
      <trkpt lat="59.243917539965" lon="17.916143444362">
        <ele>96</ele>
        <time>2016-04-25T19:29:21Z</time>
        <extensions><gpxtpx:TrackPointExtension><gpxtpx:hr>175</gpxtpx:hr></gpxtpx:TrackPointExtension></extensions>
      </trkpt>
      <trkpt lat="59.2439565158" lon="17.916155095203">
        <ele>96.4</ele>
        <time>2016-04-25T19:29:22Z</time>
        <extensions><gpxtpx:TrackPointExtension><gpxtpx:hr>175</gpxtpx:hr></gpxtpx:TrackPointExtension></extensions>
      </trkpt>
      <trkpt lat="59.243992809427" lon="17.916165907854">
        <ele>96.8</ele>
        <time>2016-04-25T19:29:23Z</time>
        <extensions><gpxtpx:TrackPointExtension><gpxtpx:hr>175</gpxtpx:hr></gpxtpx:TrackPointExtension></extensions>
      </trkpt>
      <trkpt lat="59.244028935416" lon="17.916172781012">
        <ele>97.4</ele>
        <time>2016-04-25T19:29:24Z</time>
        <extensions><gpxtpx:TrackPointExtension><gpxtpx:hr>175</gpxtpx:hr></gpxtpx:TrackPointExtension></extensions>
      </trkpt>
      <trkpt lat="59.244064139396" lon="17.916179737989">
        <ele>97.8</ele>
        <time>2016-04-25T19:29:25Z</time>
        <extensions><gpxtpx:TrackPointExtension><gpxtpx:hr>175</gpxtpx:hr></gpxtpx:TrackPointExtension></extensions>
      </trkpt>
      <trkpt lat="59.244101941765" lon="17.91619138883">
        <ele>98.4</ele>
        <time>2016-04-25T19:29:26Z</time>
        <extensions><gpxtpx:TrackPointExtension><gpxtpx:hr>175</gpxtpx:hr></gpxtpx:TrackPointExtension></extensions>
      </trkpt>
      <trkpt lat="59.244136810469" lon="17.916203794042">
        <ele>98.8</ele>
        <time>2016-04-25T19:29:27Z</time>
        <extensions><gpxtpx:TrackPointExtension><gpxtpx:hr>175</gpxtpx:hr></gpxtpx:TrackPointExtension></extensions>
      </trkpt>
      <trkpt lat="59.24417360701" lon="17.916220306385">
        <ele>99.4</ele>
        <time>2016-04-25T19:29:28Z</time>
        <extensions><gpxtpx:TrackPointExtension><gpxtpx:hr>175</gpxtpx:hr></gpxtpx:TrackPointExtension></extensions>
      </trkpt>
      <trkpt lat="59.244209146266" lon="17.916231119036">
        <ele>99.8</ele>
        <time>2016-04-25T19:29:29Z</time>
        <extensions><gpxtpx:TrackPointExtension><gpxtpx:hr>176</gpxtpx:hr></gpxtpx:TrackPointExtension></extensions>
      </trkpt>
      <trkpt lat="59.24424233859" lon="17.916239836212">
        <ele>100.2</ele>
        <time>2016-04-25T19:29:30Z</time>
        <extensions><gpxtpx:TrackPointExtension><gpxtpx:hr>175</gpxtpx:hr></gpxtpx:TrackPointExtension></extensions>
      </trkpt>
      <trkpt lat="59.244310902532" lon="17.916260036591">
        <ele>100.8</ele>
        <time>2016-04-25T19:29:32Z</time>
        <extensions><gpxtpx:TrackPointExtension><gpxtpx:hr>175</gpxtpx:hr></gpxtpx:TrackPointExtension></extensions>
      </trkpt>
      <trkpt lat="59.244336299689" lon="17.916270765423">
        <ele>101.2</ele>
        <time>2016-04-25T19:29:33Z</time>
        <extensions><gpxtpx:TrackPointExtension><gpxtpx:hr>176</gpxtpx:hr></gpxtpx:TrackPointExtension></extensions>
      </trkpt>
      <trkpt lat="59.24436052338" lon="17.916282583902">
        <ele>101.8</ele>
        <time>2016-04-25T19:29:34Z</time>
        <extensions><gpxtpx:TrackPointExtension><gpxtpx:hr>176</gpxtpx:hr></gpxtpx:TrackPointExtension></extensions>
      </trkpt>
      <trkpt lat="59.244389440935" lon="17.916286691033">
        <ele>102.2</ele>
        <time>2016-04-25T19:29:35Z</time>
        <extensions><gpxtpx:TrackPointExtension><gpxtpx:hr>176</gpxtpx:hr></gpxtpx:TrackPointExtension></extensions>
      </trkpt>
      <trkpt lat="59.244427327123" lon="17.916291636354">
        <ele>102.8</ele>
        <time>2016-04-25T19:29:36Z</time>
        <extensions><gpxtpx:TrackPointExtension><gpxtpx:hr>176</gpxtpx:hr></gpxtpx:TrackPointExtension></extensions>
      </trkpt>
      <trkpt lat="59.244463034017" lon="17.916292726001">
        <ele>103.2</ele>
        <time>2016-04-25T19:29:37Z</time>
        <extensions><gpxtpx:TrackPointExtension><gpxtpx:hr>176</gpxtpx:hr></gpxtpx:TrackPointExtension></extensions>
      </trkpt>
      <trkpt lat="59.244497651264" lon="17.91630202991">
        <ele>103.6</ele>
        <time>2016-04-25T19:29:38Z</time>
        <extensions><gpxtpx:TrackPointExtension><gpxtpx:hr>176</gpxtpx:hr></gpxtpx:TrackPointExtension></extensions>
      </trkpt>
      <trkpt lat="59.244534950719" lon="17.916306723774">
        <ele>104</ele>
        <time>2016-04-25T19:29:39Z</time>
        <extensions><gpxtpx:TrackPointExtension><gpxtpx:hr>177</gpxtpx:hr></gpxtpx:TrackPointExtension></extensions>
      </trkpt>
      <trkpt lat="59.244569065052" lon="17.916307478145">
        <ele>104.4</ele>
        <time>2016-04-25T19:29:40Z</time>
        <extensions><gpxtpx:TrackPointExtension><gpxtpx:hr>177</gpxtpx:hr></gpxtpx:TrackPointExtension></extensions>
      </trkpt>
      <trkpt lat="59.244603682299" lon="17.916309825077">
        <ele>104.8</ele>
        <time>2016-04-25T19:29:41Z</time>
        <extensions><gpxtpx:TrackPointExtension><gpxtpx:hr>177</gpxtpx:hr></gpxtpx:TrackPointExtension></extensions>
      </trkpt>
      <trkpt lat="59.244682555978" lon="17.916295994942">
        <ele>105.2</ele>
        <time>2016-04-25T19:29:43Z</time>
        <extensions><gpxtpx:TrackPointExtension><gpxtpx:hr>177</gpxtpx:hr></gpxtpx:TrackPointExtension></extensions>
      </trkpt>
      <trkpt lat="59.244725052211" lon="17.916282667721">
        <ele>105.6</ele>
        <time>2016-04-25T19:29:44Z</time>
        <extensions><gpxtpx:TrackPointExtension><gpxtpx:hr>177</gpxtpx:hr></gpxtpx:TrackPointExtension></extensions>
      </trkpt>
      <trkpt lat="59.244767464625" lon="17.916262970256">
        <ele>106</ele>
        <time>2016-04-25T19:29:45Z</time>
        <extensions><gpxtpx:TrackPointExtension><gpxtpx:hr>177</gpxtpx:hr></gpxtpx:TrackPointExtension></extensions>
      </trkpt>
      <trkpt lat="59.244813648894" lon="17.916235561443">
        <ele>106.6</ele>
        <time>2016-04-25T19:29:46Z</time>
        <extensions><gpxtpx:TrackPointExtension><gpxtpx:hr>177</gpxtpx:hr></gpxtpx:TrackPointExtension></extensions>
      </trkpt>
      <trkpt lat="59.24486259919" lon="17.916204380775">
        <ele>107</ele>
        <time>2016-04-25T19:29:47Z</time>
        <extensions><gpxtpx:TrackPointExtension><gpxtpx:hr>178</gpxtpx:hr></gpxtpx:TrackPointExtension></extensions>
      </trkpt>
      <trkpt lat="59.24490869964" lon="17.916165321121">
        <ele>107</ele>
        <time>2016-04-25T19:29:48Z</time>
        <extensions><gpxtpx:TrackPointExtension><gpxtpx:hr>178</gpxtpx:hr></gpxtpx:TrackPointExtension></extensions>
      </trkpt>
      <trkpt lat="59.245047922999" lon="17.916019811337">
        <ele>107</ele>
        <time>2016-04-25T19:29:51Z</time>
        <extensions><gpxtpx:TrackPointExtension><gpxtpx:hr>178</gpxtpx:hr></gpxtpx:TrackPointExtension></extensions>
      </trkpt>
      <trkpt lat="59.245186308168" lon="17.915880252702">
        <ele>107</ele>
        <time>2016-04-25T19:29:54Z</time>
        <extensions><gpxtpx:TrackPointExtension><gpxtpx:hr>177</gpxtpx:hr></gpxtpx:TrackPointExtension></extensions>
      </trkpt>
      <trkpt lat="59.245264343657" lon="17.915824513067">
        <ele>107</ele>
        <time>2016-04-25T19:29:56Z</time>
        <extensions><gpxtpx:TrackPointExtension><gpxtpx:hr>177</gpxtpx:hr></gpxtpx:TrackPointExtension></extensions>
      </trkpt>
      <trkpt lat="59.245344223164" lon="17.915778915531">
        <ele>107.4</ele>
        <time>2016-04-25T19:29:58Z</time>
        <extensions><gpxtpx:TrackPointExtension><gpxtpx:hr>177</gpxtpx:hr></gpxtpx:TrackPointExtension></extensions>
      </trkpt>
      <trkpt lat="59.245382444628" lon="17.915750165614">
        <ele>107.8</ele>
        <time>2016-04-25T19:29:59Z</time>
        <extensions><gpxtpx:TrackPointExtension><gpxtpx:hr>177</gpxtpx:hr></gpxtpx:TrackPointExtension></extensions>
      </trkpt>
      <trkpt lat="59.245421504282" lon="17.915729965235">
        <ele>108.4</ele>
        <time>2016-04-25T19:30:00Z</time>
        <extensions><gpxtpx:TrackPointExtension><gpxtpx:hr>176</gpxtpx:hr></gpxtpx:TrackPointExtension></extensions>
      </trkpt>
      <trkpt lat="59.245462659411" lon="17.915715129272">
        <ele>108.8</ele>
        <time>2016-04-25T19:30:01Z</time>
        <extensions><gpxtpx:TrackPointExtension><gpxtpx:hr>176</gpxtpx:hr></gpxtpx:TrackPointExtension></extensions>
      </trkpt>
      <trkpt lat="59.245502473436" lon="17.915699790395">
        <ele>109.4</ele>
        <time>2016-04-25T19:30:02Z</time>
        <extensions><gpxtpx:TrackPointExtension><gpxtpx:hr>176</gpxtpx:hr></gpxtpx:TrackPointExtension></extensions>
      </trkpt>
      <trkpt lat="59.245658125319" lon="17.915660060189">
        <ele>109.8</ele>
        <time>2016-04-25T19:30:06Z</time>
        <extensions><gpxtpx:TrackPointExtension><gpxtpx:hr>174</gpxtpx:hr></gpxtpx:TrackPointExtension></extensions>
      </trkpt>
      <trkpt lat="59.245689138349" lon="17.915653606126">
        <ele>110.2</ele>
        <time>2016-04-25T19:30:07Z</time>
        <extensions><gpxtpx:TrackPointExtension><gpxtpx:hr>174</gpxtpx:hr></gpxtpx:TrackPointExtension></extensions>
      </trkpt>
      <trkpt lat="59.245726102528" lon="17.915641033276">
        <ele>111.2</ele>
        <time>2016-04-25T19:30:08Z</time>
        <extensions><gpxtpx:TrackPointExtension><gpxtpx:hr>173</gpxtpx:hr></gpxtpx:TrackPointExtension></extensions>
      </trkpt>
      <trkpt lat="59.245767341476" lon="17.915627873693">
        <ele>111.8</ele>
        <time>2016-04-25T19:30:09Z</time>
        <extensions><gpxtpx:TrackPointExtension><gpxtpx:hr>173</gpxtpx:hr></gpxtpx:TrackPointExtension></extensions>
      </trkpt>
      <trkpt lat="59.245909247043" lon="17.915595938654">
        <ele>111.4</ele>
        <time>2016-04-25T19:30:12Z</time>
        <extensions><gpxtpx:TrackPointExtension><gpxtpx:hr>171</gpxtpx:hr></gpxtpx:TrackPointExtension></extensions>
      </trkpt>
      <trkpt lat="59.245960208995" lon="17.91558118651">
        <ele>111</ele>
        <time>2016-04-25T19:30:13Z</time>
        <extensions><gpxtpx:TrackPointExtension><gpxtpx:hr>171</gpxtpx:hr></gpxtpx:TrackPointExtension></extensions>
      </trkpt>
      <trkpt lat="59.246011170947" lon="17.915572301696">
        <ele>110.6</ele>
        <time>2016-04-25T19:30:14Z</time>
        <extensions><gpxtpx:TrackPointExtension><gpxtpx:hr>170</gpxtpx:hr></gpxtpx:TrackPointExtension></extensions>
      </trkpt>
      <trkpt lat="59.246068251686" lon="17.915565009443">
        <ele>110.2</ele>
        <time>2016-04-25T19:30:15Z</time>
        <extensions><gpxtpx:TrackPointExtension><gpxtpx:hr>169</gpxtpx:hr></gpxtpx:TrackPointExtension></extensions>
      </trkpt>
      <trkpt lat="59.246126841167" lon="17.91555771719">
        <ele>109.8</ele>
        <time>2016-04-25T19:30:16Z</time>
        <extensions><gpxtpx:TrackPointExtension><gpxtpx:hr>168</gpxtpx:hr></gpxtpx:TrackPointExtension></extensions>
      </trkpt>
      <trkpt lat="59.246228262157" lon="17.915545395797">
        <ele>109.8</ele>
        <time>2016-04-25T19:30:18Z</time>
        <extensions><gpxtpx:TrackPointExtension><gpxtpx:hr>167</gpxtpx:hr></gpxtpx:TrackPointExtension></extensions>
      </trkpt>
      <trkpt lat="59.24647611494" lon="17.915544976702">
        <ele>109.8</ele>
        <time>2016-04-25T19:30:23Z</time>
        <extensions><gpxtpx:TrackPointExtension><gpxtpx:hr>164</gpxtpx:hr></gpxtpx:TrackPointExtension></extensions>
      </trkpt>
      <trkpt lat="59.246524646141" lon="17.915562075778">
        <ele>109.4</ele>
        <time>2016-04-25T19:30:24Z</time>
        <extensions><gpxtpx:TrackPointExtension><gpxtpx:hr>163</gpxtpx:hr></gpxtpx:TrackPointExtension></extensions>
      </trkpt>
      <trkpt lat="59.24657418317" lon="17.915566685823">
        <ele>109</ele>
        <time>2016-04-25T19:30:25Z</time>
        <extensions><gpxtpx:TrackPointExtension><gpxtpx:hr>162</gpxtpx:hr></gpxtpx:TrackPointExtension></extensions>
      </trkpt>
      <trkpt lat="59.246617433774" lon="17.915575067723">
        <ele>108.6</ele>
        <time>2016-04-25T19:30:26Z</time>
        <extensions><gpxtpx:TrackPointExtension><gpxtpx:hr>161</gpxtpx:hr></gpxtpx:TrackPointExtension></extensions>
      </trkpt>
      <trkpt lat="59.246662360758" lon="17.915595016645">
        <ele>108.2</ele>
        <time>2016-04-25T19:30:27Z</time>
        <extensions><gpxtpx:TrackPointExtension><gpxtpx:hr>160</gpxtpx:hr></gpxtpx:TrackPointExtension></extensions>
      </trkpt>
      <trkpt lat="59.246703851163" lon="17.915626951684">
        <ele>107.8</ele>
        <time>2016-04-25T19:30:28Z</time>
        <extensions><gpxtpx:TrackPointExtension><gpxtpx:hr>159</gpxtpx:hr></gpxtpx:TrackPointExtension></extensions>
      </trkpt>
      <trkpt lat="59.246741737351" lon="17.915659305818">
        <ele>107.8</ele>
        <time>2016-04-25T19:30:29Z</time>
        <extensions><gpxtpx:TrackPointExtension><gpxtpx:hr>158</gpxtpx:hr></gpxtpx:TrackPointExtension></extensions>
      </trkpt>
      <trkpt lat="59.246770822544" lon="17.915698868386">
        <ele>107.8</ele>
        <time>2016-04-25T19:30:30Z</time>
        <extensions><gpxtpx:TrackPointExtension><gpxtpx:hr>157</gpxtpx:hr></gpxtpx:TrackPointExtension></extensions>
      </trkpt>
      <trkpt lat="59.246813821691" lon="17.915739520601">
        <ele>107.8</ele>
        <time>2016-04-25T19:30:32Z</time>
        <extensions><gpxtpx:TrackPointExtension><gpxtpx:hr>155</gpxtpx:hr></gpxtpx:TrackPointExtension></extensions>
      </trkpt>
      <trkpt lat="59.246881128348" lon="17.915718565851">
        <ele>107.8</ele>
        <time>2016-04-25T19:30:35Z</time>
        <extensions><gpxtpx:TrackPointExtension><gpxtpx:hr>152</gpxtpx:hr></gpxtpx:TrackPointExtension></extensions>
      </trkpt>
      <trkpt lat="59.246883726737" lon="17.915711022141">
        <ele>107.8</ele>
        <time>2016-04-25T19:30:36Z</time>
        <extensions><gpxtpx:TrackPointExtension><gpxtpx:hr>151</gpxtpx:hr></gpxtpx:TrackPointExtension></extensions>
      </trkpt>
      <trkpt lat="59.246830166396" lon="17.915641787647">
        <ele>107.8</ele>
        <time>2016-04-25T19:30:40Z</time>
        <extensions><gpxtpx:TrackPointExtension><gpxtpx:hr>148</gpxtpx:hr></gpxtpx:TrackPointExtension></extensions>
      </trkpt>
      <trkpt lat="59.246793286036" lon="17.915618150689">
        <ele>107.8</ele>
        <time>2016-04-25T19:30:41Z</time>
        <extensions><gpxtpx:TrackPointExtension><gpxtpx:hr>146</gpxtpx:hr></gpxtpx:TrackPointExtension></extensions>
      </trkpt>
      <trkpt lat="59.246681387671" lon="17.915557130457">
        <ele>107.8</ele>
        <time>2016-04-25T19:30:47Z</time>
        <extensions><gpxtpx:TrackPointExtension><gpxtpx:hr>143</gpxtpx:hr></gpxtpx:TrackPointExtension></extensions>
      </trkpt>
      <trkpt lat="59.246492711102" lon="17.915493930931">
        <ele>107.8</ele>
        <time>2016-04-25T19:30:53Z</time>
        <extensions><gpxtpx:TrackPointExtension><gpxtpx:hr>142</gpxtpx:hr></gpxtpx:TrackPointExtension></extensions>
      </trkpt>
      <trkpt lat="59.246323396722" lon="17.915520501554">
        <ele>107.8</ele>
        <time>2016-04-25T19:30:57Z</time>
        <extensions><gpxtpx:TrackPointExtension><gpxtpx:hr>143</gpxtpx:hr></gpxtpx:TrackPointExtension></extensions>
      </trkpt>
      <trkpt lat="59.24614502989" lon="17.91555771719">
        <ele>107.8</ele>
        <time>2016-04-25T19:31:01Z</time>
        <extensions><gpxtpx:TrackPointExtension><gpxtpx:hr>146</gpxtpx:hr></gpxtpx:TrackPointExtension></extensions>
      </trkpt>
      <trkpt lat="59.245923663911" lon="17.915584958365">
        <ele>107.8</ele>
        <time>2016-04-25T19:31:05Z</time>
        <extensions><gpxtpx:TrackPointExtension><gpxtpx:hr>149</gpxtpx:hr></gpxtpx:TrackPointExtension></extensions>
      </trkpt>
      <trkpt lat="59.245806484949" lon="17.91560968497">
        <ele>107.8</ele>
        <time>2016-04-25T19:31:07Z</time>
        <extensions><gpxtpx:TrackPointExtension><gpxtpx:hr>149</gpxtpx:hr></gpxtpx:TrackPointExtension></extensions>
      </trkpt>
      <trkpt lat="59.245745548536" lon="17.9156323161">
        <ele>107.8</ele>
        <time>2016-04-25T19:31:08Z</time>
        <extensions><gpxtpx:TrackPointExtension><gpxtpx:hr>150</gpxtpx:hr></gpxtpx:TrackPointExtension></extensions>
      </trkpt>
      <trkpt lat="59.245505826196" lon="17.915715045453">
        <ele>107.8</ele>
        <time>2016-04-25T19:31:12Z</time>
        <extensions><gpxtpx:TrackPointExtension><gpxtpx:hr>151</gpxtpx:hr></gpxtpx:TrackPointExtension></extensions>
      </trkpt>
      <trkpt lat="59.245436926978" lon="17.915753434555">
        <ele>107.8</ele>
        <time>2016-04-25T19:31:13Z</time>
        <extensions><gpxtpx:TrackPointExtension><gpxtpx:hr>151</gpxtpx:hr></gpxtpx:TrackPointExtension></extensions>
      </trkpt>
      <trkpt lat="59.245365932285" lon="17.915810766751">
        <ele>107.8</ele>
        <time>2016-04-25T19:31:14Z</time>
        <extensions><gpxtpx:TrackPointExtension><gpxtpx:hr>152</gpxtpx:hr></gpxtpx:TrackPointExtension></extensions>
      </trkpt>
      <trkpt lat="59.245292758298" lon="17.915879749788">
        <ele>107.8</ele>
        <time>2016-04-25T19:31:15Z</time>
        <extensions><gpxtpx:TrackPointExtension><gpxtpx:hr>151</gpxtpx:hr></gpxtpx:TrackPointExtension></extensions>
      </trkpt>
      <trkpt lat="59.245220590139" lon="17.915936327613">
        <ele>107.8</ele>
        <time>2016-04-25T19:31:16Z</time>
        <extensions><gpxtpx:TrackPointExtension><gpxtpx:hr>151</gpxtpx:hr></gpxtpx:TrackPointExtension></extensions>
      </trkpt>
      <trkpt lat="59.245149343989" lon="17.91598770866">
        <ele>107.4</ele>
        <time>2016-04-25T19:31:17Z</time>
        <extensions><gpxtpx:TrackPointExtension><gpxtpx:hr>150</gpxtpx:hr></gpxtpx:TrackPointExtension></extensions>
      </trkpt>
      <trkpt lat="59.245078097839" lon="17.916044789399">
        <ele>107</ele>
        <time>2016-04-25T19:31:18Z</time>
        <extensions><gpxtpx:TrackPointExtension><gpxtpx:hr>150</gpxtpx:hr></gpxtpx:TrackPointExtension></extensions>
      </trkpt>
      <trkpt lat="59.245004504757" lon="17.916094913161">
        <ele>106.6</ele>
        <time>2016-04-25T19:31:19Z</time>
        <extensions><gpxtpx:TrackPointExtension><gpxtpx:hr>150</gpxtpx:hr></gpxtpx:TrackPointExtension></extensions>
      </trkpt>
      <trkpt lat="59.244929570571" lon="17.916130536236">
        <ele>106.2</ele>
        <time>2016-04-25T19:31:20Z</time>
        <extensions><gpxtpx:TrackPointExtension><gpxtpx:hr>149</gpxtpx:hr></gpxtpx:TrackPointExtension></extensions>
      </trkpt>
      <trkpt lat="59.244849691064" lon="17.916148054407">
        <ele>105.8</ele>
        <time>2016-04-25T19:31:21Z</time>
        <extensions><gpxtpx:TrackPointExtension><gpxtpx:hr>148</gpxtpx:hr></gpxtpx:TrackPointExtension></extensions>
      </trkpt>
      <trkpt lat="59.244685992557" lon="17.916147132398">
        <ele>105.8</ele>
        <time>2016-04-25T19:31:23Z</time>
        <extensions><gpxtpx:TrackPointExtension><gpxtpx:hr>146</gpxtpx:hr></gpxtpx:TrackPointExtension></extensions>
      </trkpt>
      <trkpt lat="59.244593707838" lon="17.916131458245">
        <ele>105.2</ele>
        <time>2016-04-25T19:31:24Z</time>
        <extensions><gpxtpx:TrackPointExtension><gpxtpx:hr>145</gpxtpx:hr></gpxtpx:TrackPointExtension></extensions>
      </trkpt>
      <trkpt lat="59.244496561617" lon="17.91610756983">
        <ele>104.6</ele>
        <time>2016-04-25T19:31:25Z</time>
        <extensions><gpxtpx:TrackPointExtension><gpxtpx:hr>145</gpxtpx:hr></gpxtpx:TrackPointExtension></extensions>
      </trkpt>
      <trkpt lat="59.244388854202" lon="17.916073287859">
        <ele>103.8</ele>
        <time>2016-04-25T19:31:26Z</time>
        <extensions><gpxtpx:TrackPointExtension><gpxtpx:hr>144</gpxtpx:hr></gpxtpx:TrackPointExtension></extensions>
      </trkpt>
      <trkpt lat="59.244283828995" lon="17.91603883825">
        <ele>102.8</ele>
        <time>2016-04-25T19:31:27Z</time>
        <extensions><gpxtpx:TrackPointExtension><gpxtpx:hr>143</gpxtpx:hr></gpxtpx:TrackPointExtension></extensions>
      </trkpt>
      <trkpt lat="59.244170338069" lon="17.916000952062">
        <ele>101.6</ele>
        <time>2016-04-25T19:31:28Z</time>
        <extensions><gpxtpx:TrackPointExtension><gpxtpx:hr>142</gpxtpx:hr></gpxtpx:TrackPointExtension></extensions>
      </trkpt>
      <trkpt lat="59.244053662021" lon="17.915968849385">
        <ele>100.4</ele>
        <time>2016-04-25T19:31:29Z</time>
        <extensions><gpxtpx:TrackPointExtension><gpxtpx:hr>141</gpxtpx:hr></gpxtpx:TrackPointExtension></extensions>
      </trkpt>
      <trkpt lat="59.243936483059" lon="17.915973878525">
        <ele>99.2</ele>
        <time>2016-04-25T19:31:30Z</time>
        <extensions><gpxtpx:TrackPointExtension><gpxtpx:hr>140</gpxtpx:hr></gpxtpx:TrackPointExtension></extensions>
      </trkpt>
      <trkpt lat="59.243816035156" lon="17.91601285436">
        <ele>98</ele>
        <time>2016-04-25T19:31:31Z</time>
        <extensions><gpxtpx:TrackPointExtension><gpxtpx:hr>139</gpxtpx:hr></gpxtpx:TrackPointExtension></extensions>
      </trkpt>
      <trkpt lat="59.24369416233" lon="17.916059038629">
        <ele>96.6</ele>
        <time>2016-04-25T19:31:32Z</time>
        <extensions><gpxtpx:TrackPointExtension><gpxtpx:hr>139</gpxtpx:hr></gpxtpx:TrackPointExtension></extensions>
      </trkpt>
      <trkpt lat="59.243558962283" lon="17.916090219297">
        <ele>95.2</ele>
        <time>2016-04-25T19:31:33Z</time>
        <extensions><gpxtpx:TrackPointExtension><gpxtpx:hr>137</gpxtpx:hr></gpxtpx:TrackPointExtension></extensions>
      </trkpt>
      <trkpt lat="59.243438765837" lon="17.916099607025">
        <ele>94</ele>
        <time>2016-04-25T19:31:34Z</time>
        <extensions><gpxtpx:TrackPointExtension><gpxtpx:hr>137</gpxtpx:hr></gpxtpx:TrackPointExtension></extensions>
      </trkpt>
      <trkpt lat="59.243321083961" lon="17.91608577689">
        <ele>92.6</ele>
        <time>2016-04-25T19:31:35Z</time>
        <extensions><gpxtpx:TrackPointExtension><gpxtpx:hr>135</gpxtpx:hr></gpxtpx:TrackPointExtension></extensions>
      </trkpt>
      <trkpt lat="59.243207760673" lon="17.916059206267">
        <ele>91.2</ele>
        <time>2016-04-25T19:31:36Z</time>
        <extensions><gpxtpx:TrackPointExtension><gpxtpx:hr>135</gpxtpx:hr></gpxtpx:TrackPointExtension></extensions>
      </trkpt>
      <trkpt lat="59.243095359394" lon="17.916025175753">
        <ele>90</ele>
        <time>2016-04-25T19:31:37Z</time>
        <extensions><gpxtpx:TrackPointExtension><gpxtpx:hr>134</gpxtpx:hr></gpxtpx:TrackPointExtension></extensions>
      </trkpt>
      <trkpt lat="59.242983880124" lon="17.915979075303">
        <ele>88.6</ele>
        <time>2016-04-25T19:31:38Z</time>
        <extensions><gpxtpx:TrackPointExtension><gpxtpx:hr>134</gpxtpx:hr></gpxtpx:TrackPointExtension></extensions>
      </trkpt>
      <trkpt lat="59.242876591804" lon="17.915923922401">
        <ele>88.6</ele>
        <time>2016-04-25T19:31:39Z</time>
        <extensions><gpxtpx:TrackPointExtension><gpxtpx:hr>134</gpxtpx:hr></gpxtpx:TrackPointExtension></extensions>
      </trkpt>
      <trkpt lat="59.242779026488" lon="17.915870864974">
        <ele>88.2</ele>
        <time>2016-04-25T19:31:40Z</time>
        <extensions><gpxtpx:TrackPointExtension><gpxtpx:hr>134</gpxtpx:hr></gpxtpx:TrackPointExtension></extensions>
      </trkpt>
      <trkpt lat="59.242685233027" lon="17.91580917419">
        <ele>87.8</ele>
        <time>2016-04-25T19:31:41Z</time>
        <extensions><gpxtpx:TrackPointExtension><gpxtpx:hr>134</gpxtpx:hr></gpxtpx:TrackPointExtension></extensions>
      </trkpt>
      <trkpt lat="59.242593535041" lon="17.915750249433">
        <ele>87.4</ele>
        <time>2016-04-25T19:31:42Z</time>
        <extensions><gpxtpx:TrackPointExtension><gpxtpx:hr>134</gpxtpx:hr></gpxtpx:TrackPointExtension></extensions>
      </trkpt>
      <trkpt lat="59.242516002466" lon="17.915702137327">
        <ele>87</ele>
        <time>2016-04-25T19:31:43Z</time>
        <extensions><gpxtpx:TrackPointExtension><gpxtpx:hr>133</gpxtpx:hr></gpxtpx:TrackPointExtension></extensions>
      </trkpt>
      <trkpt lat="59.24245196475" lon="17.915656036877">
        <ele>86.6</ele>
        <time>2016-04-25T19:31:44Z</time>
        <extensions><gpxtpx:TrackPointExtension><gpxtpx:hr>131</gpxtpx:hr></gpxtpx:TrackPointExtension></extensions>
      </trkpt>
      <trkpt lat="59.242371749967" lon="17.915608343866">
        <ele>86.6</ele>
        <time>2016-04-25T19:31:46Z</time>
        <extensions><gpxtpx:TrackPointExtension><gpxtpx:hr>126</gpxtpx:hr></gpxtpx:TrackPointExtension></extensions>
      </trkpt>
      <trkpt lat="59.242299581808" lon="17.915552185136">
        <ele>86.6</ele>
        <time>2016-04-25T19:31:48Z</time>
        <extensions><gpxtpx:TrackPointExtension><gpxtpx:hr>122</gpxtpx:hr></gpxtpx:TrackPointExtension></extensions>
      </trkpt>
      <trkpt lat="59.242250715331" lon="17.915514298948">
        <ele>86.2</ele>
        <time>2016-04-25T19:31:49Z</time>
        <extensions><gpxtpx:TrackPointExtension><gpxtpx:hr>122</gpxtpx:hr></gpxtpx:TrackPointExtension></extensions>
      </trkpt>
      <trkpt lat="59.242200843026" lon="17.915469791059">
        <ele>85.6</ele>
        <time>2016-04-25T19:31:50Z</time>
        <extensions><gpxtpx:TrackPointExtension><gpxtpx:hr>122</gpxtpx:hr></gpxtpx:TrackPointExtension></extensions>
      </trkpt>
      <trkpt lat="59.242148959065" lon="17.915421008401">
        <ele>85.2</ele>
        <time>2016-04-25T19:31:51Z</time>
        <extensions><gpxtpx:TrackPointExtension><gpxtpx:hr>123</gpxtpx:hr></gpxtpx:TrackPointExtension></extensions>
      </trkpt>
      <trkpt lat="59.242090369584" lon="17.915366106956">
        <ele>84.8</ele>
        <time>2016-04-25T19:31:52Z</time>
        <extensions><gpxtpx:TrackPointExtension><gpxtpx:hr>124</gpxtpx:hr></gpxtpx:TrackPointExtension></extensions>
      </trkpt>
      <trkpt lat="59.242032199198" lon="17.915319252135">
        <ele>84.2</ele>
        <time>2016-04-25T19:31:53Z</time>
        <extensions><gpxtpx:TrackPointExtension><gpxtpx:hr>125</gpxtpx:hr></gpxtpx:TrackPointExtension></extensions>
      </trkpt>
      <trkpt lat="59.241975202278" lon="17.9152718944">
        <ele>84.2</ele>
        <time>2016-04-25T19:31:54Z</time>
        <extensions><gpxtpx:TrackPointExtension><gpxtpx:hr>126</gpxtpx:hr></gpxtpx:TrackPointExtension></extensions>
      </trkpt>
      <trkpt lat="59.241694492447" lon="17.915027562015">
        <ele>83.8</ele>
        <time>2016-04-25T19:31:59Z</time>
        <extensions><gpxtpx:TrackPointExtension><gpxtpx:hr>126</gpxtpx:hr></gpxtpx:TrackPointExtension></extensions>
      </trkpt>
      <trkpt lat="59.241631209102" lon="17.91500032084">
        <ele>83.4</ele>
        <time>2016-04-25T19:32:00Z</time>
        <extensions><gpxtpx:TrackPointExtension><gpxtpx:hr>126</gpxtpx:hr></gpxtpx:TrackPointExtension></extensions>
      </trkpt>
      <trkpt lat="59.241559711495" lon="17.914986323067">
        <ele>83</ele>
        <time>2016-04-25T19:32:01Z</time>
        <extensions><gpxtpx:TrackPointExtension><gpxtpx:hr>126</gpxtpx:hr></gpxtpx:TrackPointExtension></extensions>
      </trkpt>
      <trkpt lat="59.241484861128" lon="17.914987328895">
        <ele>82.6</ele>
        <time>2016-04-25T19:32:02Z</time>
        <extensions><gpxtpx:TrackPointExtension><gpxtpx:hr>126</gpxtpx:hr></gpxtpx:TrackPointExtension></extensions>
      </trkpt>
      <trkpt lat="59.241400790671" lon="17.915021443228">
        <ele>82.2</ele>
        <time>2016-04-25T19:32:03Z</time>
        <extensions><gpxtpx:TrackPointExtension><gpxtpx:hr>125</gpxtpx:hr></gpxtpx:TrackPointExtension></extensions>
      </trkpt>
      <trkpt lat="59.241322336087" lon="17.915089336618">
        <ele>81.6</ele>
        <time>2016-04-25T19:32:04Z</time>
        <extensions><gpxtpx:TrackPointExtension><gpxtpx:hr>126</gpxtpx:hr></gpxtpx:TrackPointExtension></extensions>
      </trkpt>
      <trkpt lat="59.241243378589" lon="17.915177430387">
        <ele>81</ele>
        <time>2016-04-25T19:32:05Z</time>
        <extensions><gpxtpx:TrackPointExtension><gpxtpx:hr>126</gpxtpx:hr></gpxtpx:TrackPointExtension></extensions>
      </trkpt>
      <trkpt lat="59.241162744711" lon="17.915267871088">
        <ele>80.2</ele>
        <time>2016-04-25T19:32:06Z</time>
        <extensions><gpxtpx:TrackPointExtension><gpxtpx:hr>127</gpxtpx:hr></gpxtpx:TrackPointExtension></extensions>
      </trkpt>
      <trkpt lat="59.241081859376" lon="17.915355378124">
        <ele>79.6</ele>
        <time>2016-04-25T19:32:07Z</time>
        <extensions><gpxtpx:TrackPointExtension><gpxtpx:hr>127</gpxtpx:hr></gpxtpx:TrackPointExtension></extensions>
      </trkpt>
      <trkpt lat="59.241000052032" lon="17.915436263459">
        <ele>78.8</ele>
        <time>2016-04-25T19:32:08Z</time>
        <extensions><gpxtpx:TrackPointExtension><gpxtpx:hr>128</gpxtpx:hr></gpxtpx:TrackPointExtension></extensions>
      </trkpt>
      <trkpt lat="59.240916233032" lon="17.91550407303">
        <ele>78</ele>
        <time>2016-04-25T19:32:09Z</time>
        <extensions><gpxtpx:TrackPointExtension><gpxtpx:hr>128</gpxtpx:hr></gpxtpx:TrackPointExtension></extensions>
      </trkpt>
      <trkpt lat="59.240821852838" lon="17.915565009443">
        <ele>76.4</ele>
        <time>2016-04-25T19:32:10Z</time>
        <extensions><gpxtpx:TrackPointExtension><gpxtpx:hr>128</gpxtpx:hr></gpxtpx:TrackPointExtension></extensions>
      </trkpt>
      <trkpt lat="59.240732250327" lon="17.915620413802">
        <ele>75.6</ele>
        <time>2016-04-25T19:32:11Z</time>
        <extensions><gpxtpx:TrackPointExtension><gpxtpx:hr>128</gpxtpx:hr></gpxtpx:TrackPointExtension></extensions>
      </trkpt>
      <trkpt lat="59.240642899273" lon="17.915673471229">
        <ele>75.2</ele>
        <time>2016-04-25T19:32:12Z</time>
        <extensions><gpxtpx:TrackPointExtension><gpxtpx:hr>127</gpxtpx:hr></gpxtpx:TrackPointExtension></extensions>
      </trkpt>
      <trkpt lat="59.240557320074" lon="17.915719823136">
        <ele>74.8</ele>
        <time>2016-04-25T19:32:13Z</time>
        <extensions><gpxtpx:TrackPointExtension><gpxtpx:hr>126</gpxtpx:hr></gpxtpx:TrackPointExtension></extensions>
      </trkpt>
      <trkpt lat="59.240474339264" lon="17.915765253034">
        <ele>74.4</ele>
        <time>2016-04-25T19:32:14Z</time>
        <extensions><gpxtpx:TrackPointExtension><gpxtpx:hr>125</gpxtpx:hr></gpxtpx:TrackPointExtension></extensions>
      </trkpt>
      <trkpt lat="59.240397644879" lon="17.915812275493">
        <ele>74</ele>
        <time>2016-04-25T19:32:15Z</time>
        <extensions><gpxtpx:TrackPointExtension><gpxtpx:hr>124</gpxtpx:hr></gpxtpx:TrackPointExtension></extensions>
      </trkpt>
      <trkpt lat="59.240318352105" lon="17.915860639056">
        <ele>73.6</ele>
        <time>2016-04-25T19:32:16Z</time>
        <extensions><gpxtpx:TrackPointExtension><gpxtpx:hr>123</gpxtpx:hr></gpxtpx:TrackPointExtension></extensions>
      </trkpt>
      <trkpt lat="59.240235706571" lon="17.915897938511">
        <ele>73.6</ele>
        <time>2016-04-25T19:32:17Z</time>
        <extensions><gpxtpx:TrackPointExtension><gpxtpx:hr>123</gpxtpx:hr></gpxtpx:TrackPointExtension></extensions>
      </trkpt>
      <trkpt lat="59.240137470703" lon="17.915921407831">
        <ele>73.6</ele>
        <time>2016-04-25T19:32:18Z</time>
        <extensions><gpxtpx:TrackPointExtension><gpxtpx:hr>123</gpxtpx:hr></gpxtpx:TrackPointExtension></extensions>
      </trkpt>
      <trkpt lat="59.240045856536" lon="17.915939177459">
        <ele>73</ele>
        <time>2016-04-25T19:32:19Z</time>
        <extensions><gpxtpx:TrackPointExtension><gpxtpx:hr>123</gpxtpx:hr></gpxtpx:TrackPointExtension></extensions>
      </trkpt>
      <trkpt lat="59.239954745283" lon="17.915945882979">
        <ele>72.6</ele>
        <time>2016-04-25T19:32:20Z</time>
        <extensions><gpxtpx:TrackPointExtension><gpxtpx:hr>124</gpxtpx:hr></gpxtpx:TrackPointExtension></extensions>
      </trkpt>
      <trkpt lat="59.239865645686" lon="17.915958958743">
        <ele>72</ele>
        <time>2016-04-25T19:32:21Z</time>
        <extensions><gpxtpx:TrackPointExtension><gpxtpx:hr>124</gpxtpx:hr></gpxtpx:TrackPointExtension></extensions>
      </trkpt>
      <trkpt lat="59.239775959356" lon="17.915976057819">
        <ele>71.2</ele>
        <time>2016-04-25T19:32:22Z</time>
        <extensions><gpxtpx:TrackPointExtension><gpxtpx:hr>124</gpxtpx:hr></gpxtpx:TrackPointExtension></extensions>
      </trkpt>
      <trkpt lat="59.239682417352" lon="17.915991229058">
        <ele>70.4</ele>
        <time>2016-04-25T19:32:23Z</time>
        <extensions><gpxtpx:TrackPointExtension><gpxtpx:hr>124</gpxtpx:hr></gpxtpx:TrackPointExtension></extensions>
      </trkpt>
      <trkpt lat="59.239585019674" lon="17.916003718089">
        <ele>69.4</ele>
        <time>2016-04-25T19:32:24Z</time>
        <extensions><gpxtpx:TrackPointExtension><gpxtpx:hr>123</gpxtpx:hr></gpxtpx:TrackPointExtension></extensions>
      </trkpt>
      <trkpt lat="59.239476641707" lon="17.916009585419">
        <ele>68.4</ele>
        <time>2016-04-25T19:32:25Z</time>
        <extensions><gpxtpx:TrackPointExtension><gpxtpx:hr>122</gpxtpx:hr></gpxtpx:TrackPointExtension></extensions>
      </trkpt>
      <trkpt lat="59.239379411667" lon="17.916020649527">
        <ele>67.4</ele>
        <time>2016-04-25T19:32:26Z</time>
        <extensions><gpxtpx:TrackPointExtension><gpxtpx:hr>121</gpxtpx:hr></gpxtpx:TrackPointExtension></extensions>
      </trkpt>
      <trkpt lat="59.239292491364" lon="17.916033892929">
        <ele>66.2</ele>
        <time>2016-04-25T19:32:27Z</time>
        <extensions><gpxtpx:TrackPointExtension><gpxtpx:hr>120</gpxtpx:hr></gpxtpx:TrackPointExtension></extensions>
      </trkpt>
      <trkpt lat="59.239210264925" lon="17.916057948982">
        <ele>65.2</ele>
        <time>2016-04-25T19:32:28Z</time>
        <extensions><gpxtpx:TrackPointExtension><gpxtpx:hr>119</gpxtpx:hr></gpxtpx:TrackPointExtension></extensions>
      </trkpt>
      <trkpt lat="59.239134827825" lon="17.916085022519">
        <ele>64</ele>
        <time>2016-04-25T19:32:29Z</time>
        <extensions><gpxtpx:TrackPointExtension><gpxtpx:hr>119</gpxtpx:hr></gpxtpx:TrackPointExtension></extensions>
      </trkpt>
      <trkpt lat="59.239068610815" lon="17.916111676961">
        <ele>62.8</ele>
        <time>2016-04-25T19:32:30Z</time>
        <extensions><gpxtpx:TrackPointExtension><gpxtpx:hr>118</gpxtpx:hr></gpxtpx:TrackPointExtension></extensions>
      </trkpt>
      <trkpt lat="59.239012703542" lon="17.916141013611">
        <ele>61.8</ele>
        <time>2016-04-25T19:32:31Z</time>
        <extensions><gpxtpx:TrackPointExtension><gpxtpx:hr>118</gpxtpx:hr></gpxtpx:TrackPointExtension></extensions>
      </trkpt>
      <trkpt lat="59.238967273644" lon="17.916162806551">
        <ele>61.8</ele>
        <time>2016-04-25T19:32:32Z</time>
        <extensions><gpxtpx:TrackPointExtension><gpxtpx:hr>118</gpxtpx:hr></gpxtpx:TrackPointExtension></extensions>
      </trkpt>
      <trkpt lat="59.238869456871" lon="17.916112515151">
        <ele>61.8</ele>
        <time>2016-04-25T19:32:35Z</time>
        <extensions><gpxtpx:TrackPointExtension><gpxtpx:hr>117</gpxtpx:hr></gpxtpx:TrackPointExtension></extensions>
      </trkpt>
      <trkpt lat="59.238821931498" lon="17.916016374758">
        <ele>61.8</ele>
        <time>2016-04-25T19:32:37Z</time>
        <extensions><gpxtpx:TrackPointExtension><gpxtpx:hr>117</gpxtpx:hr></gpxtpx:TrackPointExtension></extensions>
      </trkpt>
      <trkpt lat="59.238788403898" lon="17.915899950167">
        <ele>61.8</ele>
        <time>2016-04-25T19:32:39Z</time>
        <extensions><gpxtpx:TrackPointExtension><gpxtpx:hr>118</gpxtpx:hr></gpxtpx:TrackPointExtension></extensions>
      </trkpt>
      <trkpt lat="59.238755630669" lon="17.915731306339">
        <ele>61.8</ele>
        <time>2016-04-25T19:32:42Z</time>
        <extensions><gpxtpx:TrackPointExtension><gpxtpx:hr>119</gpxtpx:hr></gpxtpx:TrackPointExtension></extensions>
      </trkpt>
      <trkpt lat="59.238731406978" lon="17.915733988547">
        <ele>61.8</ele>
        <time>2016-04-25T19:32:43Z</time>
        <extensions><gpxtpx:TrackPointExtension><gpxtpx:hr>119</gpxtpx:hr></gpxtpx:TrackPointExtension></extensions>
      </trkpt>
      <trkpt lat="59.238728640951" lon="17.91582426161">
        <ele>61.8</ele>
        <time>2016-04-25T19:32:45Z</time>
        <extensions><gpxtpx:TrackPointExtension><gpxtpx:hr>119</gpxtpx:hr></gpxtpx:TrackPointExtension></extensions>
      </trkpt>
      <trkpt lat="59.238793349219" lon="17.91605308748">
        <ele>61.8</ele>
        <time>2016-04-25T19:32:48Z</time>
        <extensions><gpxtpx:TrackPointExtension><gpxtpx:hr>122</gpxtpx:hr></gpxtpx:TrackPointExtension></extensions>
      </trkpt>
      <trkpt lat="59.238829894303" lon="17.916134559548">
        <ele>61.8</ele>
        <time>2016-04-25T19:32:49Z</time>
        <extensions><gpxtpx:TrackPointExtension><gpxtpx:hr>123</gpxtpx:hr></gpxtpx:TrackPointExtension></extensions>
      </trkpt>
      <trkpt lat="59.23893743408" lon="17.916203458766">
        <ele>61.8</ele>
        <time>2016-04-25T19:32:51Z</time>
        <extensions><gpxtpx:TrackPointExtension><gpxtpx:hr>126</gpxtpx:hr></gpxtpx:TrackPointExtension></extensions>
      </trkpt>
      <trkpt lat="59.239000968882" lon="17.916189209536">
        <ele>61.4</ele>
        <time>2016-04-25T19:32:52Z</time>
        <extensions><gpxtpx:TrackPointExtension><gpxtpx:hr>127</gpxtpx:hr></gpxtpx:TrackPointExtension></extensions>
      </trkpt>
      <trkpt lat="59.23906064801" lon="17.916165656397">
        <ele>61</ele>
        <time>2016-04-25T19:32:53Z</time>
        <extensions><gpxtpx:TrackPointExtension><gpxtpx:hr>129</gpxtpx:hr></gpxtpx:TrackPointExtension></extensions>
      </trkpt>
      <trkpt lat="59.239120494776" lon="17.91614193562">
        <ele>60.6</ele>
        <time>2016-04-25T19:32:54Z</time>
        <extensions><gpxtpx:TrackPointExtension><gpxtpx:hr>130</gpxtpx:hr></gpxtpx:TrackPointExtension></extensions>
      </trkpt>
      <trkpt lat="59.239178581343" lon="17.916123579259">
        <ele>60</ele>
        <time>2016-04-25T19:32:55Z</time>
        <extensions><gpxtpx:TrackPointExtension><gpxtpx:hr>131</gpxtpx:hr></gpxtpx:TrackPointExtension></extensions>
      </trkpt>
      <trkpt lat="59.239233566607" lon="17.916109581486">
        <ele>59.6</ele>
        <time>2016-04-25T19:32:56Z</time>
        <extensions><gpxtpx:TrackPointExtension><gpxtpx:hr>133</gpxtpx:hr></gpxtpx:TrackPointExtension></extensions>
      </trkpt>
      <trkpt lat="59.239340687289" lon="17.91609751155">
        <ele>60</ele>
        <time>2016-04-25T19:32:58Z</time>
        <extensions><gpxtpx:TrackPointExtension><gpxtpx:hr>136</gpxtpx:hr></gpxtpx:TrackPointExtension></extensions>
      </trkpt>
      <trkpt lat="59.239392655069" lon="17.916091141306">
        <ele>60.6</ele>
        <time>2016-04-25T19:32:59Z</time>
        <extensions><gpxtpx:TrackPointExtension><gpxtpx:hr>137</gpxtpx:hr></gpxtpx:TrackPointExtension></extensions>
      </trkpt>
      <trkpt lat="59.239442527374" lon="17.916083932872">
        <ele>61.4</ele>
        <time>2016-04-25T19:33:00Z</time>
        <extensions><gpxtpx:TrackPointExtension><gpxtpx:hr>139</gpxtpx:hr></gpxtpx:TrackPointExtension></extensions>
      </trkpt>
      <trkpt lat="59.239494411335" lon="17.916083681415">
        <ele>62</ele>
        <time>2016-04-25T19:33:01Z</time>
        <extensions><gpxtpx:TrackPointExtension><gpxtpx:hr>140</gpxtpx:hr></gpxtpx:TrackPointExtension></extensions>
      </trkpt>
      <trkpt lat="59.239543277812" lon="17.916086279804">
        <ele>62.6</ele>
        <time>2016-04-25T19:33:02Z</time>
        <extensions><gpxtpx:TrackPointExtension><gpxtpx:hr>141</gpxtpx:hr></gpxtpx:TrackPointExtension></extensions>
      </trkpt>
      <trkpt lat="59.239591389918" lon="17.916086531261">
        <ele>63.2</ele>
        <time>2016-04-25T19:33:03Z</time>
        <extensions><gpxtpx:TrackPointExtension><gpxtpx:hr>142</gpxtpx:hr></gpxtpx:TrackPointExtension></extensions>
      </trkpt>
      <trkpt lat="59.239640256395" lon="17.916084435786">
        <ele>63.8</ele>
        <time>2016-04-25T19:33:04Z</time>
        <extensions><gpxtpx:TrackPointExtension><gpxtpx:hr>144</gpxtpx:hr></gpxtpx:TrackPointExtension></extensions>
      </trkpt>
      <trkpt lat="59.239689039053" lon="17.916087704727">
        <ele>64.4</ele>
        <time>2016-04-25T19:33:05Z</time>
        <extensions><gpxtpx:TrackPointExtension><gpxtpx:hr>146</gpxtpx:hr></gpxtpx:TrackPointExtension></extensions>
      </trkpt>
      <trkpt lat="59.239738073168" lon="17.916100696672">
        <ele>64.8</ele>
        <time>2016-04-25T19:33:06Z</time>
        <extensions><gpxtpx:TrackPointExtension><gpxtpx:hr>147</gpxtpx:hr></gpxtpx:TrackPointExtension></extensions>
      </trkpt>
      <trkpt lat="59.239787945473" lon="17.91610254069">
        <ele>65.4</ele>
        <time>2016-04-25T19:33:07Z</time>
        <extensions><gpxtpx:TrackPointExtension><gpxtpx:hr>147</gpxtpx:hr></gpxtpx:TrackPointExtension></extensions>
      </trkpt>
      <trkpt lat="59.239838236873" lon="17.916099690844">
        <ele>66</ele>
        <time>2016-04-25T19:33:08Z</time>
        <extensions><gpxtpx:TrackPointExtension><gpxtpx:hr>150</gpxtpx:hr></gpxtpx:TrackPointExtension></extensions>
      </trkpt>
      <trkpt lat="59.239885343151" lon="17.916094410247">
        <ele>66.6</ele>
        <time>2016-04-25T19:33:09Z</time>
        <extensions><gpxtpx:TrackPointExtension><gpxtpx:hr>151</gpxtpx:hr></gpxtpx:TrackPointExtension></extensions>
      </trkpt>
      <trkpt lat="59.23993152742" lon="17.916089464926">
        <ele>67.2</ele>
        <time>2016-04-25T19:33:10Z</time>
        <extensions><gpxtpx:TrackPointExtension><gpxtpx:hr>152</gpxtpx:hr></gpxtpx:TrackPointExtension></extensions>
      </trkpt>
      <trkpt lat="59.239977460232" lon="17.916083765234">
        <ele>67.8</ele>
        <time>2016-04-25T19:33:11Z</time>
        <extensions><gpxtpx:TrackPointExtension><gpxtpx:hr>154</gpxtpx:hr></gpxtpx:TrackPointExtension></extensions>
      </trkpt>
      <trkpt lat="59.24002205194" lon="17.91607404223">
        <ele>68.4</ele>
        <time>2016-04-25T19:33:12Z</time>
        <extensions><gpxtpx:TrackPointExtension><gpxtpx:hr>155</gpxtpx:hr></gpxtpx:TrackPointExtension></extensions>
      </trkpt>
      <trkpt lat="59.240066140734" lon="17.916066414701">
        <ele>69</ele>
        <time>2016-04-25T19:33:13Z</time>
        <extensions><gpxtpx:TrackPointExtension><gpxtpx:hr>156</gpxtpx:hr></gpxtpx:TrackPointExtension></extensions>
      </trkpt>
      <trkpt lat="59.2401092237" lon="17.916051327281">
        <ele>69.4</ele>
        <time>2016-04-25T19:33:14Z</time>
        <extensions><gpxtpx:TrackPointExtension><gpxtpx:hr>158</gpxtpx:hr></gpxtpx:TrackPointExtension></extensions>
      </trkpt>
      <trkpt lat="59.240156832892" lon="17.916034228205">
        <ele>70</ele>
        <time>2016-04-25T19:33:15Z</time>
        <extensions><gpxtpx:TrackPointExtension><gpxtpx:hr>159</gpxtpx:hr></gpxtpx:TrackPointExtension></extensions>
      </trkpt>
      <trkpt lat="59.2402014246" lon="17.916013105817">
        <ele>70.4</ele>
        <time>2016-04-25T19:33:16Z</time>
        <extensions><gpxtpx:TrackPointExtension><gpxtpx:hr>160</gpxtpx:hr></gpxtpx:TrackPointExtension></extensions>
      </trkpt>
      <trkpt lat="59.240245178118" lon="17.915991815791">
        <ele>71</ele>
        <time>2016-04-25T19:33:17Z</time>
        <extensions><gpxtpx:TrackPointExtension><gpxtpx:hr>161</gpxtpx:hr></gpxtpx:TrackPointExtension></extensions>
      </trkpt>
      <trkpt lat="59.240288847817" lon="17.915970441946">
        <ele>71.6</ele>
        <time>2016-04-25T19:33:18Z</time>
        <extensions><gpxtpx:TrackPointExtension><gpxtpx:hr>162</gpxtpx:hr></gpxtpx:TrackPointExtension></extensions>
      </trkpt>
      <trkpt lat="59.240332936611" lon="17.91594579916">
        <ele>72.2</ele>
        <time>2016-04-25T19:33:19Z</time>
        <extensions><gpxtpx:TrackPointExtension><gpxtpx:hr>163</gpxtpx:hr></gpxtpx:TrackPointExtension></extensions>
      </trkpt>
      <trkpt lat="59.240376941586" lon="17.915920318184">
        <ele>72.8</ele>
        <time>2016-04-25T19:33:20Z</time>
        <extensions><gpxtpx:TrackPointExtension><gpxtpx:hr>164</gpxtpx:hr></gpxtpx:TrackPointExtension></extensions>
      </trkpt>
      <trkpt lat="59.240422622941" lon="17.915894585751">
        <ele>73.4</ele>
        <time>2016-04-25T19:33:21Z</time>
        <extensions><gpxtpx:TrackPointExtension><gpxtpx:hr>165</gpxtpx:hr></gpxtpx:TrackPointExtension></extensions>
      </trkpt>
      <trkpt lat="59.240563941775" lon="17.915808419819">
        <ele>74.2</ele>
        <time>2016-04-25T19:33:24Z</time>
        <extensions><gpxtpx:TrackPointExtension><gpxtpx:hr>168</gpxtpx:hr></gpxtpx:TrackPointExtension></extensions>
      </trkpt>
      <trkpt lat="59.240611467148" lon="17.915783609395">
        <ele>74.6</ele>
        <time>2016-04-25T19:33:25Z</time>
        <extensions><gpxtpx:TrackPointExtension><gpxtpx:hr>168</gpxtpx:hr></gpxtpx:TrackPointExtension></extensions>
      </trkpt>
      <trkpt lat="59.240661758548" lon="17.915754021288">
        <ele>75</ele>
        <time>2016-04-25T19:33:26Z</time>
        <extensions><gpxtpx:TrackPointExtension><gpxtpx:hr>169</gpxtpx:hr></gpxtpx:TrackPointExtension></extensions>
      </trkpt>
      <trkpt lat="59.240712133767" lon="17.915715799824">
        <ele>75.4</ele>
        <time>2016-04-25T19:33:27Z</time>
        <extensions><gpxtpx:TrackPointExtension><gpxtpx:hr>169</gpxtpx:hr></gpxtpx:TrackPointExtension></extensions>
      </trkpt>
      <trkpt lat="59.240814728223" lon="17.91564740352">
        <ele>75.4</ele>
        <time>2016-04-25T19:33:29Z</time>
        <extensions><gpxtpx:TrackPointExtension><gpxtpx:hr>170</gpxtpx:hr></gpxtpx:TrackPointExtension></extensions>
      </trkpt>
      <trkpt lat="59.240914305195" lon="17.915566266728">
        <ele>75.4</ele>
        <time>2016-04-25T19:33:31Z</time>
        <extensions><gpxtpx:TrackPointExtension><gpxtpx:hr>170</gpxtpx:hr></gpxtpx:TrackPointExtension></extensions>
      </trkpt>
      <trkpt lat="59.24110080247" lon="17.915356719228">
        <ele>75.4</ele>
        <time>2016-04-25T19:33:35Z</time>
        <extensions><gpxtpx:TrackPointExtension><gpxtpx:hr>171</gpxtpx:hr></gpxtpx:TrackPointExtension></extensions>
      </trkpt>
      <trkpt lat="59.24114774111" lon="17.915297543014">
        <ele>75.4</ele>
        <time>2016-04-25T19:33:36Z</time>
        <extensions><gpxtpx:TrackPointExtension><gpxtpx:hr>171</gpxtpx:hr></gpxtpx:TrackPointExtension></extensions>
      </trkpt>
      <trkpt lat="59.241236505431" lon="17.915194529463">
        <ele>75.4</ele>
        <time>2016-04-25T19:33:38Z</time>
        <extensions><gpxtpx:TrackPointExtension><gpxtpx:hr>171</gpxtpx:hr></gpxtpx:TrackPointExtension></extensions>
      </trkpt>
      <trkpt lat="59.241280845682" lon="17.915152955239">
        <ele>75.8</ele>
        <time>2016-04-25T19:33:39Z</time>
        <extensions><gpxtpx:TrackPointExtension><gpxtpx:hr>171</gpxtpx:hr></gpxtpx:TrackPointExtension></extensions>
      </trkpt>
      <trkpt lat="59.241327700503" lon="17.915118924725">
        <ele>76.2</ele>
        <time>2016-04-25T19:33:40Z</time>
        <extensions><gpxtpx:TrackPointExtension><gpxtpx:hr>171</gpxtpx:hr></gpxtpx:TrackPointExtension></extensions>
      </trkpt>
      <trkpt lat="59.24137405241" lon="17.915096880328">
        <ele>76.6</ele>
        <time>2016-04-25T19:33:41Z</time>
        <extensions><gpxtpx:TrackPointExtension><gpxtpx:hr>170</gpxtpx:hr></gpxtpx:TrackPointExtension></extensions>
      </trkpt>
      <trkpt lat="59.241417973566" lon="17.915082379641">
        <ele>77.2</ele>
        <time>2016-04-25T19:33:42Z</time>
        <extensions><gpxtpx:TrackPointExtension><gpxtpx:hr>171</gpxtpx:hr></gpxtpx:TrackPointExtension></extensions>
      </trkpt>
      <trkpt lat="59.241462481455" lon="17.915083720745">
        <ele>77.6</ele>
        <time>2016-04-25T19:33:43Z</time>
        <extensions><gpxtpx:TrackPointExtension><gpxtpx:hr>171</gpxtpx:hr></gpxtpx:TrackPointExtension></extensions>
      </trkpt>
      <trkpt lat="59.241510174466" lon="17.915097383242">
        <ele>78.2</ele>
        <time>2016-04-25T19:33:44Z</time>
        <extensions><gpxtpx:TrackPointExtension><gpxtpx:hr>171</gpxtpx:hr></gpxtpx:TrackPointExtension></extensions>
      </trkpt>
      <trkpt lat="59.24155593964" lon="17.915112805938">
        <ele>78.6</ele>
        <time>2016-04-25T19:33:45Z</time>
        <extensions><gpxtpx:TrackPointExtension><gpxtpx:hr>171</gpxtpx:hr></gpxtpx:TrackPointExtension></extensions>
      </trkpt>
      <trkpt lat="59.241600615167" lon="17.915137784">
        <ele>79.2</ele>
        <time>2016-04-25T19:33:46Z</time>
        <extensions><gpxtpx:TrackPointExtension><gpxtpx:hr>171</gpxtpx:hr></gpxtpx:TrackPointExtension></extensions>
      </trkpt>
      <trkpt lat="59.241644368685" lon="17.915165947184">
        <ele>79.6</ele>
        <time>2016-04-25T19:33:47Z</time>
        <extensions><gpxtpx:TrackPointExtension><gpxtpx:hr>171</gpxtpx:hr></gpxtpx:TrackPointExtension></extensions>
      </trkpt>
      <trkpt lat="59.241683847434" lon="17.915196624938">
        <ele>80</ele>
        <time>2016-04-25T19:33:48Z</time>
        <extensions><gpxtpx:TrackPointExtension><gpxtpx:hr>172</gpxtpx:hr></gpxtpx:TrackPointExtension></extensions>
      </trkpt>
      <trkpt lat="59.241723912916" lon="17.91523333766">
        <ele>81</ele>
        <time>2016-04-25T19:33:49Z</time>
        <extensions><gpxtpx:TrackPointExtension><gpxtpx:hr>172</gpxtpx:hr></gpxtpx:TrackPointExtension></extensions>
      </trkpt>
      <trkpt lat="59.241765990054" lon="17.915273235504">
        <ele>81.4</ele>
        <time>2016-04-25T19:33:50Z</time>
        <extensions><gpxtpx:TrackPointExtension><gpxtpx:hr>172</gpxtpx:hr></gpxtpx:TrackPointExtension></extensions>
      </trkpt>
      <trkpt lat="59.24180991121" lon="17.915316989022">
        <ele>81.8</ele>
        <time>2016-04-25T19:33:51Z</time>
        <extensions><gpxtpx:TrackPointExtension><gpxtpx:hr>172</gpxtpx:hr></gpxtpx:TrackPointExtension></extensions>
      </trkpt>
      <trkpt lat="59.242086346272" lon="17.915586970021">
        <ele>81.8</ele>
        <time>2016-04-25T19:33:57Z</time>
        <extensions><gpxtpx:TrackPointExtension><gpxtpx:hr>173</gpxtpx:hr></gpxtpx:TrackPointExtension></extensions>
      </trkpt>
      <trkpt lat="59.242262617629" lon="17.915715799824">
        <ele>81.8</ele>
        <time>2016-04-25T19:34:01Z</time>
        <extensions><gpxtpx:TrackPointExtension><gpxtpx:hr>174</gpxtpx:hr></gpxtpx:TrackPointExtension></extensions>
      </trkpt>
      <trkpt lat="59.242302347835" lon="17.915748489234">
        <ele>81.8</ele>
        <time>2016-04-25T19:34:02Z</time>
        <extensions><gpxtpx:TrackPointExtension><gpxtpx:hr>174</gpxtpx:hr></gpxtpx:TrackPointExtension></extensions>
      </trkpt>
      <trkpt lat="59.242339563471" lon="17.915780340454">
        <ele>82.2</ele>
        <time>2016-04-25T19:34:03Z</time>
        <extensions><gpxtpx:TrackPointExtension><gpxtpx:hr>174</gpxtpx:hr></gpxtpx:TrackPointExtension></extensions>
      </trkpt>
      <trkpt lat="59.242377114383" lon="17.915808755095">
        <ele>82.6</ele>
        <time>2016-04-25T19:34:04Z</time>
        <extensions><gpxtpx:TrackPointExtension><gpxtpx:hr>174</gpxtpx:hr></gpxtpx:TrackPointExtension></extensions>
      </trkpt>
      <trkpt lat="59.24241676077" lon="17.915835325718">
        <ele>83.2</ele>
        <time>2016-04-25T19:34:05Z</time>
        <extensions><gpxtpx:TrackPointExtension><gpxtpx:hr>174</gpxtpx:hr></gpxtpx:TrackPointExtension></extensions>
      </trkpt>
      <trkpt lat="59.242459424641" lon="17.915859214133">
        <ele>83.6</ele>
        <time>2016-04-25T19:34:06Z</time>
        <extensions><gpxtpx:TrackPointExtension><gpxtpx:hr>173</gpxtpx:hr></gpxtpx:TrackPointExtension></extensions>
      </trkpt>
      <trkpt lat="59.242501669417" lon="17.915884192195">
        <ele>84</ele>
        <time>2016-04-25T19:34:07Z</time>
        <extensions><gpxtpx:TrackPointExtension><gpxtpx:hr>173</gpxtpx:hr></gpxtpx:TrackPointExtension></extensions>
      </trkpt>
      <trkpt lat="59.242542573089" lon="17.915915205225">
        <ele>84.6</ele>
        <time>2016-04-25T19:34:08Z</time>
        <extensions><gpxtpx:TrackPointExtension><gpxtpx:hr>173</gpxtpx:hr></gpxtpx:TrackPointExtension></extensions>
      </trkpt>
      <trkpt lat="59.242580710734" lon="17.915945882979">
        <ele>85</ele>
        <time>2016-04-25T19:34:09Z</time>
        <extensions><gpxtpx:TrackPointExtension><gpxtpx:hr>173</gpxtpx:hr></gpxtpx:TrackPointExtension></extensions>
      </trkpt>
      <trkpt lat="59.242618848379" lon="17.915975722543">
        <ele>85.6</ele>
        <time>2016-04-25T19:34:10Z</time>
        <extensions><gpxtpx:TrackPointExtension><gpxtpx:hr>173</gpxtpx:hr></gpxtpx:TrackPointExtension></extensions>
      </trkpt>
      <trkpt lat="59.242656734567" lon="17.916001538795">
        <ele>86</ele>
        <time>2016-04-25T19:34:11Z</time>
        <extensions><gpxtpx:TrackPointExtension><gpxtpx:hr>173</gpxtpx:hr></gpxtpx:TrackPointExtension></extensions>
      </trkpt>
      <trkpt lat="59.242696045678" lon="17.916026181581">
        <ele>86.6</ele>
        <time>2016-04-25T19:34:12Z</time>
        <extensions><gpxtpx:TrackPointExtension><gpxtpx:hr>173</gpxtpx:hr></gpxtpx:TrackPointExtension></extensions>
      </trkpt>
      <trkpt lat="59.242738038997" lon="17.916051159643">
        <ele>87</ele>
        <time>2016-04-25T19:34:13Z</time>
        <extensions><gpxtpx:TrackPointExtension><gpxtpx:hr>173</gpxtpx:hr></gpxtpx:TrackPointExtension></extensions>
      </trkpt>
      <trkpt lat="59.242777601565" lon="17.91607320404">
        <ele>87.8</ele>
        <time>2016-04-25T19:34:14Z</time>
        <extensions><gpxtpx:TrackPointExtension><gpxtpx:hr>173</gpxtpx:hr></gpxtpx:TrackPointExtension></extensions>
      </trkpt>
      <trkpt lat="59.242821187445" lon="17.916094577885">
        <ele>88.4</ele>
        <time>2016-04-25T19:34:15Z</time>
        <extensions><gpxtpx:TrackPointExtension><gpxtpx:hr>174</gpxtpx:hr></gpxtpx:TrackPointExtension></extensions>
      </trkpt>
      <trkpt lat="59.243058059939" lon="17.916190802097">
        <ele>88.4</ele>
        <time>2016-04-25T19:34:20Z</time>
        <extensions><gpxtpx:TrackPointExtension><gpxtpx:hr>174</gpxtpx:hr></gpxtpx:TrackPointExtension></extensions>
      </trkpt>
      <trkpt lat="59.243106088226" lon="17.916201698567">
        <ele>88.8</ele>
        <time>2016-04-25T19:34:21Z</time>
        <extensions><gpxtpx:TrackPointExtension><gpxtpx:hr>174</gpxtpx:hr></gpxtpx:TrackPointExtension></extensions>
      </trkpt>
      <trkpt lat="59.243153110685" lon="17.916212678856">
        <ele>89.2</ele>
        <time>2016-04-25T19:34:22Z</time>
        <extensions><gpxtpx:TrackPointExtension><gpxtpx:hr>173</gpxtpx:hr></gpxtpx:TrackPointExtension></extensions>
      </trkpt>
      <trkpt lat="59.243200636058" lon="17.916226089896">
        <ele>89.6</ele>
        <time>2016-04-25T19:34:23Z</time>
        <extensions><gpxtpx:TrackPointExtension><gpxtpx:hr>174</gpxtpx:hr></gpxtpx:TrackPointExtension></extensions>
      </trkpt>
      <trkpt lat="59.243248748164" lon="17.916237573099">
        <ele>90</ele>
        <time>2016-04-25T19:34:24Z</time>
        <extensions><gpxtpx:TrackPointExtension><gpxtpx:hr>174</gpxtpx:hr></gpxtpx:TrackPointExtension></extensions>
      </trkpt>
      <trkpt lat="59.243294932433" lon="17.916240255307">
        <ele>90.4</ele>
        <time>2016-04-25T19:34:25Z</time>
        <extensions><gpxtpx:TrackPointExtension><gpxtpx:hr>174</gpxtpx:hr></gpxtpx:TrackPointExtension></extensions>
      </trkpt>
      <trkpt lat="59.243385959867" lon="17.916215025788">
        <ele>90.4</ele>
        <time>2016-04-25T19:34:27Z</time>
        <extensions><gpxtpx:TrackPointExtension><gpxtpx:hr>174</gpxtpx:hr></gpxtpx:TrackPointExtension></extensions>
      </trkpt>
      <trkpt lat="59.243629370243" lon="17.916156687764">
        <ele>90.8</ele>
        <time>2016-04-25T19:34:32Z</time>
        <extensions><gpxtpx:TrackPointExtension><gpxtpx:hr>174</gpxtpx:hr></gpxtpx:TrackPointExtension></extensions>
      </trkpt>
      <trkpt lat="59.243673039942" lon="17.916140175421">
        <ele>91.2</ele>
        <time>2016-04-25T19:34:33Z</time>
        <extensions><gpxtpx:TrackPointExtension><gpxtpx:hr>174</gpxtpx:hr></gpxtpx:TrackPointExtension></extensions>
      </trkpt>
      <trkpt lat="59.243716374365" lon="17.916129781865">
        <ele>91.6</ele>
        <time>2016-04-25T19:34:34Z</time>
        <extensions><gpxtpx:TrackPointExtension><gpxtpx:hr>173</gpxtpx:hr></gpxtpx:TrackPointExtension></extensions>
      </trkpt>
      <trkpt lat="59.243762223358" lon="17.916122070517">
        <ele>92</ele>
        <time>2016-04-25T19:34:35Z</time>
        <extensions><gpxtpx:TrackPointExtension><gpxtpx:hr>173</gpxtpx:hr></gpxtpx:TrackPointExtension></extensions>
      </trkpt>
      <trkpt lat="59.243811592749" lon="17.916120394137">
        <ele>92.4</ele>
        <time>2016-04-25T19:34:36Z</time>
        <extensions><gpxtpx:TrackPointExtension><gpxtpx:hr>173</gpxtpx:hr></gpxtpx:TrackPointExtension></extensions>
      </trkpt>
      <trkpt lat="59.243847970195" lon="17.916118298662">
        <ele>92.8</ele>
        <time>2016-04-25T19:34:37Z</time>
        <extensions><gpxtpx:TrackPointExtension><gpxtpx:hr>173</gpxtpx:hr></gpxtpx:TrackPointExtension></extensions>
      </trkpt>
      <trkpt lat="59.243887197487" lon="17.916123243983">
        <ele>93.2</ele>
        <time>2016-04-25T19:34:38Z</time>
        <extensions><gpxtpx:TrackPointExtension><gpxtpx:hr>173</gpxtpx:hr></gpxtpx:TrackPointExtension></extensions>
      </trkpt>
      <trkpt lat="59.243927933521" lon="17.916136319747">
        <ele>94</ele>
        <time>2016-04-25T19:34:39Z</time>
        <extensions><gpxtpx:TrackPointExtension><gpxtpx:hr>173</gpxtpx:hr></gpxtpx:TrackPointExtension></extensions>
      </trkpt>
      <trkpt lat="59.24396405951" lon="17.916146210389">
        <ele>94.6</ele>
        <time>2016-04-25T19:34:40Z</time>
        <extensions><gpxtpx:TrackPointExtension><gpxtpx:hr>174</gpxtpx:hr></gpxtpx:TrackPointExtension></extensions>
      </trkpt>
      <trkpt lat="59.244002364793" lon="17.916157945049">
        <ele>95</ele>
        <time>2016-04-25T19:34:41Z</time>
        <extensions><gpxtpx:TrackPointExtension><gpxtpx:hr>174</gpxtpx:hr></gpxtpx:TrackPointExtension></extensions>
      </trkpt>
      <trkpt lat="59.244039328972" lon="17.916170182623">
        <ele>95.6</ele>
        <time>2016-04-25T19:34:42Z</time>
        <extensions><gpxtpx:TrackPointExtension><gpxtpx:hr>174</gpxtpx:hr></gpxtpx:TrackPointExtension></extensions>
      </trkpt>
      <trkpt lat="59.24408056792" lon="17.91618635969">
        <ele>96</ele>
        <time>2016-04-25T19:34:43Z</time>
        <extensions><gpxtpx:TrackPointExtension><gpxtpx:hr>175</gpxtpx:hr></gpxtpx:TrackPointExtension></extensions>
      </trkpt>
      <trkpt lat="59.244167488223" lon="17.916213349408">
        <ele>97</ele>
        <time>2016-04-25T19:34:44Z</time>
        <extensions><gpxtpx:TrackPointExtension><gpxtpx:hr>175</gpxtpx:hr></gpxtpx:TrackPointExtension></extensions>
      </trkpt>
      <trkpt lat="59.2442079728" lon="17.916230197027">
        <ele>97.4</ele>
        <time>2016-04-25T19:34:46Z</time>
        <extensions><gpxtpx:TrackPointExtension><gpxtpx:hr>175</gpxtpx:hr></gpxtpx:TrackPointExtension></extensions>
      </trkpt>
      <trkpt lat="59.244251642499" lon="17.916246038818">
        <ele>97.8</ele>
        <time>2016-04-25T19:34:47Z</time>
        <extensions><gpxtpx:TrackPointExtension><gpxtpx:hr>175</gpxtpx:hr></gpxtpx:TrackPointExtension></extensions>
      </trkpt>
      <trkpt lat="59.244292210895" lon="17.916255845641">
        <ele>98.4</ele>
        <time>2016-04-25T19:34:48Z</time>
        <extensions><gpxtpx:TrackPointExtension><gpxtpx:hr>176</gpxtpx:hr></gpxtpx:TrackPointExtension></extensions>
      </trkpt>
      <trkpt lat="59.244333282205" lon="17.916267999396">
        <ele>99</ele>
        <time>2016-04-25T19:34:49Z</time>
        <extensions><gpxtpx:TrackPointExtension><gpxtpx:hr>176</gpxtpx:hr></gpxtpx:TrackPointExtension></extensions>
      </trkpt>
      <trkpt lat="59.24437309623" lon="17.916262551161">
        <ele>99.4</ele>
        <time>2016-04-25T19:34:50Z</time>
        <extensions><gpxtpx:TrackPointExtension><gpxtpx:hr>176</gpxtpx:hr></gpxtpx:TrackPointExtension></extensions>
      </trkpt>
      <trkpt lat="59.24441416754" lon="17.916266742111">
        <ele>100</ele>
        <time>2016-04-25T19:34:51Z</time>
        <extensions><gpxtpx:TrackPointExtension><gpxtpx:hr>176</gpxtpx:hr></gpxtpx:TrackPointExtension></extensions>
      </trkpt>
      <trkpt lat="59.24444853333" lon="17.916282080988">
        <ele>100.6</ele>
        <time>2016-04-25T19:34:52Z</time>
        <extensions><gpxtpx:TrackPointExtension><gpxtpx:hr>177</gpxtpx:hr></gpxtpx:TrackPointExtension></extensions>
      </trkpt>
      <trkpt lat="59.244488263536" lon="17.916291552535">
        <ele>101.2</ele>
        <time>2016-04-25T19:34:53Z</time>
        <extensions><gpxtpx:TrackPointExtension><gpxtpx:hr>177</gpxtpx:hr></gpxtpx:TrackPointExtension></extensions>
      </trkpt>
      <trkpt lat="59.24452732319" lon="17.916300688806">
        <ele>101.8</ele>
        <time>2016-04-25T19:34:54Z</time>
        <extensions><gpxtpx:TrackPointExtension><gpxtpx:hr>177</gpxtpx:hr></gpxtpx:TrackPointExtension></extensions>
      </trkpt>
      <trkpt lat="59.244568562138" lon="17.916307981059">
        <ele>102.2</ele>
        <time>2016-04-25T19:34:55Z</time>
        <extensions><gpxtpx:TrackPointExtension><gpxtpx:hr>178</gpxtpx:hr></gpxtpx:TrackPointExtension></extensions>
      </trkpt>
      <trkpt lat="59.244608962896" lon="17.916324744859">
        <ele>102.6</ele>
        <time>2016-04-25T19:34:56Z</time>
        <extensions><gpxtpx:TrackPointExtension><gpxtpx:hr>178</gpxtpx:hr></gpxtpx:TrackPointExtension></extensions>
      </trkpt>
      <trkpt lat="59.24465388988" lon="17.916329271085">
        <ele>103.2</ele>
        <time>2016-04-25T19:34:57Z</time>
        <extensions><gpxtpx:TrackPointExtension><gpxtpx:hr>178</gpxtpx:hr></gpxtpx:TrackPointExtension></extensions>
      </trkpt>
      <trkpt lat="59.244688674765" lon="17.916316865873">
        <ele>103.6</ele>
        <time>2016-04-25T19:34:58Z</time>
        <extensions><gpxtpx:TrackPointExtension><gpxtpx:hr>178</gpxtpx:hr></gpxtpx:TrackPointExtension></extensions>
      </trkpt>
      <trkpt lat="59.244725387487" lon="17.916302700462">
        <ele>103.6</ele>
        <time>2016-04-25T19:34:59Z</time>
        <extensions><gpxtpx:TrackPointExtension><gpxtpx:hr>178</gpxtpx:hr></gpxtpx:TrackPointExtension></extensions>
      </trkpt>
      <trkpt lat="59.244765285331" lon="17.916275710744">
        <ele>103.6</ele>
        <time>2016-04-25T19:35:00Z</time>
        <extensions><gpxtpx:TrackPointExtension><gpxtpx:hr>179</gpxtpx:hr></gpxtpx:TrackPointExtension></extensions>
      </trkpt>
      <trkpt lat="59.244866371045" lon="17.91620899082">
        <ele>104</ele>
        <time>2016-04-25T19:35:02Z</time>
        <extensions><gpxtpx:TrackPointExtension><gpxtpx:hr>179</gpxtpx:hr></gpxtpx:TrackPointExtension></extensions>
      </trkpt>
      <trkpt lat="59.244911298029" lon="17.916172613374">
        <ele>104.8</ele>
        <time>2016-04-25T19:35:03Z</time>
        <extensions><gpxtpx:TrackPointExtension><gpxtpx:hr>179</gpxtpx:hr></gpxtpx:TrackPointExtension></extensions>
      </trkpt>
      <trkpt lat="59.244959074859" lon="17.916140175421">
        <ele>105.4</ele>
        <time>2016-04-25T19:35:04Z</time>
        <extensions><gpxtpx:TrackPointExtension><gpxtpx:hr>178</gpxtpx:hr></gpxtpx:TrackPointExtension></extensions>
      </trkpt>
      <trkpt lat="59.245005678223" lon="17.916109916762">
        <ele>105.8</ele>
        <time>2016-04-25T19:35:05Z</time>
        <extensions><gpxtpx:TrackPointExtension><gpxtpx:hr>178</gpxtpx:hr></gpxtpx:TrackPointExtension></extensions>
      </trkpt>
      <trkpt lat="59.245191337308" lon="17.915969771394">
        <ele>105.8</ele>
        <time>2016-04-25T19:35:09Z</time>
        <extensions><gpxtpx:TrackPointExtension><gpxtpx:hr>178</gpxtpx:hr></gpxtpx:TrackPointExtension></extensions>
      </trkpt>
      <trkpt lat="59.245364842638" lon="17.915840773953">
        <ele>106.2</ele>
        <time>2016-04-25T19:35:13Z</time>
        <extensions><gpxtpx:TrackPointExtension><gpxtpx:hr>177</gpxtpx:hr></gpxtpx:TrackPointExtension></extensions>
      </trkpt>
      <trkpt lat="59.245403734654" lon="17.91581923247">
        <ele>106.6</ele>
        <time>2016-04-25T19:35:14Z</time>
        <extensions><gpxtpx:TrackPointExtension><gpxtpx:hr>177</gpxtpx:hr></gpxtpx:TrackPointExtension></extensions>
      </trkpt>
      <trkpt lat="59.245442878127" lon="17.915796266064">
        <ele>107</ele>
        <time>2016-04-25T19:35:15Z</time>
        <extensions><gpxtpx:TrackPointExtension><gpxtpx:hr>177</gpxtpx:hr></gpxtpx:TrackPointExtension></extensions>
      </trkpt>
      <trkpt lat="59.245481351048" lon="17.91577564659">
        <ele>107.4</ele>
        <time>2016-04-25T19:35:16Z</time>
        <extensions><gpxtpx:TrackPointExtension><gpxtpx:hr>177</gpxtpx:hr></gpxtpx:TrackPointExtension></extensions>
      </trkpt>
      <trkpt lat="59.245525775118" lon="17.915752847822">
        <ele>108</ele>
        <time>2016-04-25T19:35:17Z</time>
        <extensions><gpxtpx:TrackPointExtension><gpxtpx:hr>177</gpxtpx:hr></gpxtpx:TrackPointExtension></extensions>
      </trkpt>
      <trkpt lat="59.245694670403" lon="17.915693671608">
        <ele>108</ele>
        <time>2016-04-25T19:35:21Z</time>
        <extensions><gpxtpx:TrackPointExtension><gpxtpx:hr>176</gpxtpx:hr></gpxtpx:TrackPointExtension></extensions>
      </trkpt>
      <trkpt lat="59.24583238502" lon="17.915650421004">
        <ele>108</ele>
        <time>2016-04-25T19:35:24Z</time>
        <extensions><gpxtpx:TrackPointExtension><gpxtpx:hr>175</gpxtpx:hr></gpxtpx:TrackPointExtension></extensions>
      </trkpt>
      <trkpt lat="59.24598661198" lon="17.915597195939">
        <ele>108</ele>
        <time>2016-04-25T19:35:27Z</time>
        <extensions><gpxtpx:TrackPointExtension><gpxtpx:hr>173</gpxtpx:hr></gpxtpx:TrackPointExtension></extensions>
      </trkpt>
      <trkpt lat="59.246197752041" lon="17.915529721644">
        <ele>108</ele>
        <time>2016-04-25T19:35:31Z</time>
        <extensions><gpxtpx:TrackPointExtension><gpxtpx:hr>170</gpxtpx:hr></gpxtpx:TrackPointExtension></extensions>
      </trkpt>
      <trkpt lat="59.246247959622" lon="17.915524943961">
        <ele>108</ele>
        <time>2016-04-25T19:35:32Z</time>
        <extensions><gpxtpx:TrackPointExtension><gpxtpx:hr>169</gpxtpx:hr></gpxtpx:TrackPointExtension></extensions>
      </trkpt>
      <trkpt lat="59.246303196343" lon="17.915521004468">
        <ele>108</ele>
        <time>2016-04-25T19:35:33Z</time>
        <extensions><gpxtpx:TrackPointExtension><gpxtpx:hr>168</gpxtpx:hr></gpxtpx:TrackPointExtension></extensions>
      </trkpt>
      <trkpt lat="59.246427583739" lon="17.91551999864">
        <ele>107.4</ele>
        <time>2016-04-25T19:35:35Z</time>
        <extensions><gpxtpx:TrackPointExtension><gpxtpx:hr>167</gpxtpx:hr></gpxtpx:TrackPointExtension></extensions>
      </trkpt>
      <trkpt lat="59.246483574831" lon="17.915523602857">
        <ele>107</ele>
        <time>2016-04-25T19:35:36Z</time>
        <extensions><gpxtpx:TrackPointExtension><gpxtpx:hr>166</gpxtpx:hr></gpxtpx:TrackPointExtension></extensions>
      </trkpt>
      <trkpt lat="59.246540823208" lon="17.915537516811">
        <ele>106.4</ele>
        <time>2016-04-25T19:35:37Z</time>
        <extensions><gpxtpx:TrackPointExtension><gpxtpx:hr>166</gpxtpx:hr></gpxtpx:TrackPointExtension></extensions>
      </trkpt>
      <trkpt lat="59.246593126264" lon="17.915558052466">
        <ele>106</ele>
        <time>2016-04-25T19:35:38Z</time>
        <extensions><gpxtpx:TrackPointExtension><gpxtpx:hr>165</gpxtpx:hr></gpxtpx:TrackPointExtension></extensions>
      </trkpt>
      <trkpt lat="59.246642830931" lon="17.915576241189">
        <ele>105.6</ele>
        <time>2016-04-25T19:35:39Z</time>
        <extensions><gpxtpx:TrackPointExtension><gpxtpx:hr>164</gpxtpx:hr></gpxtpx:TrackPointExtension></extensions>
      </trkpt>
      <trkpt lat="59.246812899682" lon="17.915652013565">
        <ele>105.6</ele>
        <time>2016-04-25T19:35:43Z</time>
        <extensions><gpxtpx:TrackPointExtension><gpxtpx:hr>162</gpxtpx:hr></gpxtpx:TrackPointExtension></extensions>
      </trkpt>
      <trkpt lat="59.246899233252" lon="17.915766007405">
        <ele>105.6</ele>
        <time>2016-04-25T19:35:46Z</time>
        <extensions><gpxtpx:TrackPointExtension><gpxtpx:hr>159</gpxtpx:hr></gpxtpx:TrackPointExtension></extensions>
      </trkpt>
      <trkpt lat="59.246925971513" lon="17.915779083169">
        <ele>105.6</ele>
        <time>2016-04-25T19:35:47Z</time>
        <extensions><gpxtpx:TrackPointExtension><gpxtpx:hr>158</gpxtpx:hr></gpxtpx:TrackPointExtension></extensions>
      </trkpt>
      <trkpt lat="59.246958325647" lon="17.915719739317">
        <ele>105.6</ele>
        <time>2016-04-25T19:35:50Z</time>
        <extensions><gpxtpx:TrackPointExtension><gpxtpx:hr>155</gpxtpx:hr></gpxtpx:TrackPointExtension></extensions>
      </trkpt>
      <trkpt lat="59.246890516076" lon="17.915650337185">
        <ele>105.6</ele>
        <time>2016-04-25T19:35:53Z</time>
        <extensions><gpxtpx:TrackPointExtension><gpxtpx:hr>153</gpxtpx:hr></gpxtpx:TrackPointExtension></extensions>
      </trkpt>
      <trkpt lat="59.246827568007" lon="17.915594849007">
        <ele>105.6</ele>
        <time>2016-04-25T19:35:55Z</time>
        <extensions><gpxtpx:TrackPointExtension><gpxtpx:hr>152</gpxtpx:hr></gpxtpx:TrackPointExtension></extensions>
      </trkpt>
      <trkpt lat="59.246684321336" lon="17.915546485444">
        <ele>105.6</ele>
        <time>2016-04-25T19:35:59Z</time>
        <extensions><gpxtpx:TrackPointExtension><gpxtpx:hr>151</gpxtpx:hr></gpxtpx:TrackPointExtension></extensions>
      </trkpt>
      <trkpt lat="59.246636460687" lon="17.915532320033">
        <ele>105.6</ele>
        <time>2016-04-25T19:36:00Z</time>
        <extensions><gpxtpx:TrackPointExtension><gpxtpx:hr>151</gpxtpx:hr></gpxtpx:TrackPointExtension></extensions>
      </trkpt>
      <trkpt lat="59.246423895703" lon="17.915485716669">
        <ele>105.6</ele>
        <time>2016-04-25T19:36:04Z</time>
        <extensions><gpxtpx:TrackPointExtension><gpxtpx:hr>153</gpxtpx:hr></gpxtpx:TrackPointExtension></extensions>
      </trkpt>
      <trkpt lat="59.246379052538" lon="17.915474065828">
        <ele>105.6</ele>
        <time>2016-04-25T19:36:05Z</time>
        <extensions><gpxtpx:TrackPointExtension><gpxtpx:hr>154</gpxtpx:hr></gpxtpx:TrackPointExtension></extensions>
      </trkpt>
      <trkpt lat="59.246236560238" lon="17.915487644506">
        <ele>105.6</ele>
        <time>2016-04-25T19:36:08Z</time>
        <extensions><gpxtpx:TrackPointExtension><gpxtpx:hr>156</gpxtpx:hr></gpxtpx:TrackPointExtension></extensions>
      </trkpt>
      <trkpt lat="59.246135642162" lon="17.915503067202">
        <ele>105.6</ele>
        <time>2016-04-25T19:36:10Z</time>
        <extensions><gpxtpx:TrackPointExtension><gpxtpx:hr>156</gpxtpx:hr></gpxtpx:TrackPointExtension></extensions>
      </trkpt>
      <trkpt lat="59.246085266943" lon="17.915517819346">
        <ele>106</ele>
        <time>2016-04-25T19:36:11Z</time>
        <extensions><gpxtpx:TrackPointExtension><gpxtpx:hr>155</gpxtpx:hr></gpxtpx:TrackPointExtension></extensions>
      </trkpt>
      <trkpt lat="59.246036149009" lon="17.915536008069">
        <ele>106.4</ele>
        <time>2016-04-25T19:36:12Z</time>
        <extensions><gpxtpx:TrackPointExtension><gpxtpx:hr>155</gpxtpx:hr></gpxtpx:TrackPointExtension></extensions>
      </trkpt>
      <trkpt lat="59.245989797102" lon="17.915555118801">
        <ele>107</ele>
        <time>2016-04-25T19:36:13Z</time>
        <extensions><gpxtpx:TrackPointExtension><gpxtpx:hr>155</gpxtpx:hr></gpxtpx:TrackPointExtension></extensions>
      </trkpt>
      <trkpt lat="59.245943361376" lon="17.915546736901">
        <ele>107.4</ele>
        <time>2016-04-25T19:36:14Z</time>
        <extensions><gpxtpx:TrackPointExtension><gpxtpx:hr>155</gpxtpx:hr></gpxtpx:TrackPointExtension></extensions>
      </trkpt>
      <trkpt lat="59.245894243442" lon="17.915539193191">
        <ele>108</ele>
        <time>2016-04-25T19:36:15Z</time>
        <extensions><gpxtpx:TrackPointExtension><gpxtpx:hr>155</gpxtpx:hr></gpxtpx:TrackPointExtension></extensions>
      </trkpt>
      <trkpt lat="59.245793660642" lon="17.915555873172">
        <ele>108</ele>
        <time>2016-04-25T19:36:17Z</time>
        <extensions><gpxtpx:TrackPointExtension><gpxtpx:hr>154</gpxtpx:hr></gpxtpx:TrackPointExtension></extensions>
      </trkpt>
      <trkpt lat="59.245532145362" lon="17.915651091556">
        <ele>108</ele>
        <time>2016-04-25T19:36:22Z</time>
        <extensions><gpxtpx:TrackPointExtension><gpxtpx:hr>152</gpxtpx:hr></gpxtpx:TrackPointExtension></extensions>
      </trkpt>
      <trkpt lat="59.245470706035" lon="17.915679506197">
        <ele>108</ele>
        <time>2016-04-25T19:36:23Z</time>
        <extensions><gpxtpx:TrackPointExtension><gpxtpx:hr>152</gpxtpx:hr></gpxtpx:TrackPointExtension></extensions>
      </trkpt>
      <trkpt lat="59.24527163591" lon="17.915830212759">
        <ele>108</ele>
        <time>2016-04-25T19:36:26Z</time>
        <extensions><gpxtpx:TrackPointExtension><gpxtpx:hr>151</gpxtpx:hr></gpxtpx:TrackPointExtension></extensions>
      </trkpt>
      <trkpt lat="59.245199635389" lon="17.91588712586">
        <ele>107.4</ele>
        <time>2016-04-25T19:36:27Z</time>
        <extensions><gpxtpx:TrackPointExtension><gpxtpx:hr>151</gpxtpx:hr></gpxtpx:TrackPointExtension></extensions>
      </trkpt>
      <trkpt lat="59.245132077275" lon="17.915945966798">
        <ele>107</ele>
        <time>2016-04-25T19:36:28Z</time>
        <extensions><gpxtpx:TrackPointExtension><gpxtpx:hr>151</gpxtpx:hr></gpxtpx:TrackPointExtension></extensions>
      </trkpt>
      <trkpt lat="59.245057729822" lon="17.915995755284">
        <ele>106.4</ele>
        <time>2016-04-25T19:36:29Z</time>
        <extensions><gpxtpx:TrackPointExtension><gpxtpx:hr>151</gpxtpx:hr></gpxtpx:TrackPointExtension></extensions>
      </trkpt>
      <trkpt lat="59.244985980758" lon="17.916038251517">
        <ele>106</ele>
        <time>2016-04-25T19:36:30Z</time>
        <extensions><gpxtpx:TrackPointExtension><gpxtpx:hr>151</gpxtpx:hr></gpxtpx:TrackPointExtension></extensions>
      </trkpt>
      <trkpt lat="59.244917668273" lon="17.916073371678">
        <ele>105.6</ele>
        <time>2016-04-25T19:36:31Z</time>
        <extensions><gpxtpx:TrackPointExtension><gpxtpx:hr>151</gpxtpx:hr></gpxtpx:TrackPointExtension></extensions>
      </trkpt>
      <trkpt lat="59.244681801607" lon="17.916133469901">
        <ele>105.6</ele>
        <time>2016-04-25T19:36:34Z</time>
        <extensions><gpxtpx:TrackPointExtension><gpxtpx:hr>151</gpxtpx:hr></gpxtpx:TrackPointExtension></extensions>
      </trkpt>
      <trkpt lat="59.244599910444" lon="17.916116119368">
        <ele>105</ele>
        <time>2016-04-25T19:36:35Z</time>
        <extensions><gpxtpx:TrackPointExtension><gpxtpx:hr>150</gpxtpx:hr></gpxtpx:TrackPointExtension></extensions>
      </trkpt>
      <trkpt lat="59.24451223577" lon="17.916102037776">
        <ele>104.6</ele>
        <time>2016-04-25T19:36:36Z</time>
        <extensions><gpxtpx:TrackPointExtension><gpxtpx:hr>149</gpxtpx:hr></gpxtpx:TrackPointExtension></extensions>
      </trkpt>
      <trkpt lat="59.244411569151" lon="17.916094494066">
        <ele>104.2</ele>
        <time>2016-04-25T19:36:37Z</time>
        <extensions><gpxtpx:TrackPointExtension><gpxtpx:hr>148</gpxtpx:hr></gpxtpx:TrackPointExtension></extensions>
      </trkpt>
      <trkpt lat="59.244315931672" lon="17.916077478809">
        <ele>103.4</ele>
        <time>2016-04-25T19:36:38Z</time>
        <extensions><gpxtpx:TrackPointExtension><gpxtpx:hr>147</gpxtpx:hr></gpxtpx:TrackPointExtension></extensions>
      </trkpt>
      <trkpt lat="59.24420881099" lon="17.916048980349">
        <ele>102.6</ele>
        <time>2016-04-25T19:36:39Z</time>
        <extensions><gpxtpx:TrackPointExtension><gpxtpx:hr>147</gpxtpx:hr></gpxtpx:TrackPointExtension></extensions>
      </trkpt>
      <trkpt lat="59.244100600661" lon="17.916005478288">
        <ele>101.6</ele>
        <time>2016-04-25T19:36:40Z</time>
        <extensions><gpxtpx:TrackPointExtension><gpxtpx:hr>146</gpxtpx:hr></gpxtpx:TrackPointExtension></extensions>
      </trkpt>
      <trkpt lat="59.243981493862" lon="17.915987624841">
        <ele>100.4</ele>
        <time>2016-04-25T19:36:41Z</time>
        <extensions><gpxtpx:TrackPointExtension><gpxtpx:hr>146</gpxtpx:hr></gpxtpx:TrackPointExtension></extensions>
      </trkpt>
      <trkpt lat="59.243861297416" lon="17.91600447246">
        <ele>99.2</ele>
        <time>2016-04-25T19:36:42Z</time>
        <extensions><gpxtpx:TrackPointExtension><gpxtpx:hr>145</gpxtpx:hr></gpxtpx:TrackPointExtension></extensions>
      </trkpt>
      <trkpt lat="59.243752667992" lon="17.916038419155">
        <ele>96.8</ele>
        <time>2016-04-25T19:36:43Z</time>
        <extensions><gpxtpx:TrackPointExtension><gpxtpx:hr>144</gpxtpx:hr></gpxtpx:TrackPointExtension></extensions>
      </trkpt>
      <trkpt lat="59.243651330821" lon="17.916070102737">
        <ele>95.4</ele>
        <time>2016-04-25T19:36:44Z</time>
        <extensions><gpxtpx:TrackPointExtension><gpxtpx:hr>144</gpxtpx:hr></gpxtpx:TrackPointExtension></extensions>
      </trkpt>
      <trkpt lat="59.243551334754" lon="17.916098852654">
        <ele>94.2</ele>
        <time>2016-04-25T19:36:45Z</time>
        <extensions><gpxtpx:TrackPointExtension><gpxtpx:hr>143</gpxtpx:hr></gpxtpx:TrackPointExtension></extensions>
      </trkpt>
      <trkpt lat="59.243455026723" lon="17.91611343716">
        <ele>93</ele>
        <time>2016-04-25T19:36:46Z</time>
        <extensions><gpxtpx:TrackPointExtension><gpxtpx:hr>142</gpxtpx:hr></gpxtpx:TrackPointExtension></extensions>
      </trkpt>
      <trkpt lat="59.24324824525" lon="17.916096002808">
        <ele>91</ele>
        <time>2016-04-25T19:36:47Z</time>
        <extensions><gpxtpx:TrackPointExtension><gpxtpx:hr>140</gpxtpx:hr></gpxtpx:TrackPointExtension></extensions>
      </trkpt>
      <trkpt lat="59.243146991898" lon="17.916065073597">
        <ele>89.8</ele>
        <time>2016-04-25T19:36:49Z</time>
        <extensions><gpxtpx:TrackPointExtension><gpxtpx:hr>139</gpxtpx:hr></gpxtpx:TrackPointExtension></extensions>
      </trkpt>
      <trkpt lat="59.243050516229" lon="17.916026097762">
        <ele>88.8</ele>
        <time>2016-04-25T19:36:50Z</time>
        <extensions><gpxtpx:TrackPointExtension><gpxtpx:hr>137</gpxtpx:hr></gpxtpx:TrackPointExtension></extensions>
      </trkpt>
      <trkpt lat="59.242862929307" lon="17.915939428916">
        <ele>88.8</ele>
        <time>2016-04-25T19:36:52Z</time>
        <extensions><gpxtpx:TrackPointExtension><gpxtpx:hr>134</gpxtpx:hr></gpxtpx:TrackPointExtension></extensions>
      </trkpt>
      <trkpt lat="59.242696297135" lon="17.915837085917">
        <ele>88.8</ele>
        <time>2016-04-25T19:36:54Z</time>
        <extensions><gpxtpx:TrackPointExtension><gpxtpx:hr>131</gpxtpx:hr></gpxtpx:TrackPointExtension></extensions>
      </trkpt>
      <trkpt lat="59.242533939732" lon="17.915729127045">
        <ele>88.2</ele>
        <time>2016-04-25T19:36:56Z</time>
        <extensions><gpxtpx:TrackPointExtension><gpxtpx:hr>130</gpxtpx:hr></gpxtpx:TrackPointExtension></extensions>
      </trkpt>
      <trkpt lat="59.242471829853" lon="17.915682691319">
        <ele>87.8</ele>
        <time>2016-04-25T19:36:57Z</time>
        <extensions><gpxtpx:TrackPointExtension><gpxtpx:hr>130</gpxtpx:hr></gpxtpx:TrackPointExtension></extensions>
      </trkpt>
      <trkpt lat="59.242420197349" lon="17.915642625837">
        <ele>87.2</ele>
        <time>2016-04-25T19:36:58Z</time>
        <extensions><gpxtpx:TrackPointExtension><gpxtpx:hr>130</gpxtpx:hr></gpxtpx:TrackPointExtension></extensions>
      </trkpt>
      <trkpt lat="59.242379712772" lon="17.91561639049">
        <ele>86.8</ele>
        <time>2016-04-25T19:36:59Z</time>
        <extensions><gpxtpx:TrackPointExtension><gpxtpx:hr>130</gpxtpx:hr></gpxtpx:TrackPointExtension></extensions>
      </trkpt>
      <trkpt lat="59.242354231796" lon="17.915606918943">
        <ele>86.2</ele>
        <time>2016-04-25T19:37:00Z</time>
        <extensions><gpxtpx:TrackPointExtension><gpxtpx:hr>129</gpxtpx:hr></gpxtpx:TrackPointExtension></extensions>
      </trkpt>
      <trkpt lat="59.242291619003" lon="17.915567272556">
        <ele>85.8</ele>
        <time>2016-04-25T19:37:02Z</time>
        <extensions><gpxtpx:TrackPointExtension><gpxtpx:hr>127</gpxtpx:hr></gpxtpx:TrackPointExtension></extensions>
      </trkpt>
      <trkpt lat="59.242243003983" lon="17.915529134911">
        <ele>85.4</ele>
        <time>2016-04-25T19:37:03Z</time>
        <extensions><gpxtpx:TrackPointExtension><gpxtpx:hr>126</gpxtpx:hr></gpxtpx:TrackPointExtension></extensions>
      </trkpt>
      <trkpt lat="59.24219212585" lon="17.915491332542">
        <ele>85</ele>
        <time>2016-04-25T19:37:04Z</time>
        <extensions><gpxtpx:TrackPointExtension><gpxtpx:hr>126</gpxtpx:hr></gpxtpx:TrackPointExtension></extensions>
      </trkpt>
      <trkpt lat="59.242140577165" lon="17.915447746662">
        <ele>84.6</ele>
        <time>2016-04-25T19:37:05Z</time>
        <extensions><gpxtpx:TrackPointExtension><gpxtpx:hr>127</gpxtpx:hr></gpxtpx:TrackPointExtension></extensions>
      </trkpt>
      <trkpt lat="59.24209070486" lon="17.9153976229">
        <ele>84.2</ele>
        <time>2016-04-25T19:37:06Z</time>
        <extensions><gpxtpx:TrackPointExtension><gpxtpx:hr>127</gpxtpx:hr></gpxtpx:TrackPointExtension></extensions>
      </trkpt>
      <trkpt lat="59.242041670745" lon="17.915348840242">
        <ele>83.8</ele>
        <time>2016-04-25T19:37:07Z</time>
        <extensions><gpxtpx:TrackPointExtension><gpxtpx:hr>127</gpxtpx:hr></gpxtpx:TrackPointExtension></extensions>
      </trkpt>
      <trkpt lat="59.241989870603" lon="17.91530458381">
        <ele>83.4</ele>
        <time>2016-04-25T19:37:08Z</time>
        <extensions><gpxtpx:TrackPointExtension><gpxtpx:hr>126</gpxtpx:hr></gpxtpx:TrackPointExtension></extensions>
      </trkpt>
      <trkpt lat="59.241938573375" lon="17.915260495016">
        <ele>82.4</ele>
        <time>2016-04-25T19:37:09Z</time>
        <extensions><gpxtpx:TrackPointExtension><gpxtpx:hr>126</gpxtpx:hr></gpxtpx:TrackPointExtension></extensions>
      </trkpt>
      <trkpt lat="59.241889120165" lon="17.915215568032">
        <ele>82</ele>
        <time>2016-04-25T19:37:10Z</time>
        <extensions><gpxtpx:TrackPointExtension><gpxtpx:hr>126</gpxtpx:hr></gpxtpx:TrackPointExtension></extensions>
      </trkpt>
      <trkpt lat="59.241836146557" lon="17.915173909989">
        <ele>82</ele>
        <time>2016-04-25T19:37:11Z</time>
        <extensions><gpxtpx:TrackPointExtension><gpxtpx:hr>125</gpxtpx:hr></gpxtpx:TrackPointExtension></extensions>
      </trkpt>
      <trkpt lat="59.241787363899" lon="17.915132922498">
        <ele>82</ele>
        <time>2016-04-25T19:37:12Z</time>
        <extensions><gpxtpx:TrackPointExtension><gpxtpx:hr>124</gpxtpx:hr></gpxtpx:TrackPointExtension></extensions>
      </trkpt>
      <trkpt lat="59.241566500834" lon="17.914998895917">
        <ele>82</ele>
        <time>2016-04-25T19:37:16Z</time>
        <extensions><gpxtpx:TrackPointExtension><gpxtpx:hr>122</gpxtpx:hr></gpxtpx:TrackPointExtension></extensions>
      </trkpt>
      <trkpt lat="59.241500116186" lon="17.915000572297">
        <ele>82</ele>
        <time>2016-04-25T19:37:17Z</time>
        <extensions><gpxtpx:TrackPointExtension><gpxtpx:hr>123</gpxtpx:hr></gpxtpx:TrackPointExtension></extensions>
      </trkpt>
      <trkpt lat="59.241422918887" lon="17.915020102124">
        <ele>81.6</ele>
        <time>2016-04-25T19:37:18Z</time>
        <extensions><gpxtpx:TrackPointExtension><gpxtpx:hr>124</gpxtpx:hr></gpxtpx:TrackPointExtension></extensions>
      </trkpt>
      <trkpt lat="59.241347146511" lon="17.915072572818">
        <ele>81.2</ele>
        <time>2016-04-25T19:37:19Z</time>
        <extensions><gpxtpx:TrackPointExtension><gpxtpx:hr>125</gpxtpx:hr></gpxtpx:TrackPointExtension></extensions>
      </trkpt>
      <trkpt lat="59.241271374135" lon="17.915142142588">
        <ele>80.8</ele>
        <time>2016-04-25T19:37:20Z</time>
        <extensions><gpxtpx:TrackPointExtension><gpxtpx:hr>126</gpxtpx:hr></gpxtpx:TrackPointExtension></extensions>
      </trkpt>
      <trkpt lat="59.241199792709" lon="17.915224369027">
        <ele>80</ele>
        <time>2016-04-25T19:37:21Z</time>
        <extensions><gpxtpx:TrackPointExtension><gpxtpx:hr>126</gpxtpx:hr></gpxtpx:TrackPointExtension></extensions>
      </trkpt>
      <trkpt lat="59.24112762455" lon="17.915313636262">
        <ele>79.4</ele>
        <time>2016-04-25T19:37:22Z</time>
        <extensions><gpxtpx:TrackPointExtension><gpxtpx:hr>126</gpxtpx:hr></gpxtpx:TrackPointExtension></extensions>
      </trkpt>
      <trkpt lat="59.241051516898" lon="17.915402903497">
        <ele>78.6</ele>
        <time>2016-04-25T19:37:23Z</time>
        <extensions><gpxtpx:TrackPointExtension><gpxtpx:hr>126</gpxtpx:hr></gpxtpx:TrackPointExtension></extensions>
      </trkpt>
      <trkpt lat="59.240971385934" lon="17.915470880706">
        <ele>78</ele>
        <time>2016-04-25T19:37:24Z</time>
        <extensions><gpxtpx:TrackPointExtension><gpxtpx:hr>125</gpxtpx:hr></gpxtpx:TrackPointExtension></extensions>
      </trkpt>
      <trkpt lat="59.240885806735" lon="17.91552586597">
        <ele>77.2</ele>
        <time>2016-04-25T19:37:25Z</time>
        <extensions><gpxtpx:TrackPointExtension><gpxtpx:hr>125</gpxtpx:hr></gpxtpx:TrackPointExtension></extensions>
      </trkpt>
      <trkpt lat="59.240797042414" lon="17.91557531918">
        <ele>76.6</ele>
        <time>2016-04-25T19:37:26Z</time>
        <extensions><gpxtpx:TrackPointExtension><gpxtpx:hr>125</gpxtpx:hr></gpxtpx:TrackPointExtension></extensions>
      </trkpt>
      <trkpt lat="59.240715402708" lon="17.915626197313">
        <ele>75.8</ele>
        <time>2016-04-25T19:37:27Z</time>
        <extensions><gpxtpx:TrackPointExtension><gpxtpx:hr>124</gpxtpx:hr></gpxtpx:TrackPointExtension></extensions>
      </trkpt>
      <trkpt lat="59.240636026115" lon="17.915670369926">
        <ele>75.2</ele>
        <time>2016-04-25T19:37:28Z</time>
        <extensions><gpxtpx:TrackPointExtension><gpxtpx:hr>124</gpxtpx:hr></gpxtpx:TrackPointExtension></extensions>
      </trkpt>
      <trkpt lat="59.240558158264" lon="17.915712698521">
        <ele>74.6</ele>
        <time>2016-04-25T19:37:29Z</time>
        <extensions><gpxtpx:TrackPointExtension><gpxtpx:hr>123</gpxtpx:hr></gpxtpx:TrackPointExtension></extensions>
      </trkpt>
      <trkpt lat="59.240481547698" lon="17.915754608021">
        <ele>74</ele>
        <time>2016-04-25T19:37:30Z</time>
        <extensions><gpxtpx:TrackPointExtension><gpxtpx:hr>123</gpxtpx:hr></gpxtpx:TrackPointExtension></extensions>
      </trkpt>
      <trkpt lat="59.240402338743" lon="17.915802887765">
        <ele>73.4</ele>
        <time>2016-04-25T19:37:31Z</time>
        <extensions><gpxtpx:TrackPointExtension><gpxtpx:hr>122</gpxtpx:hr></gpxtpx:TrackPointExtension></extensions>
      </trkpt>
      <trkpt lat="59.240323045969" lon="17.915846557464">
        <ele>72.8</ele>
        <time>2016-04-25T19:37:32Z</time>
        <extensions><gpxtpx:TrackPointExtension><gpxtpx:hr>121</gpxtpx:hr></gpxtpx:TrackPointExtension></extensions>
      </trkpt>
      <trkpt lat="59.240151217019" lon="17.915928867722">
        <ele>72.8</ele>
        <time>2016-04-25T19:37:34Z</time>
        <extensions><gpxtpx:TrackPointExtension><gpxtpx:hr>120</gpxtpx:hr></gpxtpx:TrackPointExtension></extensions>
      </trkpt>
      <trkpt lat="59.24005725592" lon="17.915958707286">
        <ele>72.4</ele>
        <time>2016-04-25T19:37:35Z</time>
        <extensions><gpxtpx:TrackPointExtension><gpxtpx:hr>120</gpxtpx:hr></gpxtpx:TrackPointExtension></extensions>
      </trkpt>
      <trkpt lat="59.239964887382" lon="17.915974968172">
        <ele>72</ele>
        <time>2016-04-25T19:37:36Z</time>
        <extensions><gpxtpx:TrackPointExtension><gpxtpx:hr>120</gpxtpx:hr></gpxtpx:TrackPointExtension></extensions>
      </trkpt>
      <trkpt lat="59.239877715622" lon="17.915988295393">
        <ele>71.2</ele>
        <time>2016-04-25T19:37:37Z</time>
        <extensions><gpxtpx:TrackPointExtension><gpxtpx:hr>120</gpxtpx:hr></gpxtpx:TrackPointExtension></extensions>
      </trkpt>
      <trkpt lat="59.239782832514" lon="17.915990977601">
        <ele>70.6</ele>
        <time>2016-04-25T19:37:38Z</time>
        <extensions><gpxtpx:TrackPointExtension><gpxtpx:hr>121</gpxtpx:hr></gpxtpx:TrackPointExtension></extensions>
      </trkpt>
      <trkpt lat="59.239681998257" lon="17.915999862415">
        <ele>69.6</ele>
        <time>2016-04-25T19:37:39Z</time>
        <extensions><gpxtpx:TrackPointExtension><gpxtpx:hr>122</gpxtpx:hr></gpxtpx:TrackPointExtension></extensions>
      </trkpt>
      <trkpt lat="59.239580074353" lon="17.916010675066">
        <ele>68.8</ele>
        <time>2016-04-25T19:37:40Z</time>
        <extensions><gpxtpx:TrackPointExtension><gpxtpx:hr>122</gpxtpx:hr></gpxtpx:TrackPointExtension></extensions>
      </trkpt>
      <trkpt lat="59.23948141939" lon="17.916014782197">
        <ele>67.8</ele>
        <time>2016-04-25T19:37:41Z</time>
        <extensions><gpxtpx:TrackPointExtension><gpxtpx:hr>122</gpxtpx:hr></gpxtpx:TrackPointExtension></extensions>
      </trkpt>
      <trkpt lat="59.239380166038" lon="17.916023247916">
        <ele>66.6</ele>
        <time>2016-04-25T19:37:42Z</time>
        <extensions><gpxtpx:TrackPointExtension><gpxtpx:hr>122</gpxtpx:hr></gpxtpx:TrackPointExtension></extensions>
      </trkpt>
      <trkpt lat="59.239284193283" lon="17.916040849906">
        <ele>65.4</ele>
        <time>2016-04-25T19:37:43Z</time>
        <extensions><gpxtpx:TrackPointExtension><gpxtpx:hr>122</gpxtpx:hr></gpxtpx:TrackPointExtension></extensions>
      </trkpt>
      <trkpt lat="59.239196686247" lon="17.916064067769">
        <ele>64.4</ele>
        <time>2016-04-25T19:37:44Z</time>
        <extensions><gpxtpx:TrackPointExtension><gpxtpx:hr>122</gpxtpx:hr></gpxtpx:TrackPointExtension></extensions>
      </trkpt>
      <trkpt lat="59.239119069853" lon="17.916096421903">
        <ele>63.2</ele>
        <time>2016-04-25T19:37:45Z</time>
        <extensions><gpxtpx:TrackPointExtension><gpxtpx:hr>122</gpxtpx:hr></gpxtpx:TrackPointExtension></extensions>
      </trkpt>
      <trkpt lat="59.23905394249" lon="17.916126345286">
        <ele>62</ele>
        <time>2016-04-25T19:37:46Z</time>
        <extensions><gpxtpx:TrackPointExtension><gpxtpx:hr>122</gpxtpx:hr></gpxtpx:TrackPointExtension></extensions>
      </trkpt>
      <trkpt lat="59.239001052701" lon="17.916147383855">
        <ele>60.8</ele>
        <time>2016-04-25T19:37:47Z</time>
        <extensions><gpxtpx:TrackPointExtension><gpxtpx:hr>122</gpxtpx:hr></gpxtpx:TrackPointExtension></extensions>
      </trkpt>
      <trkpt lat="59.238953694966" lon="17.916158531782">
        <ele>60.8</ele>
        <time>2016-04-25T19:37:48Z</time>
        <extensions><gpxtpx:TrackPointExtension><gpxtpx:hr>122</gpxtpx:hr></gpxtpx:TrackPointExtension></extensions>
      </trkpt>
      <trkpt lat="59.23890977381" lon="17.916136487385">
        <ele>60.8</ele>
        <time>2016-04-25T19:37:49Z</time>
        <extensions><gpxtpx:TrackPointExtension><gpxtpx:hr>122</gpxtpx:hr></gpxtpx:TrackPointExtension></extensions>
      </trkpt>
      <trkpt lat="59.238850681415" lon="17.915944290418">
        <ele>60.8</ele>
        <time>2016-04-25T19:37:52Z</time>
        <extensions><gpxtpx:TrackPointExtension><gpxtpx:hr>123</gpxtpx:hr></gpxtpx:TrackPointExtension></extensions>
      </trkpt>
      <trkpt lat="59.238831235407" lon="17.915789812001">
        <ele>60.8</ele>
        <time>2016-04-25T19:37:54Z</time>
        <extensions><gpxtpx:TrackPointExtension><gpxtpx:hr>124</gpxtpx:hr></gpxtpx:TrackPointExtension></extensions>
      </trkpt>
      <trkpt lat="59.238799887101" lon="17.915559309751">
        <ele>60.8</ele>
        <time>2016-04-25T19:37:57Z</time>
        <extensions><gpxtpx:TrackPointExtension><gpxtpx:hr>127</gpxtpx:hr></gpxtpx:TrackPointExtension></extensions>
      </trkpt>
      <trkpt lat="59.238787481889" lon="17.915481274262">
        <ele>60.8</ele>
        <time>2016-04-25T19:37:58Z</time>
        <extensions><gpxtpx:TrackPointExtension><gpxtpx:hr>127</gpxtpx:hr></gpxtpx:TrackPointExtension></extensions>
      </trkpt>
      <trkpt lat="59.238761833275" lon="17.915346158034">
        <ele>60.8</ele>
        <time>2016-04-25T19:38:00Z</time>
        <extensions><gpxtpx:TrackPointExtension><gpxtpx:hr>128</gpxtpx:hr></gpxtpx:TrackPointExtension></extensions>
      </trkpt>
      <trkpt lat="59.238740794706" lon="17.915355545762">
        <ele>60.8</ele>
        <time>2016-04-25T19:38:01Z</time>
        <extensions><gpxtpx:TrackPointExtension><gpxtpx:hr>128</gpxtpx:hr></gpxtpx:TrackPointExtension></extensions>
      </trkpt>
      <trkpt lat="59.238746745855" lon="17.915456882933">
        <ele>60.8</ele>
        <time>2016-04-25T19:38:03Z</time>
        <extensions><gpxtpx:TrackPointExtension><gpxtpx:hr>129</gpxtpx:hr></gpxtpx:TrackPointExtension></extensions>
      </trkpt>
      <trkpt lat="59.238792846305" lon="17.91568847483">
        <ele>60.8</ele>
        <time>2016-04-25T19:38:06Z</time>
        <extensions><gpxtpx:TrackPointExtension><gpxtpx:hr>132</gpxtpx:hr></gpxtpx:TrackPointExtension></extensions>
      </trkpt>
      <trkpt lat="59.238804832422" lon="17.915796936616">
        <ele>60.8</ele>
        <time>2016-04-25T19:38:07Z</time>
        <extensions><gpxtpx:TrackPointExtension><gpxtpx:hr>132</gpxtpx:hr></gpxtpx:TrackPointExtension></extensions>
      </trkpt>
      <trkpt lat="59.238836935099" lon="17.916034144386">
        <ele>60.8</ele>
        <time>2016-04-25T19:38:09Z</time>
        <extensions><gpxtpx:TrackPointExtension><gpxtpx:hr>135</gpxtpx:hr></gpxtpx:TrackPointExtension></extensions>
      </trkpt>
      <trkpt lat="59.238985797643" lon="17.916187952251">
        <ele>59.8</ele>
        <time>2016-04-25T19:38:12Z</time>
        <extensions><gpxtpx:TrackPointExtension><gpxtpx:hr>138</gpxtpx:hr></gpxtpx:TrackPointExtension></extensions>
      </trkpt>
      <trkpt lat="59.239046650237" lon="17.916170014985">
        <ele>59.4</ele>
        <time>2016-04-25T19:38:13Z</time>
        <extensions><gpxtpx:TrackPointExtension><gpxtpx:hr>139</gpxtpx:hr></gpxtpx:TrackPointExtension></extensions>
      </trkpt>
      <trkpt lat="59.239110185039" lon="17.916140678335">
        <ele>59</ele>
        <time>2016-04-25T19:38:14Z</time>
        <extensions><gpxtpx:TrackPointExtension><gpxtpx:hr>140</gpxtpx:hr></gpxtpx:TrackPointExtension></extensions>
      </trkpt>
      <trkpt lat="59.239175563859" lon="17.916122824888">
        <ele>58.4</ele>
        <time>2016-04-25T19:38:15Z</time>
        <extensions><gpxtpx:TrackPointExtension><gpxtpx:hr>141</gpxtpx:hr></gpxtpx:TrackPointExtension></extensions>
      </trkpt>
      <trkpt lat="59.239305064214" lon="17.916088794374">
        <ele>59</ele>
        <time>2016-04-25T19:38:17Z</time>
        <extensions><gpxtpx:TrackPointExtension><gpxtpx:hr>144</gpxtpx:hr></gpxtpx:TrackPointExtension></extensions>
      </trkpt>
      <trkpt lat="59.239369856301" lon="17.9160849387">
        <ele>59.4</ele>
        <time>2016-04-25T19:38:18Z</time>
        <extensions><gpxtpx:TrackPointExtension><gpxtpx:hr>145</gpxtpx:hr></gpxtpx:TrackPointExtension></extensions>
      </trkpt>
      <trkpt lat="59.239433307284" lon="17.916078903732">
        <ele>59.8</ele>
        <time>2016-04-25T19:38:19Z</time>
        <extensions><gpxtpx:TrackPointExtension><gpxtpx:hr>146</gpxtpx:hr></gpxtpx:TrackPointExtension></extensions>
      </trkpt>
      <trkpt lat="59.239491058575" lon="17.91607739499">
        <ele>60.4</ele>
        <time>2016-04-25T19:38:20Z</time>
        <extensions><gpxtpx:TrackPointExtension><gpxtpx:hr>149</gpxtpx:hr></gpxtpx:TrackPointExtension></extensions>
      </trkpt>
      <trkpt lat="59.239545373287" lon="17.916073539316">
        <ele>61</ele>
        <time>2016-04-25T19:38:21Z</time>
        <extensions><gpxtpx:TrackPointExtension><gpxtpx:hr>150</gpxtpx:hr></gpxtpx:TrackPointExtension></extensions>
      </trkpt>
      <trkpt lat="59.239598346895" lon="17.916070354194">
        <ele>61.6</ele>
        <time>2016-04-25T19:38:22Z</time>
        <extensions><gpxtpx:TrackPointExtension><gpxtpx:hr>152</gpxtpx:hr></gpxtpx:TrackPointExtension></extensions>
      </trkpt>
      <trkpt lat="59.239655008539" lon="17.916061301742">
        <ele>63</ele>
        <time>2016-04-25T19:38:23Z</time>
        <extensions><gpxtpx:TrackPointExtension><gpxtpx:hr>153</gpxtpx:hr></gpxtpx:TrackPointExtension></extensions>
      </trkpt>
      <trkpt lat="59.239704210292" lon="17.916051830195">
        <ele>63.6</ele>
        <time>2016-04-25T19:38:24Z</time>
        <extensions><gpxtpx:TrackPointExtension><gpxtpx:hr>156</gpxtpx:hr></gpxtpx:TrackPointExtension></extensions>
      </trkpt>
      <trkpt lat="59.239753160588" lon="17.91605811662">
        <ele>64.4</ele>
        <time>2016-04-25T19:38:25Z</time>
        <extensions><gpxtpx:TrackPointExtension><gpxtpx:hr>157</gpxtpx:hr></gpxtpx:TrackPointExtension></extensions>
      </trkpt>
      <trkpt lat="59.239806720929" lon="17.916061217923">
        <ele>65.2</ele>
        <time>2016-04-25T19:38:26Z</time>
        <extensions><gpxtpx:TrackPointExtension><gpxtpx:hr>159</gpxtpx:hr></gpxtpx:TrackPointExtension></extensions>
      </trkpt>
      <trkpt lat="59.239852234646" lon="17.916050489091">
        <ele>65.8</ele>
        <time>2016-04-25T19:38:27Z</time>
        <extensions><gpxtpx:TrackPointExtension><gpxtpx:hr>161</gpxtpx:hr></gpxtpx:TrackPointExtension></extensions>
      </trkpt>
      <trkpt lat="59.239901687856" lon="17.916050321453">
        <ele>66.6</ele>
        <time>2016-04-25T19:38:28Z</time>
        <extensions><gpxtpx:TrackPointExtension><gpxtpx:hr>162</gpxtpx:hr></gpxtpx:TrackPointExtension></extensions>
      </trkpt>
      <trkpt lat="59.239948877953" lon="17.916049231806">
        <ele>67.2</ele>
        <time>2016-04-25T19:38:29Z</time>
        <extensions><gpxtpx:TrackPointExtension><gpxtpx:hr>163</gpxtpx:hr></gpxtpx:TrackPointExtension></extensions>
      </trkpt>
      <trkpt lat="59.239999001715" lon="17.916034144386">
        <ele>67.8</ele>
        <time>2016-04-25T19:38:30Z</time>
        <extensions><gpxtpx:TrackPointExtension><gpxtpx:hr>165</gpxtpx:hr></gpxtpx:TrackPointExtension></extensions>
      </trkpt>
      <trkpt lat="59.240046443269" lon="17.916022828821">
        <ele>68.4</ele>
        <time>2016-04-25T19:38:31Z</time>
        <extensions><gpxtpx:TrackPointExtension><gpxtpx:hr>166</gpxtpx:hr></gpxtpx:TrackPointExtension></extensions>
      </trkpt>
      <trkpt lat="59.240100338886" lon="17.916005143012">
        <ele>69</ele>
        <time>2016-04-25T19:38:32Z</time>
        <extensions><gpxtpx:TrackPointExtension><gpxtpx:hr>167</gpxtpx:hr></gpxtpx:TrackPointExtension></extensions>
      </trkpt>
      <trkpt lat="59.240151719933" lon="17.915981757511">
        <ele>69.6</ele>
        <time>2016-04-25T19:38:33Z</time>
        <extensions><gpxtpx:TrackPointExtension><gpxtpx:hr>169</gpxtpx:hr></gpxtpx:TrackPointExtension></extensions>
      </trkpt>
      <trkpt lat="59.240205783188" lon="17.915957030906">
        <ele>70.2</ele>
        <time>2016-04-25T19:38:34Z</time>
        <extensions><gpxtpx:TrackPointExtension><gpxtpx:hr>170</gpxtpx:hr></gpxtpx:TrackPointExtension></extensions>
      </trkpt>
      <trkpt lat="59.240256828959" lon="17.915941440572">
        <ele>70.8</ele>
        <time>2016-04-25T19:38:35Z</time>
        <extensions><gpxtpx:TrackPointExtension><gpxtpx:hr>171</gpxtpx:hr></gpxtpx:TrackPointExtension></extensions>
      </trkpt>
      <trkpt lat="59.240311311309" lon="17.915925095867">
        <ele>71.6</ele>
        <time>2016-04-25T19:38:36Z</time>
        <extensions><gpxtpx:TrackPointExtension><gpxtpx:hr>172</gpxtpx:hr></gpxtpx:TrackPointExtension></extensions>
      </trkpt>
      <trkpt lat="59.240369314057" lon="17.915898692882">
        <ele>72.2</ele>
        <time>2016-04-25T19:38:37Z</time>
        <extensions><gpxtpx:TrackPointExtension><gpxtpx:hr>173</gpxtpx:hr></gpxtpx:TrackPointExtension></extensions>
      </trkpt>
      <trkpt lat="59.240423461131" lon="17.915870613517">
        <ele>72.6</ele>
        <time>2016-04-25T19:38:38Z</time>
        <extensions><gpxtpx:TrackPointExtension><gpxtpx:hr>173</gpxtpx:hr></gpxtpx:TrackPointExtension></extensions>
      </trkpt>
      <trkpt lat="59.240477692024" lon="17.915843372342">
        <ele>73.2</ele>
        <time>2016-04-25T19:38:39Z</time>
        <extensions><gpxtpx:TrackPointExtension><gpxtpx:hr>174</gpxtpx:hr></gpxtpx:TrackPointExtension></extensions>
      </trkpt>
      <trkpt lat="59.240529492166" lon="17.91581168876">
        <ele>73.6</ele>
        <time>2016-04-25T19:38:40Z</time>
        <extensions><gpxtpx:TrackPointExtension><gpxtpx:hr>175</gpxtpx:hr></gpxtpx:TrackPointExtension></extensions>
      </trkpt>
      <trkpt lat="59.240588081647" lon="17.915780508092">
        <ele>74</ele>
        <time>2016-04-25T19:38:41Z</time>
        <extensions><gpxtpx:TrackPointExtension><gpxtpx:hr>175</gpxtpx:hr></gpxtpx:TrackPointExtension></extensions>
      </trkpt>
      <trkpt lat="59.240646335852" lon="17.915744885017">
        <ele>74.6</ele>
        <time>2016-04-25T19:38:42Z</time>
        <extensions><gpxtpx:TrackPointExtension><gpxtpx:hr>176</gpxtpx:hr></gpxtpx:TrackPointExtension></extensions>
      </trkpt>
      <trkpt lat="59.240704925333" lon="17.915697359644">
        <ele>74.6</ele>
        <time>2016-04-25T19:38:43Z</time>
        <extensions><gpxtpx:TrackPointExtension><gpxtpx:hr>176</gpxtpx:hr></gpxtpx:TrackPointExtension></extensions>
      </trkpt>
      <trkpt lat="59.240945485863" lon="17.915503067202">
        <ele>74.6</ele>
        <time>2016-04-25T19:38:47Z</time>
        <extensions><gpxtpx:TrackPointExtension><gpxtpx:hr>176</gpxtpx:hr></gpxtpx:TrackPointExtension></extensions>
      </trkpt>
      <trkpt lat="59.240999465299" lon="17.915439364762">
        <ele>74.6</ele>
        <time>2016-04-25T19:38:48Z</time>
        <extensions><gpxtpx:TrackPointExtension><gpxtpx:hr>177</gpxtpx:hr></gpxtpx:TrackPointExtension></extensions>
      </trkpt>
      <trkpt lat="59.24123575106" lon="17.915176173102">
        <ele>75</ele>
        <time>2016-04-25T19:38:53Z</time>
        <extensions><gpxtpx:TrackPointExtension><gpxtpx:hr>176</gpxtpx:hr></gpxtpx:TrackPointExtension></extensions>
      </trkpt>
      <trkpt lat="59.241284952813" lon="17.915134263602">
        <ele>75.4</ele>
        <time>2016-04-25T19:38:54Z</time>
        <extensions><gpxtpx:TrackPointExtension><gpxtpx:hr>176</gpxtpx:hr></gpxtpx:TrackPointExtension></extensions>
      </trkpt>
      <trkpt lat="59.241333484014" lon="17.91510593278">
        <ele>75.8</ele>
        <time>2016-04-25T19:38:55Z</time>
        <extensions><gpxtpx:TrackPointExtension><gpxtpx:hr>176</gpxtpx:hr></gpxtpx:TrackPointExtension></extensions>
      </trkpt>
      <trkpt lat="59.24138578707" lon="17.915094784853">
        <ele>76.2</ele>
        <time>2016-04-25T19:38:56Z</time>
        <extensions><gpxtpx:TrackPointExtension><gpxtpx:hr>176</gpxtpx:hr></gpxtpx:TrackPointExtension></extensions>
      </trkpt>
      <trkpt lat="59.241438090126" lon="17.915095455405">
        <ele>76.8</ele>
        <time>2016-04-25T19:38:57Z</time>
        <extensions><gpxtpx:TrackPointExtension><gpxtpx:hr>176</gpxtpx:hr></gpxtpx:TrackPointExtension></extensions>
      </trkpt>
      <trkpt lat="59.241488716802" lon="17.915090090989">
        <ele>77.4</ele>
        <time>2016-04-25T19:38:58Z</time>
        <extensions><gpxtpx:TrackPointExtension><gpxtpx:hr>176</gpxtpx:hr></gpxtpx:TrackPointExtension></extensions>
      </trkpt>
      <trkpt lat="59.241533727605" lon="17.915119092363">
        <ele>77.8</ele>
        <time>2016-04-25T19:38:59Z</time>
        <extensions><gpxtpx:TrackPointExtension><gpxtpx:hr>176</gpxtpx:hr></gpxtpx:TrackPointExtension></extensions>
      </trkpt>
      <trkpt lat="59.24157857077" lon="17.915150859764">
        <ele>78.6</ele>
        <time>2016-04-25T19:39:00Z</time>
        <extensions><gpxtpx:TrackPointExtension><gpxtpx:hr>176</gpxtpx:hr></gpxtpx:TrackPointExtension></extensions>
      </trkpt>
      <trkpt lat="59.241623413935" lon="17.915177514206">
        <ele>79.2</ele>
        <time>2016-04-25T19:39:01Z</time>
        <extensions><gpxtpx:TrackPointExtension><gpxtpx:hr>177</gpxtpx:hr></gpxtpx:TrackPointExtension></extensions>
      </trkpt>
      <trkpt lat="59.241674375887" lon="17.915203917191">
        <ele>79.8</ele>
        <time>2016-04-25T19:39:02Z</time>
        <extensions><gpxtpx:TrackPointExtension><gpxtpx:hr>176</gpxtpx:hr></gpxtpx:TrackPointExtension></extensions>
      </trkpt>
      <trkpt lat="59.241716369206" lon="17.915238534438">
        <ele>80.4</ele>
        <time>2016-04-25T19:39:03Z</time>
        <extensions><gpxtpx:TrackPointExtension><gpxtpx:hr>177</gpxtpx:hr></gpxtpx:TrackPointExtension></extensions>
      </trkpt>
      <trkpt lat="59.241760960914" lon="17.915275414798">
        <ele>81</ele>
        <time>2016-04-25T19:39:04Z</time>
        <extensions><gpxtpx:TrackPointExtension><gpxtpx:hr>177</gpxtpx:hr></gpxtpx:TrackPointExtension></extensions>
      </trkpt>
      <trkpt lat="59.241856179298" lon="17.915367196603">
        <ele>81</ele>
        <time>2016-04-25T19:39:06Z</time>
        <extensions><gpxtpx:TrackPointExtension><gpxtpx:hr>176</gpxtpx:hr></gpxtpx:TrackPointExtension></extensions>
      </trkpt>
      <trkpt lat="59.242105876099" lon="17.915597531215">
        <ele>81</ele>
        <time>2016-04-25T19:39:11Z</time>
        <extensions><gpxtpx:TrackPointExtension><gpxtpx:hr>176</gpxtpx:hr></gpxtpx:TrackPointExtension></extensions>
      </trkpt>
      <trkpt lat="59.24219296404" lon="17.915672213944">
        <ele>81</ele>
        <time>2016-04-25T19:39:13Z</time>
        <extensions><gpxtpx:TrackPointExtension><gpxtpx:hr>176</gpxtpx:hr></gpxtpx:TrackPointExtension></extensions>
      </trkpt>
      <trkpt lat="59.242236885196" lon="17.915702221146">
        <ele>81.4</ele>
        <time>2016-04-25T19:39:14Z</time>
        <extensions><gpxtpx:TrackPointExtension><gpxtpx:hr>176</gpxtpx:hr></gpxtpx:TrackPointExtension></extensions>
      </trkpt>
      <trkpt lat="59.242275525755" lon="17.915727785941">
        <ele>81.8</ele>
        <time>2016-04-25T19:39:15Z</time>
        <extensions><gpxtpx:TrackPointExtension><gpxtpx:hr>176</gpxtpx:hr></gpxtpx:TrackPointExtension></extensions>
      </trkpt>
      <trkpt lat="59.242312657572" lon="17.915764666301">
        <ele>82.4</ele>
        <time>2016-04-25T19:39:16Z</time>
        <extensions><gpxtpx:TrackPointExtension><gpxtpx:hr>175</gpxtpx:hr></gpxtpx:TrackPointExtension></extensions>
      </trkpt>
      <trkpt lat="59.24234970557" lon="17.915795846969">
        <ele>82.8</ele>
        <time>2016-04-25T19:39:17Z</time>
        <extensions><gpxtpx:TrackPointExtension><gpxtpx:hr>176</gpxtpx:hr></gpxtpx:TrackPointExtension></extensions>
      </trkpt>
      <trkpt lat="59.242385831559" lon="17.915822417592">
        <ele>83.2</ele>
        <time>2016-04-25T19:39:18Z</time>
        <extensions><gpxtpx:TrackPointExtension><gpxtpx:hr>175</gpxtpx:hr></gpxtpx:TrackPointExtension></extensions>
      </trkpt>
      <trkpt lat="59.242424472118" lon="17.915853514441">
        <ele>83.6</ele>
        <time>2016-04-25T19:39:19Z</time>
        <extensions><gpxtpx:TrackPointExtension><gpxtpx:hr>175</gpxtpx:hr></gpxtpx:TrackPointExtension></extensions>
      </trkpt>
      <trkpt lat="59.242462609763" lon="17.915891065353">
        <ele>84</ele>
        <time>2016-04-25T19:39:20Z</time>
        <extensions><gpxtpx:TrackPointExtension><gpxtpx:hr>176</gpxtpx:hr></gpxtpx:TrackPointExtension></extensions>
      </trkpt>
      <trkpt lat="59.242499993037" lon="17.915920988736">
        <ele>84.4</ele>
        <time>2016-04-25T19:39:21Z</time>
        <extensions><gpxtpx:TrackPointExtension><gpxtpx:hr>176</gpxtpx:hr></gpxtpx:TrackPointExtension></extensions>
      </trkpt>
      <trkpt lat="59.242540393795" lon="17.915948900463">
        <ele>85</ele>
        <time>2016-04-25T19:39:22Z</time>
        <extensions><gpxtpx:TrackPointExtension><gpxtpx:hr>175</gpxtpx:hr></gpxtpx:TrackPointExtension></extensions>
      </trkpt>
      <trkpt lat="59.242581213648" lon="17.91598184133">
        <ele>85.4</ele>
        <time>2016-04-25T19:39:23Z</time>
        <extensions><gpxtpx:TrackPointExtension><gpxtpx:hr>176</gpxtpx:hr></gpxtpx:TrackPointExtension></extensions>
      </trkpt>
      <trkpt lat="59.242629912487" lon="17.916020984803">
        <ele>85.8</ele>
        <time>2016-04-25T19:39:24Z</time>
        <extensions><gpxtpx:TrackPointExtension><gpxtpx:hr>176</gpxtpx:hr></gpxtpx:TrackPointExtension></extensions>
      </trkpt>
      <trkpt lat="59.242677605498" lon="17.916046717236">
        <ele>86.4</ele>
        <time>2016-04-25T19:39:25Z</time>
        <extensions><gpxtpx:TrackPointExtension><gpxtpx:hr>176</gpxtpx:hr></gpxtpx:TrackPointExtension></extensions>
      </trkpt>
      <trkpt lat="59.242721778111" lon="17.916066330882">
        <ele>86.8</ele>
        <time>2016-04-25T19:39:26Z</time>
        <extensions><gpxtpx:TrackPointExtension><gpxtpx:hr>176</gpxtpx:hr></gpxtpx:TrackPointExtension></extensions>
      </trkpt>
      <trkpt lat="59.242765028715" lon="17.916090554573">
        <ele>87.4</ele>
        <time>2016-04-25T19:39:27Z</time>
        <extensions><gpxtpx:TrackPointExtension><gpxtpx:hr>176</gpxtpx:hr></gpxtpx:TrackPointExtension></extensions>
      </trkpt>
      <trkpt lat="59.242859744185" lon="17.91614193562">
        <ele>87.4</ele>
        <time>2016-04-25T19:39:29Z</time>
        <extensions><gpxtpx:TrackPointExtension><gpxtpx:hr>176</gpxtpx:hr></gpxtpx:TrackPointExtension></extensions>
      </trkpt>
      <trkpt lat="59.242907604834" lon="17.916162722732">
        <ele>87.8</ele>
        <time>2016-04-25T19:39:30Z</time>
        <extensions><gpxtpx:TrackPointExtension><gpxtpx:hr>177</gpxtpx:hr></gpxtpx:TrackPointExtension></extensions>
      </trkpt>
      <trkpt lat="59.24295655513" lon="17.91617797779">
        <ele>88.2</ele>
        <time>2016-04-25T19:39:31Z</time>
        <extensions><gpxtpx:TrackPointExtension><gpxtpx:hr>177</gpxtpx:hr></gpxtpx:TrackPointExtension></extensions>
      </trkpt>
      <trkpt lat="59.243013384412" lon="17.916195998875">
        <ele>88.6</ele>
        <time>2016-04-25T19:39:32Z</time>
        <extensions><gpxtpx:TrackPointExtension><gpxtpx:hr>177</gpxtpx:hr></gpxtpx:TrackPointExtension></extensions>
      </trkpt>
      <trkpt lat="59.243069794599" lon="17.916209661372">
        <ele>89</ele>
        <time>2016-04-25T19:39:33Z</time>
        <extensions><gpxtpx:TrackPointExtension><gpxtpx:hr>177</gpxtpx:hr></gpxtpx:TrackPointExtension></extensions>
      </trkpt>
      <trkpt lat="59.243127881166" lon="17.916219971109">
        <ele>89.4</ele>
        <time>2016-04-25T19:39:34Z</time>
        <extensions><gpxtpx:TrackPointExtension><gpxtpx:hr>177</gpxtpx:hr></gpxtpx:TrackPointExtension></extensions>
      </trkpt>
      <trkpt lat="59.243187308837" lon="17.916227011905">
        <ele>89.4</ele>
        <time>2016-04-25T19:39:35Z</time>
        <extensions><gpxtpx:TrackPointExtension><gpxtpx:hr>177</gpxtpx:hr></gpxtpx:TrackPointExtension></extensions>
      </trkpt>
      <trkpt lat="59.243498361146" lon="17.916209745191">
        <ele>89.8</ele>
        <time>2016-04-25T19:39:41Z</time>
        <extensions><gpxtpx:TrackPointExtension><gpxtpx:hr>176</gpxtpx:hr></gpxtpx:TrackPointExtension></extensions>
      </trkpt>
      <trkpt lat="59.243544042501" lon="17.916198513445">
        <ele>90.2</ele>
        <time>2016-04-25T19:39:42Z</time>
        <extensions><gpxtpx:TrackPointExtension><gpxtpx:hr>176</gpxtpx:hr></gpxtpx:TrackPointExtension></extensions>
      </trkpt>
      <trkpt lat="59.243587041648" lon="17.916188790441">
        <ele>90.6</ele>
        <time>2016-04-25T19:39:43Z</time>
        <extensions><gpxtpx:TrackPointExtension><gpxtpx:hr>176</gpxtpx:hr></gpxtpx:TrackPointExtension></extensions>
      </trkpt>
      <trkpt lat="59.243626939492" lon="17.916183928939">
        <ele>91</ele>
        <time>2016-04-25T19:39:44Z</time>
        <extensions><gpxtpx:TrackPointExtension><gpxtpx:hr>176</gpxtpx:hr></gpxtpx:TrackPointExtension></extensions>
      </trkpt>
      <trkpt lat="59.243660802368" lon="17.916182420197">
        <ele>91.4</ele>
        <time>2016-04-25T19:39:45Z</time>
        <extensions><gpxtpx:TrackPointExtension><gpxtpx:hr>176</gpxtpx:hr></gpxtpx:TrackPointExtension></extensions>
      </trkpt>
      <trkpt lat="59.24372936631" lon="17.916175211763">
        <ele>92</ele>
        <time>2016-04-25T19:39:47Z</time>
        <extensions><gpxtpx:TrackPointExtension><gpxtpx:hr>175</gpxtpx:hr></gpxtpx:TrackPointExtension></extensions>
      </trkpt>
      <trkpt lat="59.243765827575" lon="17.916174373573">
        <ele>92.4</ele>
        <time>2016-04-25T19:39:48Z</time>
        <extensions><gpxtpx:TrackPointExtension><gpxtpx:hr>175</gpxtpx:hr></gpxtpx:TrackPointExtension></extensions>
      </trkpt>
      <trkpt lat="59.243804551953" lon="17.91616959589">
        <ele>92.8</ele>
        <time>2016-04-25T19:39:49Z</time>
        <extensions><gpxtpx:TrackPointExtension><gpxtpx:hr>175</gpxtpx:hr></gpxtpx:TrackPointExtension></extensions>
      </trkpt>
      <trkpt lat="59.243839336838" lon="17.916157190678">
        <ele>93.2</ele>
        <time>2016-04-25T19:39:50Z</time>
        <extensions><gpxtpx:TrackPointExtension><gpxtpx:hr>175</gpxtpx:hr></gpxtpx:TrackPointExtension></extensions>
      </trkpt>
      <trkpt lat="59.243875630465" lon="17.916160962533">
        <ele>93.6</ele>
        <time>2016-04-25T19:39:51Z</time>
        <extensions><gpxtpx:TrackPointExtension><gpxtpx:hr>175</gpxtpx:hr></gpxtpx:TrackPointExtension></extensions>
      </trkpt>
      <trkpt lat="59.243910750626" lon="17.916173703021">
        <ele>94</ele>
        <time>2016-04-25T19:39:52Z</time>
        <extensions><gpxtpx:TrackPointExtension><gpxtpx:hr>175</gpxtpx:hr></gpxtpx:TrackPointExtension></extensions>
      </trkpt>
      <trkpt lat="59.243946541339" lon="17.916176385229">
        <ele>94.4</ele>
        <time>2016-04-25T19:39:53Z</time>
        <extensions><gpxtpx:TrackPointExtension><gpxtpx:hr>175</gpxtpx:hr></gpxtpx:TrackPointExtension></extensions>
      </trkpt>
      <trkpt lat="59.243980739491" lon="17.916179235075">
        <ele>94.8</ele>
        <time>2016-04-25T19:39:54Z</time>
        <extensions><gpxtpx:TrackPointExtension><gpxtpx:hr>175</gpxtpx:hr></gpxtpx:TrackPointExtension></extensions>
      </trkpt>
      <trkpt lat="59.24401351272" lon="17.916188790441">
        <ele>95.2</ele>
        <time>2016-04-25T19:39:55Z</time>
        <extensions><gpxtpx:TrackPointExtension><gpxtpx:hr>175</gpxtpx:hr></gpxtpx:TrackPointExtension></extensions>
      </trkpt>
      <trkpt lat="59.244042597913" lon="17.916202117662">
        <ele>95.6</ele>
        <time>2016-04-25T19:39:56Z</time>
        <extensions><gpxtpx:TrackPointExtension><gpxtpx:hr>175</gpxtpx:hr></gpxtpx:TrackPointExtension></extensions>
      </trkpt>
      <trkpt lat="59.244076628427" lon="17.91620815263">
        <ele>96.2</ele>
        <time>2016-04-25T19:39:57Z</time>
        <extensions><gpxtpx:TrackPointExtension><gpxtpx:hr>175</gpxtpx:hr></gpxtpx:TrackPointExtension></extensions>
      </trkpt>
      <trkpt lat="59.244108982561" lon="17.91621318177">
        <ele>96.6</ele>
        <time>2016-04-25T19:39:58Z</time>
        <extensions><gpxtpx:TrackPointExtension><gpxtpx:hr>176</gpxtpx:hr></gpxtpx:TrackPointExtension></extensions>
      </trkpt>
      <trkpt lat="59.244147371663" lon="17.916225335525">
        <ele>97</ele>
        <time>2016-04-25T19:39:59Z</time>
        <extensions><gpxtpx:TrackPointExtension><gpxtpx:hr>175</gpxtpx:hr></gpxtpx:TrackPointExtension></extensions>
      </trkpt>
      <trkpt lat="59.244186850412" lon="17.916240422945">
        <ele>97.6</ele>
        <time>2016-04-25T19:40:00Z</time>
        <extensions><gpxtpx:TrackPointExtension><gpxtpx:hr>176</gpxtpx:hr></gpxtpx:TrackPointExtension></extensions>
      </trkpt>
      <trkpt lat="59.244228508455" lon="17.916250313587">
        <ele>98</ele>
        <time>2016-04-25T19:40:01Z</time>
        <extensions><gpxtpx:TrackPointExtension><gpxtpx:hr>176</gpxtpx:hr></gpxtpx:TrackPointExtension></extensions>
      </trkpt>
      <trkpt lat="59.24427167524" lon="17.916258946944">
        <ele>98.4</ele>
        <time>2016-04-25T19:40:02Z</time>
        <extensions><gpxtpx:TrackPointExtension><gpxtpx:hr>176</gpxtpx:hr></gpxtpx:TrackPointExtension></extensions>
      </trkpt>
      <trkpt lat="59.24431274655" lon="17.91626766412">
        <ele>99</ele>
        <time>2016-04-25T19:40:03Z</time>
        <extensions><gpxtpx:TrackPointExtension><gpxtpx:hr>176</gpxtpx:hr></gpxtpx:TrackPointExtension></extensions>
      </trkpt>
      <trkpt lat="59.24435214148" lon="17.916277135667">
        <ele>99.4</ele>
        <time>2016-04-25T19:40:04Z</time>
        <extensions><gpxtpx:TrackPointExtension><gpxtpx:hr>176</gpxtpx:hr></gpxtpx:TrackPointExtension></extensions>
      </trkpt>
      <trkpt lat="59.244391955505" lon="17.916283170635">
        <ele>100</ele>
        <time>2016-04-25T19:40:05Z</time>
        <extensions><gpxtpx:TrackPointExtension><gpxtpx:hr>176</gpxtpx:hr></gpxtpx:TrackPointExtension></extensions>
      </trkpt>
      <trkpt lat="59.244438055955" lon="17.916289205603">
        <ele>100.4</ele>
        <time>2016-04-25T19:40:06Z</time>
        <extensions><gpxtpx:TrackPointExtension><gpxtpx:hr>177</gpxtpx:hr></gpxtpx:TrackPointExtension></extensions>
      </trkpt>
      <trkpt lat="59.244480971283" lon="17.916294905295">
        <ele>100.8</ele>
        <time>2016-04-25T19:40:07Z</time>
        <extensions><gpxtpx:TrackPointExtension><gpxtpx:hr>177</gpxtpx:hr></gpxtpx:TrackPointExtension></extensions>
      </trkpt>
      <trkpt lat="59.244522126412" lon="17.916302365186">
        <ele>101.4</ele>
        <time>2016-04-25T19:40:08Z</time>
        <extensions><gpxtpx:TrackPointExtension><gpxtpx:hr>177</gpxtpx:hr></gpxtpx:TrackPointExtension></extensions>
      </trkpt>
      <trkpt lat="59.244567137215" lon="17.91630622086">
        <ele>101.8</ele>
        <time>2016-04-25T19:40:09Z</time>
        <extensions><gpxtpx:TrackPointExtension><gpxtpx:hr>177</gpxtpx:hr></gpxtpx:TrackPointExtension></extensions>
      </trkpt>
      <trkpt lat="59.244610974552" lon="17.916317368787">
        <ele>102.2</ele>
        <time>2016-04-25T19:40:10Z</time>
        <extensions><gpxtpx:TrackPointExtension><gpxtpx:hr>177</gpxtpx:hr></gpxtpx:TrackPointExtension></extensions>
      </trkpt>
      <trkpt lat="59.244653638423" lon="17.916316111502">
        <ele>102.6</ele>
        <time>2016-04-25T19:40:11Z</time>
        <extensions><gpxtpx:TrackPointExtension><gpxtpx:hr>177</gpxtpx:hr></gpxtpx:TrackPointExtension></extensions>
      </trkpt>
      <trkpt lat="59.244734020844" lon="17.916288870327">
        <ele>103</ele>
        <time>2016-04-25T19:40:13Z</time>
        <extensions><gpxtpx:TrackPointExtension><gpxtpx:hr>177</gpxtpx:hr></gpxtpx:TrackPointExtension></extensions>
      </trkpt>
      <trkpt lat="59.244775008335" lon="17.91627436964">
        <ele>103.4</ele>
        <time>2016-04-25T19:40:14Z</time>
        <extensions><gpxtpx:TrackPointExtension><gpxtpx:hr>178</gpxtpx:hr></gpxtpx:TrackPointExtension></extensions>
      </trkpt>
      <trkpt lat="59.244817672206" lon="17.916255258908">
        <ele>104</ele>
        <time>2016-04-25T19:40:15Z</time>
        <extensions><gpxtpx:TrackPointExtension><gpxtpx:hr>178</gpxtpx:hr></gpxtpx:TrackPointExtension></extensions>
      </trkpt>
      <trkpt lat="59.244861844819" lon="17.916237740737">
        <ele>104.4</ele>
        <time>2016-04-25T19:40:16Z</time>
        <extensions><gpxtpx:TrackPointExtension><gpxtpx:hr>178</gpxtpx:hr></gpxtpx:TrackPointExtension></extensions>
      </trkpt>
      <trkpt lat="59.244900653016" lon="17.916207146802">
        <ele>104.8</ele>
        <time>2016-04-25T19:40:17Z</time>
        <extensions><gpxtpx:TrackPointExtension><gpxtpx:hr>178</gpxtpx:hr></gpxtpx:TrackPointExtension></extensions>
      </trkpt>
      <trkpt lat="59.244974162279" lon="17.916130871512">
        <ele>104.8</ele>
        <time>2016-04-25T19:40:19Z</time>
        <extensions><gpxtpx:TrackPointExtension><gpxtpx:hr>178</gpxtpx:hr></gpxtpx:TrackPointExtension></extensions>
      </trkpt>
      <trkpt lat="59.245018586349" lon="17.916079406646">
        <ele>104.8</ele>
        <time>2016-04-25T19:40:20Z</time>
        <extensions><gpxtpx:TrackPointExtension><gpxtpx:hr>178</gpxtpx:hr></gpxtpx:TrackPointExtension></extensions>
      </trkpt>
      <trkpt lat="59.245071392319" lon="17.916033222377">
        <ele>104.8</ele>
        <time>2016-04-25T19:40:21Z</time>
        <extensions><gpxtpx:TrackPointExtension><gpxtpx:hr>177</gpxtpx:hr></gpxtpx:TrackPointExtension></extensions>
      </trkpt>
      <trkpt lat="59.245234336455" lon="17.915886874403">
        <ele>104.8</ele>
        <time>2016-04-25T19:40:24Z</time>
        <extensions><gpxtpx:TrackPointExtension><gpxtpx:hr>177</gpxtpx:hr></gpxtpx:TrackPointExtension></extensions>
      </trkpt>
      <trkpt lat="59.245286890968" lon="17.915857118658">
        <ele>104.8</ele>
        <time>2016-04-25T19:40:25Z</time>
        <extensions><gpxtpx:TrackPointExtension><gpxtpx:hr>177</gpxtpx:hr></gpxtpx:TrackPointExtension></extensions>
      </trkpt>
      <trkpt lat="59.245390155976" lon="17.915807162534">
        <ele>105.8</ele>
        <time>2016-04-25T19:40:27Z</time>
        <extensions><gpxtpx:TrackPointExtension><gpxtpx:hr>177</gpxtpx:hr></gpxtpx:TrackPointExtension></extensions>
      </trkpt>
      <trkpt lat="59.245439106272" lon="17.915784447585">
        <ele>106.2</ele>
        <time>2016-04-25T19:40:28Z</time>
        <extensions><gpxtpx:TrackPointExtension><gpxtpx:hr>177</gpxtpx:hr></gpxtpx:TrackPointExtension></extensions>
      </trkpt>
      <trkpt lat="59.245488475663" lon="17.915765672129">
        <ele>106.8</ele>
        <time>2016-04-25T19:40:29Z</time>
        <extensions><gpxtpx:TrackPointExtension><gpxtpx:hr>177</gpxtpx:hr></gpxtpx:TrackPointExtension></extensions>
      </trkpt>
      <trkpt lat="59.245539102339" lon="17.915748489234">
        <ele>107.2</ele>
        <time>2016-04-25T19:40:30Z</time>
        <extensions><gpxtpx:TrackPointExtension><gpxtpx:hr>177</gpxtpx:hr></gpxtpx:TrackPointExtension></extensions>
      </trkpt>
      <trkpt lat="59.245636835293" lon="17.915707669381">
        <ele>107.2</ele>
        <time>2016-04-25T19:40:32Z</time>
        <extensions><gpxtpx:TrackPointExtension><gpxtpx:hr>176</gpxtpx:hr></gpxtpx:TrackPointExtension></extensions>
      </trkpt>
      <trkpt lat="59.245780501059" lon="17.915665256967">
        <ele>107.2</ele>
        <time>2016-04-25T19:40:35Z</time>
        <extensions><gpxtpx:TrackPointExtension><gpxtpx:hr>175</gpxtpx:hr></gpxtpx:TrackPointExtension></extensions>
      </trkpt>
      <trkpt lat="59.245824589853" lon="17.915639440715">
        <ele>107.2</ele>
        <time>2016-04-25T19:40:36Z</time>
        <extensions><gpxtpx:TrackPointExtension><gpxtpx:hr>174</gpxtpx:hr></gpxtpx:TrackPointExtension></extensions>
      </trkpt>
      <trkpt lat="59.245879826574" lon="17.915629466254">
        <ele>107.2</ele>
        <time>2016-04-25T19:40:37Z</time>
        <extensions><gpxtpx:TrackPointExtension><gpxtpx:hr>174</gpxtpx:hr></gpxtpx:TrackPointExtension></extensions>
      </trkpt>
      <trkpt lat="59.246000190658" lon="17.915587640573">
        <ele>107.2</ele>
        <time>2016-04-25T19:40:39Z</time>
        <extensions><gpxtpx:TrackPointExtension><gpxtpx:hr>172</gpxtpx:hr></gpxtpx:TrackPointExtension></extensions>
      </trkpt>
      <trkpt lat="59.246294060072" lon="17.915518406079">
        <ele>107.2</ele>
        <time>2016-04-25T19:40:44Z</time>
        <extensions><gpxtpx:TrackPointExtension><gpxtpx:hr>170</gpxtpx:hr></gpxtpx:TrackPointExtension></extensions>
      </trkpt>
      <trkpt lat="59.246357762512" lon="17.915526452703">
        <ele>107.2</ele>
        <time>2016-04-25T19:40:45Z</time>
        <extensions><gpxtpx:TrackPointExtension><gpxtpx:hr>169</gpxtpx:hr></gpxtpx:TrackPointExtension></extensions>
      </trkpt>
      <trkpt lat="59.246550378574" lon="17.91551832226">
        <ele>107.2</ele>
        <time>2016-04-25T19:40:48Z</time>
        <extensions><gpxtpx:TrackPointExtension><gpxtpx:hr>168</gpxtpx:hr></gpxtpx:TrackPointExtension></extensions>
      </trkpt>
      <trkpt lat="59.246751292717" lon="17.915609265875">
        <ele>107.2</ele>
        <time>2016-04-25T19:40:51Z</time>
        <extensions><gpxtpx:TrackPointExtension><gpxtpx:hr>164</gpxtpx:hr></gpxtpx:TrackPointExtension></extensions>
      </trkpt>
      <trkpt lat="59.246751292717" lon="17.915609265875">
        <ele>107.2</ele>
        <time>2016-04-25T19:40:52Z</time>
        <extensions><gpxtpx:TrackPointExtension><gpxtpx:hr>164</gpxtpx:hr></gpxtpx:TrackPointExtension></extensions>
      </trkpt>
      <trkpt lat="59.246881044529" lon="17.915725187552">
        <ele>107.2</ele>
        <time>2016-04-25T19:40:55Z</time>
        <extensions><gpxtpx:TrackPointExtension><gpxtpx:hr>162</gpxtpx:hr></gpxtpx:TrackPointExtension></extensions>
      </trkpt>
      <trkpt lat="59.246929408092" lon="17.91579576315">
        <ele>107.2</ele>
        <time>2016-04-25T19:40:57Z</time>
        <extensions><gpxtpx:TrackPointExtension><gpxtpx:hr>160</gpxtpx:hr></gpxtpx:TrackPointExtension></extensions>
      </trkpt>
      <trkpt lat="59.246985315365" lon="17.915713871987">
        <ele>107.2</ele>
        <time>2016-04-25T19:41:00Z</time>
        <extensions><gpxtpx:TrackPointExtension><gpxtpx:hr>157</gpxtpx:hr></gpxtpx:TrackPointExtension></extensions>
      </trkpt>
      <trkpt lat="59.246882720909" lon="17.915639105439">
        <ele>107.2</ele>
        <time>2016-04-25T19:41:04Z</time>
        <extensions><gpxtpx:TrackPointExtension><gpxtpx:hr>154</gpxtpx:hr></gpxtpx:TrackPointExtension></extensions>
      </trkpt>
      <trkpt lat="59.246745593025" lon="17.915550089661">
        <ele>107.2</ele>
        <time>2016-04-25T19:41:08Z</time>
        <extensions><gpxtpx:TrackPointExtension><gpxtpx:hr>152</gpxtpx:hr></gpxtpx:TrackPointExtension></extensions>
      </trkpt>
      <trkpt lat="59.246695469263" lon="17.915525446875">
        <ele>107.2</ele>
        <time>2016-04-25T19:41:09Z</time>
        <extensions><gpxtpx:TrackPointExtension><gpxtpx:hr>151</gpxtpx:hr></gpxtpx:TrackPointExtension></extensions>
      </trkpt>
      <trkpt lat="59.246500003355" lon="17.915460151874">
        <ele>107.2</ele>
        <time>2016-04-25T19:41:13Z</time>
        <extensions><gpxtpx:TrackPointExtension><gpxtpx:hr>151</gpxtpx:hr></gpxtpx:TrackPointExtension></extensions>
      </trkpt>
      <trkpt lat="59.246351727544" lon="17.915460822426">
        <ele>107.2</ele>
        <time>2016-04-25T19:41:16Z</time>
        <extensions><gpxtpx:TrackPointExtension><gpxtpx:hr>149</gpxtpx:hr></gpxtpx:TrackPointExtension></extensions>
      </trkpt>
      <trkpt lat="59.246309482768" lon="17.915475071656">
        <ele>107.2</ele>
        <time>2016-04-25T19:41:17Z</time>
        <extensions><gpxtpx:TrackPointExtension><gpxtpx:hr>149</gpxtpx:hr></gpxtpx:TrackPointExtension></extensions>
      </trkpt>
      <trkpt lat="59.246181491155" lon="17.915502983383">
        <ele>107.2</ele>
        <time>2016-04-25T19:41:20Z</time>
        <extensions><gpxtpx:TrackPointExtension><gpxtpx:hr>147</gpxtpx:hr></gpxtpx:TrackPointExtension></extensions>
      </trkpt>
      <trkpt lat="59.246003291961" lon="17.915531900938">
        <ele>107.2</ele>
        <time>2016-04-25T19:41:24Z</time>
        <extensions><gpxtpx:TrackPointExtension><gpxtpx:hr>145</gpxtpx:hr></gpxtpx:TrackPointExtension></extensions>
      </trkpt>
      <trkpt lat="59.245799863248" lon="17.915585628917">
        <ele>107.2</ele>
        <time>2016-04-25T19:41:28Z</time>
        <extensions><gpxtpx:TrackPointExtension><gpxtpx:hr>147</gpxtpx:hr></gpxtpx:TrackPointExtension></extensions>
      </trkpt>
      <trkpt lat="59.245555949958" lon="17.915678081274">
        <ele>107.2</ele>
        <time>2016-04-25T19:41:32Z</time>
        <extensions><gpxtpx:TrackPointExtension><gpxtpx:hr>149</gpxtpx:hr></gpxtpx:TrackPointExtension></extensions>
      </trkpt>
      <trkpt lat="59.245389569243" lon="17.915738933868">
        <ele>107.2</ele>
        <time>2016-04-25T19:41:35Z</time>
        <extensions><gpxtpx:TrackPointExtension><gpxtpx:hr>149</gpxtpx:hr></gpxtpx:TrackPointExtension></extensions>
      </trkpt>
      <trkpt lat="59.245262332001" lon="17.915816969357">
        <ele>107.2</ele>
        <time>2016-04-25T19:41:37Z</time>
        <extensions><gpxtpx:TrackPointExtension><gpxtpx:hr>149</gpxtpx:hr></gpxtpx:TrackPointExtension></extensions>
      </trkpt>
      <trkpt lat="59.245194606249" lon="17.915882767272">
        <ele>106.8</ele>
        <time>2016-04-25T19:41:38Z</time>
        <extensions><gpxtpx:TrackPointExtension><gpxtpx:hr>149</gpxtpx:hr></gpxtpx:TrackPointExtension></extensions>
      </trkpt>
      <trkpt lat="59.245120342615" lon="17.915946553531">
        <ele>106.4</ele>
        <time>2016-04-25T19:41:39Z</time>
        <extensions><gpxtpx:TrackPointExtension><gpxtpx:hr>148</gpxtpx:hr></gpxtpx:TrackPointExtension></extensions>
      </trkpt>
      <trkpt lat="59.245052952139" lon="17.915997180207">
        <ele>106</ele>
        <time>2016-04-25T19:41:40Z</time>
        <extensions><gpxtpx:TrackPointExtension><gpxtpx:hr>147</gpxtpx:hr></gpxtpx:TrackPointExtension></extensions>
      </trkpt>
      <trkpt lat="59.244989668794" lon="17.91604805834">
        <ele>105.6</ele>
        <time>2016-04-25T19:41:41Z</time>
        <extensions><gpxtpx:TrackPointExtension><gpxtpx:hr>146</gpxtpx:hr></gpxtpx:TrackPointExtension></extensions>
      </trkpt>
      <trkpt lat="59.244927558915" lon="17.916086363623">
        <ele>105.2</ele>
        <time>2016-04-25T19:41:42Z</time>
        <extensions><gpxtpx:TrackPointExtension><gpxtpx:hr>145</gpxtpx:hr></gpxtpx:TrackPointExtension></extensions>
      </trkpt>
      <trkpt lat="59.244787748823" lon="17.916142354715">
        <ele>105.2</ele>
        <time>2016-04-25T19:41:44Z</time>
        <extensions><gpxtpx:TrackPointExtension><gpxtpx:hr>142</gpxtpx:hr></gpxtpx:TrackPointExtension></extensions>
      </trkpt>
      <trkpt lat="59.244717676139" lon="17.916147886769">
        <ele>105.2</ele>
        <time>2016-04-25T19:41:45Z</time>
        <extensions><gpxtpx:TrackPointExtension><gpxtpx:hr>141</gpxtpx:hr></gpxtpx:TrackPointExtension></extensions>
      </trkpt>
      <trkpt lat="59.244635114424" lon="17.916149060235">
        <ele>104.6</ele>
        <time>2016-04-25T19:41:46Z</time>
        <extensions><gpxtpx:TrackPointExtension><gpxtpx:hr>140</gpxtpx:hr></gpxtpx:TrackPointExtension></extensions>
      </trkpt>
      <trkpt lat="59.24455246889" lon="17.916135062462">
        <ele>104.2</ele>
        <time>2016-04-25T19:41:47Z</time>
        <extensions><gpxtpx:TrackPointExtension><gpxtpx:hr>140</gpxtpx:hr></gpxtpx:TrackPointExtension></extensions>
      </trkpt>
      <trkpt lat="59.244467392605" lon="17.916115448816">
        <ele>103.8</ele>
        <time>2016-04-25T19:41:48Z</time>
        <extensions><gpxtpx:TrackPointExtension><gpxtpx:hr>139</gpxtpx:hr></gpxtpx:TrackPointExtension></extensions>
      </trkpt>
      <trkpt lat="59.244370414022" lon="17.916088040003">
        <ele>103</ele>
        <time>2016-04-25T19:41:49Z</time>
        <extensions><gpxtpx:TrackPointExtension><gpxtpx:hr>138</gpxtpx:hr></gpxtpx:TrackPointExtension></extensions>
      </trkpt>
      <trkpt lat="59.244269915041" lon="17.916050740548">
        <ele>102.2</ele>
        <time>2016-04-25T19:41:50Z</time>
        <extensions><gpxtpx:TrackPointExtension><gpxtpx:hr>138</gpxtpx:hr></gpxtpx:TrackPointExtension></extensions>
      </trkpt>
      <trkpt lat="59.244162626721" lon="17.916016458577">
        <ele>101</ele>
        <time>2016-04-25T19:41:51Z</time>
        <extensions><gpxtpx:TrackPointExtension><gpxtpx:hr>138</gpxtpx:hr></gpxtpx:TrackPointExtension></extensions>
      </trkpt>
      <trkpt lat="59.244061373369" lon="17.915961221856">
        <ele>100</ele>
        <time>2016-04-25T19:41:52Z</time>
        <extensions><gpxtpx:TrackPointExtension><gpxtpx:hr>137</gpxtpx:hr></gpxtpx:TrackPointExtension></extensions>
      </trkpt>
      <trkpt lat="59.243948804452" lon="17.915946302074">
        <ele>98.6</ele>
        <time>2016-04-25T19:41:53Z</time>
        <extensions><gpxtpx:TrackPointExtension><gpxtpx:hr>136</gpxtpx:hr></gpxtpx:TrackPointExtension></extensions>
      </trkpt>
      <trkpt lat="59.243823914142" lon="17.915976225457">
        <ele>97.2</ele>
        <time>2016-04-25T19:41:54Z</time>
        <extensions><gpxtpx:TrackPointExtension><gpxtpx:hr>136</gpxtpx:hr></gpxtpx:TrackPointExtension></extensions>
      </trkpt>
      <trkpt lat="59.243704136791" lon="17.916013608731">
        <ele>95.8</ele>
        <time>2016-04-25T19:41:55Z</time>
        <extensions><gpxtpx:TrackPointExtension><gpxtpx:hr>135</gpxtpx:hr></gpxtpx:TrackPointExtension></extensions>
      </trkpt>
      <trkpt lat="59.243583353612" lon="17.916045711408">
        <ele>94.4</ele>
        <time>2016-04-25T19:41:56Z</time>
        <extensions><gpxtpx:TrackPointExtension><gpxtpx:hr>135</gpxtpx:hr></gpxtpx:TrackPointExtension></extensions>
      </trkpt>
      <trkpt lat="59.24345779275" lon="17.916071108565">
        <ele>93</ele>
        <time>2016-04-25T19:41:57Z</time>
        <extensions><gpxtpx:TrackPointExtension><gpxtpx:hr>134</gpxtpx:hr></gpxtpx:TrackPointExtension></extensions>
      </trkpt>
      <trkpt lat="59.243339943236" lon="17.916065492692">
        <ele>91.6</ele>
        <time>2016-04-25T19:41:58Z</time>
        <extensions><gpxtpx:TrackPointExtension><gpxtpx:hr>134</gpxtpx:hr></gpxtpx:TrackPointExtension></extensions>
      </trkpt>
      <trkpt lat="59.243223770102" lon="17.916049902358">
        <ele>90.4</ele>
        <time>2016-04-25T19:41:59Z</time>
        <extensions><gpxtpx:TrackPointExtension><gpxtpx:hr>134</gpxtpx:hr></gpxtpx:TrackPointExtension></extensions>
      </trkpt>
      <trkpt lat="59.243110111538" lon="17.916024169925">
        <ele>89</ele>
        <time>2016-04-25T19:42:00Z</time>
        <extensions><gpxtpx:TrackPointExtension><gpxtpx:hr>133</gpxtpx:hr></gpxtpx:TrackPointExtension></extensions>
      </trkpt>
      <trkpt lat="59.242996955888" lon="17.915987624841">
        <ele>87.8</ele>
        <time>2016-04-25T19:42:01Z</time>
        <extensions><gpxtpx:TrackPointExtension><gpxtpx:hr>132</gpxtpx:hr></gpxtpx:TrackPointExtension></extensions>
      </trkpt>
      <trkpt lat="59.242884554609" lon="17.915935154147">
        <ele>87.4</ele>
        <time>2016-04-25T19:42:02Z</time>
        <extensions><gpxtpx:TrackPointExtension><gpxtpx:hr>132</gpxtpx:hr></gpxtpx:TrackPointExtension></extensions>
      </trkpt>
      <trkpt lat="59.242778691212" lon="17.915867176938">
        <ele>86.8</ele>
        <time>2016-04-25T19:42:03Z</time>
        <extensions><gpxtpx:TrackPointExtension><gpxtpx:hr>132</gpxtpx:hr></gpxtpx:TrackPointExtension></extensions>
      </trkpt>
      <trkpt lat="59.24267576148" lon="17.915806240525">
        <ele>86.4</ele>
        <time>2016-04-25T19:42:04Z</time>
        <extensions><gpxtpx:TrackPointExtension><gpxtpx:hr>132</gpxtpx:hr></gpxtpx:TrackPointExtension></extensions>
      </trkpt>
      <trkpt lat="59.242593032127" lon="17.915756871134">
        <ele>86</ele>
        <time>2016-04-25T19:42:05Z</time>
        <extensions><gpxtpx:TrackPointExtension><gpxtpx:hr>132</gpxtpx:hr></gpxtpx:TrackPointExtension></extensions>
      </trkpt>
      <trkpt lat="59.242521283063" lon="17.915700544766">
        <ele>85.6</ele>
        <time>2016-04-25T19:42:06Z</time>
        <extensions><gpxtpx:TrackPointExtension><gpxtpx:hr>131</gpxtpx:hr></gpxtpx:TrackPointExtension></extensions>
      </trkpt>
      <trkpt lat="59.24245950846" lon="17.915647068244">
        <ele>85.6</ele>
        <time>2016-04-25T19:42:07Z</time>
        <extensions><gpxtpx:TrackPointExtension><gpxtpx:hr>130</gpxtpx:hr></gpxtpx:TrackPointExtension></extensions>
      </trkpt>
      <trkpt lat="59.242387759396" lon="17.91558789203">
        <ele>85.6</ele>
        <time>2016-04-25T19:42:09Z</time>
        <extensions><gpxtpx:TrackPointExtension><gpxtpx:hr>125</gpxtpx:hr></gpxtpx:TrackPointExtension></extensions>
      </trkpt>
      <trkpt lat="59.242371330872" lon="17.915572050239">
        <ele>85.6</ele>
        <time>2016-04-25T19:42:10Z</time>
        <extensions><gpxtpx:TrackPointExtension><gpxtpx:hr>123</gpxtpx:hr></gpxtpx:TrackPointExtension></extensions>
      </trkpt>
      <trkpt lat="59.242261108887" lon="17.91548730923">
        <ele>85.2</ele>
        <time>2016-04-25T19:42:13Z</time>
        <extensions><gpxtpx:TrackPointExtension><gpxtpx:hr>121</gpxtpx:hr></gpxtpx:TrackPointExtension></extensions>
      </trkpt>
      <trkpt lat="59.242208722012" lon="17.915442549884">
        <ele>84.8</ele>
        <time>2016-04-25T19:42:14Z</time>
        <extensions><gpxtpx:TrackPointExtension><gpxtpx:hr>122</gpxtpx:hr></gpxtpx:TrackPointExtension></extensions>
      </trkpt>
      <trkpt lat="59.242154323481" lon="17.915388905724">
        <ele>84.2</ele>
        <time>2016-04-25T19:42:15Z</time>
        <extensions><gpxtpx:TrackPointExtension><gpxtpx:hr>123</gpxtpx:hr></gpxtpx:TrackPointExtension></extensions>
      </trkpt>
      <trkpt lat="59.242092465059" lon="17.915332663175">
        <ele>83.8</ele>
        <time>2016-04-25T19:42:16Z</time>
        <extensions><gpxtpx:TrackPointExtension><gpxtpx:hr>123</gpxtpx:hr></gpxtpx:TrackPointExtension></extensions>
      </trkpt>
      <trkpt lat="59.242032953569" lon="17.915287987648">
        <ele>83.4</ele>
        <time>2016-04-25T19:42:17Z</time>
        <extensions><gpxtpx:TrackPointExtension><gpxtpx:hr>124</gpxtpx:hr></gpxtpx:TrackPointExtension></extensions>
      </trkpt>
      <trkpt lat="59.241923569774" lon="17.915208108141">
        <ele>83</ele>
        <time>2016-04-25T19:42:19Z</time>
        <extensions><gpxtpx:TrackPointExtension><gpxtpx:hr>124</gpxtpx:hr></gpxtpx:TrackPointExtension></extensions>
      </trkpt>
      <trkpt lat="59.2418694227" lon="17.915163935528">
        <ele>82.6</ele>
        <time>2016-04-25T19:42:20Z</time>
        <extensions><gpxtpx:TrackPointExtension><gpxtpx:hr>124</gpxtpx:hr></gpxtpx:TrackPointExtension></extensions>
      </trkpt>
      <trkpt lat="59.241815359445" lon="17.915129821195">
        <ele>82.2</ele>
        <time>2016-04-25T19:42:21Z</time>
        <extensions><gpxtpx:TrackPointExtension><gpxtpx:hr>124</gpxtpx:hr></gpxtpx:TrackPointExtension></extensions>
      </trkpt>
      <trkpt lat="59.241765403321" lon="17.915086151496">
        <ele>81.6</ele>
        <time>2016-04-25T19:42:22Z</time>
        <extensions><gpxtpx:TrackPointExtension><gpxtpx:hr>124</gpxtpx:hr></gpxtpx:TrackPointExtension></extensions>
      </trkpt>
      <trkpt lat="59.241713770817" lon="17.915049438774">
        <ele>81.2</ele>
        <time>2016-04-25T19:42:23Z</time>
        <extensions><gpxtpx:TrackPointExtension><gpxtpx:hr>124</gpxtpx:hr></gpxtpx:TrackPointExtension></extensions>
      </trkpt>
      <trkpt lat="59.241538672926" lon="17.914965535955">
        <ele>81.2</ele>
        <time>2016-04-25T19:42:26Z</time>
        <extensions><gpxtpx:TrackPointExtension><gpxtpx:hr>123</gpxtpx:hr></gpxtpx:TrackPointExtension></extensions>
      </trkpt>
      <trkpt lat="59.241397102635" lon="17.91499277713">
        <ele>80.8</ele>
        <time>2016-04-25T19:42:28Z</time>
        <extensions><gpxtpx:TrackPointExtension><gpxtpx:hr>122</gpxtpx:hr></gpxtpx:TrackPointExtension></extensions>
      </trkpt>
      <trkpt lat="59.241322419906" lon="17.915071231714">
        <ele>80.4</ele>
        <time>2016-04-25T19:42:29Z</time>
        <extensions><gpxtpx:TrackPointExtension><gpxtpx:hr>121</gpxtpx:hr></gpxtpx:TrackPointExtension></extensions>
      </trkpt>
      <trkpt lat="59.241254694154" lon="17.915161840053">
        <ele>80</ele>
        <time>2016-04-25T19:42:30Z</time>
        <extensions><gpxtpx:TrackPointExtension><gpxtpx:hr>121</gpxtpx:hr></gpxtpx:TrackPointExtension></extensions>
      </trkpt>
      <trkpt lat="59.241183448004" lon="17.915259489188">
        <ele>79.4</ele>
        <time>2016-04-25T19:42:31Z</time>
        <extensions><gpxtpx:TrackPointExtension><gpxtpx:hr>121</gpxtpx:hr></gpxtpx:TrackPointExtension></extensions>
      </trkpt>
      <trkpt lat="59.241104322868" lon="17.915350600441">
        <ele>78</ele>
        <time>2016-04-25T19:42:32Z</time>
        <extensions><gpxtpx:TrackPointExtension><gpxtpx:hr>121</gpxtpx:hr></gpxtpx:TrackPointExtension></extensions>
      </trkpt>
      <trkpt lat="59.241024610999" lon="17.915418326193">
        <ele>77.4</ele>
        <time>2016-04-25T19:42:33Z</time>
        <extensions><gpxtpx:TrackPointExtension><gpxtpx:hr>121</gpxtpx:hr></gpxtpx:TrackPointExtension></extensions>
      </trkpt>
      <trkpt lat="59.240937523058" lon="17.91548395647">
        <ele>76.8</ele>
        <time>2016-04-25T19:42:34Z</time>
        <extensions><gpxtpx:TrackPointExtension><gpxtpx:hr>122</gpxtpx:hr></gpxtpx:TrackPointExtension></extensions>
      </trkpt>
      <trkpt lat="59.240849596927" lon="17.915547323634">
        <ele>76.2</ele>
        <time>2016-04-25T19:42:35Z</time>
        <extensions><gpxtpx:TrackPointExtension><gpxtpx:hr>122</gpxtpx:hr></gpxtpx:TrackPointExtension></extensions>
      </trkpt>
      <trkpt lat="59.240763179538" lon="17.915597363577">
        <ele>75.6</ele>
        <time>2016-04-25T19:42:36Z</time>
        <extensions><gpxtpx:TrackPointExtension><gpxtpx:hr>121</gpxtpx:hr></gpxtpx:TrackPointExtension></extensions>
      </trkpt>
      <trkpt lat="59.240679444357" lon="17.915639775991">
        <ele>75</ele>
        <time>2016-04-25T19:42:37Z</time>
        <extensions><gpxtpx:TrackPointExtension><gpxtpx:hr>121</gpxtpx:hr></gpxtpx:TrackPointExtension></extensions>
      </trkpt>
      <trkpt lat="59.240599061936" lon="17.915688391011">
        <ele>74.6</ele>
        <time>2016-04-25T19:42:38Z</time>
        <extensions><gpxtpx:TrackPointExtension><gpxtpx:hr>120</gpxtpx:hr></gpxtpx:TrackPointExtension></extensions>
      </trkpt>
      <trkpt lat="59.240521445542" lon="17.91573373709">
        <ele>74.6</ele>
        <time>2016-04-25T19:42:39Z</time>
        <extensions><gpxtpx:TrackPointExtension><gpxtpx:hr>119</gpxtpx:hr></gpxtpx:TrackPointExtension></extensions>
      </trkpt>
      <trkpt lat="59.240278705718" lon="17.915877486675">
        <ele>74</ele>
        <time>2016-04-25T19:42:42Z</time>
        <extensions><gpxtpx:TrackPointExtension><gpxtpx:hr>118</gpxtpx:hr></gpxtpx:TrackPointExtension></extensions>
      </trkpt>
      <trkpt lat="59.240194048528" lon="17.915909337895">
        <ele>73.6</ele>
        <time>2016-04-25T19:42:43Z</time>
        <extensions><gpxtpx:TrackPointExtension><gpxtpx:hr>118</gpxtpx:hr></gpxtpx:TrackPointExtension></extensions>
      </trkpt>
      <trkpt lat="59.240108720786" lon="17.915941943486">
        <ele>73.2</ele>
        <time>2016-04-25T19:42:44Z</time>
        <extensions><gpxtpx:TrackPointExtension><gpxtpx:hr>118</gpxtpx:hr></gpxtpx:TrackPointExtension></extensions>
      </trkpt>
      <trkpt lat="59.240021549026" lon="17.915954851612">
        <ele>72.4</ele>
        <time>2016-04-25T19:42:45Z</time>
        <extensions><gpxtpx:TrackPointExtension><gpxtpx:hr>119</gpxtpx:hr></gpxtpx:TrackPointExtension></extensions>
      </trkpt>
      <trkpt lat="59.239936305103" lon="17.915955522164">
        <ele>71.8</ele>
        <time>2016-04-25T19:42:46Z</time>
        <extensions><gpxtpx:TrackPointExtension><gpxtpx:hr>118</gpxtpx:hr></gpxtpx:TrackPointExtension></extensions>
      </trkpt>
      <trkpt lat="59.239843014556" lon="17.915971363955">
        <ele>71.2</ele>
        <time>2016-04-25T19:42:47Z</time>
        <extensions><gpxtpx:TrackPointExtension><gpxtpx:hr>118</gpxtpx:hr></gpxtpx:TrackPointExtension></extensions>
      </trkpt>
      <trkpt lat="59.239750562199" lon="17.915991312877">
        <ele>70.4</ele>
        <time>2016-04-25T19:42:48Z</time>
        <extensions><gpxtpx:TrackPointExtension><gpxtpx:hr>118</gpxtpx:hr></gpxtpx:TrackPointExtension></extensions>
      </trkpt>
      <trkpt lat="59.239654254168" lon="17.915988798307">
        <ele>69.4</ele>
        <time>2016-04-25T19:42:49Z</time>
        <extensions><gpxtpx:TrackPointExtension><gpxtpx:hr>118</gpxtpx:hr></gpxtpx:TrackPointExtension></extensions>
      </trkpt>
      <trkpt lat="59.23957026753" lon="17.915976728371">
        <ele>68.6</ele>
        <time>2016-04-25T19:42:50Z</time>
        <extensions><gpxtpx:TrackPointExtension><gpxtpx:hr>118</gpxtpx:hr></gpxtpx:TrackPointExtension></extensions>
      </trkpt>
      <trkpt lat="59.239481503209" lon="17.915986116099">
        <ele>67.6</ele>
        <time>2016-04-25T19:42:51Z</time>
        <extensions><gpxtpx:TrackPointExtension><gpxtpx:hr>119</gpxtpx:hr></gpxtpx:TrackPointExtension></extensions>
      </trkpt>
      <trkpt lat="59.239395421096" lon="17.915995922922">
        <ele>66.6</ele>
        <time>2016-04-25T19:42:52Z</time>
        <extensions><gpxtpx:TrackPointExtension><gpxtpx:hr>120</gpxtpx:hr></gpxtpx:TrackPointExtension></extensions>
      </trkpt>
      <trkpt lat="59.239313697571" lon="17.916015536568">
        <ele>65.6</ele>
        <time>2016-04-25T19:42:53Z</time>
        <extensions><gpxtpx:TrackPointExtension><gpxtpx:hr>120</gpxtpx:hr></gpxtpx:TrackPointExtension></extensions>
      </trkpt>
      <trkpt lat="59.239231974046" lon="17.916040933725">
        <ele>64.4</ele>
        <time>2016-04-25T19:42:54Z</time>
        <extensions><gpxtpx:TrackPointExtension><gpxtpx:hr>121</gpxtpx:hr></gpxtpx:TrackPointExtension></extensions>
      </trkpt>
      <trkpt lat="59.239155447299" lon="17.916072868764">
        <ele>63.4</ele>
        <time>2016-04-25T19:42:55Z</time>
        <extensions><gpxtpx:TrackPointExtension><gpxtpx:hr>121</gpxtpx:hr></gpxtpx:TrackPointExtension></extensions>
      </trkpt>
      <trkpt lat="59.239090487574" lon="17.916092733867">
        <ele>62.8</ele>
        <time>2016-04-25T19:42:56Z</time>
        <extensions><gpxtpx:TrackPointExtension><gpxtpx:hr>121</gpxtpx:hr></gpxtpx:TrackPointExtension></extensions>
      </trkpt>
      <trkpt lat="59.239028042419" lon="17.916115029721">
        <ele>61.4</ele>
        <time>2016-04-25T19:42:57Z</time>
        <extensions><gpxtpx:TrackPointExtension><gpxtpx:hr>122</gpxtpx:hr></gpxtpx:TrackPointExtension></extensions>
      </trkpt>
      <trkpt lat="59.238976409915" lon="17.916139504869">
        <ele>60.6</ele>
        <time>2016-04-25T19:42:58Z</time>
        <extensions><gpxtpx:TrackPointExtension><gpxtpx:hr>122</gpxtpx:hr></gpxtpx:TrackPointExtension></extensions>
      </trkpt>
      <trkpt lat="59.238933662225" lon="17.916131709702">
        <ele>60</ele>
        <time>2016-04-25T19:42:59Z</time>
        <extensions><gpxtpx:TrackPointExtension><gpxtpx:hr>121</gpxtpx:hr></gpxtpx:TrackPointExtension></extensions>
      </trkpt>
      <trkpt lat="59.238891417449" lon="17.916104384708">
        <ele>60</ele>
        <time>2016-04-25T19:43:00Z</time>
        <extensions><gpxtpx:TrackPointExtension><gpxtpx:hr>121</gpxtpx:hr></gpxtpx:TrackPointExtension></extensions>
      </trkpt>
      <trkpt lat="59.238809945381" lon="17.915946972626">
        <ele>60</ele>
        <time>2016-04-25T19:43:03Z</time>
        <extensions><gpxtpx:TrackPointExtension><gpxtpx:hr>119</gpxtpx:hr></gpxtpx:TrackPointExtension></extensions>
      </trkpt>
      <trkpt lat="59.238715649006" lon="17.915855777554">
        <ele>60</ele>
        <time>2016-04-25T19:43:06Z</time>
        <extensions><gpxtpx:TrackPointExtension><gpxtpx:hr>120</gpxtpx:hr></gpxtpx:TrackPointExtension></extensions>
      </trkpt>
      <trkpt lat="59.23872285744" lon="17.915753266917">
        <ele>60</ele>
        <time>2016-04-25T19:43:09Z</time>
        <extensions><gpxtpx:TrackPointExtension><gpxtpx:hr>120</gpxtpx:hr></gpxtpx:TrackPointExtension></extensions>
      </trkpt>
      <trkpt lat="59.238764683121" lon="17.915815712072">
        <ele>60</ele>
        <time>2016-04-25T19:43:11Z</time>
        <extensions><gpxtpx:TrackPointExtension><gpxtpx:hr>121</gpxtpx:hr></gpxtpx:TrackPointExtension></extensions>
      </trkpt>
      <trkpt lat="59.238821596222" lon="17.916098768835">
        <ele>60</ele>
        <time>2016-04-25T19:43:14Z</time>
        <extensions><gpxtpx:TrackPointExtension><gpxtpx:hr>123</gpxtpx:hr></gpxtpx:TrackPointExtension></extensions>
      </trkpt>
      <trkpt lat="59.238978337752" lon="17.916204548413">
        <ele>60</ele>
        <time>2016-04-25T19:43:17Z</time>
        <extensions><gpxtpx:TrackPointExtension><gpxtpx:hr>128</gpxtpx:hr></gpxtpx:TrackPointExtension></extensions>
      </trkpt>
      <trkpt lat="59.23909585199" lon="17.916158447963">
        <ele>60</ele>
        <time>2016-04-25T19:43:19Z</time>
        <extensions><gpxtpx:TrackPointExtension><gpxtpx:hr>131</gpxtpx:hr></gpxtpx:TrackPointExtension></extensions>
      </trkpt>
      <trkpt lat="59.239204649052" lon="17.916117963386">
        <ele>60</ele>
        <time>2016-04-25T19:43:21Z</time>
        <extensions><gpxtpx:TrackPointExtension><gpxtpx:hr>134</gpxtpx:hr></gpxtpx:TrackPointExtension></extensions>
      </trkpt>
      <trkpt lat="59.239369688663" lon="17.916095248437">
        <ele>60</ele>
        <time>2016-04-25T19:43:24Z</time>
        <extensions><gpxtpx:TrackPointExtension><gpxtpx:hr>138</gpxtpx:hr></gpxtpx:TrackPointExtension></extensions>
      </trkpt>
      <trkpt lat="59.239424841565" lon="17.916094829342">
        <ele>60.4</ele>
        <time>2016-04-25T19:43:25Z</time>
        <extensions><gpxtpx:TrackPointExtension><gpxtpx:hr>139</gpxtpx:hr></gpxtpx:TrackPointExtension></extensions>
      </trkpt>
      <trkpt lat="59.239475971155" lon="17.916090973668">
        <ele>61</ele>
        <time>2016-04-25T19:43:26Z</time>
        <extensions><gpxtpx:TrackPointExtension><gpxtpx:hr>141</gpxtpx:hr></gpxtpx:TrackPointExtension></extensions>
      </trkpt>
      <trkpt lat="59.239522323062" lon="17.916085357795">
        <ele>61.4</ele>
        <time>2016-04-25T19:43:27Z</time>
        <extensions><gpxtpx:TrackPointExtension><gpxtpx:hr>143</gpxtpx:hr></gpxtpx:TrackPointExtension></extensions>
      </trkpt>
      <trkpt lat="59.239564148743" lon="17.916081502121">
        <ele>62</ele>
        <time>2016-04-25T19:43:28Z</time>
        <extensions><gpxtpx:TrackPointExtension><gpxtpx:hr>144</gpxtpx:hr></gpxtpx:TrackPointExtension></extensions>
      </trkpt>
      <trkpt lat="59.239611757935" lon="17.916078819913">
        <ele>62.4</ele>
        <time>2016-04-25T19:43:29Z</time>
        <extensions><gpxtpx:TrackPointExtension><gpxtpx:hr>146</gpxtpx:hr></gpxtpx:TrackPointExtension></extensions>
      </trkpt>
      <trkpt lat="59.239660708231" lon="17.916076389162">
        <ele>63</ele>
        <time>2016-04-25T19:43:30Z</time>
        <extensions><gpxtpx:TrackPointExtension><gpxtpx:hr>147</gpxtpx:hr></gpxtpx:TrackPointExtension></extensions>
      </trkpt>
      <trkpt lat="59.239711334907" lon="17.916076137705">
        <ele>63.6</ele>
        <time>2016-04-25T19:43:31Z</time>
        <extensions><gpxtpx:TrackPointExtension><gpxtpx:hr>149</gpxtpx:hr></gpxtpx:TrackPointExtension></extensions>
      </trkpt>
      <trkpt lat="59.239761039574" lon="17.916080831569">
        <ele>64</ele>
        <time>2016-04-25T19:43:32Z</time>
        <extensions><gpxtpx:TrackPointExtension><gpxtpx:hr>150</gpxtpx:hr></gpxtpx:TrackPointExtension></extensions>
      </trkpt>
      <trkpt lat="59.239810157508" lon="17.91608074775">
        <ele>64.6</ele>
        <time>2016-04-25T19:43:33Z</time>
        <extensions><gpxtpx:TrackPointExtension><gpxtpx:hr>152</gpxtpx:hr></gpxtpx:TrackPointExtension></extensions>
      </trkpt>
      <trkpt lat="59.239861287098" lon="17.916077562628">
        <ele>65.2</ele>
        <time>2016-04-25T19:43:34Z</time>
        <extensions><gpxtpx:TrackPointExtension><gpxtpx:hr>153</gpxtpx:hr></gpxtpx:TrackPointExtension></extensions>
      </trkpt>
      <trkpt lat="59.239909818299" lon="17.916069432185">
        <ele>65.8</ele>
        <time>2016-04-25T19:43:35Z</time>
        <extensions><gpxtpx:TrackPointExtension><gpxtpx:hr>155</gpxtpx:hr></gpxtpx:TrackPointExtension></extensions>
      </trkpt>
      <trkpt lat="59.239957176034" lon="17.916067504348">
        <ele>66.4</ele>
        <time>2016-04-25T19:43:36Z</time>
        <extensions><gpxtpx:TrackPointExtension><gpxtpx:hr>156</gpxtpx:hr></gpxtpx:TrackPointExtension></extensions>
      </trkpt>
      <trkpt lat="59.240005371959" lon="17.916059793">
        <ele>67</ele>
        <time>2016-04-25T19:43:37Z</time>
        <extensions><gpxtpx:TrackPointExtension><gpxtpx:hr>157</gpxtpx:hr></gpxtpx:TrackPointExtension></extensions>
      </trkpt>
      <trkpt lat="59.240053232608" lon="17.916049986177">
        <ele>67.6</ele>
        <time>2016-04-25T19:43:38Z</time>
        <extensions><gpxtpx:TrackPointExtension><gpxtpx:hr>159</gpxtpx:hr></gpxtpx:TrackPointExtension></extensions>
      </trkpt>
      <trkpt lat="59.240102015266" lon="17.916032551825">
        <ele>68.2</ele>
        <time>2016-04-25T19:43:39Z</time>
        <extensions><gpxtpx:TrackPointExtension><gpxtpx:hr>160</gpxtpx:hr></gpxtpx:TrackPointExtension></extensions>
      </trkpt>
      <trkpt lat="59.240148031897" lon="17.916023834649">
        <ele>69</ele>
        <time>2016-04-25T19:43:40Z</time>
        <extensions><gpxtpx:TrackPointExtension><gpxtpx:hr>161</gpxtpx:hr></gpxtpx:TrackPointExtension></extensions>
      </trkpt>
      <trkpt lat="59.240198490935" lon="17.916003466632">
        <ele>69.6</ele>
        <time>2016-04-25T19:43:41Z</time>
        <extensions><gpxtpx:TrackPointExtension><gpxtpx:hr>162</gpxtpx:hr></gpxtpx:TrackPointExtension></extensions>
      </trkpt>
      <trkpt lat="59.24024752505" lon="17.915984691176">
        <ele>70.2</ele>
        <time>2016-04-25T19:43:42Z</time>
        <extensions><gpxtpx:TrackPointExtension><gpxtpx:hr>163</gpxtpx:hr></gpxtpx:TrackPointExtension></extensions>
      </trkpt>
      <trkpt lat="59.24029614007" lon="17.915962479141">
        <ele>71</ele>
        <time>2016-04-25T19:43:43Z</time>
        <extensions><gpxtpx:TrackPointExtension><gpxtpx:hr>164</gpxtpx:hr></gpxtpx:TrackPointExtension></extensions>
      </trkpt>
      <trkpt lat="59.240343665443" lon="17.915941356753">
        <ele>71.6</ele>
        <time>2016-04-25T19:43:44Z</time>
        <extensions><gpxtpx:TrackPointExtension><gpxtpx:hr>165</gpxtpx:hr></gpxtpx:TrackPointExtension></extensions>
      </trkpt>
      <trkpt lat="59.240436620714" lon="17.915885952394">
        <ele>72.6</ele>
        <time>2016-04-25T19:43:46Z</time>
        <extensions><gpxtpx:TrackPointExtension><gpxtpx:hr>166</gpxtpx:hr></gpxtpx:TrackPointExtension></extensions>
      </trkpt>
      <trkpt lat="59.2404864092" lon="17.915856364287">
        <ele>73</ele>
        <time>2016-04-25T19:43:47Z</time>
        <extensions><gpxtpx:TrackPointExtension><gpxtpx:hr>167</gpxtpx:hr></gpxtpx:TrackPointExtension></extensions>
      </trkpt>
      <trkpt lat="59.240538041704" lon="17.915825015981">
        <ele>73.4</ele>
        <time>2016-04-25T19:43:48Z</time>
        <extensions><gpxtpx:TrackPointExtension><gpxtpx:hr>168</gpxtpx:hr></gpxtpx:TrackPointExtension></extensions>
      </trkpt>
      <trkpt lat="59.240590596217" lon="17.915789476725">
        <ele>73.8</ele>
        <time>2016-04-25T19:43:49Z</time>
        <extensions><gpxtpx:TrackPointExtension><gpxtpx:hr>169</gpxtpx:hr></gpxtpx:TrackPointExtension></extensions>
      </trkpt>
      <trkpt lat="59.240833084584" lon="17.915610187884">
        <ele>73.8</ele>
        <time>2016-04-25T19:43:53Z</time>
        <extensions><gpxtpx:TrackPointExtension><gpxtpx:hr>172</gpxtpx:hr></gpxtpx:TrackPointExtension></extensions>
      </trkpt>
      <trkpt lat="59.240895110644" lon="17.915556962819">
        <ele>73.8</ele>
        <time>2016-04-25T19:43:54Z</time>
        <extensions><gpxtpx:TrackPointExtension><gpxtpx:hr>172</gpxtpx:hr></gpxtpx:TrackPointExtension></extensions>
      </trkpt>
      <trkpt lat="59.2411569612" lon="17.915251694021">
        <ele>74.2</ele>
        <time>2016-04-25T19:43:59Z</time>
        <extensions><gpxtpx:TrackPointExtension><gpxtpx:hr>174</gpxtpx:hr></gpxtpx:TrackPointExtension></extensions>
      </trkpt>
      <trkpt lat="59.241202139641" lon="17.915193691273">
        <ele>74.6</ele>
        <time>2016-04-25T19:44:00Z</time>
        <extensions><gpxtpx:TrackPointExtension><gpxtpx:hr>174</gpxtpx:hr></gpxtpx:TrackPointExtension></extensions>
      </trkpt>
      <trkpt lat="59.241242037485" lon="17.915142058769">
        <ele>75</ele>
        <time>2016-04-25T19:44:01Z</time>
        <extensions><gpxtpx:TrackPointExtension><gpxtpx:hr>174</gpxtpx:hr></gpxtpx:TrackPointExtension></extensions>
      </trkpt>
      <trkpt lat="59.241293334713" lon="17.915113141214">
        <ele>75.4</ele>
        <time>2016-04-25T19:44:02Z</time>
        <extensions><gpxtpx:TrackPointExtension><gpxtpx:hr>174</gpxtpx:hr></gpxtpx:TrackPointExtension></extensions>
      </trkpt>
      <trkpt lat="59.241334741299" lon="17.915095706862">
        <ele>75.8</ele>
        <time>2016-04-25T19:44:03Z</time>
        <extensions><gpxtpx:TrackPointExtension><gpxtpx:hr>174</gpxtpx:hr></gpxtpx:TrackPointExtension></extensions>
      </trkpt>
      <trkpt lat="59.241372292211" lon="17.915088666066">
        <ele>76.4</ele>
        <time>2016-04-25T19:44:04Z</time>
        <extensions><gpxtpx:TrackPointExtension><gpxtpx:hr>174</gpxtpx:hr></gpxtpx:TrackPointExtension></extensions>
      </trkpt>
      <trkpt lat="59.241413028245" lon="17.915084894211">
        <ele>76.8</ele>
        <time>2016-04-25T19:44:05Z</time>
        <extensions><gpxtpx:TrackPointExtension><gpxtpx:hr>174</gpxtpx:hr></gpxtpx:TrackPointExtension></extensions>
      </trkpt>
      <trkpt lat="59.241459715428" lon="17.915083050193">
        <ele>77.2</ele>
        <time>2016-04-25T19:44:06Z</time>
        <extensions><gpxtpx:TrackPointExtension><gpxtpx:hr>174</gpxtpx:hr></gpxtpx:TrackPointExtension></extensions>
      </trkpt>
      <trkpt lat="59.24150481005" lon="17.915097718518">
        <ele>77.6</ele>
        <time>2016-04-25T19:44:07Z</time>
        <extensions><gpxtpx:TrackPointExtension><gpxtpx:hr>174</gpxtpx:hr></gpxtpx:TrackPointExtension></extensions>
      </trkpt>
      <trkpt lat="59.241548647387" lon="17.915120349648">
        <ele>78</ele>
        <time>2016-04-25T19:44:08Z</time>
        <extensions><gpxtpx:TrackPointExtension><gpxtpx:hr>174</gpxtpx:hr></gpxtpx:TrackPointExtension></extensions>
      </trkpt>
      <trkpt lat="59.241593155276" lon="17.915149602479">
        <ele>78.4</ele>
        <time>2016-04-25T19:44:09Z</time>
        <extensions><gpxtpx:TrackPointExtension><gpxtpx:hr>174</gpxtpx:hr></gpxtpx:TrackPointExtension></extensions>
      </trkpt>
      <trkpt lat="59.241634142767" lon="17.915177681844">
        <ele>79</ele>
        <time>2016-04-25T19:44:10Z</time>
        <extensions><gpxtpx:TrackPointExtension><gpxtpx:hr>174</gpxtpx:hr></gpxtpx:TrackPointExtension></extensions>
      </trkpt>
      <trkpt lat="59.241679740303" lon="17.915203917191">
        <ele>79.8</ele>
        <time>2016-04-25T19:44:11Z</time>
        <extensions><gpxtpx:TrackPointExtension><gpxtpx:hr>174</gpxtpx:hr></gpxtpx:TrackPointExtension></extensions>
      </trkpt>
      <trkpt lat="59.241725002563" lon="17.915235516954">
        <ele>80.2</ele>
        <time>2016-04-25T19:44:12Z</time>
        <extensions><gpxtpx:TrackPointExtension><gpxtpx:hr>174</gpxtpx:hr></gpxtpx:TrackPointExtension></extensions>
      </trkpt>
      <trkpt lat="59.241817957834" lon="17.915319000678">
        <ele>80.2</ele>
        <time>2016-04-25T19:44:14Z</time>
        <extensions><gpxtpx:TrackPointExtension><gpxtpx:hr>174</gpxtpx:hr></gpxtpx:TrackPointExtension></extensions>
      </trkpt>
      <trkpt lat="59.241867578682" lon="17.915365604042">
        <ele>80.2</ele>
        <time>2016-04-25T19:44:15Z</time>
        <extensions><gpxtpx:TrackPointExtension><gpxtpx:hr>174</gpxtpx:hr></gpxtpx:TrackPointExtension></extensions>
      </trkpt>
      <trkpt lat="59.242127501401" lon="17.915609768789">
        <ele>80.2</ele>
        <time>2016-04-25T19:44:20Z</time>
        <extensions><gpxtpx:TrackPointExtension><gpxtpx:hr>175</gpxtpx:hr></gpxtpx:TrackPointExtension></extensions>
      </trkpt>
      <trkpt lat="59.24217200929" lon="17.915657294162">
        <ele>80.2</ele>
        <time>2016-04-25T19:44:21Z</time>
        <extensions><gpxtpx:TrackPointExtension><gpxtpx:hr>175</gpxtpx:hr></gpxtpx:TrackPointExtension></extensions>
      </trkpt>
      <trkpt lat="59.242218445016" lon="17.91569182759">
        <ele>80.8</ele>
        <time>2016-04-25T19:44:22Z</time>
        <extensions><gpxtpx:TrackPointExtension><gpxtpx:hr>175</gpxtpx:hr></gpxtpx:TrackPointExtension></extensions>
      </trkpt>
      <trkpt lat="59.242265132199" lon="17.915719655498">
        <ele>81.2</ele>
        <time>2016-04-25T19:44:23Z</time>
        <extensions><gpxtpx:TrackPointExtension><gpxtpx:hr>175</gpxtpx:hr></gpxtpx:TrackPointExtension></extensions>
      </trkpt>
      <trkpt lat="59.242309556269" lon="17.915745387931">
        <ele>81.6</ele>
        <time>2016-04-25T19:44:24Z</time>
        <extensions><gpxtpx:TrackPointExtension><gpxtpx:hr>175</gpxtpx:hr></gpxtpx:TrackPointExtension></extensions>
      </trkpt>
      <trkpt lat="59.242350040846" lon="17.915775059857">
        <ele>82</ele>
        <time>2016-04-25T19:44:25Z</time>
        <extensions><gpxtpx:TrackPointExtension><gpxtpx:hr>175</gpxtpx:hr></gpxtpx:TrackPointExtension></extensions>
      </trkpt>
      <trkpt lat="59.242390022509" lon="17.915805486154">
        <ele>82.4</ele>
        <time>2016-04-25T19:44:26Z</time>
        <extensions><gpxtpx:TrackPointExtension><gpxtpx:hr>175</gpxtpx:hr></gpxtpx:TrackPointExtension></extensions>
      </trkpt>
      <trkpt lat="59.242478116278" lon="17.915866674024">
        <ele>82.8</ele>
        <time>2016-04-25T19:44:28Z</time>
        <extensions><gpxtpx:TrackPointExtension><gpxtpx:hr>175</gpxtpx:hr></gpxtpx:TrackPointExtension></extensions>
      </trkpt>
      <trkpt lat="59.242520612511" lon="17.915892825552">
        <ele>83.4</ele>
        <time>2016-04-25T19:44:29Z</time>
        <extensions><gpxtpx:TrackPointExtension><gpxtpx:hr>175</gpxtpx:hr></gpxtpx:TrackPointExtension></extensions>
      </trkpt>
      <trkpt lat="59.242562689649" lon="17.915919982908">
        <ele>83.8</ele>
        <time>2016-04-25T19:44:30Z</time>
        <extensions><gpxtpx:TrackPointExtension><gpxtpx:hr>174</gpxtpx:hr></gpxtpx:TrackPointExtension></extensions>
      </trkpt>
      <trkpt lat="59.242602084579" lon="17.915950576843">
        <ele>84.2</ele>
        <time>2016-04-25T19:44:31Z</time>
        <extensions><gpxtpx:TrackPointExtension><gpxtpx:hr>175</gpxtpx:hr></gpxtpx:TrackPointExtension></extensions>
      </trkpt>
      <trkpt lat="59.242642988251" lon="17.915982595701">
        <ele>84.8</ele>
        <time>2016-04-25T19:44:32Z</time>
        <extensions><gpxtpx:TrackPointExtension><gpxtpx:hr>175</gpxtpx:hr></gpxtpx:TrackPointExtension></extensions>
      </trkpt>
      <trkpt lat="59.242684730113" lon="17.916006316478">
        <ele>85.2</ele>
        <time>2016-04-25T19:44:33Z</time>
        <extensions><gpxtpx:TrackPointExtension><gpxtpx:hr>175</gpxtpx:hr></gpxtpx:TrackPointExtension></extensions>
      </trkpt>
      <trkpt lat="59.242725549966" lon="17.9160346473">
        <ele>85.8</ele>
        <time>2016-04-25T19:44:34Z</time>
        <extensions><gpxtpx:TrackPointExtension><gpxtpx:hr>176</gpxtpx:hr></gpxtpx:TrackPointExtension></extensions>
      </trkpt>
      <trkpt lat="59.242768632932" lon="17.916058200439">
        <ele>86.2</ele>
        <time>2016-04-25T19:44:35Z</time>
        <extensions><gpxtpx:TrackPointExtension><gpxtpx:hr>175</gpxtpx:hr></gpxtpx:TrackPointExtension></extensions>
      </trkpt>
      <trkpt lat="59.242813057002" lon="17.91607990956">
        <ele>87.2</ele>
        <time>2016-04-25T19:44:36Z</time>
        <extensions><gpxtpx:TrackPointExtension><gpxtpx:hr>176</gpxtpx:hr></gpxtpx:TrackPointExtension></extensions>
      </trkpt>
      <trkpt lat="59.242906515187" lon="17.916136655023">
        <ele>87.2</ele>
        <time>2016-04-25T19:44:38Z</time>
        <extensions><gpxtpx:TrackPointExtension><gpxtpx:hr>176</gpxtpx:hr></gpxtpx:TrackPointExtension></extensions>
      </trkpt>
      <trkpt lat="59.243009277281" lon="17.916174457392">
        <ele>87.6</ele>
        <time>2016-04-25T19:44:40Z</time>
        <extensions><gpxtpx:TrackPointExtension><gpxtpx:hr>176</gpxtpx:hr></gpxtpx:TrackPointExtension></extensions>
      </trkpt>
      <trkpt lat="59.243057808482" lon="17.91618803607">
        <ele>88</ele>
        <time>2016-04-25T19:44:41Z</time>
        <extensions><gpxtpx:TrackPointExtension><gpxtpx:hr>176</gpxtpx:hr></gpxtpx:TrackPointExtension></extensions>
      </trkpt>
      <trkpt lat="59.24310826752" lon="17.916199686911">
        <ele>88.4</ele>
        <time>2016-04-25T19:44:42Z</time>
        <extensions><gpxtpx:TrackPointExtension><gpxtpx:hr>176</gpxtpx:hr></gpxtpx:TrackPointExtension></extensions>
      </trkpt>
      <trkpt lat="59.243160151481" lon="17.916215025788">
        <ele>88.8</ele>
        <time>2016-04-25T19:44:43Z</time>
        <extensions><gpxtpx:TrackPointExtension><gpxtpx:hr>176</gpxtpx:hr></gpxtpx:TrackPointExtension></extensions>
      </trkpt>
      <trkpt lat="59.243209353234" lon="17.916224581154">
        <ele>89.4</ele>
        <time>2016-04-25T19:44:44Z</time>
        <extensions><gpxtpx:TrackPointExtension><gpxtpx:hr>176</gpxtpx:hr></gpxtpx:TrackPointExtension></extensions>
      </trkpt>
      <trkpt lat="59.243311863871" lon="17.916245116809">
        <ele>89.4</ele>
        <time>2016-04-25T19:44:46Z</time>
        <extensions><gpxtpx:TrackPointExtension><gpxtpx:hr>176</gpxtpx:hr></gpxtpx:TrackPointExtension></extensions>
      </trkpt>
      <trkpt lat="59.243410351196" lon="17.916235226167">
        <ele>89.4</ele>
        <time>2016-04-25T19:44:48Z</time>
        <extensions><gpxtpx:TrackPointExtension><gpxtpx:hr>177</gpxtpx:hr></gpxtpx:TrackPointExtension></extensions>
      </trkpt>
      <trkpt lat="59.243458379483" lon="17.916220474023">
        <ele>89.4</ele>
        <time>2016-04-25T19:44:49Z</time>
        <extensions><gpxtpx:TrackPointExtension><gpxtpx:hr>176</gpxtpx:hr></gpxtpx:TrackPointExtension></extensions>
      </trkpt>
      <trkpt lat="59.243598776308" lon="17.916189293355">
        <ele>89.8</ele>
        <time>2016-04-25T19:44:52Z</time>
        <extensions><gpxtpx:TrackPointExtension><gpxtpx:hr>176</gpxtpx:hr></gpxtpx:TrackPointExtension></extensions>
      </trkpt>
      <trkpt lat="59.243639931437" lon="17.916186275871">
        <ele>90.2</ele>
        <time>2016-04-25T19:44:53Z</time>
        <extensions><gpxtpx:TrackPointExtension><gpxtpx:hr>176</gpxtpx:hr></gpxtpx:TrackPointExtension></extensions>
      </trkpt>
      <trkpt lat="59.24369248595" lon="17.916176385229">
        <ele>90.6</ele>
        <time>2016-04-25T19:44:54Z</time>
        <extensions><gpxtpx:TrackPointExtension><gpxtpx:hr>176</gpxtpx:hr></gpxtpx:TrackPointExtension></extensions>
      </trkpt>
      <trkpt lat="59.243764486471" lon="17.916162135999">
        <ele>91.4</ele>
        <time>2016-04-25T19:44:55Z</time>
        <extensions><gpxtpx:TrackPointExtension><gpxtpx:hr>176</gpxtpx:hr></gpxtpx:TrackPointExtension></extensions>
      </trkpt>
      <trkpt lat="59.243836738449" lon="17.916161381628">
        <ele>91.8</ele>
        <time>2016-04-25T19:44:58Z</time>
        <extensions><gpxtpx:TrackPointExtension><gpxtpx:hr>176</gpxtpx:hr></gpxtpx:TrackPointExtension></extensions>
      </trkpt>
      <trkpt lat="59.243879234682" lon="17.916152496814">
        <ele>92.4</ele>
        <time>2016-04-25T19:44:59Z</time>
        <extensions><gpxtpx:TrackPointExtension><gpxtpx:hr>176</gpxtpx:hr></gpxtpx:TrackPointExtension></extensions>
      </trkpt>
      <trkpt lat="59.243918126698" lon="17.916163812379">
        <ele>92.8</ele>
        <time>2016-04-25T19:45:00Z</time>
        <extensions><gpxtpx:TrackPointExtension><gpxtpx:hr>176</gpxtpx:hr></gpxtpx:TrackPointExtension></extensions>
      </trkpt>
      <trkpt lat="59.243950983746" lon="17.916180659998">
        <ele>93.8</ele>
        <time>2016-04-25T19:45:01Z</time>
        <extensions><gpxtpx:TrackPointExtension><gpxtpx:hr>177</gpxtpx:hr></gpxtpx:TrackPointExtension></extensions>
      </trkpt>
      <trkpt lat="59.243986523002" lon="17.916189377174">
        <ele>94.4</ele>
        <time>2016-04-25T19:45:02Z</time>
        <extensions><gpxtpx:TrackPointExtension><gpxtpx:hr>176</gpxtpx:hr></gpxtpx:TrackPointExtension></extensions>
      </trkpt>
      <trkpt lat="59.244016530204" lon="17.916185940595">
        <ele>95</ele>
        <time>2016-04-25T19:45:03Z</time>
        <extensions><gpxtpx:TrackPointExtension><gpxtpx:hr>177</gpxtpx:hr></gpxtpx:TrackPointExtension></extensions>
      </trkpt>
      <trkpt lat="59.244047627053" lon="17.916183342206">
        <ele>95.4</ele>
        <time>2016-04-25T19:45:04Z</time>
        <extensions><gpxtpx:TrackPointExtension><gpxtpx:hr>177</gpxtpx:hr></gpxtpx:TrackPointExtension></extensions>
      </trkpt>
      <trkpt lat="59.244080316463" lon="17.916183928939">
        <ele>96</ele>
        <time>2016-04-25T19:45:05Z</time>
        <extensions><gpxtpx:TrackPointExtension><gpxtpx:hr>177</gpxtpx:hr></gpxtpx:TrackPointExtension></extensions>
      </trkpt>
      <trkpt lat="59.244114849891" lon="17.916193232848">
        <ele>96.6</ele>
        <time>2016-04-25T19:45:06Z</time>
        <extensions><gpxtpx:TrackPointExtension><gpxtpx:hr>178</gpxtpx:hr></gpxtpx:TrackPointExtension></extensions>
      </trkpt>
      <trkpt lat="59.244149383319" lon="17.916212846494">
        <ele>97.2</ele>
        <time>2016-04-25T19:45:07Z</time>
        <extensions><gpxtpx:TrackPointExtension><gpxtpx:hr>178</gpxtpx:hr></gpxtpx:TrackPointExtension></extensions>
      </trkpt>
      <trkpt lat="59.244192382466" lon="17.916232711597">
        <ele>97.8</ele>
        <time>2016-04-25T19:45:08Z</time>
        <extensions><gpxtpx:TrackPointExtension><gpxtpx:hr>178</gpxtpx:hr></gpxtpx:TrackPointExtension></extensions>
      </trkpt>
      <trkpt lat="59.244234711061" lon="17.916250397406">
        <ele>98.2</ele>
        <time>2016-04-25T19:45:09Z</time>
        <extensions><gpxtpx:TrackPointExtension><gpxtpx:hr>178</gpxtpx:hr></gpxtpx:TrackPointExtension></extensions>
      </trkpt>
      <trkpt lat="59.244278799855" lon="17.916269843414">
        <ele>98.8</ele>
        <time>2016-04-25T19:45:10Z</time>
        <extensions><gpxtpx:TrackPointExtension><gpxtpx:hr>179</gpxtpx:hr></gpxtpx:TrackPointExtension></extensions>
      </trkpt>
      <trkpt lat="59.244322721011" lon="17.916279482599">
        <ele>99.4</ele>
        <time>2016-04-25T19:45:11Z</time>
        <extensions><gpxtpx:TrackPointExtension><gpxtpx:hr>179</gpxtpx:hr></gpxtpx:TrackPointExtension></extensions>
      </trkpt>
      <trkpt lat="59.244374269696" lon="17.916276381296">
        <ele>100</ele>
        <time>2016-04-25T19:45:12Z</time>
        <extensions><gpxtpx:TrackPointExtension><gpxtpx:hr>179</gpxtpx:hr></gpxtpx:TrackPointExtension></extensions>
      </trkpt>
      <trkpt lat="59.244424980191" lon="17.916283757368">
        <ele>100.4</ele>
        <time>2016-04-25T19:45:13Z</time>
        <extensions><gpxtpx:TrackPointExtension><gpxtpx:hr>179</gpxtpx:hr></gpxtpx:TrackPointExtension></extensions>
      </trkpt>
      <trkpt lat="59.244473176116" lon="17.916284260282">
        <ele>101</ele>
        <time>2016-04-25T19:45:14Z</time>
        <extensions><gpxtpx:TrackPointExtension><gpxtpx:hr>180</gpxtpx:hr></gpxtpx:TrackPointExtension></extensions>
      </trkpt>
      <trkpt lat="59.244520198575" lon="17.916301359358">
        <ele>101.4</ele>
        <time>2016-04-25T19:45:15Z</time>
        <extensions><gpxtpx:TrackPointExtension><gpxtpx:hr>180</gpxtpx:hr></gpxtpx:TrackPointExtension></extensions>
      </trkpt>
      <trkpt lat="59.244566131387" lon="17.916310244172">
        <ele>102</ele>
        <time>2016-04-25T19:45:16Z</time>
        <extensions><gpxtpx:TrackPointExtension><gpxtpx:hr>180</gpxtpx:hr></gpxtpx:TrackPointExtension></extensions>
      </trkpt>
      <trkpt lat="59.244610136362" lon="17.916311920552">
        <ele>102.6</ele>
        <time>2016-04-25T19:45:17Z</time>
        <extensions><gpxtpx:TrackPointExtension><gpxtpx:hr>180</gpxtpx:hr></gpxtpx:TrackPointExtension></extensions>
      </trkpt>
      <trkpt lat="59.244717257044" lon="17.91630957362">
        <ele>103</ele>
        <time>2016-04-25T19:45:19Z</time>
        <extensions><gpxtpx:TrackPointExtension><gpxtpx:hr>180</gpxtpx:hr></gpxtpx:TrackPointExtension></extensions>
      </trkpt>
      <trkpt lat="59.244768805729" lon="17.916277135667">
        <ele>103.4</ele>
        <time>2016-04-25T19:45:20Z</time>
        <extensions><gpxtpx:TrackPointExtension><gpxtpx:hr>179</gpxtpx:hr></gpxtpx:TrackPointExtension></extensions>
      </trkpt>
      <trkpt lat="59.244814151808" lon="17.916246960827">
        <ele>103.8</ele>
        <time>2016-04-25T19:45:21Z</time>
        <extensions><gpxtpx:TrackPointExtension><gpxtpx:hr>180</gpxtpx:hr></gpxtpx:TrackPointExtension></extensions>
      </trkpt>
      <trkpt lat="59.244862347733" lon="17.916206140974">
        <ele>104.2</ele>
        <time>2016-04-25T19:45:22Z</time>
        <extensions><gpxtpx:TrackPointExtension><gpxtpx:hr>179</gpxtpx:hr></gpxtpx:TrackPointExtension></extensions>
      </trkpt>
      <trkpt lat="59.244911968581" lon="17.916160711076">
        <ele>104.8</ele>
        <time>2016-04-25T19:45:23Z</time>
        <extensions><gpxtpx:TrackPointExtension><gpxtpx:hr>179</gpxtpx:hr></gpxtpx:TrackPointExtension></extensions>
      </trkpt>
      <trkpt lat="59.245049431741" lon="17.916021403898">
        <ele>104.8</ele>
        <time>2016-04-25T19:45:26Z</time>
        <extensions><gpxtpx:TrackPointExtension><gpxtpx:hr>178</gpxtpx:hr></gpxtpx:TrackPointExtension></extensions>
      </trkpt>
      <trkpt lat="59.245096286562" lon="17.915982260425">
        <ele>104.8</ele>
        <time>2016-04-25T19:45:27Z</time>
        <extensions><gpxtpx:TrackPointExtension><gpxtpx:hr>178</gpxtpx:hr></gpxtpx:TrackPointExtension></extensions>
      </trkpt>
      <trkpt lat="59.245232911532" lon="17.915872708992">
        <ele>104.8</ele>
        <time>2016-04-25T19:45:30Z</time>
        <extensions><gpxtpx:TrackPointExtension><gpxtpx:hr>177</gpxtpx:hr></gpxtpx:TrackPointExtension></extensions>
      </trkpt>
      <trkpt lat="59.245335841264" lon="17.915830380397">
        <ele>105.2</ele>
        <time>2016-04-25T19:45:32Z</time>
        <extensions><gpxtpx:TrackPointExtension><gpxtpx:hr>177</gpxtpx:hr></gpxtpx:TrackPointExtension></extensions>
      </trkpt>
      <trkpt lat="59.245387473768" lon="17.915806240525">
        <ele>105.6</ele>
        <time>2016-04-25T19:45:33Z</time>
        <extensions><gpxtpx:TrackPointExtension><gpxtpx:hr>177</gpxtpx:hr></gpxtpx:TrackPointExtension></extensions>
      </trkpt>
      <trkpt lat="59.245434831503" lon="17.915783274119">
        <ele>106</ele>
        <time>2016-04-25T19:45:34Z</time>
        <extensions><gpxtpx:TrackPointExtension><gpxtpx:hr>177</gpxtpx:hr></gpxtpx:TrackPointExtension></extensions>
      </trkpt>
      <trkpt lat="59.245483530342" lon="17.915756954953">
        <ele>106.4</ele>
        <time>2016-04-25T19:45:35Z</time>
        <extensions><gpxtpx:TrackPointExtension><gpxtpx:hr>177</gpxtpx:hr></gpxtpx:TrackPointExtension></extensions>
      </trkpt>
      <trkpt lat="59.245660723708" lon="17.915693168694">
        <ele>107.4</ele>
        <time>2016-04-25T19:45:39Z</time>
        <extensions><gpxtpx:TrackPointExtension><gpxtpx:hr>176</gpxtpx:hr></gpxtpx:TrackPointExtension></extensions>
      </trkpt>
      <trkpt lat="59.245699364267" lon="17.915662407121">
        <ele>107.8</ele>
        <time>2016-04-25T19:45:40Z</time>
        <extensions><gpxtpx:TrackPointExtension><gpxtpx:hr>176</gpxtpx:hr></gpxtpx:TrackPointExtension></extensions>
      </trkpt>
      <trkpt lat="59.245746554364" lon="17.915651175375">
        <ele>108.4</ele>
        <time>2016-04-25T19:45:41Z</time>
        <extensions><gpxtpx:TrackPointExtension><gpxtpx:hr>175</gpxtpx:hr></gpxtpx:TrackPointExtension></extensions>
      </trkpt>
      <trkpt lat="59.245799360334" lon="17.915641117095">
        <ele>108.8</ele>
        <time>2016-04-25T19:45:42Z</time>
        <extensions><gpxtpx:TrackPointExtension><gpxtpx:hr>174</gpxtpx:hr></gpxtpx:TrackPointExtension></extensions>
      </trkpt>
      <trkpt lat="59.24585166339" lon="17.915630136806">
        <ele>109.4</ele>
        <time>2016-04-25T19:45:43Z</time>
        <extensions><gpxtpx:TrackPointExtension><gpxtpx:hr>174</gpxtpx:hr></gpxtpx:TrackPointExtension></extensions>
      </trkpt>
      <trkpt lat="59.245902038609" lon="17.915609349694">
        <ele>109</ele>
        <time>2016-04-25T19:45:44Z</time>
        <extensions><gpxtpx:TrackPointExtension><gpxtpx:hr>173</gpxtpx:hr></gpxtpx:TrackPointExtension></extensions>
      </trkpt>
      <trkpt lat="59.245952665285" lon="17.915603398545">
        <ele>108.4</ele>
        <time>2016-04-25T19:45:45Z</time>
        <extensions><gpxtpx:TrackPointExtension><gpxtpx:hr>173</gpxtpx:hr></gpxtpx:TrackPointExtension></extensions>
      </trkpt>
      <trkpt lat="59.246008153463" lon="17.915593507903">
        <ele>108</ele>
        <time>2016-04-25T19:45:46Z</time>
        <extensions><gpxtpx:TrackPointExtension><gpxtpx:hr>172</gpxtpx:hr></gpxtpx:TrackPointExtension></extensions>
      </trkpt>
      <trkpt lat="59.2460687546" lon="17.91557448099">
        <ele>107.4</ele>
        <time>2016-04-25T19:45:47Z</time>
        <extensions><gpxtpx:TrackPointExtension><gpxtpx:hr>172</gpxtpx:hr></gpxtpx:TrackPointExtension></extensions>
      </trkpt>
      <trkpt lat="59.246130026289" lon="17.91555855538">
        <ele>107</ele>
        <time>2016-04-25T19:45:48Z</time>
        <extensions><gpxtpx:TrackPointExtension><gpxtpx:hr>171</gpxtpx:hr></gpxtpx:TrackPointExtension></extensions>
      </trkpt>
      <trkpt lat="59.246384165497" lon="17.915531900938">
        <ele>106.2</ele>
        <time>2016-04-25T19:45:52Z</time>
        <extensions><gpxtpx:TrackPointExtension><gpxtpx:hr>168</gpxtpx:hr></gpxtpx:TrackPointExtension></extensions>
      </trkpt>
      <trkpt lat="59.246448789946" lon="17.915531481843">
        <ele>105.2</ele>
        <time>2016-04-25T19:45:53Z</time>
        <extensions><gpxtpx:TrackPointExtension><gpxtpx:hr>168</gpxtpx:hr></gpxtpx:TrackPointExtension></extensions>
      </trkpt>
      <trkpt lat="59.246501512097" lon="17.915547575091">
        <ele>104.4</ele>
        <time>2016-04-25T19:45:54Z</time>
        <extensions><gpxtpx:TrackPointExtension><gpxtpx:hr>168</gpxtpx:hr></gpxtpx:TrackPointExtension></extensions>
      </trkpt>
      <trkpt lat="59.246549456565" lon="17.915574313352">
        <ele>104.8</ele>
        <time>2016-04-25T19:45:55Z</time>
        <extensions><gpxtpx:TrackPointExtension><gpxtpx:hr>168</gpxtpx:hr></gpxtpx:TrackPointExtension></extensions>
      </trkpt>
      <trkpt lat="59.246600502336" lon="17.915603230907">
        <ele>105.2</ele>
        <time>2016-04-25T19:45:56Z</time>
        <extensions><gpxtpx:TrackPointExtension><gpxtpx:hr>167</gpxtpx:hr></gpxtpx:TrackPointExtension></extensions>
      </trkpt>
      <trkpt lat="59.24665129665" lon="17.91561639049">
        <ele>105.4</ele>
        <time>2016-04-25T19:45:57Z</time>
        <extensions><gpxtpx:TrackPointExtension><gpxtpx:hr>167</gpxtpx:hr></gpxtpx:TrackPointExtension></extensions>
      </trkpt>
      <trkpt lat="59.246693289969" lon="17.915633238109">
        <ele>105.8</ele>
        <time>2016-04-25T19:45:58Z</time>
        <extensions><gpxtpx:TrackPointExtension><gpxtpx:hr>166</gpxtpx:hr></gpxtpx:TrackPointExtension></extensions>
      </trkpt>
      <trkpt lat="59.246736875849" lon="17.915649415176">
        <ele>106.2</ele>
        <time>2016-04-25T19:45:59Z</time>
        <extensions><gpxtpx:TrackPointExtension><gpxtpx:hr>165</gpxtpx:hr></gpxtpx:TrackPointExtension></extensions>
      </trkpt>
      <trkpt lat="59.246779707358" lon="17.915691659952">
        <ele>106.2</ele>
        <time>2016-04-25T19:46:00Z</time>
        <extensions><gpxtpx:TrackPointExtension><gpxtpx:hr>164</gpxtpx:hr></gpxtpx:TrackPointExtension></extensions>
      </trkpt>
      <trkpt lat="59.246816755356" lon="17.91575385365">
        <ele>106.2</ele>
        <time>2016-04-25T19:46:01Z</time>
        <extensions><gpxtpx:TrackPointExtension><gpxtpx:hr>163</gpxtpx:hr></gpxtpx:TrackPointExtension></extensions>
      </trkpt>
      <trkpt lat="59.246851875517" lon="17.9159173007">
        <ele>106.2</ele>
        <time>2016-04-25T19:46:04Z</time>
        <extensions><gpxtpx:TrackPointExtension><gpxtpx:hr>161</gpxtpx:hr></gpxtpx:TrackPointExtension></extensions>
      </trkpt>
      <trkpt lat="59.24683234569" lon="17.916020146613">
        <ele>106.2</ele>
        <time>2016-04-25T19:46:07Z</time>
        <extensions><gpxtpx:TrackPointExtension><gpxtpx:hr>159</gpxtpx:hr></gpxtpx:TrackPointExtension></extensions>
      </trkpt>
      <trkpt lat="59.246814576062" lon="17.916046801055">
        <ele>106.2</ele>
        <time>2016-04-25T19:46:08Z</time>
        <extensions><gpxtpx:TrackPointExtension><gpxtpx:hr>158</gpxtpx:hr></gpxtpx:TrackPointExtension></extensions>
      </trkpt>
      <trkpt lat="59.246726817569" lon="17.91621737272">
        <ele>106.2</ele>
        <time>2016-04-25T19:46:13Z</time>
        <extensions><gpxtpx:TrackPointExtension><gpxtpx:hr>155</gpxtpx:hr></gpxtpx:TrackPointExtension></extensions>
      </trkpt>
      <trkpt lat="59.246636963601" lon="17.916342011573">
        <ele>106.2</ele>
        <time>2016-04-25T19:46:17Z</time>
        <extensions><gpxtpx:TrackPointExtension><gpxtpx:hr>152</gpxtpx:hr></gpxtpx:TrackPointExtension></extensions>
      </trkpt>
      <trkpt lat="59.246614248652" lon="17.916372018775">
        <ele>106.6</ele>
        <time>2016-04-25T19:46:18Z</time>
        <extensions><gpxtpx:TrackPointExtension><gpxtpx:hr>152</gpxtpx:hr></gpxtpx:TrackPointExtension></extensions>
      </trkpt>
      <trkpt lat="59.246591701341" lon="17.916408563859">
        <ele>107</ele>
        <time>2016-04-25T19:46:19Z</time>
        <extensions><gpxtpx:TrackPointExtension><gpxtpx:hr>151</gpxtpx:hr></gpxtpx:TrackPointExtension></extensions>
      </trkpt>
      <trkpt lat="59.246567980564" lon="17.916437984328">
        <ele>107.4</ele>
        <time>2016-04-25T19:46:20Z</time>
        <extensions><gpxtpx:TrackPointExtension><gpxtpx:hr>151</gpxtpx:hr></gpxtpx:TrackPointExtension></extensions>
      </trkpt>
      <trkpt lat="59.24654400833" lon="17.916463046209">
        <ele>107.8</ele>
        <time>2016-04-25T19:46:21Z</time>
        <extensions><gpxtpx:TrackPointExtension><gpxtpx:hr>150</gpxtpx:hr></gpxtpx:TrackPointExtension></extensions>
      </trkpt>
      <trkpt lat="59.246516599517" lon="17.916482995131">
        <ele>108.2</ele>
        <time>2016-04-25T19:46:22Z</time>
        <extensions><gpxtpx:TrackPointExtension><gpxtpx:hr>150</gpxtpx:hr></gpxtpx:TrackPointExtension></extensions>
      </trkpt>
      <trkpt lat="59.246425320626" lon="17.916584919035">
        <ele>108.2</ele>
        <time>2016-04-25T19:46:26Z</time>
        <extensions><gpxtpx:TrackPointExtension><gpxtpx:hr>149</gpxtpx:hr></gpxtpx:TrackPointExtension></extensions>
      </trkpt>
      <trkpt lat="59.246381734746" lon="17.916648537656">
        <ele>108.6</ele>
        <time>2016-04-25T19:46:28Z</time>
        <extensions><gpxtpx:TrackPointExtension><gpxtpx:hr>148</gpxtpx:hr></gpxtpx:TrackPointExtension></extensions>
      </trkpt>
      <trkpt lat="59.24635709196" lon="17.916673934813">
        <ele>109</ele>
        <time>2016-04-25T19:46:29Z</time>
        <extensions><gpxtpx:TrackPointExtension><gpxtpx:hr>148</gpxtpx:hr></gpxtpx:TrackPointExtension></extensions>
      </trkpt>
      <trkpt lat="59.246336807762" lon="17.916702768549">
        <ele>109.6</ele>
        <time>2016-04-25T19:46:30Z</time>
        <extensions><gpxtpx:TrackPointExtension><gpxtpx:hr>148</gpxtpx:hr></gpxtpx:TrackPointExtension></extensions>
      </trkpt>
      <trkpt lat="59.246311997338" lon="17.916733111027">
        <ele>110</ele>
        <time>2016-04-25T19:46:31Z</time>
        <extensions><gpxtpx:TrackPointExtension><gpxtpx:hr>148</gpxtpx:hr></gpxtpx:TrackPointExtension></extensions>
      </trkpt>
      <trkpt lat="59.246288108923" lon="17.916758927279">
        <ele>110.4</ele>
        <time>2016-04-25T19:46:32Z</time>
        <extensions><gpxtpx:TrackPointExtension><gpxtpx:hr>148</gpxtpx:hr></gpxtpx:TrackPointExtension></extensions>
      </trkpt>
      <trkpt lat="59.246224741759" lon="17.916831682171">
        <ele>110.4</ele>
        <time>2016-04-25T19:46:35Z</time>
        <extensions><gpxtpx:TrackPointExtension><gpxtpx:hr>149</gpxtpx:hr></gpxtpx:TrackPointExtension></extensions>
      </trkpt>
      <trkpt lat="59.246207307407" lon="17.916860432088">
        <ele>110.8</ele>
        <time>2016-04-25T19:46:36Z</time>
        <extensions><gpxtpx:TrackPointExtension><gpxtpx:hr>148</gpxtpx:hr></gpxtpx:TrackPointExtension></extensions>
      </trkpt>
      <trkpt lat="59.246190962702" lon="17.916881889752">
        <ele>111.2</ele>
        <time>2016-04-25T19:46:37Z</time>
        <extensions><gpxtpx:TrackPointExtension><gpxtpx:hr>148</gpxtpx:hr></gpxtpx:TrackPointExtension></extensions>
      </trkpt>
      <trkpt lat="59.246166990468" lon="17.916905694348">
        <ele>111.6</ele>
        <time>2016-04-25T19:46:38Z</time>
        <extensions><gpxtpx:TrackPointExtension><gpxtpx:hr>149</gpxtpx:hr></gpxtpx:TrackPointExtension></extensions>
      </trkpt>
      <trkpt lat="59.24614000075" lon="17.916923463976">
        <ele>112</ele>
        <time>2016-04-25T19:46:39Z</time>
        <extensions><gpxtpx:TrackPointExtension><gpxtpx:hr>148</gpxtpx:hr></gpxtpx:TrackPointExtension></extensions>
      </trkpt>
      <trkpt lat="59.246120638561" lon="17.91695162716">
        <ele>112.4</ele>
        <time>2016-04-25T19:46:40Z</time>
        <extensions><gpxtpx:TrackPointExtension><gpxtpx:hr>148</gpxtpx:hr></gpxtpx:TrackPointExtension></extensions>
      </trkpt>
      <trkpt lat="59.246072442636" lon="17.917001834741">
        <ele>112.4</ele>
        <time>2016-04-25T19:46:42Z</time>
        <extensions><gpxtpx:TrackPointExtension><gpxtpx:hr>148</gpxtpx:hr></gpxtpx:TrackPointExtension></extensions>
      </trkpt>
      <trkpt lat="59.245896674193" lon="17.917233091362">
        <ele>112.4</ele>
        <time>2016-04-25T19:46:48Z</time>
        <extensions><gpxtpx:TrackPointExtension><gpxtpx:hr>147</gpxtpx:hr></gpxtpx:TrackPointExtension></extensions>
      </trkpt>
      <trkpt lat="59.245737082817" lon="17.917566690982">
        <ele>112.4</ele>
        <time>2016-04-25T19:46:54Z</time>
        <extensions><gpxtpx:TrackPointExtension><gpxtpx:hr>146</gpxtpx:hr></gpxtpx:TrackPointExtension></extensions>
      </trkpt>
      <trkpt lat="59.24564379227" lon="17.917809346987">
        <ele>112.8</ele>
        <time>2016-04-25T19:46:58Z</time>
        <extensions><gpxtpx:TrackPointExtension><gpxtpx:hr>144</gpxtpx:hr></gpxtpx:TrackPointExtension></extensions>
      </trkpt>
      <trkpt lat="59.245623088977" lon="17.91785771055">
        <ele>113.2</ele>
        <time>2016-04-25T19:46:59Z</time>
        <extensions><gpxtpx:TrackPointExtension><gpxtpx:hr>143</gpxtpx:hr></gpxtpx:TrackPointExtension></extensions>
      </trkpt>
      <trkpt lat="59.245598613829" lon="17.917923676103">
        <ele>113.8</ele>
        <time>2016-04-25T19:47:00Z</time>
        <extensions><gpxtpx:TrackPointExtension><gpxtpx:hr>142</gpxtpx:hr></gpxtpx:TrackPointExtension></extensions>
      </trkpt>
      <trkpt lat="59.245573803405" lon="17.917999029384">
        <ele>114.2</ele>
        <time>2016-04-25T19:47:01Z</time>
        <extensions><gpxtpx:TrackPointExtension><gpxtpx:hr>140</gpxtpx:hr></gpxtpx:TrackPointExtension></extensions>
      </trkpt>
      <trkpt lat="59.245543041832" lon="17.918076561959">
        <ele>114.6</ele>
        <time>2016-04-25T19:47:02Z</time>
        <extensions><gpxtpx:TrackPointExtension><gpxtpx:hr>140</gpxtpx:hr></gpxtpx:TrackPointExtension></extensions>
      </trkpt>
      <trkpt lat="59.245450254199" lon="17.918340759447">
        <ele>114.2</ele>
        <time>2016-04-25T19:47:05Z</time>
        <extensions><gpxtpx:TrackPointExtension><gpxtpx:hr>138</gpxtpx:hr></gpxtpx:TrackPointExtension></extensions>
      </trkpt>
      <trkpt lat="59.245415888409" lon="17.918448550681">
        <ele>113.6</ele>
        <time>2016-04-25T19:47:06Z</time>
        <extensions><gpxtpx:TrackPointExtension><gpxtpx:hr>137</gpxtpx:hr></gpxtpx:TrackPointExtension></extensions>
      </trkpt>
      <trkpt lat="59.245382612266" lon="17.918551312775">
        <ele>113.2</ele>
        <time>2016-04-25T19:47:07Z</time>
        <extensions><gpxtpx:TrackPointExtension><gpxtpx:hr>137</gpxtpx:hr></gpxtpx:TrackPointExtension></extensions>
      </trkpt>
      <trkpt lat="59.245347575924" lon="17.918663881692">
        <ele>112.8</ele>
        <time>2016-04-25T19:47:08Z</time>
        <extensions><gpxtpx:TrackPointExtension><gpxtpx:hr>137</gpxtpx:hr></gpxtpx:TrackPointExtension></extensions>
      </trkpt>
      <trkpt lat="59.245309270641" lon="17.918790113106">
        <ele>112.2</ele>
        <time>2016-04-25T19:47:09Z</time>
        <extensions><gpxtpx:TrackPointExtension><gpxtpx:hr>136</gpxtpx:hr></gpxtpx:TrackPointExtension></extensions>
      </trkpt>
      <trkpt lat="59.245285298407" lon="17.918903352575">
        <ele>111.6</ele>
        <time>2016-04-25T19:47:10Z</time>
        <extensions><gpxtpx:TrackPointExtension><gpxtpx:hr>136</gpxtpx:hr></gpxtpx:TrackPointExtension></extensions>
      </trkpt>
      <trkpt lat="59.245261074716" lon="17.919043330305">
        <ele>111</ele>
        <time>2016-04-25T19:47:11Z</time>
        <extensions><gpxtpx:TrackPointExtension><gpxtpx:hr>135</gpxtpx:hr></gpxtpx:TrackPointExtension></extensions>
      </trkpt>
      <trkpt lat="59.245232743894" lon="17.919192611944">
        <ele>110.6</ele>
        <time>2016-04-25T19:47:12Z</time>
        <extensions><gpxtpx:TrackPointExtension><gpxtpx:hr>133</gpxtpx:hr></gpxtpx:TrackPointExtension></extensions>
      </trkpt>
      <trkpt lat="59.245198797199" lon="17.919329236914">
        <ele>110</ele>
        <time>2016-04-25T19:47:13Z</time>
        <extensions><gpxtpx:TrackPointExtension><gpxtpx:hr>133</gpxtpx:hr></gpxtpx:TrackPointExtension></extensions>
      </trkpt>
      <trkpt lat="59.245168706178" lon="17.919463095857">
        <ele>109.6</ele>
        <time>2016-04-25T19:47:14Z</time>
        <extensions><gpxtpx:TrackPointExtension><gpxtpx:hr>132</gpxtpx:hr></gpxtpx:TrackPointExtension></extensions>
      </trkpt>
      <trkpt lat="59.245142722288" lon="17.919611371668">
        <ele>109.2</ele>
        <time>2016-04-25T19:47:15Z</time>
        <extensions><gpxtpx:TrackPointExtension><gpxtpx:hr>130</gpxtpx:hr></gpxtpx:TrackPointExtension></extensions>
      </trkpt>
      <trkpt lat="59.245106428661" lon="17.919780937505">
        <ele>108.8</ele>
        <time>2016-04-25T19:47:16Z</time>
        <extensions><gpxtpx:TrackPointExtension><gpxtpx:hr>130</gpxtpx:hr></gpxtpx:TrackPointExtension></extensions>
      </trkpt>
      <trkpt lat="59.245072565785" lon="17.919917730113">
        <ele>108.2</ele>
        <time>2016-04-25T19:47:17Z</time>
        <extensions><gpxtpx:TrackPointExtension><gpxtpx:hr>129</gpxtpx:hr></gpxtpx:TrackPointExtension></extensions>
      </trkpt>
      <trkpt lat="59.245043312954" lon="17.92006131206">
        <ele>107.6</ele>
        <time>2016-04-25T19:47:18Z</time>
        <extensions><gpxtpx:TrackPointExtension><gpxtpx:hr>128</gpxtpx:hr></gpxtpx:TrackPointExtension></extensions>
      </trkpt>
      <trkpt lat="59.245018167254" lon="17.920207743853">
        <ele>107</ele>
        <time>2016-04-25T19:47:19Z</time>
        <extensions><gpxtpx:TrackPointExtension><gpxtpx:hr>127</gpxtpx:hr></gpxtpx:TrackPointExtension></extensions>
      </trkpt>
      <trkpt lat="59.244987740957" lon="17.92032953286">
        <ele>106.4</ele>
        <time>2016-04-25T19:47:20Z</time>
        <extensions><gpxtpx:TrackPointExtension><gpxtpx:hr>127</gpxtpx:hr></gpxtpx:TrackPointExtension></extensions>
      </trkpt>
      <trkpt lat="59.244955722099" lon="17.920459871405">
        <ele>106</ele>
        <time>2016-04-25T19:47:21Z</time>
        <extensions><gpxtpx:TrackPointExtension><gpxtpx:hr>126</gpxtpx:hr></gpxtpx:TrackPointExtension></extensions>
      </trkpt>
      <trkpt lat="59.244929235295" lon="17.92058853357">
        <ele>105</ele>
        <time>2016-04-25T19:47:22Z</time>
        <extensions><gpxtpx:TrackPointExtension><gpxtpx:hr>126</gpxtpx:hr></gpxtpx:TrackPointExtension></extensions>
      </trkpt>
      <trkpt lat="59.244903419043" lon="17.920723230703">
        <ele>104.6</ele>
        <time>2016-04-25T19:47:23Z</time>
        <extensions><gpxtpx:TrackPointExtension><gpxtpx:hr>125</gpxtpx:hr></gpxtpx:TrackPointExtension></extensions>
      </trkpt>
      <trkpt lat="59.244879698266" lon="17.920847282823">
        <ele>104.2</ele>
        <time>2016-04-25T19:47:24Z</time>
        <extensions><gpxtpx:TrackPointExtension><gpxtpx:hr>124</gpxtpx:hr></gpxtpx:TrackPointExtension></extensions>
      </trkpt>
      <trkpt lat="59.244866706321" lon="17.920931688556">
        <ele>103.8</ele>
        <time>2016-04-25T19:47:25Z</time>
        <extensions><gpxtpx:TrackPointExtension><gpxtpx:hr>123</gpxtpx:hr></gpxtpx:TrackPointExtension></extensions>
      </trkpt>
      <trkpt lat="59.24485002634" lon="17.921094045959">
        <ele>103.8</ele>
        <time>2016-04-25T19:47:27Z</time>
        <extensions><gpxtpx:TrackPointExtension><gpxtpx:hr>122</gpxtpx:hr></gpxtpx:TrackPointExtension></extensions>
      </trkpt>
      <trkpt lat="59.244847344132" lon="17.921173506371">
        <ele>103.4</ele>
        <time>2016-04-25T19:47:28Z</time>
        <extensions><gpxtpx:TrackPointExtension><gpxtpx:hr>122</gpxtpx:hr></gpxtpx:TrackPointExtension></extensions>
      </trkpt>
      <trkpt lat="59.244863772656" lon="17.921253302059">
        <ele>103</ele>
        <time>2016-04-25T19:47:29Z</time>
        <extensions><gpxtpx:TrackPointExtension><gpxtpx:hr>121</gpxtpx:hr></gpxtpx:TrackPointExtension></extensions>
      </trkpt>
      <trkpt lat="59.244877351334" lon="17.921327733331">
        <ele>102.4</ele>
        <time>2016-04-25T19:47:30Z</time>
        <extensions><gpxtpx:TrackPointExtension><gpxtpx:hr>121</gpxtpx:hr></gpxtpx:TrackPointExtension></extensions>
      </trkpt>
      <trkpt lat="59.244892857849" lon="17.921411384693">
        <ele>102</ele>
        <time>2016-04-25T19:47:31Z</time>
        <extensions><gpxtpx:TrackPointExtension><gpxtpx:hr>120</gpxtpx:hr></gpxtpx:TrackPointExtension></extensions>
      </trkpt>
      <trkpt lat="59.244907190898" lon="17.921495203693">
        <ele>101.6</ele>
        <time>2016-04-25T19:47:32Z</time>
        <extensions><gpxtpx:TrackPointExtension><gpxtpx:hr>120</gpxtpx:hr></gpxtpx:TrackPointExtension></extensions>
      </trkpt>
      <trkpt lat="59.244917416816" lon="17.921571143707">
        <ele>101.2</ele>
        <time>2016-04-25T19:47:33Z</time>
        <extensions><gpxtpx:TrackPointExtension><gpxtpx:hr>120</gpxtpx:hr></gpxtpx:TrackPointExtension></extensions>
      </trkpt>
      <trkpt lat="59.244915153703" lon="17.921629230274">
        <ele>100.6</ele>
        <time>2016-04-25T19:47:34Z</time>
        <extensions><gpxtpx:TrackPointExtension><gpxtpx:hr>120</gpxtpx:hr></gpxtpx:TrackPointExtension></extensions>
      </trkpt>
      <trkpt lat="59.244932252779" lon="17.921666278272">
        <ele>100.2</ele>
        <time>2016-04-25T19:47:35Z</time>
        <extensions><gpxtpx:TrackPointExtension><gpxtpx:hr>120</gpxtpx:hr></gpxtpx:TrackPointExtension></extensions>
      </trkpt>
      <trkpt lat="59.244952201701" lon="17.921693938542">
        <ele>99.8</ele>
        <time>2016-04-25T19:47:36Z</time>
        <extensions><gpxtpx:TrackPointExtension><gpxtpx:hr>120</gpxtpx:hr></gpxtpx:TrackPointExtension></extensions>
      </trkpt>
      <trkpt lat="59.244961086515" lon="17.921733752567">
        <ele>99.2</ele>
        <time>2016-04-25T19:47:37Z</time>
        <extensions><gpxtpx:TrackPointExtension><gpxtpx:hr>121</gpxtpx:hr></gpxtpx:TrackPointExtension></extensions>
      </trkpt>
      <trkpt lat="59.244991009898" lon="17.921842633448">
        <ele>99.2</ele>
        <time>2016-04-25T19:47:39Z</time>
        <extensions><gpxtpx:TrackPointExtension><gpxtpx:hr>120</gpxtpx:hr></gpxtpx:TrackPointExtension></extensions>
      </trkpt>
      <trkpt lat="59.24500760606" lon="17.9219438868">
        <ele>98.8</ele>
        <time>2016-04-25T19:47:41Z</time>
        <extensions><gpxtpx:TrackPointExtension><gpxtpx:hr>120</gpxtpx:hr></gpxtpx:TrackPointExtension></extensions>
      </trkpt>
      <trkpt lat="59.245029315181" lon="17.921984874291">
        <ele>98.2</ele>
        <time>2016-04-25T19:47:42Z</time>
        <extensions><gpxtpx:TrackPointExtension><gpxtpx:hr>120</gpxtpx:hr></gpxtpx:TrackPointExtension></extensions>
      </trkpt>
      <trkpt lat="59.245047671542" lon="17.922031812931">
        <ele>97.8</ele>
        <time>2016-04-25T19:47:43Z</time>
        <extensions><gpxtpx:TrackPointExtension><gpxtpx:hr>119</gpxtpx:hr></gpxtpx:TrackPointExtension></extensions>
      </trkpt>
      <trkpt lat="59.245061334039" lon="17.922066849273">
        <ele>97.4</ele>
        <time>2016-04-25T19:47:44Z</time>
        <extensions><gpxtpx:TrackPointExtension><gpxtpx:hr>119</gpxtpx:hr></gpxtpx:TrackPointExtension></extensions>
      </trkpt>
      <trkpt lat="59.245076002364" lon="17.922106663298">
        <ele>96.6</ele>
        <time>2016-04-25T19:47:45Z</time>
        <extensions><gpxtpx:TrackPointExtension><gpxtpx:hr>119</gpxtpx:hr></gpxtpx:TrackPointExtension></extensions>
      </trkpt>
      <trkpt lat="59.245090251594" lon="17.922167180616">
        <ele>95.2</ele>
        <time>2016-04-25T19:47:46Z</time>
        <extensions><gpxtpx:TrackPointExtension><gpxtpx:hr>119</gpxtpx:hr></gpxtpx:TrackPointExtension></extensions>
      </trkpt>
      <trkpt lat="59.245109194688" lon="17.922227697934">
        <ele>94.6</ele>
        <time>2016-04-25T19:47:47Z</time>
        <extensions><gpxtpx:TrackPointExtension><gpxtpx:hr>119</gpxtpx:hr></gpxtpx:TrackPointExtension></extensions>
      </trkpt>
      <trkpt lat="59.245127131954" lon="17.92227748642">
        <ele>94</ele>
        <time>2016-04-25T19:47:48Z</time>
        <extensions><gpxtpx:TrackPointExtension><gpxtpx:hr>119</gpxtpx:hr></gpxtpx:TrackPointExtension></extensions>
      </trkpt>
      <trkpt lat="59.245145655953" lon="17.922330879123">
        <ele>93.4</ele>
        <time>2016-04-25T19:47:49Z</time>
        <extensions><gpxtpx:TrackPointExtension><gpxtpx:hr>120</gpxtpx:hr></gpxtpx:TrackPointExtension></extensions>
      </trkpt>
      <trkpt lat="59.24515680388" lon="17.922396006486">
        <ele>92.8</ele>
        <time>2016-04-25T19:47:50Z</time>
        <extensions><gpxtpx:TrackPointExtension><gpxtpx:hr>120</gpxtpx:hr></gpxtpx:TrackPointExtension></extensions>
      </trkpt>
      <trkpt lat="59.245170298739" lon="17.922438083624">
        <ele>92.4</ele>
        <time>2016-04-25T19:47:51Z</time>
        <extensions><gpxtpx:TrackPointExtension><gpxtpx:hr>120</gpxtpx:hr></gpxtpx:TrackPointExtension></extensions>
      </trkpt>
      <trkpt lat="59.245184045055" lon="17.922490805775">
        <ele>91.6</ele>
        <time>2016-04-25T19:47:52Z</time>
        <extensions><gpxtpx:TrackPointExtension><gpxtpx:hr>120</gpxtpx:hr></gpxtpx:TrackPointExtension></extensions>
      </trkpt>
      <trkpt lat="59.245195612077" lon="17.922540929537">
        <ele>91</ele>
        <time>2016-04-25T19:47:53Z</time>
        <extensions><gpxtpx:TrackPointExtension><gpxtpx:hr>120</gpxtpx:hr></gpxtpx:TrackPointExtension></extensions>
      </trkpt>
      <trkpt lat="59.245208855479" lon="17.922578731906">
        <ele>90.4</ele>
        <time>2016-04-25T19:47:54Z</time>
        <extensions><gpxtpx:TrackPointExtension><gpxtpx:hr>119</gpxtpx:hr></gpxtpx:TrackPointExtension></extensions>
      </trkpt>
      <trkpt lat="59.245218243207" lon="17.922620473768">
        <ele>89.8</ele>
        <time>2016-04-25T19:47:55Z</time>
        <extensions><gpxtpx:TrackPointExtension><gpxtpx:hr>118</gpxtpx:hr></gpxtpx:TrackPointExtension></extensions>
      </trkpt>
      <trkpt lat="59.245232911532" lon="17.922662299449">
        <ele>89.2</ele>
        <time>2016-04-25T19:47:56Z</time>
        <extensions><gpxtpx:TrackPointExtension><gpxtpx:hr>118</gpxtpx:hr></gpxtpx:TrackPointExtension></extensions>
      </trkpt>
      <trkpt lat="59.245238778862" lon="17.922709405727">
        <ele>88.6</ele>
        <time>2016-04-25T19:47:57Z</time>
        <extensions><gpxtpx:TrackPointExtension><gpxtpx:hr>117</gpxtpx:hr></gpxtpx:TrackPointExtension></extensions>
      </trkpt>
      <trkpt lat="59.245239700871" lon="17.922761708783">
        <ele>88.2</ele>
        <time>2016-04-25T19:47:58Z</time>
        <extensions><gpxtpx:TrackPointExtension><gpxtpx:hr>117</gpxtpx:hr></gpxtpx:TrackPointExtension></extensions>
      </trkpt>
      <trkpt lat="59.245218243207" lon="17.922805127025">
        <ele>87.8</ele>
        <time>2016-04-25T19:47:59Z</time>
        <extensions><gpxtpx:TrackPointExtension><gpxtpx:hr>116</gpxtpx:hr></gpxtpx:TrackPointExtension></extensions>
      </trkpt>
      <trkpt lat="59.245191253489" lon="17.922857178624">
        <ele>87.2</ele>
        <time>2016-04-25T19:48:00Z</time>
        <extensions><gpxtpx:TrackPointExtension><gpxtpx:hr>116</gpxtpx:hr></gpxtpx:TrackPointExtension></extensions>
      </trkpt>
      <trkpt lat="59.245166359246" lon="17.922919120865">
        <ele>86.6</ele>
        <time>2016-04-25T19:48:01Z</time>
        <extensions><gpxtpx:TrackPointExtension><gpxtpx:hr>116</gpxtpx:hr></gpxtpx:TrackPointExtension></extensions>
      </trkpt>
      <trkpt lat="59.245131993456" lon="17.922964131668">
        <ele>86</ele>
        <time>2016-04-25T19:48:02Z</time>
        <extensions><gpxtpx:TrackPointExtension><gpxtpx:hr>115</gpxtpx:hr></gpxtpx:TrackPointExtension></extensions>
      </trkpt>
      <trkpt lat="59.245102992082" lon="17.922989612644">
        <ele>85.4</ele>
        <time>2016-04-25T19:48:03Z</time>
        <extensions><gpxtpx:TrackPointExtension><gpxtpx:hr>115</gpxtpx:hr></gpxtpx:TrackPointExtension></extensions>
      </trkpt>
      <trkpt lat="59.245062004591" lon="17.923040574596">
        <ele>84.8</ele>
        <time>2016-04-25T19:48:04Z</time>
        <extensions><gpxtpx:TrackPointExtension><gpxtpx:hr>115</gpxtpx:hr></gpxtpx:TrackPointExtension></extensions>
      </trkpt>
      <trkpt lat="59.245001906368" lon="17.923079382793">
        <ele>84.4</ele>
        <time>2016-04-25T19:48:05Z</time>
        <extensions><gpxtpx:TrackPointExtension><gpxtpx:hr>116</gpxtpx:hr></gpxtpx:TrackPointExtension></extensions>
      </trkpt>
      <trkpt lat="59.244955889737" lon="17.923138978102">
        <ele>83.8</ele>
        <time>2016-04-25T19:48:06Z</time>
        <extensions><gpxtpx:TrackPointExtension><gpxtpx:hr>116</gpxtpx:hr></gpxtpx:TrackPointExtension></extensions>
      </trkpt>
      <trkpt lat="59.24491372878" lon="17.923202764361">
        <ele>83.2</ele>
        <time>2016-04-25T19:48:07Z</time>
        <extensions><gpxtpx:TrackPointExtension><gpxtpx:hr>116</gpxtpx:hr></gpxtpx:TrackPointExtension></extensions>
      </trkpt>
      <trkpt lat="59.244869639986" lon="17.923269400466">
        <ele>82.8</ele>
        <time>2016-04-25T19:48:08Z</time>
        <extensions><gpxtpx:TrackPointExtension><gpxtpx:hr>117</gpxtpx:hr></gpxtpx:TrackPointExtension></extensions>
      </trkpt>
      <trkpt lat="59.244825215916" lon="17.923350872534">
        <ele>82.2</ele>
        <time>2016-04-25T19:48:09Z</time>
        <extensions><gpxtpx:TrackPointExtension><gpxtpx:hr>117</gpxtpx:hr></gpxtpx:TrackPointExtension></extensions>
      </trkpt>
      <trkpt lat="59.244726225677" lon="17.923484815296">
        <ele>82.2</ele>
        <time>2016-04-25T19:48:11Z</time>
        <extensions><gpxtpx:TrackPointExtension><gpxtpx:hr>118</gpxtpx:hr></gpxtpx:TrackPointExtension></extensions>
      </trkpt>
      <trkpt lat="59.244609130534" lon="17.923629654528">
        <ele>81.6</ele>
        <time>2016-04-25T19:48:13Z</time>
        <extensions><gpxtpx:TrackPointExtension><gpxtpx:hr>119</gpxtpx:hr></gpxtpx:TrackPointExtension></extensions>
      </trkpt>
      <trkpt lat="59.244544254628" lon="17.923696709728">
        <ele>81</ele>
        <time>2016-04-25T19:48:14Z</time>
        <extensions><gpxtpx:TrackPointExtension><gpxtpx:hr>119</gpxtpx:hr></gpxtpx:TrackPointExtension></extensions>
      </trkpt>
      <trkpt lat="59.244481306559" lon="17.923784384402">
        <ele>80.6</ele>
        <time>2016-04-25T19:48:15Z</time>
        <extensions><gpxtpx:TrackPointExtension><gpxtpx:hr>119</gpxtpx:hr></gpxtpx:TrackPointExtension></extensions>
      </trkpt>
      <trkpt lat="59.24441416754" lon="17.923877507311">
        <ele>79.8</ele>
        <time>2016-04-25T19:48:16Z</time>
        <extensions><gpxtpx:TrackPointExtension><gpxtpx:hr>119</gpxtpx:hr></gpxtpx:TrackPointExtension></extensions>
      </trkpt>
      <trkpt lat="59.244355410421" lon="17.923960823397">
        <ele>79.2</ele>
        <time>2016-04-25T19:48:17Z</time>
        <extensions><gpxtpx:TrackPointExtension><gpxtpx:hr>119</gpxtpx:hr></gpxtpx:TrackPointExtension></extensions>
      </trkpt>
      <trkpt lat="59.244302185356" lon="17.924023520009">
        <ele>78.4</ele>
        <time>2016-04-25T19:48:18Z</time>
        <extensions><gpxtpx:TrackPointExtension><gpxtpx:hr>120</gpxtpx:hr></gpxtpx:TrackPointExtension></extensions>
      </trkpt>
      <trkpt lat="59.244252229232" lon="17.924087390087">
        <ele>77.8</ele>
        <time>2016-04-25T19:48:19Z</time>
        <extensions><gpxtpx:TrackPointExtension><gpxtpx:hr>120</gpxtpx:hr></gpxtpx:TrackPointExtension></extensions>
      </trkpt>
      <trkpt lat="59.244209481542" lon="17.924153858554">
        <ele>77</ele>
        <time>2016-04-25T19:48:20Z</time>
        <extensions><gpxtpx:TrackPointExtension><gpxtpx:hr>120</gpxtpx:hr></gpxtpx:TrackPointExtension></extensions>
      </trkpt>
      <trkpt lat="59.244114430796" lon="17.924240946495">
        <ele>77</ele>
        <time>2016-04-25T19:48:22Z</time>
        <extensions><gpxtpx:TrackPointExtension><gpxtpx:hr>116</gpxtpx:hr></gpxtpx:TrackPointExtension></extensions>
      </trkpt>
      <trkpt lat="59.244071264011" lon="17.924284197099">
        <ele>76.6</ele>
        <time>2016-04-25T19:48:23Z</time>
        <extensions><gpxtpx:TrackPointExtension><gpxtpx:hr>115</gpxtpx:hr></gpxtpx:TrackPointExtension></extensions>
      </trkpt>
      <trkpt lat="59.244016362566" lon="17.924335745784">
        <ele>76</ele>
        <time>2016-04-25T19:48:24Z</time>
        <extensions><gpxtpx:TrackPointExtension><gpxtpx:hr>113</gpxtpx:hr></gpxtpx:TrackPointExtension></extensions>
      </trkpt>
      <trkpt lat="59.243965819709" lon="17.924386037184">
        <ele>75.6</ele>
        <time>2016-04-25T19:48:25Z</time>
        <extensions><gpxtpx:TrackPointExtension><gpxtpx:hr>111</gpxtpx:hr></gpxtpx:TrackPointExtension></extensions>
      </trkpt>
      <trkpt lat="59.243919719259" lon="17.924437166774">
        <ele>75</ele>
        <time>2016-04-25T19:48:26Z</time>
        <extensions><gpxtpx:TrackPointExtension><gpxtpx:hr>110</gpxtpx:hr></gpxtpx:TrackPointExtension></extensions>
      </trkpt>
      <trkpt lat="59.24389113698" lon="17.924468263623">
        <ele>74.2</ele>
        <time>2016-04-25T19:48:27Z</time>
        <extensions><gpxtpx:TrackPointExtension><gpxtpx:hr>109</gpxtpx:hr></gpxtpx:TrackPointExtension></extensions>
      </trkpt>
      <trkpt lat="59.243846796729" lon="17.92454311399">
        <ele>73.6</ele>
        <time>2016-04-25T19:48:28Z</time>
        <extensions><gpxtpx:TrackPointExtension><gpxtpx:hr>108</gpxtpx:hr></gpxtpx:TrackPointExtension></extensions>
      </trkpt>
      <trkpt lat="59.243819974649" lon="17.924632297406">
        <ele>73</ele>
        <time>2016-04-25T19:48:29Z</time>
        <extensions><gpxtpx:TrackPointExtension><gpxtpx:hr>108</gpxtpx:hr></gpxtpx:TrackPointExtension></extensions>
      </trkpt>
      <trkpt lat="59.2438056416" lon="17.924693485276">
        <ele>72.4</ele>
        <time>2016-04-25T19:48:30Z</time>
        <extensions><gpxtpx:TrackPointExtension><gpxtpx:hr>109</gpxtpx:hr></gpxtpx:TrackPointExtension></extensions>
      </trkpt>
      <trkpt lat="59.243769096516" lon="17.92487336085">
        <ele>72.4</ele>
        <time>2016-04-25T19:48:32Z</time>
        <extensions><gpxtpx:TrackPointExtension><gpxtpx:hr>111</gpxtpx:hr></gpxtpx:TrackPointExtension></extensions>
      </trkpt>
      <trkpt lat="59.243730455957" lon="17.925052314415">
        <ele>72.4</ele>
        <time>2016-04-25T19:48:34Z</time>
        <extensions><gpxtpx:TrackPointExtension><gpxtpx:hr>113</gpxtpx:hr></gpxtpx:TrackPointExtension></extensions>
      </trkpt>
      <trkpt lat="59.243702963325" lon="17.925231351799">
        <ele>72.4</ele>
        <time>2016-04-25T19:48:36Z</time>
        <extensions><gpxtpx:TrackPointExtension><gpxtpx:hr>116</gpxtpx:hr></gpxtpx:TrackPointExtension></extensions>
      </trkpt>
      <trkpt lat="59.243644792939" lon="17.925555312234">
        <ele>72.4</ele>
        <time>2016-04-25T19:48:39Z</time>
        <extensions><gpxtpx:TrackPointExtension><gpxtpx:hr>117</gpxtpx:hr></gpxtpx:TrackPointExtension></extensions>
      </trkpt>
      <trkpt lat="59.243572289504" lon="17.925988656464">
        <ele>72.4</ele>
        <time>2016-04-25T19:48:43Z</time>
        <extensions><gpxtpx:TrackPointExtension><gpxtpx:hr>117</gpxtpx:hr></gpxtpx:TrackPointExtension></extensions>
      </trkpt>
      <trkpt lat="59.243513197109" lon="17.926184792924">
        <ele>72.4</ele>
        <time>2016-04-25T19:48:45Z</time>
        <extensions><gpxtpx:TrackPointExtension><gpxtpx:hr>117</gpxtpx:hr></gpxtpx:TrackPointExtension></extensions>
      </trkpt>
      <trkpt lat="59.243473131627" lon="17.926316640211">
        <ele>72.4</ele>
        <time>2016-04-25T19:48:46Z</time>
        <extensions><gpxtpx:TrackPointExtension><gpxtpx:hr>118</gpxtpx:hr></gpxtpx:TrackPointExtension></extensions>
      </trkpt>
      <trkpt lat="59.243365675669" lon="17.926605983399">
        <ele>72.4</ele>
        <time>2016-04-25T19:48:49Z</time>
        <extensions><gpxtpx:TrackPointExtension><gpxtpx:hr>117</gpxtpx:hr></gpxtpx:TrackPointExtension></extensions>
      </trkpt>
      <trkpt lat="59.24331697683" lon="17.926776638883">
        <ele>72.4</ele>
        <time>2016-04-25T19:48:51Z</time>
        <extensions><gpxtpx:TrackPointExtension><gpxtpx:hr>117</gpxtpx:hr></gpxtpx:TrackPointExtension></extensions>
      </trkpt>
      <trkpt lat="59.243279174461" lon="17.927105544639">
        <ele>72.4</ele>
        <time>2016-04-25T19:48:54Z</time>
        <extensions><gpxtpx:TrackPointExtension><gpxtpx:hr>117</gpxtpx:hr></gpxtpx:TrackPointExtension></extensions>
      </trkpt>
      <trkpt lat="59.243269619095" lon="17.927200846842">
        <ele>72.4</ele>
        <time>2016-04-25T19:48:55Z</time>
        <extensions><gpxtpx:TrackPointExtension><gpxtpx:hr>116</gpxtpx:hr></gpxtpx:TrackPointExtension></extensions>
      </trkpt>
      <trkpt lat="59.243247071784" lon="17.927580211636">
        <ele>72.4</ele>
        <time>2016-04-25T19:48:59Z</time>
        <extensions><gpxtpx:TrackPointExtension><gpxtpx:hr>113</gpxtpx:hr></gpxtpx:TrackPointExtension></extensions>
      </trkpt>
      <trkpt lat="59.243241623549" lon="17.927656738383">
        <ele>72</ele>
        <time>2016-04-25T19:49:00Z</time>
        <extensions><gpxtpx:TrackPointExtension><gpxtpx:hr>113</gpxtpx:hr></gpxtpx:TrackPointExtension></extensions>
      </trkpt>
      <trkpt lat="59.243248496707" lon="17.927757656459">
        <ele>71.2</ele>
        <time>2016-04-25T19:49:01Z</time>
        <extensions><gpxtpx:TrackPointExtension><gpxtpx:hr>112</gpxtpx:hr></gpxtpx:TrackPointExtension></extensions>
      </trkpt>
      <trkpt lat="59.243250424544" lon="17.927853880671">
        <ele>70.6</ele>
        <time>2016-04-25T19:49:02Z</time>
        <extensions><gpxtpx:TrackPointExtension><gpxtpx:hr>112</gpxtpx:hr></gpxtpx:TrackPointExtension></extensions>
      </trkpt>
      <trkpt lat="59.243255537503" lon="17.92795538548">
        <ele>70.2</ele>
        <time>2016-04-25T19:49:03Z</time>
        <extensions><gpxtpx:TrackPointExtension><gpxtpx:hr>111</gpxtpx:hr></gpxtpx:TrackPointExtension></extensions>
      </trkpt>
      <trkpt lat="59.243264422317" lon="17.928158730374">
        <ele>70.2</ele>
        <time>2016-04-25T19:49:05Z</time>
        <extensions><gpxtpx:TrackPointExtension><gpxtpx:hr>111</gpxtpx:hr></gpxtpx:TrackPointExtension></extensions>
      </trkpt>
      <trkpt lat="59.243272385122" lon="17.928265264323">
        <ele>70.2</ele>
        <time>2016-04-25T19:49:06Z</time>
        <extensions><gpxtpx:TrackPointExtension><gpxtpx:hr>111</gpxtpx:hr></gpxtpx:TrackPointExtension></extensions>
      </trkpt>
      <trkpt lat="59.243295351528" lon="17.928607916395">
        <ele>70.2</ele>
        <time>2016-04-25T19:49:10Z</time>
        <extensions><gpxtpx:TrackPointExtension><gpxtpx:hr>114</gpxtpx:hr></gpxtpx:TrackPointExtension></extensions>
      </trkpt>
      <trkpt lat="59.243306583274" lon="17.928780667354">
        <ele>70.2</ele>
        <time>2016-04-25T19:49:12Z</time>
        <extensions><gpxtpx:TrackPointExtension><gpxtpx:hr>115</gpxtpx:hr></gpxtpx:TrackPointExtension></extensions>
      </trkpt>
      <trkpt lat="59.243304320161" lon="17.92896708081">
        <ele>70.2</ele>
        <time>2016-04-25T19:49:14Z</time>
        <extensions><gpxtpx:TrackPointExtension><gpxtpx:hr>117</gpxtpx:hr></gpxtpx:TrackPointExtension></extensions>
      </trkpt>
      <trkpt lat="59.243277330443" lon="17.929057186235">
        <ele>70.2</ele>
        <time>2016-04-25T19:49:15Z</time>
        <extensions><gpxtpx:TrackPointExtension><gpxtpx:hr>117</gpxtpx:hr></gpxtpx:TrackPointExtension></extensions>
      </trkpt>
      <trkpt lat="59.243175909453" lon="17.929192889196">
        <ele>70.2</ele>
        <time>2016-04-25T19:49:17Z</time>
        <extensions><gpxtpx:TrackPointExtension><gpxtpx:hr>118</gpxtpx:hr></gpxtpx:TrackPointExtension></extensions>
      </trkpt>
      <trkpt lat="59.24309820924" lon="17.929347032337">
        <ele>70.2</ele>
        <time>2016-04-25T19:49:19Z</time>
        <extensions><gpxtpx:TrackPointExtension><gpxtpx:hr>118</gpxtpx:hr></gpxtpx:TrackPointExtension></extensions>
      </trkpt>
      <trkpt lat="59.24304959422" lon="17.929404951266">
        <ele>70.2</ele>
        <time>2016-04-25T19:49:20Z</time>
        <extensions><gpxtpx:TrackPointExtension><gpxtpx:hr>118</gpxtpx:hr></gpxtpx:TrackPointExtension></extensions>
      </trkpt>
      <trkpt lat="59.242992429662" lon="17.929425738378">
        <ele>70.2</ele>
        <time>2016-04-25T19:49:21Z</time>
        <extensions><gpxtpx:TrackPointExtension><gpxtpx:hr>117</gpxtpx:hr></gpxtpx:TrackPointExtension></extensions>
      </trkpt>
      <trkpt lat="59.242796125564" lon="17.929401849963">
        <ele>70.2</ele>
        <time>2016-04-25T19:49:25Z</time>
        <extensions><gpxtpx:TrackPointExtension><gpxtpx:hr>114</gpxtpx:hr></gpxtpx:TrackPointExtension></extensions>
      </trkpt>
      <trkpt lat="59.24275203677" lon="17.929390450579">
        <ele>70.2</ele>
        <time>2016-04-25T19:49:26Z</time>
        <extensions><gpxtpx:TrackPointExtension><gpxtpx:hr>114</gpxtpx:hr></gpxtpx:TrackPointExtension></extensions>
      </trkpt>
      <trkpt lat="59.242599653828" lon="17.92940210142">
        <ele>69.8</ele>
        <time>2016-04-25T19:49:29Z</time>
        <extensions><gpxtpx:TrackPointExtension><gpxtpx:hr>112</gpxtpx:hr></gpxtpx:TrackPointExtension></extensions>
      </trkpt>
      <trkpt lat="59.242540729071" lon="17.929429677871">
        <ele>69.4</ele>
        <time>2016-04-25T19:49:30Z</time>
        <extensions><gpxtpx:TrackPointExtension><gpxtpx:hr>113</gpxtpx:hr></gpxtpx:TrackPointExtension></extensions>
      </trkpt>
      <trkpt lat="59.242484905617" lon="17.929454236838">
        <ele>68.8</ele>
        <time>2016-04-25T19:49:31Z</time>
        <extensions><gpxtpx:TrackPointExtension><gpxtpx:hr>112</gpxtpx:hr></gpxtpx:TrackPointExtension></extensions>
      </trkpt>
      <trkpt lat="59.242419862073" lon="17.929491368655">
        <ele>68.4</ele>
        <time>2016-04-25T19:49:32Z</time>
        <extensions><gpxtpx:TrackPointExtension><gpxtpx:hr>113</gpxtpx:hr></gpxtpx:TrackPointExtension></extensions>
      </trkpt>
      <trkpt lat="59.24235305833" lon="17.929517939278">
        <ele>67.8</ele>
        <time>2016-04-25T19:49:33Z</time>
        <extensions><gpxtpx:TrackPointExtension><gpxtpx:hr>113</gpxtpx:hr></gpxtpx:TrackPointExtension></extensions>
      </trkpt>
      <trkpt lat="59.242277956506" lon="17.929539480761">
        <ele>67.2</ele>
        <time>2016-04-25T19:49:34Z</time>
        <extensions><gpxtpx:TrackPointExtension><gpxtpx:hr>113</gpxtpx:hr></gpxtpx:TrackPointExtension></extensions>
      </trkpt>
      <trkpt lat="59.242202016492" lon="17.929545180453">
        <ele>66.6</ele>
        <time>2016-04-25T19:49:35Z</time>
        <extensions><gpxtpx:TrackPointExtension><gpxtpx:hr>112</gpxtpx:hr></gpxtpx:TrackPointExtension></extensions>
      </trkpt>
      <trkpt lat="59.242130686523" lon="17.929534786897">
        <ele>66</ele>
        <time>2016-04-25T19:49:36Z</time>
        <extensions><gpxtpx:TrackPointExtension><gpxtpx:hr>112</gpxtpx:hr></gpxtpx:TrackPointExtension></extensions>
      </trkpt>
      <trkpt lat="59.242057261079" lon="17.929492290664">
        <ele>65.4</ele>
        <time>2016-04-25T19:49:37Z</time>
        <extensions><gpxtpx:TrackPointExtension><gpxtpx:hr>112</gpxtpx:hr></gpxtpx:TrackPointExtension></extensions>
      </trkpt>
      <trkpt lat="59.241977381572" lon="17.92941802703">
        <ele>64.8</ele>
        <time>2016-04-25T19:49:38Z</time>
        <extensions><gpxtpx:TrackPointExtension><gpxtpx:hr>111</gpxtpx:hr></gpxtpx:TrackPointExtension></extensions>
      </trkpt>
      <trkpt lat="59.241894149305" lon="17.929331777279">
        <ele>64.2</ele>
        <time>2016-04-25T19:49:39Z</time>
        <extensions><gpxtpx:TrackPointExtension><gpxtpx:hr>111</gpxtpx:hr></gpxtpx:TrackPointExtension></extensions>
      </trkpt>
      <trkpt lat="59.241815443264" lon="17.92925374179">
        <ele>63.4</ele>
        <time>2016-04-25T19:49:40Z</time>
        <extensions><gpxtpx:TrackPointExtension><gpxtpx:hr>111</gpxtpx:hr></gpxtpx:TrackPointExtension></extensions>
      </trkpt>
      <trkpt lat="59.241740760535" lon="17.929182914735">
        <ele>62.6</ele>
        <time>2016-04-25T19:49:41Z</time>
        <extensions><gpxtpx:TrackPointExtension><gpxtpx:hr>111</gpxtpx:hr></gpxtpx:TrackPointExtension></extensions>
      </trkpt>
      <trkpt lat="59.241675633172" lon="17.929116781544">
        <ele>62</ele>
        <time>2016-04-25T19:49:42Z</time>
        <extensions><gpxtpx:TrackPointExtension><gpxtpx:hr>110</gpxtpx:hr></gpxtpx:TrackPointExtension></extensions>
      </trkpt>
      <trkpt lat="59.241621234641" lon="17.929058611158">
        <ele>61.2</ele>
        <time>2016-04-25T19:49:43Z</time>
        <extensions><gpxtpx:TrackPointExtension><gpxtpx:hr>110</gpxtpx:hr></gpxtpx:TrackPointExtension></extensions>
      </trkpt>
      <trkpt lat="59.24157018887" lon="17.929009493224">
        <ele>60.4</ele>
        <time>2016-04-25T19:49:44Z</time>
        <extensions><gpxtpx:TrackPointExtension><gpxtpx:hr>110</gpxtpx:hr></gpxtpx:TrackPointExtension></extensions>
      </trkpt>
      <trkpt lat="59.241465750396" lon="17.928924584577">
        <ele>60.4</ele>
        <time>2016-04-25T19:49:47Z</time>
        <extensions><gpxtpx:TrackPointExtension><gpxtpx:hr>109</gpxtpx:hr></gpxtpx:TrackPointExtension></extensions>
      </trkpt>
      <trkpt lat="59.241362988302" lon="17.928980408031">
        <ele>60.4</ele>
        <time>2016-04-25T19:49:51Z</time>
        <extensions><gpxtpx:TrackPointExtension><gpxtpx:hr>108</gpxtpx:hr></gpxtpx:TrackPointExtension></extensions>
      </trkpt>
      <trkpt lat="59.241380590292" lon="17.929147962212">
        <ele>60.4</ele>
        <time>2016-04-25T19:49:53Z</time>
        <extensions><gpxtpx:TrackPointExtension><gpxtpx:hr>109</gpxtpx:hr></gpxtpx:TrackPointExtension></extensions>
      </trkpt>
      <trkpt lat="59.241397270273" lon="17.929238738189">
        <ele>60.4</ele>
        <time>2016-04-25T19:49:54Z</time>
        <extensions><gpxtpx:TrackPointExtension><gpxtpx:hr>110</gpxtpx:hr></gpxtpx:TrackPointExtension></extensions>
      </trkpt>
      <trkpt lat="59.241429289131" lon="17.92948005309">
        <ele>60.4</ele>
        <time>2016-04-25T19:49:56Z</time>
        <extensions><gpxtpx:TrackPointExtension><gpxtpx:hr>113</gpxtpx:hr></gpxtpx:TrackPointExtension></extensions>
      </trkpt>
      <trkpt lat="59.241466672405" lon="17.929711980263">
        <ele>60.4</ele>
        <time>2016-04-25T19:49:58Z</time>
        <extensions><gpxtpx:TrackPointExtension><gpxtpx:hr>116</gpxtpx:hr></gpxtpx:TrackPointExtension></extensions>
      </trkpt>
      <trkpt lat="59.241519646013" lon="17.930086148279">
        <ele>60.4</ele>
        <time>2016-04-25T19:50:01Z</time>
        <extensions><gpxtpx:TrackPointExtension><gpxtpx:hr>119</gpxtpx:hr></gpxtpx:TrackPointExtension></extensions>
      </trkpt>
      <trkpt lat="59.241570691784" lon="17.930484707624">
        <ele>60.4</ele>
        <time>2016-04-25T19:50:04Z</time>
        <extensions><gpxtpx:TrackPointExtension><gpxtpx:hr>121</gpxtpx:hr></gpxtpx:TrackPointExtension></extensions>
      </trkpt>
      <trkpt lat="59.241686864918" lon="17.931138663462">
        <ele>60</ele>
        <time>2016-04-25T19:50:09Z</time>
        <extensions><gpxtpx:TrackPointExtension><gpxtpx:hr>123</gpxtpx:hr></gpxtpx:TrackPointExtension></extensions>
      </trkpt>
      <trkpt lat="59.241705472736" lon="17.931272606224">
        <ele>59.6</ele>
        <time>2016-04-25T19:50:10Z</time>
        <extensions><gpxtpx:TrackPointExtension><gpxtpx:hr>124</gpxtpx:hr></gpxtpx:TrackPointExtension></extensions>
      </trkpt>
      <trkpt lat="59.241722404174" lon="17.931403112407">
        <ele>59.2</ele>
        <time>2016-04-25T19:50:11Z</time>
        <extensions><gpxtpx:TrackPointExtension><gpxtpx:hr>124</gpxtpx:hr></gpxtpx:TrackPointExtension></extensions>
      </trkpt>
      <trkpt lat="59.241737323956" lon="17.931537893359">
        <ele>58.8</ele>
        <time>2016-04-25T19:50:12Z</time>
        <extensions><gpxtpx:TrackPointExtension><gpxtpx:hr>125</gpxtpx:hr></gpxtpx:TrackPointExtension></extensions>
      </trkpt>
      <trkpt lat="59.241747968969" lon="17.931674685967">
        <ele>58.4</ele>
        <time>2016-04-25T19:50:13Z</time>
        <extensions><gpxtpx:TrackPointExtension><gpxtpx:hr>125</gpxtpx:hr></gpxtpx:TrackPointExtension></extensions>
      </trkpt>
      <trkpt lat="59.241765235683" lon="17.931959083834">
        <ele>58.4</ele>
        <time>2016-04-25T19:50:15Z</time>
        <extensions><gpxtpx:TrackPointExtension><gpxtpx:hr>126</gpxtpx:hr></gpxtpx:TrackPointExtension></extensions>
      </trkpt>
      <trkpt lat="59.241775629239" lon="17.93281772567">
        <ele>58.4</ele>
        <time>2016-04-25T19:50:21Z</time>
        <extensions><gpxtpx:TrackPointExtension><gpxtpx:hr>126</gpxtpx:hr></gpxtpx:TrackPointExtension></extensions>
      </trkpt>
      <trkpt lat="59.241796164894" lon="17.93362406445">
        <ele>58.4</ele>
        <time>2016-04-25T19:50:27Z</time>
        <extensions><gpxtpx:TrackPointExtension><gpxtpx:hr>125</gpxtpx:hr></gpxtpx:TrackPointExtension></extensions>
      </trkpt>
      <trkpt lat="59.241815024169" lon="17.934366868428">
        <ele>58.4</ele>
        <time>2016-04-25T19:50:33Z</time>
        <extensions><gpxtpx:TrackPointExtension><gpxtpx:hr>125</gpxtpx:hr></gpxtpx:TrackPointExtension></extensions>
      </trkpt>
      <trkpt lat="59.241815191807" lon="17.935078491738">
        <ele>58.4</ele>
        <time>2016-04-25T19:50:39Z</time>
        <extensions><gpxtpx:TrackPointExtension><gpxtpx:hr>123</gpxtpx:hr></gpxtpx:TrackPointExtension></extensions>
      </trkpt>
      <trkpt lat="59.241803038052" lon="17.93519734708">
        <ele>58.4</ele>
        <time>2016-04-25T19:50:40Z</time>
        <extensions><gpxtpx:TrackPointExtension><gpxtpx:hr>122</gpxtpx:hr></gpxtpx:TrackPointExtension></extensions>
      </trkpt>
      <trkpt lat="59.241707232935" lon="17.935604958877">
        <ele>58.4</ele>
        <time>2016-04-25T19:50:44Z</time>
        <extensions><gpxtpx:TrackPointExtension><gpxtpx:hr>121</gpxtpx:hr></gpxtpx:TrackPointExtension></extensions>
      </trkpt>
      <trkpt lat="59.241485783137" lon="17.935975941771">
        <ele>58.4</ele>
        <time>2016-04-25T19:50:49Z</time>
        <extensions><gpxtpx:TrackPointExtension><gpxtpx:hr>122</gpxtpx:hr></gpxtpx:TrackPointExtension></extensions>
      </trkpt>
      <trkpt lat="59.241434569728" lon="17.936055988916">
        <ele>58.4</ele>
        <time>2016-04-25T19:50:50Z</time>
        <extensions><gpxtpx:TrackPointExtension><gpxtpx:hr>123</gpxtpx:hr></gpxtpx:TrackPointExtension></extensions>
      </trkpt>
      <trkpt lat="59.241148663119" lon="17.936485896567">
        <ele>58.4</ele>
        <time>2016-04-25T19:50:56Z</time>
        <extensions><gpxtpx:TrackPointExtension><gpxtpx:hr>123</gpxtpx:hr></gpxtpx:TrackPointExtension></extensions>
      </trkpt>
      <trkpt lat="59.240839119552" lon="17.936973220233">
        <ele>58.4</ele>
        <time>2016-04-25T19:51:02Z</time>
        <extensions><gpxtpx:TrackPointExtension><gpxtpx:hr>126</gpxtpx:hr></gpxtpx:TrackPointExtension></extensions>
      </trkpt>
      <trkpt lat="59.240728059377" lon="17.937139014215">
        <ele>58</ele>
        <time>2016-04-25T19:51:04Z</time>
        <extensions><gpxtpx:TrackPointExtension><gpxtpx:hr>127</gpxtpx:hr></gpxtpx:TrackPointExtension></extensions>
      </trkpt>
      <trkpt lat="59.240670811" lon="17.937218809903">
        <ele>57.6</ele>
        <time>2016-04-25T19:51:05Z</time>
        <extensions><gpxtpx:TrackPointExtension><gpxtpx:hr>127</gpxtpx:hr></gpxtpx:TrackPointExtension></extensions>
      </trkpt>
      <trkpt lat="59.240611970062" lon="17.937296426297">
        <ele>57</ele>
        <time>2016-04-25T19:51:06Z</time>
        <extensions><gpxtpx:TrackPointExtension><gpxtpx:hr>127</gpxtpx:hr></gpxtpx:TrackPointExtension></extensions>
      </trkpt>
      <trkpt lat="59.240553296762" lon="17.93737831746">
        <ele>56.6</ele>
        <time>2016-04-25T19:51:07Z</time>
        <extensions><gpxtpx:TrackPointExtension><gpxtpx:hr>128</gpxtpx:hr></gpxtpx:TrackPointExtension></extensions>
      </trkpt>
      <trkpt lat="59.240497138032" lon="17.937464818668">
        <ele>56.2</ele>
        <time>2016-04-25T19:51:08Z</time>
        <extensions><gpxtpx:TrackPointExtension><gpxtpx:hr>128</gpxtpx:hr></gpxtpx:TrackPointExtension></extensions>
      </trkpt>
      <trkpt lat="59.24032212396" lon="17.937736308409">
        <ele>56.2</ele>
        <time>2016-04-25T19:51:11Z</time>
        <extensions><gpxtpx:TrackPointExtension><gpxtpx:hr>127</gpxtpx:hr></gpxtpx:TrackPointExtension></extensions>
      </trkpt>
      <trkpt lat="59.240053986979" lon="17.938233355079">
        <ele>56.2</ele>
        <time>2016-04-25T19:51:16Z</time>
        <extensions><gpxtpx:TrackPointExtension><gpxtpx:hr>125</gpxtpx:hr></gpxtpx:TrackPointExtension></extensions>
      </trkpt>
      <trkpt lat="59.240011574565" lon="17.938351623688">
        <ele>56.2</ele>
        <time>2016-04-25T19:51:17Z</time>
        <extensions><gpxtpx:TrackPointExtension><gpxtpx:hr>125</gpxtpx:hr></gpxtpx:TrackPointExtension></extensions>
      </trkpt>
      <trkpt lat="59.239926749737" lon="17.938749763938">
        <ele>56.2</ele>
        <time>2016-04-25T19:51:20Z</time>
        <extensions><gpxtpx:TrackPointExtension><gpxtpx:hr>126</gpxtpx:hr></gpxtpx:TrackPointExtension></extensions>
      </trkpt>
      <trkpt lat="59.239905292073" lon="17.938882533234">
        <ele>56.2</ele>
        <time>2016-04-25T19:51:21Z</time>
        <extensions><gpxtpx:TrackPointExtension><gpxtpx:hr>125</gpxtpx:hr></gpxtpx:TrackPointExtension></extensions>
      </trkpt>
      <trkpt lat="59.239868914627" lon="17.939283188054">
        <ele>56.2</ele>
        <time>2016-04-25T19:51:24Z</time>
        <extensions><gpxtpx:TrackPointExtension><gpxtpx:hr>126</gpxtpx:hr></gpxtpx:TrackPointExtension></extensions>
      </trkpt>
      <trkpt lat="59.239793309889" lon="17.940339726549">
        <ele>56.2</ele>
        <time>2016-04-25T19:51:32Z</time>
        <extensions><gpxtpx:TrackPointExtension><gpxtpx:hr>127</gpxtpx:hr></gpxtpx:TrackPointExtension></extensions>
      </trkpt>
      <trkpt lat="59.239747712353" lon="17.940857979426">
        <ele>56.2</ele>
        <time>2016-04-25T19:51:36Z</time>
        <extensions><gpxtpx:TrackPointExtension><gpxtpx:hr>130</gpxtpx:hr></gpxtpx:TrackPointExtension></extensions>
      </trkpt>
      <trkpt lat="59.23973622915" lon="17.940988904704">
        <ele>56.2</ele>
        <time>2016-04-25T19:51:37Z</time>
        <extensions><gpxtpx:TrackPointExtension><gpxtpx:hr>131</gpxtpx:hr></gpxtpx:TrackPointExtension></extensions>
      </trkpt>
      <trkpt lat="59.23968426137" lon="17.941372460448">
        <ele>56.2</ele>
        <time>2016-04-25T19:51:40Z</time>
        <extensions><gpxtpx:TrackPointExtension><gpxtpx:hr>134</gpxtpx:hr></gpxtpx:TrackPointExtension></extensions>
      </trkpt>
      <trkpt lat="59.239647548648" lon="17.941621654335">
        <ele>56.2</ele>
        <time>2016-04-25T19:51:42Z</time>
        <extensions><gpxtpx:TrackPointExtension><gpxtpx:hr>135</gpxtpx:hr></gpxtpx:TrackPointExtension></extensions>
      </trkpt>
      <trkpt lat="59.239598263076" lon="17.941865651444">
        <ele>56.2</ele>
        <time>2016-04-25T19:51:44Z</time>
        <extensions><gpxtpx:TrackPointExtension><gpxtpx:hr>137</gpxtpx:hr></gpxtpx:TrackPointExtension></extensions>
      </trkpt>
      <trkpt lat="59.239486867625" lon="17.942183493092">
        <ele>56.6</ele>
        <time>2016-04-25T19:51:47Z</time>
        <extensions><gpxtpx:TrackPointExtension><gpxtpx:hr>138</gpxtpx:hr></gpxtpx:TrackPointExtension></extensions>
      </trkpt>
      <trkpt lat="59.23944202446" lon="17.942260690391">
        <ele>57</ele>
        <time>2016-04-25T19:51:48Z</time>
        <extensions><gpxtpx:TrackPointExtension><gpxtpx:hr>139</gpxtpx:hr></gpxtpx:TrackPointExtension></extensions>
      </trkpt>
      <trkpt lat="59.239391565422" lon="17.942335959853">
        <ele>57.4</ele>
        <time>2016-04-25T19:51:49Z</time>
        <extensions><gpxtpx:TrackPointExtension><gpxtpx:hr>139</gpxtpx:hr></gpxtpx:TrackPointExtension></extensions>
      </trkpt>
      <trkpt lat="59.239341860755" lon="17.942411313134">
        <ele>57.8</ele>
        <time>2016-04-25T19:51:50Z</time>
        <extensions><gpxtpx:TrackPointExtension><gpxtpx:hr>139</gpxtpx:hr></gpxtpx:TrackPointExtension></extensions>
      </trkpt>
      <trkpt lat="59.239288468052" lon="17.942476105221">
        <ele>58.2</ele>
        <time>2016-04-25T19:51:51Z</time>
        <extensions><gpxtpx:TrackPointExtension><gpxtpx:hr>140</gpxtpx:hr></gpxtpx:TrackPointExtension></extensions>
      </trkpt>
      <trkpt lat="59.23923080058" lon="17.942531928675">
        <ele>58.2</ele>
        <time>2016-04-25T19:51:52Z</time>
        <extensions><gpxtpx:TrackPointExtension><gpxtpx:hr>140</gpxtpx:hr></gpxtpx:TrackPointExtension></extensions>
      </trkpt>
      <trkpt lat="59.238992838439" lon="17.94266561998">
        <ele>58.2</ele>
        <time>2016-04-25T19:51:56Z</time>
        <extensions><gpxtpx:TrackPointExtension><gpxtpx:hr>141</gpxtpx:hr></gpxtpx:TrackPointExtension></extensions>
      </trkpt>
      <trkpt lat="59.238936260614" lon="17.942693196431">
        <ele>58.2</ele>
        <time>2016-04-25T19:51:57Z</time>
        <extensions><gpxtpx:TrackPointExtension><gpxtpx:hr>141</gpxtpx:hr></gpxtpx:TrackPointExtension></extensions>
      </trkpt>
      <trkpt lat="59.238725036734" lon="17.942829150849">
        <ele>58.2</ele>
        <time>2016-04-25T19:52:01Z</time>
        <extensions><gpxtpx:TrackPointExtension><gpxtpx:hr>143</gpxtpx:hr></gpxtpx:TrackPointExtension></extensions>
      </trkpt>
      <trkpt lat="59.23862814197" lon="17.94297072114">
        <ele>58.2</ele>
        <time>2016-04-25T19:52:03Z</time>
        <extensions><gpxtpx:TrackPointExtension><gpxtpx:hr>144</gpxtpx:hr></gpxtpx:TrackPointExtension></extensions>
      </trkpt>
      <trkpt lat="59.238585142823" lon="17.943044817136">
        <ele>58.6</ele>
        <time>2016-04-25T19:52:04Z</time>
        <extensions><gpxtpx:TrackPointExtension><gpxtpx:hr>145</gpxtpx:hr></gpxtpx:TrackPointExtension></extensions>
      </trkpt>
      <trkpt lat="59.238542981866" lon="17.943121762978">
        <ele>59.2</ele>
        <time>2016-04-25T19:52:05Z</time>
        <extensions><gpxtpx:TrackPointExtension><gpxtpx:hr>146</gpxtpx:hr></gpxtpx:TrackPointExtension></extensions>
      </trkpt>
      <trkpt lat="59.238500653271" lon="17.943207342177">
        <ele>59.6</ele>
        <time>2016-04-25T19:52:06Z</time>
        <extensions><gpxtpx:TrackPointExtension><gpxtpx:hr>146</gpxtpx:hr></gpxtpx:TrackPointExtension></extensions>
      </trkpt>
      <trkpt lat="59.238462599445" lon="17.943296609412">
        <ele>60</ele>
        <time>2016-04-25T19:52:07Z</time>
        <extensions><gpxtpx:TrackPointExtension><gpxtpx:hr>147</gpxtpx:hr></gpxtpx:TrackPointExtension></extensions>
      </trkpt>
      <trkpt lat="59.238429239483" lon="17.943391995434">
        <ele>60.4</ele>
        <time>2016-04-25T19:52:08Z</time>
        <extensions><gpxtpx:TrackPointExtension><gpxtpx:hr>147</gpxtpx:hr></gpxtpx:TrackPointExtension></extensions>
      </trkpt>
      <trkpt lat="59.238316419109" lon="17.943675136016">
        <ele>60.4</ele>
        <time>2016-04-25T19:52:11Z</time>
        <extensions><gpxtpx:TrackPointExtension><gpxtpx:hr>149</gpxtpx:hr></gpxtpx:TrackPointExtension></extensions>
      </trkpt>
      <trkpt lat="59.238285489898" lon="17.943775467359">
        <ele>60.4</ele>
        <time>2016-04-25T19:52:12Z</time>
        <extensions><gpxtpx:TrackPointExtension><gpxtpx:hr>149</gpxtpx:hr></gpxtpx:TrackPointExtension></extensions>
      </trkpt>
      <trkpt lat="59.238227822426" lon="17.943990882189">
        <ele>60.4</ele>
        <time>2016-04-25T19:52:14Z</time>
        <extensions><gpxtpx:TrackPointExtension><gpxtpx:hr>150</gpxtpx:hr></gpxtpx:TrackPointExtension></extensions>
      </trkpt>
      <trkpt lat="59.23818390127" lon="17.944204955915">
        <ele>60.8</ele>
        <time>2016-04-25T19:52:16Z</time>
        <extensions><gpxtpx:TrackPointExtension><gpxtpx:hr>151</gpxtpx:hr></gpxtpx:TrackPointExtension></extensions>
      </trkpt>
      <trkpt lat="59.238169065307" lon="17.944309729665">
        <ele>61.2</ele>
        <time>2016-04-25T19:52:17Z</time>
        <extensions><gpxtpx:TrackPointExtension><gpxtpx:hr>151</gpxtpx:hr></gpxtpx:TrackPointExtension></extensions>
      </trkpt>
      <trkpt lat="59.238153810249" lon="17.944417520899">
        <ele>62</ele>
        <time>2016-04-25T19:52:18Z</time>
        <extensions><gpxtpx:TrackPointExtension><gpxtpx:hr>152</gpxtpx:hr></gpxtpx:TrackPointExtension></extensions>
      </trkpt>
      <trkpt lat="59.2381394772" lon="17.944521037364">
        <ele>62.6</ele>
        <time>2016-04-25T19:52:19Z</time>
        <extensions><gpxtpx:TrackPointExtension><gpxtpx:hr>152</gpxtpx:hr></gpxtpx:TrackPointExtension></extensions>
      </trkpt>
      <trkpt lat="59.238072589638" lon="17.944936528147">
        <ele>62.6</ele>
        <time>2016-04-25T19:52:23Z</time>
        <extensions><gpxtpx:TrackPointExtension><gpxtpx:hr>153</gpxtpx:hr></gpxtpx:TrackPointExtension></extensions>
      </trkpt>
      <trkpt lat="59.238054317096" lon="17.945042978277">
        <ele>63</ele>
        <time>2016-04-25T19:52:24Z</time>
        <extensions><gpxtpx:TrackPointExtension><gpxtpx:hr>153</gpxtpx:hr></gpxtpx:TrackPointExtension></extensions>
      </trkpt>
      <trkpt lat="59.238036044554" lon="17.945153032624">
        <ele>63.4</ele>
        <time>2016-04-25T19:52:25Z</time>
        <extensions><gpxtpx:TrackPointExtension><gpxtpx:hr>152</gpxtpx:hr></gpxtpx:TrackPointExtension></extensions>
      </trkpt>
      <trkpt lat="59.238015592718" lon="17.945271636509">
        <ele>63.8</ele>
        <time>2016-04-25T19:52:26Z</time>
        <extensions><gpxtpx:TrackPointExtension><gpxtpx:hr>152</gpxtpx:hr></gpxtpx:TrackPointExtension></extensions>
      </trkpt>
      <trkpt lat="59.237994386511" lon="17.945386552358">
        <ele>64.2</ele>
        <time>2016-04-25T19:52:27Z</time>
        <extensions><gpxtpx:TrackPointExtension><gpxtpx:hr>152</gpxtpx:hr></gpxtpx:TrackPointExtension></extensions>
      </trkpt>
      <trkpt lat="59.237969911363" lon="17.945503228406">
        <ele>64.6</ele>
        <time>2016-04-25T19:52:28Z</time>
        <extensions><gpxtpx:TrackPointExtension><gpxtpx:hr>152</gpxtpx:hr></gpxtpx:TrackPointExtension></extensions>
      </trkpt>
      <trkpt lat="59.237915009918" lon="17.945731216086">
        <ele>64.6</ele>
        <time>2016-04-25T19:52:30Z</time>
        <extensions><gpxtpx:TrackPointExtension><gpxtpx:hr>151</gpxtpx:hr></gpxtpx:TrackPointExtension></extensions>
      </trkpt>
      <trkpt lat="59.237847954718" lon="17.945956521558">
        <ele>64.2</ele>
        <time>2016-04-25T19:52:32Z</time>
        <extensions><gpxtpx:TrackPointExtension><gpxtpx:hr>150</gpxtpx:hr></gpxtpx:TrackPointExtension></extensions>
      </trkpt>
      <trkpt lat="59.237812080186" lon="17.946070934493">
        <ele>63.8</ele>
        <time>2016-04-25T19:52:33Z</time>
        <extensions><gpxtpx:TrackPointExtension><gpxtpx:hr>149</gpxtpx:hr></gpxtpx:TrackPointExtension></extensions>
      </trkpt>
      <trkpt lat="59.237776792387" lon="17.946194483699">
        <ele>63.4</ele>
        <time>2016-04-25T19:52:34Z</time>
        <extensions><gpxtpx:TrackPointExtension><gpxtpx:hr>149</gpxtpx:hr></gpxtpx:TrackPointExtension></extensions>
      </trkpt>
      <trkpt lat="59.237741588407" lon="17.94631929019">
        <ele>63</ele>
        <time>2016-04-25T19:52:35Z</time>
        <extensions><gpxtpx:TrackPointExtension><gpxtpx:hr>148</gpxtpx:hr></gpxtpx:TrackPointExtension></extensions>
      </trkpt>
      <trkpt lat="59.237705881513" lon="17.946433619306">
        <ele>62.6</ele>
        <time>2016-04-25T19:52:36Z</time>
        <extensions><gpxtpx:TrackPointExtension><gpxtpx:hr>147</gpxtpx:hr></gpxtpx:TrackPointExtension></extensions>
      </trkpt>
      <trkpt lat="59.237629270947" lon="17.946655991113">
        <ele>62.6</ele>
        <time>2016-04-25T19:52:38Z</time>
        <extensions><gpxtpx:TrackPointExtension><gpxtpx:hr>144</gpxtpx:hr></gpxtpx:TrackPointExtension></extensions>
      </trkpt>
      <trkpt lat="59.237551151639" lon="17.946864448966">
        <ele>62.6</ele>
        <time>2016-04-25T19:52:40Z</time>
        <extensions><gpxtpx:TrackPointExtension><gpxtpx:hr>142</gpxtpx:hr></gpxtpx:TrackPointExtension></extensions>
      </trkpt>
      <trkpt lat="59.237510918519" lon="17.946967462517">
        <ele>62.2</ele>
        <time>2016-04-25T19:52:41Z</time>
        <extensions><gpxtpx:TrackPointExtension><gpxtpx:hr>140</gpxtpx:hr></gpxtpx:TrackPointExtension></extensions>
      </trkpt>
      <trkpt lat="59.237474289616" lon="17.947066452756">
        <ele>61.8</ele>
        <time>2016-04-25T19:52:42Z</time>
        <extensions><gpxtpx:TrackPointExtension><gpxtpx:hr>139</gpxtpx:hr></gpxtpx:TrackPointExtension></extensions>
      </trkpt>
      <trkpt lat="59.237437995989" lon="17.947165107719">
        <ele>60.8</ele>
        <time>2016-04-25T19:52:43Z</time>
        <extensions><gpxtpx:TrackPointExtension><gpxtpx:hr>139</gpxtpx:hr></gpxtpx:TrackPointExtension></extensions>
      </trkpt>
      <trkpt lat="59.237402372914" lon="17.947257560076">
        <ele>60.4</ele>
        <time>2016-04-25T19:52:44Z</time>
        <extensions><gpxtpx:TrackPointExtension><gpxtpx:hr>138</gpxtpx:hr></gpxtpx:TrackPointExtension></extensions>
      </trkpt>
      <trkpt lat="59.237282176468" lon="17.947509100895">
        <ele>60.4</ele>
        <time>2016-04-25T19:52:47Z</time>
        <extensions><gpxtpx:TrackPointExtension><gpxtpx:hr>137</gpxtpx:hr></gpxtpx:TrackPointExtension></extensions>
      </trkpt>
      <trkpt lat="59.237229957231" lon="17.947554195517">
        <ele>60.4</ele>
        <time>2016-04-25T19:52:48Z</time>
        <extensions><gpxtpx:TrackPointExtension><gpxtpx:hr>136</gpxtpx:hr></gpxtpx:TrackPointExtension></extensions>
      </trkpt>
      <trkpt lat="59.237169942827" lon="17.947540700658">
        <ele>60.4</ele>
        <time>2016-04-25T19:52:49Z</time>
        <extensions><gpxtpx:TrackPointExtension><gpxtpx:hr>136</gpxtpx:hr></gpxtpx:TrackPointExtension></extensions>
      </trkpt>
      <trkpt lat="59.236960730603" lon="17.947297960834">
        <ele>60.4</ele>
        <time>2016-04-25T19:52:53Z</time>
        <extensions><gpxtpx:TrackPointExtension><gpxtpx:hr>134</gpxtpx:hr></gpxtpx:TrackPointExtension></extensions>
      </trkpt>
      <trkpt lat="59.236674069623" lon="17.946979280996">
        <ele>60.4</ele>
        <time>2016-04-25T19:52:58Z</time>
        <extensions><gpxtpx:TrackPointExtension><gpxtpx:hr>135</gpxtpx:hr></gpxtpx:TrackPointExtension></extensions>
      </trkpt>
      <trkpt lat="59.236611373011" lon="17.946938964057">
        <ele>60.4</ele>
        <time>2016-04-25T19:52:59Z</time>
        <extensions><gpxtpx:TrackPointExtension><gpxtpx:hr>134</gpxtpx:hr></gpxtpx:TrackPointExtension></extensions>
      </trkpt>
      <trkpt lat="59.236418840768" lon="17.946879368748">
        <ele>60.4</ele>
        <time>2016-04-25T19:53:02Z</time>
        <extensions><gpxtpx:TrackPointExtension><gpxtpx:hr>135</gpxtpx:hr></gpxtpx:TrackPointExtension></extensions>
      </trkpt>
      <trkpt lat="59.236353629586" lon="17.946872411771">
        <ele>60.4</ele>
        <time>2016-04-25T19:53:03Z</time>
        <extensions><gpxtpx:TrackPointExtension><gpxtpx:hr>134</gpxtpx:hr></gpxtpx:TrackPointExtension></extensions>
      </trkpt>
      <trkpt lat="59.236290597698" lon="17.946877608549">
        <ele>60.4</ele>
        <time>2016-04-25T19:53:04Z</time>
        <extensions><gpxtpx:TrackPointExtension><gpxtpx:hr>134</gpxtpx:hr></gpxtpx:TrackPointExtension></extensions>
      </trkpt>
      <trkpt lat="59.236104770975" lon="17.946970396182">
        <ele>60.4</ele>
        <time>2016-04-25T19:53:07Z</time>
        <extensions><gpxtpx:TrackPointExtension><gpxtpx:hr>133</gpxtpx:hr></gpxtpx:TrackPointExtension></extensions>
      </trkpt>
      <trkpt lat="59.235979796846" lon="17.947058238494">
        <ele>60.4</ele>
        <time>2016-04-25T19:53:09Z</time>
        <extensions><gpxtpx:TrackPointExtension><gpxtpx:hr>133</gpxtpx:hr></gpxtpx:TrackPointExtension></extensions>
      </trkpt>
      <trkpt lat="59.235815343968" lon="17.947258314447">
        <ele>60.4</ele>
        <time>2016-04-25T19:53:12Z</time>
        <extensions><gpxtpx:TrackPointExtension><gpxtpx:hr>131</gpxtpx:hr></gpxtpx:TrackPointExtension></extensions>
      </trkpt>
      <trkpt lat="59.235777290142" lon="17.947320340507">
        <ele>60.4</ele>
        <time>2016-04-25T19:53:13Z</time>
        <extensions><gpxtpx:TrackPointExtension><gpxtpx:hr>131</gpxtpx:hr></gpxtpx:TrackPointExtension></extensions>
      </trkpt>
      <trkpt lat="59.235746109474" lon="17.947390916105">
        <ele>60.4</ele>
        <time>2016-04-25T19:53:14Z</time>
        <extensions><gpxtpx:TrackPointExtension><gpxtpx:hr>130</gpxtpx:hr></gpxtpx:TrackPointExtension></extensions>
      </trkpt>
      <trkpt lat="59.235666649062" lon="17.947526535247">
        <ele>60.4</ele>
        <time>2016-04-25T19:53:16Z</time>
        <extensions><gpxtpx:TrackPointExtension><gpxtpx:hr>127</gpxtpx:hr></gpxtpx:TrackPointExtension></extensions>
      </trkpt>
      <trkpt lat="59.23555030829" lon="17.947614712835">
        <ele>60.4</ele>
        <time>2016-04-25T19:53:18Z</time>
        <extensions><gpxtpx:TrackPointExtension><gpxtpx:hr>126</gpxtpx:hr></gpxtpx:TrackPointExtension></extensions>
      </trkpt>
      <trkpt lat="59.235410498198" lon="17.947684031148">
        <ele>60.4</ele>
        <time>2016-04-25T19:53:20Z</time>
        <extensions><gpxtpx:TrackPointExtension><gpxtpx:hr>125</gpxtpx:hr></gpxtpx:TrackPointExtension></extensions>
      </trkpt>
      <trkpt lat="59.235336821297" lon="17.947705488812">
        <ele>60</ele>
        <time>2016-04-25T19:53:21Z</time>
        <extensions><gpxtpx:TrackPointExtension><gpxtpx:hr>124</gpxtpx:hr></gpxtpx:TrackPointExtension></extensions>
      </trkpt>
      <trkpt lat="59.235260881283" lon="17.947722755526">
        <ele>59.4</ele>
        <time>2016-04-25T19:53:22Z</time>
        <extensions><gpxtpx:TrackPointExtension><gpxtpx:hr>124</gpxtpx:hr></gpxtpx:TrackPointExtension></extensions>
      </trkpt>
      <trkpt lat="59.235183767803" lon="17.947738848774">
        <ele>59</ele>
        <time>2016-04-25T19:53:23Z</time>
        <extensions><gpxtpx:TrackPointExtension><gpxtpx:hr>124</gpxtpx:hr></gpxtpx:TrackPointExtension></extensions>
      </trkpt>
      <trkpt lat="59.235105983771" lon="17.947754942022">
        <ele>58.4</ele>
        <time>2016-04-25T19:53:24Z</time>
        <extensions><gpxtpx:TrackPointExtension><gpxtpx:hr>123</gpxtpx:hr></gpxtpx:TrackPointExtension></extensions>
      </trkpt>
      <trkpt lat="59.235027864463" lon="17.947768269243">
        <ele>58</ele>
        <time>2016-04-25T19:53:25Z</time>
        <extensions><gpxtpx:TrackPointExtension><gpxtpx:hr>123</gpxtpx:hr></gpxtpx:TrackPointExtension></extensions>
      </trkpt>
      <trkpt lat="59.234953097915" lon="17.947779752446">
        <ele>57.4</ele>
        <time>2016-04-25T19:53:26Z</time>
        <extensions><gpxtpx:TrackPointExtension><gpxtpx:hr>122</gpxtpx:hr></gpxtpx:TrackPointExtension></extensions>
      </trkpt>
      <trkpt lat="59.234875230064" lon="17.947790565097">
        <ele>56.8</ele>
        <time>2016-04-25T19:53:27Z</time>
        <extensions><gpxtpx:TrackPointExtension><gpxtpx:hr>122</gpxtpx:hr></gpxtpx:TrackPointExtension></extensions>
      </trkpt>
      <trkpt lat="59.234803900095" lon="17.947806825983">
        <ele>56.4</ele>
        <time>2016-04-25T19:53:28Z</time>
        <extensions><gpxtpx:TrackPointExtension><gpxtpx:hr>121</gpxtpx:hr></gpxtpx:TrackPointExtension></extensions>
      </trkpt>
      <trkpt lat="59.2347364258" lon="17.947823254507">
        <ele>55.8</ele>
        <time>2016-04-25T19:53:29Z</time>
        <extensions><gpxtpx:TrackPointExtension><gpxtpx:hr>120</gpxtpx:hr></gpxtpx:TrackPointExtension></extensions>
      </trkpt>
      <trkpt lat="59.234514473088" lon="17.94786239798">
        <ele>55.8</ele>
        <time>2016-04-25T19:53:32Z</time>
        <extensions><gpxtpx:TrackPointExtension><gpxtpx:hr>121</gpxtpx:hr></gpxtpx:TrackPointExtension></extensions>
      </trkpt>
      <trkpt lat="59.234268212866" lon="17.947903888385">
        <ele>55.8</ele>
        <time>2016-04-25T19:53:35Z</time>
        <extensions><gpxtpx:TrackPointExtension><gpxtpx:hr>125</gpxtpx:hr></gpxtpx:TrackPointExtension></extensions>
      </trkpt>
      <trkpt lat="59.234189339187" lon="17.947900284168">
        <ele>55.4</ele>
        <time>2016-04-25T19:53:36Z</time>
        <extensions><gpxtpx:TrackPointExtension><gpxtpx:hr>125</gpxtpx:hr></gpxtpx:TrackPointExtension></extensions>
      </trkpt>
      <trkpt lat="59.234110716965" lon="17.947897099046">
        <ele>55</ele>
        <time>2016-04-25T19:53:37Z</time>
        <extensions><gpxtpx:TrackPointExtension><gpxtpx:hr>126</gpxtpx:hr></gpxtpx:TrackPointExtension></extensions>
      </trkpt>
      <trkpt lat="59.234033016752" lon="17.94789508739">
        <ele>54.4</ele>
        <time>2016-04-25T19:53:38Z</time>
        <extensions><gpxtpx:TrackPointExtension><gpxtpx:hr>127</gpxtpx:hr></gpxtpx:TrackPointExtension></extensions>
      </trkpt>
      <trkpt lat="59.233955065082" lon="17.947891650811">
        <ele>54</ele>
        <time>2016-04-25T19:53:39Z</time>
        <extensions><gpxtpx:TrackPointExtension><gpxtpx:hr>127</gpxtpx:hr></gpxtpx:TrackPointExtension></extensions>
      </trkpt>
      <trkpt lat="59.233876191403" lon="17.947889303879">
        <ele>53.6</ele>
        <time>2016-04-25T19:53:40Z</time>
        <extensions><gpxtpx:TrackPointExtension><gpxtpx:hr>128</gpxtpx:hr></gpxtpx:TrackPointExtension></extensions>
      </trkpt>
      <trkpt lat="59.233476542411" lon="17.947895506485">
        <ele>53.6</ele>
        <time>2016-04-25T19:53:45Z</time>
        <extensions><gpxtpx:TrackPointExtension><gpxtpx:hr>131</gpxtpx:hr></gpxtpx:TrackPointExtension></extensions>
      </trkpt>
      <trkpt lat="59.232941609553" lon="17.948058869716">
        <ele>53.6</ele>
        <time>2016-04-25T19:53:52Z</time>
        <extensions><gpxtpx:TrackPointExtension><gpxtpx:hr>132</gpxtpx:hr></gpxtpx:TrackPointExtension></extensions>
      </trkpt>
      <trkpt lat="59.232455459353" lon="17.948394145716">
        <ele>53.6</ele>
        <time>2016-04-25T19:53:59Z</time>
        <extensions><gpxtpx:TrackPointExtension><gpxtpx:hr>131</gpxtpx:hr></gpxtpx:TrackPointExtension></extensions>
      </trkpt>
      <trkpt lat="59.231995712138" lon="17.948733445028">
        <ele>53.6</ele>
        <time>2016-04-25T19:54:06Z</time>
        <extensions><gpxtpx:TrackPointExtension><gpxtpx:hr>130</gpxtpx:hr></gpxtpx:TrackPointExtension></extensions>
      </trkpt>
      <trkpt lat="59.231465724601" lon="17.949054723255">
        <ele>53.6</ele>
        <time>2016-04-25T19:54:14Z</time>
        <extensions><gpxtpx:TrackPointExtension><gpxtpx:hr>130</gpxtpx:hr></gpxtpx:TrackPointExtension></extensions>
      </trkpt>
      <trkpt lat="59.231136651207" lon="17.949193276062">
        <ele>53.6</ele>
        <time>2016-04-25T19:54:19Z</time>
        <extensions><gpxtpx:TrackPointExtension><gpxtpx:hr>128</gpxtpx:hr></gpxtpx:TrackPointExtension></extensions>
      </trkpt>
      <trkpt lat="59.231074206052" lon="17.949183469239">
        <ele>53.6</ele>
        <time>2016-04-25T19:54:20Z</time>
        <extensions><gpxtpx:TrackPointExtension><gpxtpx:hr>127</gpxtpx:hr></gpxtpx:TrackPointExtension></extensions>
      </trkpt>
      <trkpt lat="59.230923080395" lon="17.948969982246">
        <ele>53.6</ele>
        <time>2016-04-25T19:54:23Z</time>
        <extensions><gpxtpx:TrackPointExtension><gpxtpx:hr>126</gpxtpx:hr></gpxtpx:TrackPointExtension></extensions>
      </trkpt>
      <trkpt lat="59.230884607474" lon="17.948866298143">
        <ele>53.6</ele>
        <time>2016-04-25T19:54:24Z</time>
        <extensions><gpxtpx:TrackPointExtension><gpxtpx:hr>126</gpxtpx:hr></gpxtpx:TrackPointExtension></extensions>
      </trkpt>
      <trkpt lat="59.230827191459" lon="17.948623725957">
        <ele>53.6</ele>
        <time>2016-04-25T19:54:26Z</time>
        <extensions><gpxtpx:TrackPointExtension><gpxtpx:hr>126</gpxtpx:hr></gpxtpx:TrackPointExtension></extensions>
      </trkpt>
      <trkpt lat="59.230714287266" lon="17.94814822077">
        <ele>53.6</ele>
        <time>2016-04-25T19:54:30Z</time>
        <extensions><gpxtpx:TrackPointExtension><gpxtpx:hr>129</gpxtpx:hr></gpxtpx:TrackPointExtension></extensions>
      </trkpt>
      <trkpt lat="59.230649662817" lon="17.947776483505">
        <ele>53.6</ele>
        <time>2016-04-25T19:54:33Z</time>
        <extensions><gpxtpx:TrackPointExtension><gpxtpx:hr>132</gpxtpx:hr></gpxtpx:TrackPointExtension></extensions>
      </trkpt>
      <trkpt lat="59.230611022258" lon="17.947397118711">
        <ele>53.6</ele>
        <time>2016-04-25T19:54:36Z</time>
        <extensions><gpxtpx:TrackPointExtension><gpxtpx:hr>135</gpxtpx:hr></gpxtpx:TrackPointExtension></extensions>
      </trkpt>
      <trkpt lat="59.230600041969" lon="17.947139962019">
        <ele>53.6</ele>
        <time>2016-04-25T19:54:38Z</time>
        <extensions><gpxtpx:TrackPointExtension><gpxtpx:hr>136</gpxtpx:hr></gpxtpx:TrackPointExtension></extensions>
      </trkpt>
      <trkpt lat="59.230598030313" lon="17.946613746337">
        <ele>53.6</ele>
        <time>2016-04-25T19:54:42Z</time>
        <extensions><gpxtpx:TrackPointExtension><gpxtpx:hr>139</gpxtpx:hr></gpxtpx:TrackPointExtension></extensions>
      </trkpt>
      <trkpt lat="59.230617392502" lon="17.946091386329">
        <ele>53.6</ele>
        <time>2016-04-25T19:54:46Z</time>
        <extensions><gpxtpx:TrackPointExtension><gpxtpx:hr>141</gpxtpx:hr></gpxtpx:TrackPointExtension></extensions>
      </trkpt>
      <trkpt lat="59.230639101623" lon="17.945404573443">
        <ele>53.6</ele>
        <time>2016-04-25T19:54:51Z</time>
        <extensions><gpxtpx:TrackPointExtension><gpxtpx:hr>144</gpxtpx:hr></gpxtpx:TrackPointExtension></extensions>
      </trkpt>
      <trkpt lat="59.230641197098" lon="17.945266691188">
        <ele>54</ele>
        <time>2016-04-25T19:54:52Z</time>
        <extensions><gpxtpx:TrackPointExtension><gpxtpx:hr>144</gpxtpx:hr></gpxtpx:TrackPointExtension></extensions>
      </trkpt>
      <trkpt lat="59.230644214582" lon="17.945130317675">
        <ele>54.4</ele>
        <time>2016-04-25T19:54:53Z</time>
        <extensions><gpxtpx:TrackPointExtension><gpxtpx:hr>145</gpxtpx:hr></gpxtpx:TrackPointExtension></extensions>
      </trkpt>
      <trkpt lat="59.230647232066" lon="17.944995620542">
        <ele>54.8</ele>
        <time>2016-04-25T19:54:54Z</time>
        <extensions><gpxtpx:TrackPointExtension><gpxtpx:hr>146</gpxtpx:hr></gpxtpx:TrackPointExtension></extensions>
      </trkpt>
      <trkpt lat="59.230651842111" lon="17.944860671952">
        <ele>55.2</ele>
        <time>2016-04-25T19:54:55Z</time>
        <extensions><gpxtpx:TrackPointExtension><gpxtpx:hr>147</gpxtpx:hr></gpxtpx:TrackPointExtension></extensions>
      </trkpt>
      <trkpt lat="59.230657122708" lon="17.944721197136">
        <ele>55.6</ele>
        <time>2016-04-25T19:54:56Z</time>
        <extensions><gpxtpx:TrackPointExtension><gpxtpx:hr>148</gpxtpx:hr></gpxtpx:TrackPointExtension></extensions>
      </trkpt>
      <trkpt lat="59.230678915648" lon="17.944045699815">
        <ele>55.6</ele>
        <time>2016-04-25T19:55:01Z</time>
        <extensions><gpxtpx:TrackPointExtension><gpxtpx:hr>151</gpxtpx:hr></gpxtpx:TrackPointExtension></extensions>
      </trkpt>
      <trkpt lat="59.230683022779" lon="17.943780245042">
        <ele>55.6</ele>
        <time>2016-04-25T19:55:03Z</time>
        <extensions><gpxtpx:TrackPointExtension><gpxtpx:hr>152</gpxtpx:hr></gpxtpx:TrackPointExtension></extensions>
      </trkpt>
      <trkpt lat="59.230705402452" lon="17.94300843969">
        <ele>56.4</ele>
        <time>2016-04-25T19:55:09Z</time>
        <extensions><gpxtpx:TrackPointExtension><gpxtpx:hr>153</gpxtpx:hr></gpxtpx:TrackPointExtension></extensions>
      </trkpt>
      <trkpt lat="59.230706492099" lon="17.942882627371">
        <ele>56.8</ele>
        <time>2016-04-25T19:55:10Z</time>
        <extensions><gpxtpx:TrackPointExtension><gpxtpx:hr>153</gpxtpx:hr></gpxtpx:TrackPointExtension></extensions>
      </trkpt>
      <trkpt lat="59.230707497927" lon="17.942748349333">
        <ele>57.2</ele>
        <time>2016-04-25T19:55:11Z</time>
        <extensions><gpxtpx:TrackPointExtension><gpxtpx:hr>153</gpxtpx:hr></gpxtpx:TrackPointExtension></extensions>
      </trkpt>
      <trkpt lat="59.230711353601" lon="17.942620273901">
        <ele>57.6</ele>
        <time>2016-04-25T19:55:12Z</time>
        <extensions><gpxtpx:TrackPointExtension><gpxtpx:hr>153</gpxtpx:hr></gpxtpx:TrackPointExtension></extensions>
      </trkpt>
      <trkpt lat="59.230745887029" lon="17.941697761987">
        <ele>57.6</ele>
        <time>2016-04-25T19:55:19Z</time>
        <extensions><gpxtpx:TrackPointExtension><gpxtpx:hr>152</gpxtpx:hr></gpxtpx:TrackPointExtension></extensions>
      </trkpt>
      <trkpt lat="59.230784611407" lon="17.941103150001">
        <ele>57.6</ele>
        <time>2016-04-25T19:55:23Z</time>
        <extensions><gpxtpx:TrackPointExtension><gpxtpx:hr>149</gpxtpx:hr></gpxtpx:TrackPointExtension></extensions>
      </trkpt>
      <trkpt lat="59.230806404347" lon="17.940790672769">
        <ele>57.6</ele>
        <time>2016-04-25T19:55:25Z</time>
        <extensions><gpxtpx:TrackPointExtension><gpxtpx:hr>148</gpxtpx:hr></gpxtpx:TrackPointExtension></extensions>
      </trkpt>
      <trkpt lat="59.230838590843" lon="17.940168735789">
        <ele>57.6</ele>
        <time>2016-04-25T19:55:29Z</time>
        <extensions><gpxtpx:TrackPointExtension><gpxtpx:hr>145</gpxtpx:hr></gpxtpx:TrackPointExtension></extensions>
      </trkpt>
      <trkpt lat="59.23084135687" lon="17.940012161897">
        <ele>57.2</ele>
        <time>2016-04-25T19:55:30Z</time>
        <extensions><gpxtpx:TrackPointExtension><gpxtpx:hr>144</gpxtpx:hr></gpxtpx:TrackPointExtension></extensions>
      </trkpt>
      <trkpt lat="59.2308472242" lon="17.939859024584">
        <ele>56.8</ele>
        <time>2016-04-25T19:55:31Z</time>
        <extensions><gpxtpx:TrackPointExtension><gpxtpx:hr>144</gpxtpx:hr></gpxtpx:TrackPointExtension></extensions>
      </trkpt>
      <trkpt lat="59.230852420978" lon="17.939707982746">
        <ele>56.4</ele>
        <time>2016-04-25T19:55:32Z</time>
        <extensions><gpxtpx:TrackPointExtension><gpxtpx:hr>143</gpxtpx:hr></gpxtpx:TrackPointExtension></extensions>
      </trkpt>
      <trkpt lat="59.230857366299" lon="17.939551995587">
        <ele>56</ele>
        <time>2016-04-25T19:55:33Z</time>
        <extensions><gpxtpx:TrackPointExtension><gpxtpx:hr>142</gpxtpx:hr></gpxtpx:TrackPointExtension></extensions>
      </trkpt>
      <trkpt lat="59.230861808706" lon="17.93940925183">
        <ele>55.6</ele>
        <time>2016-04-25T19:55:34Z</time>
        <extensions><gpxtpx:TrackPointExtension><gpxtpx:hr>141</gpxtpx:hr></gpxtpx:TrackPointExtension></extensions>
      </trkpt>
      <trkpt lat="59.230878069592" lon="17.938987977536">
        <ele>55.6</ele>
        <time>2016-04-25T19:55:37Z</time>
        <extensions><gpxtpx:TrackPointExtension><gpxtpx:hr>138</gpxtpx:hr></gpxtpx:TrackPointExtension></extensions>
      </trkpt>
      <trkpt lat="59.230885445664" lon="17.938731072301">
        <ele>55.6</ele>
        <time>2016-04-25T19:55:39Z</time>
        <extensions><gpxtpx:TrackPointExtension><gpxtpx:hr>136</gpxtpx:hr></gpxtpx:TrackPointExtension></extensions>
      </trkpt>
      <trkpt lat="59.230904891672" lon="17.938284484669">
        <ele>55.6</ele>
        <time>2016-04-25T19:55:43Z</time>
        <extensions><gpxtpx:TrackPointExtension><gpxtpx:hr>132</gpxtpx:hr></gpxtpx:TrackPointExtension></extensions>
      </trkpt>
      <trkpt lat="59.230906065138" lon="17.938202174411">
        <ele>55.6</ele>
        <time>2016-04-25T19:55:44Z</time>
        <extensions><gpxtpx:TrackPointExtension><gpxtpx:hr>130</gpxtpx:hr></gpxtpx:TrackPointExtension></extensions>
      </trkpt>
      <trkpt lat="59.230908579708" lon="17.938109973511">
        <ele>55.6</ele>
        <time>2016-04-25T19:55:46Z</time>
        <extensions><gpxtpx:TrackPointExtension><gpxtpx:hr>128</gpxtpx:hr></gpxtpx:TrackPointExtension></extensions>
      </trkpt>
      <trkpt lat="59.230910842821" lon="17.93809832267">
        <ele>55.6</ele>
        <time>2016-04-25T19:55:47Z</time>
        <extensions><gpxtpx:TrackPointExtension><gpxtpx:hr>128</gpxtpx:hr></gpxtpx:TrackPointExtension></extensions>
      </trkpt>
      <trkpt lat="59.230910339907" lon="17.938092203883">
        <ele>55.6</ele>
        <time>2016-04-25T19:56:45Z</time>
        <extensions><gpxtpx:TrackPointExtension><gpxtpx:hr>99</gpxtpx:hr></gpxtpx:TrackPointExtension></extensions>
      </trkpt>
      <trkpt lat="59.230908160613" lon="17.938052473677">
        <ele>55.6</ele>
        <time>2016-04-25T19:56:46Z</time>
        <extensions><gpxtpx:TrackPointExtension><gpxtpx:hr>101</gpxtpx:hr></gpxtpx:TrackPointExtension></extensions>
      </trkpt>
      <trkpt lat="59.230901958007" lon="17.937998997155">
        <ele>55.6</ele>
        <time>2016-04-25T19:56:47Z</time>
        <extensions><gpxtpx:TrackPointExtension><gpxtpx:hr>102</gpxtpx:hr></gpxtpx:TrackPointExtension></extensions>
      </trkpt>
      <trkpt lat="59.230880835619" lon="17.937942754606">
        <ele>55.6</ele>
        <time>2016-04-25T19:56:48Z</time>
        <extensions><gpxtpx:TrackPointExtension><gpxtpx:hr>104</gpxtpx:hr></gpxtpx:TrackPointExtension></extensions>
      </trkpt>
      <trkpt lat="59.230850912236" lon="17.937877962519">
        <ele>55.6</ele>
        <time>2016-04-25T19:56:49Z</time>
        <extensions><gpxtpx:TrackPointExtension><gpxtpx:hr>107</gpxtpx:hr></gpxtpx:TrackPointExtension></extensions>
      </trkpt>
      <trkpt lat="59.23081453479" lon="17.937821300875">
        <ele>55.6</ele>
        <time>2016-04-25T19:56:50Z</time>
        <extensions><gpxtpx:TrackPointExtension><gpxtpx:hr>109</gpxtpx:hr></gpxtpx:TrackPointExtension></extensions>
      </trkpt>
      <trkpt lat="59.230721663338" lon="17.937746031413">
        <ele>55.6</ele>
        <time>2016-04-25T19:56:52Z</time>
        <extensions><gpxtpx:TrackPointExtension><gpxtpx:hr>113</gpxtpx:hr></gpxtpx:TrackPointExtension></extensions>
      </trkpt>
      <trkpt lat="59.230603394729" lon="17.937715940392">
        <ele>55.6</ele>
        <time>2016-04-25T19:56:54Z</time>
        <extensions><gpxtpx:TrackPointExtension><gpxtpx:hr>116</gpxtpx:hr></gpxtpx:TrackPointExtension></extensions>
      </trkpt>
      <trkpt lat="59.230398373455" lon="17.937655842169">
        <ele>55.6</ele>
        <time>2016-04-25T19:56:57Z</time>
        <extensions><gpxtpx:TrackPointExtension><gpxtpx:hr>119</gpxtpx:hr></gpxtpx:TrackPointExtension></extensions>
      </trkpt>
      <trkpt lat="59.230256803164" lon="17.93760546695">
        <ele>55.2</ele>
        <time>2016-04-25T19:56:59Z</time>
        <extensions><gpxtpx:TrackPointExtension><gpxtpx:hr>121</gpxtpx:hr></gpxtpx:TrackPointExtension></extensions>
      </trkpt>
      <trkpt lat="59.230186227566" lon="17.937579063965">
        <ele>54.8</ele>
        <time>2016-04-25T19:57:00Z</time>
        <extensions><gpxtpx:TrackPointExtension><gpxtpx:hr>122</gpxtpx:hr></gpxtpx:TrackPointExtension></extensions>
      </trkpt>
      <trkpt lat="59.230114897597" lon="17.937552828618">
        <ele>54.4</ele>
        <time>2016-04-25T19:57:01Z</time>
        <extensions><gpxtpx:TrackPointExtension><gpxtpx:hr>122</gpxtpx:hr></gpxtpx:TrackPointExtension></extensions>
      </trkpt>
      <trkpt lat="59.230042394162" lon="17.937526257995">
        <ele>54</ele>
        <time>2016-04-25T19:57:02Z</time>
        <extensions><gpxtpx:TrackPointExtension><gpxtpx:hr>123</gpxtpx:hr></gpxtpx:TrackPointExtension></extensions>
      </trkpt>
      <trkpt lat="59.229967292338" lon="17.937495328784">
        <ele>53.6</ele>
        <time>2016-04-25T19:57:03Z</time>
        <extensions><gpxtpx:TrackPointExtension><gpxtpx:hr>123</gpxtpx:hr></gpxtpx:TrackPointExtension></extensions>
      </trkpt>
      <trkpt lat="59.22962933413" lon="17.937371025207">
        <ele>53.6</ele>
        <time>2016-04-25T19:57:08Z</time>
        <extensions><gpxtpx:TrackPointExtension><gpxtpx:hr>125</gpxtpx:hr></gpxtpx:TrackPointExtension></extensions>
      </trkpt>
      <trkpt lat="59.229440322285" lon="17.937302209808">
        <ele>53.6</ele>
        <time>2016-04-25T19:57:11Z</time>
        <extensions><gpxtpx:TrackPointExtension><gpxtpx:hr>128</gpxtpx:hr></gpxtpx:TrackPointExtension></extensions>
      </trkpt>
      <trkpt lat="59.229252483906" lon="17.937249571476">
        <ele>54</ele>
        <time>2016-04-25T19:57:14Z</time>
        <extensions><gpxtpx:TrackPointExtension><gpxtpx:hr>131</gpxtpx:hr></gpxtpx:TrackPointExtension></extensions>
      </trkpt>
      <trkpt lat="59.229191212217" lon="17.937218558446">
        <ele>54.4</ele>
        <time>2016-04-25T19:57:15Z</time>
        <extensions><gpxtpx:TrackPointExtension><gpxtpx:hr>132</gpxtpx:hr></gpxtpx:TrackPointExtension></extensions>
      </trkpt>
      <trkpt lat="59.229130527261" lon="17.937181175172">
        <ele>54.8</ele>
        <time>2016-04-25T19:57:16Z</time>
        <extensions><gpxtpx:TrackPointExtension><gpxtpx:hr>133</gpxtpx:hr></gpxtpx:TrackPointExtension></extensions>
      </trkpt>
      <trkpt lat="59.229066741002" lon="17.937145216821">
        <ele>55.2</ele>
        <time>2016-04-25T19:57:17Z</time>
        <extensions><gpxtpx:TrackPointExtension><gpxtpx:hr>134</gpxtpx:hr></gpxtpx:TrackPointExtension></extensions>
      </trkpt>
      <trkpt lat="59.229003122381" lon="17.937121663682">
        <ele>55.6</ele>
        <time>2016-04-25T19:57:18Z</time>
        <extensions><gpxtpx:TrackPointExtension><gpxtpx:hr>135</gpxtpx:hr></gpxtpx:TrackPointExtension></extensions>
      </trkpt>
      <trkpt lat="59.228938833208" lon="17.937102720588">
        <ele>55.6</ele>
        <time>2016-04-25T19:57:19Z</time>
        <extensions><gpxtpx:TrackPointExtension><gpxtpx:hr>136</gpxtpx:hr></gpxtpx:TrackPointExtension></extensions>
      </trkpt>
      <trkpt lat="59.228816960382" lon="17.937050082256">
        <ele>55.6</ele>
        <time>2016-04-25T19:57:21Z</time>
        <extensions><gpxtpx:TrackPointExtension><gpxtpx:hr>139</gpxtpx:hr></gpxtpx:TrackPointExtension></extensions>
      </trkpt>
      <trkpt lat="59.228697602126" lon="17.937005239091">
        <ele>56</ele>
        <time>2016-04-25T19:57:23Z</time>
        <extensions><gpxtpx:TrackPointExtension><gpxtpx:hr>142</gpxtpx:hr></gpxtpx:TrackPointExtension></extensions>
      </trkpt>
      <trkpt lat="59.228640772844" lon="17.936986547454">
        <ele>56.4</ele>
        <time>2016-04-25T19:57:24Z</time>
        <extensions><gpxtpx:TrackPointExtension><gpxtpx:hr>143</gpxtpx:hr></gpxtpx:TrackPointExtension></extensions>
      </trkpt>
      <trkpt lat="59.22857656749" lon="17.936969113102">
        <ele>57</ele>
        <time>2016-04-25T19:57:25Z</time>
        <extensions><gpxtpx:TrackPointExtension><gpxtpx:hr>145</gpxtpx:hr></gpxtpx:TrackPointExtension></extensions>
      </trkpt>
      <trkpt lat="59.228517726552" lon="17.936944554135">
        <ele>57.4</ele>
        <time>2016-04-25T19:57:26Z</time>
        <extensions><gpxtpx:TrackPointExtension><gpxtpx:hr>147</gpxtpx:hr></gpxtpx:TrackPointExtension></extensions>
      </trkpt>
      <trkpt lat="59.228464836763" lon="17.93691060744">
        <ele>57.8</ele>
        <time>2016-04-25T19:57:27Z</time>
        <extensions><gpxtpx:TrackPointExtension><gpxtpx:hr>148</gpxtpx:hr></gpxtpx:TrackPointExtension></extensions>
      </trkpt>
      <trkpt lat="59.228413204259" lon="17.936877582754">
        <ele>57.8</ele>
        <time>2016-04-25T19:57:28Z</time>
        <extensions><gpxtpx:TrackPointExtension><gpxtpx:hr>151</gpxtpx:hr></gpxtpx:TrackPointExtension></extensions>
      </trkpt>
      <trkpt lat="59.228361236479" lon="17.936851012131">
        <ele>58.4</ele>
        <time>2016-04-25T19:57:29Z</time>
        <extensions><gpxtpx:TrackPointExtension><gpxtpx:hr>153</gpxtpx:hr></gpxtpx:TrackPointExtension></extensions>
      </trkpt>
      <trkpt lat="59.22831169945" lon="17.936822681309">
        <ele>58.8</ele>
        <time>2016-04-25T19:57:30Z</time>
        <extensions><gpxtpx:TrackPointExtension><gpxtpx:hr>154</gpxtpx:hr></gpxtpx:TrackPointExtension></extensions>
      </trkpt>
      <trkpt lat="59.228263335887" lon="17.936796781238">
        <ele>59.2</ele>
        <time>2016-04-25T19:57:31Z</time>
        <extensions><gpxtpx:TrackPointExtension><gpxtpx:hr>156</gpxtpx:hr></gpxtpx:TrackPointExtension></extensions>
      </trkpt>
      <trkpt lat="59.228214888505" lon="17.936769288606">
        <ele>59.8</ele>
        <time>2016-04-25T19:57:32Z</time>
        <extensions><gpxtpx:TrackPointExtension><gpxtpx:hr>157</gpxtpx:hr></gpxtpx:TrackPointExtension></extensions>
      </trkpt>
      <trkpt lat="59.228168536598" lon="17.936739365223">
        <ele>60.4</ele>
        <time>2016-04-25T19:57:33Z</time>
        <extensions><gpxtpx:TrackPointExtension><gpxtpx:hr>158</gpxtpx:hr></gpxtpx:TrackPointExtension></extensions>
      </trkpt>
      <trkpt lat="59.228123022881" lon="17.936708687469">
        <ele>60.8</ele>
        <time>2016-04-25T19:57:34Z</time>
        <extensions><gpxtpx:TrackPointExtension><gpxtpx:hr>159</gpxtpx:hr></gpxtpx:TrackPointExtension></extensions>
      </trkpt>
      <trkpt lat="59.228078766449" lon="17.936679099362">
        <ele>61.4</ele>
        <time>2016-04-25T19:57:35Z</time>
        <extensions><gpxtpx:TrackPointExtension><gpxtpx:hr>160</gpxtpx:hr></gpxtpx:TrackPointExtension></extensions>
      </trkpt>
      <trkpt lat="59.228035851121" lon="17.936647331961">
        <ele>61.8</ele>
        <time>2016-04-25T19:57:36Z</time>
        <extensions><gpxtpx:TrackPointExtension><gpxtpx:hr>160</gpxtpx:hr></gpxtpx:TrackPointExtension></extensions>
      </trkpt>
      <trkpt lat="59.227992851974" lon="17.936620090786">
        <ele>62.4</ele>
        <time>2016-04-25T19:57:37Z</time>
        <extensions><gpxtpx:TrackPointExtension><gpxtpx:hr>161</gpxtpx:hr></gpxtpx:TrackPointExtension></extensions>
      </trkpt>
      <trkpt lat="59.227869889501" lon="17.9365200109">
        <ele>62.4</ele>
        <time>2016-04-25T19:57:40Z</time>
        <extensions><gpxtpx:TrackPointExtension><gpxtpx:hr>160</gpxtpx:hr></gpxtpx:TrackPointExtension></extensions>
      </trkpt>
      <trkpt lat="59.22760929623" lon="17.93628783227">
        <ele>62.8</ele>
        <time>2016-04-25T19:57:46Z</time>
        <extensions><gpxtpx:TrackPointExtension><gpxtpx:hr>159</gpxtpx:hr></gpxtpx:TrackPointExtension></extensions>
      </trkpt>
      <trkpt lat="59.227561938495" lon="17.936242905286">
        <ele>63.4</ele>
        <time>2016-04-25T19:57:47Z</time>
        <extensions><gpxtpx:TrackPointExtension><gpxtpx:hr>158</gpxtpx:hr></gpxtpx:TrackPointExtension></extensions>
      </trkpt>
      <trkpt lat="59.227517179149" lon="17.936196888655">
        <ele>63.8</ele>
        <time>2016-04-25T19:57:48Z</time>
        <extensions><gpxtpx:TrackPointExtension><gpxtpx:hr>158</gpxtpx:hr></gpxtpx:TrackPointExtension></extensions>
      </trkpt>
      <trkpt lat="59.22747099488" lon="17.936155901164">
        <ele>64.2</ele>
        <time>2016-04-25T19:57:49Z</time>
        <extensions><gpxtpx:TrackPointExtension><gpxtpx:hr>158</gpxtpx:hr></gpxtpx:TrackPointExtension></extensions>
      </trkpt>
      <trkpt lat="59.227425229706" lon="17.936111309456">
        <ele>64.6</ele>
        <time>2016-04-25T19:57:50Z</time>
        <extensions><gpxtpx:TrackPointExtension><gpxtpx:hr>158</gpxtpx:hr></gpxtpx:TrackPointExtension></extensions>
      </trkpt>
      <trkpt lat="59.227199840415" lon="17.935888434735">
        <ele>64.6</ele>
        <time>2016-04-25T19:57:55Z</time>
        <extensions><gpxtpx:TrackPointExtension><gpxtpx:hr>159</gpxtpx:hr></gpxtpx:TrackPointExtension></extensions>
      </trkpt>
      <trkpt lat="59.227158517648" lon="17.935837891878">
        <ele>65</ele>
        <time>2016-04-25T19:57:56Z</time>
        <extensions><gpxtpx:TrackPointExtension><gpxtpx:hr>159</gpxtpx:hr></gpxtpx:TrackPointExtension></extensions>
      </trkpt>
      <trkpt lat="59.227117027243" lon="17.935789193039">
        <ele>65.4</ele>
        <time>2016-04-25T19:57:57Z</time>
        <extensions><gpxtpx:TrackPointExtension><gpxtpx:hr>159</gpxtpx:hr></gpxtpx:TrackPointExtension></extensions>
      </trkpt>
      <trkpt lat="59.227078889598" lon="17.935739572191">
        <ele>66</ele>
        <time>2016-04-25T19:57:58Z</time>
        <extensions><gpxtpx:TrackPointExtension><gpxtpx:hr>159</gpxtpx:hr></gpxtpx:TrackPointExtension></extensions>
      </trkpt>
      <trkpt lat="59.227041673962" lon="17.935683916375">
        <ele>66.4</ele>
        <time>2016-04-25T19:57:59Z</time>
        <extensions><gpxtpx:TrackPointExtension><gpxtpx:hr>159</gpxtpx:hr></gpxtpx:TrackPointExtension></extensions>
      </trkpt>
      <trkpt lat="59.227003871593" lon="17.935628428197">
        <ele>66.8</ele>
        <time>2016-04-25T19:58:00Z</time>
        <extensions><gpxtpx:TrackPointExtension><gpxtpx:hr>159</gpxtpx:hr></gpxtpx:TrackPointExtension></extensions>
      </trkpt>
      <trkpt lat="59.226923992086" lon="17.935512087425">
        <ele>66.8</ele>
        <time>2016-04-25T19:58:02Z</time>
        <extensions><gpxtpx:TrackPointExtension><gpxtpx:hr>159</gpxtpx:hr></gpxtpx:TrackPointExtension></extensions>
      </trkpt>
      <trkpt lat="59.226849560814" lon="17.935378144663">
        <ele>67.2</ele>
        <time>2016-04-25T19:58:04Z</time>
        <extensions><gpxtpx:TrackPointExtension><gpxtpx:hr>159</gpxtpx:hr></gpxtpx:TrackPointExtension></extensions>
      </trkpt>
      <trkpt lat="59.226815362662" lon="17.935309999816">
        <ele>67.6</ele>
        <time>2016-04-25T19:58:05Z</time>
        <extensions><gpxtpx:TrackPointExtension><gpxtpx:hr>159</gpxtpx:hr></gpxtpx:TrackPointExtension></extensions>
      </trkpt>
      <trkpt lat="59.226778901397" lon="17.935239927132">
        <ele>68</ele>
        <time>2016-04-25T19:58:06Z</time>
        <extensions><gpxtpx:TrackPointExtension><gpxtpx:hr>159</gpxtpx:hr></gpxtpx:TrackPointExtension></extensions>
      </trkpt>
      <trkpt lat="59.226743194503" lon="17.935169016258">
        <ele>68.4</ele>
        <time>2016-04-25T19:58:07Z</time>
        <extensions><gpxtpx:TrackPointExtension><gpxtpx:hr>159</gpxtpx:hr></gpxtpx:TrackPointExtension></extensions>
      </trkpt>
      <trkpt lat="59.226709834541" lon="17.935095758452">
        <ele>68.8</ele>
        <time>2016-04-25T19:58:08Z</time>
        <extensions><gpxtpx:TrackPointExtension><gpxtpx:hr>159</gpxtpx:hr></gpxtpx:TrackPointExtension></extensions>
      </trkpt>
      <trkpt lat="59.226679240606" lon="17.93501797442">
        <ele>68.8</ele>
        <time>2016-04-25T19:58:09Z</time>
        <extensions><gpxtpx:TrackPointExtension><gpxtpx:hr>159</gpxtpx:hr></gpxtpx:TrackPointExtension></extensions>
      </trkpt>
      <trkpt lat="59.226623752428" lon="17.934851761343">
        <ele>69.2</ele>
        <time>2016-04-25T19:58:11Z</time>
        <extensions><gpxtpx:TrackPointExtension><gpxtpx:hr>160</gpxtpx:hr></gpxtpx:TrackPointExtension></extensions>
      </trkpt>
      <trkpt lat="59.226596511253" lon="17.934767187972">
        <ele>69.6</ele>
        <time>2016-04-25T19:58:12Z</time>
        <extensions><gpxtpx:TrackPointExtension><gpxtpx:hr>160</gpxtpx:hr></gpxtpx:TrackPointExtension></extensions>
      </trkpt>
      <trkpt lat="59.226569186259" lon="17.934681357316">
        <ele>70</ele>
        <time>2016-04-25T19:58:13Z</time>
        <extensions><gpxtpx:TrackPointExtension><gpxtpx:hr>161</gpxtpx:hr></gpxtpx:TrackPointExtension></extensions>
      </trkpt>
      <trkpt lat="59.226540101066" lon="17.934592425357">
        <ele>70.4</ele>
        <time>2016-04-25T19:58:14Z</time>
        <extensions><gpxtpx:TrackPointExtension><gpxtpx:hr>161</gpxtpx:hr></gpxtpx:TrackPointExtension></extensions>
      </trkpt>
      <trkpt lat="59.226507495475" lon="17.934505421235">
        <ele>70.8</ele>
        <time>2016-04-25T19:58:15Z</time>
        <extensions><gpxtpx:TrackPointExtension><gpxtpx:hr>162</gpxtpx:hr></gpxtpx:TrackPointExtension></extensions>
      </trkpt>
      <trkpt lat="59.226448654537" lon="17.934329652792">
        <ele>70.8</ele>
        <time>2016-04-25T19:58:17Z</time>
        <extensions><gpxtpx:TrackPointExtension><gpxtpx:hr>163</gpxtpx:hr></gpxtpx:TrackPointExtension></extensions>
      </trkpt>
      <trkpt lat="59.226354861076" lon="17.933960765373">
        <ele>71.4</ele>
        <time>2016-04-25T19:58:21Z</time>
        <extensions><gpxtpx:TrackPointExtension><gpxtpx:hr>165</gpxtpx:hr></gpxtpx:TrackPointExtension></extensions>
      </trkpt>
      <trkpt lat="59.226338935466" lon="17.93386043403">
        <ele>71.8</ele>
        <time>2016-04-25T19:58:22Z</time>
        <extensions><gpxtpx:TrackPointExtension><gpxtpx:hr>166</gpxtpx:hr></gpxtpx:TrackPointExtension></extensions>
      </trkpt>
      <trkpt lat="59.226325775883" lon="17.933756582289">
        <ele>72.2</ele>
        <time>2016-04-25T19:58:23Z</time>
        <extensions><gpxtpx:TrackPointExtension><gpxtpx:hr>166</gpxtpx:hr></gpxtpx:TrackPointExtension></extensions>
      </trkpt>
      <trkpt lat="59.226310353187" lon="17.933646276485">
        <ele>72.8</ele>
        <time>2016-04-25T19:58:24Z</time>
        <extensions><gpxtpx:TrackPointExtension><gpxtpx:hr>167</gpxtpx:hr></gpxtpx:TrackPointExtension></extensions>
      </trkpt>
      <trkpt lat="59.22629333793" lon="17.93353521631">
        <ele>73.2</ele>
        <time>2016-04-25T19:58:25Z</time>
        <extensions><gpxtpx:TrackPointExtension><gpxtpx:hr>167</gpxtpx:hr></gpxtpx:TrackPointExtension></extensions>
      </trkpt>
      <trkpt lat="59.226244806729" lon="17.933222319983">
        <ele>73.2</ele>
        <time>2016-04-25T19:58:28Z</time>
        <extensions><gpxtpx:TrackPointExtension><gpxtpx:hr>168</gpxtpx:hr></gpxtpx:TrackPointExtension></extensions>
      </trkpt>
      <trkpt lat="59.226214715708" lon="17.933026937894">
        <ele>73.6</ele>
        <time>2016-04-25T19:58:30Z</time>
        <extensions><gpxtpx:TrackPointExtension><gpxtpx:hr>167</gpxtpx:hr></gpxtpx:TrackPointExtension></extensions>
      </trkpt>
      <trkpt lat="59.226199628288" lon="17.932929707854">
        <ele>74</ele>
        <time>2016-04-25T19:58:31Z</time>
        <extensions><gpxtpx:TrackPointExtension><gpxtpx:hr>167</gpxtpx:hr></gpxtpx:TrackPointExtension></extensions>
      </trkpt>
      <trkpt lat="59.22618437323" lon="17.932825604656">
        <ele>74.6</ele>
        <time>2016-04-25T19:58:32Z</time>
        <extensions><gpxtpx:TrackPointExtension><gpxtpx:hr>167</gpxtpx:hr></gpxtpx:TrackPointExtension></extensions>
      </trkpt>
      <trkpt lat="59.22616928581" lon="17.932725692408">
        <ele>75</ele>
        <time>2016-04-25T19:58:33Z</time>
        <extensions><gpxtpx:TrackPointExtension><gpxtpx:hr>167</gpxtpx:hr></gpxtpx:TrackPointExtension></extensions>
      </trkpt>
      <trkpt lat="59.226154533666" lon="17.932626450712">
        <ele>75.4</ele>
        <time>2016-04-25T19:58:34Z</time>
        <extensions><gpxtpx:TrackPointExtension><gpxtpx:hr>167</gpxtpx:hr></gpxtpx:TrackPointExtension></extensions>
      </trkpt>
      <trkpt lat="59.226130393794" lon="17.932430900985">
        <ele>75.4</ele>
        <time>2016-04-25T19:58:36Z</time>
        <extensions><gpxtpx:TrackPointExtension><gpxtpx:hr>167</gpxtpx:hr></gpxtpx:TrackPointExtension></extensions>
      </trkpt>
      <trkpt lat="59.226107427388" lon="17.932240715674">
        <ele>75.4</ele>
        <time>2016-04-25T19:58:38Z</time>
        <extensions><gpxtpx:TrackPointExtension><gpxtpx:hr>167</gpxtpx:hr></gpxtpx:TrackPointExtension></extensions>
      </trkpt>
      <trkpt lat="59.226093429615" lon="17.932152454267">
        <ele>75.8</ele>
        <time>2016-04-25T19:58:39Z</time>
        <extensions><gpxtpx:TrackPointExtension><gpxtpx:hr>167</gpxtpx:hr></gpxtpx:TrackPointExtension></extensions>
      </trkpt>
      <trkpt lat="59.226079767118" lon="17.932058576987">
        <ele>76.4</ele>
        <time>2016-04-25T19:58:40Z</time>
        <extensions><gpxtpx:TrackPointExtension><gpxtpx:hr>167</gpxtpx:hr></gpxtpx:TrackPointExtension></extensions>
      </trkpt>
      <trkpt lat="59.226068954467" lon="17.93197115377">
        <ele>76.8</ele>
        <time>2016-04-25T19:58:41Z</time>
        <extensions><gpxtpx:TrackPointExtension><gpxtpx:hr>167</gpxtpx:hr></gpxtpx:TrackPointExtension></extensions>
      </trkpt>
      <trkpt lat="59.226057303626" lon="17.931881886535">
        <ele>77.2</ele>
        <time>2016-04-25T19:58:42Z</time>
        <extensions><gpxtpx:TrackPointExtension><gpxtpx:hr>167</gpxtpx:hr></gpxtpx:TrackPointExtension></extensions>
      </trkpt>
      <trkpt lat="59.226045401328" lon="17.931793038395">
        <ele>77.8</ele>
        <time>2016-04-25T19:58:43Z</time>
        <extensions><gpxtpx:TrackPointExtension><gpxtpx:hr>166</gpxtpx:hr></gpxtpx:TrackPointExtension></extensions>
      </trkpt>
      <trkpt lat="59.226013298651" lon="17.931506042139">
        <ele>77.8</ele>
        <time>2016-04-25T19:58:46Z</time>
        <extensions><gpxtpx:TrackPointExtension><gpxtpx:hr>167</gpxtpx:hr></gpxtpx:TrackPointExtension></extensions>
      </trkpt>
      <trkpt lat="59.225969293676" lon="17.931126425888">
        <ele>78.2</ele>
        <time>2016-04-25T19:58:50Z</time>
        <extensions><gpxtpx:TrackPointExtension><gpxtpx:hr>166</gpxtpx:hr></gpxtpx:TrackPointExtension></extensions>
      </trkpt>
      <trkpt lat="59.225957642835" lon="17.931033805893">
        <ele>78.6</ele>
        <time>2016-04-25T19:58:51Z</time>
        <extensions><gpxtpx:TrackPointExtension><gpxtpx:hr>166</gpxtpx:hr></gpxtpx:TrackPointExtension></extensions>
      </trkpt>
      <trkpt lat="59.225948255107" lon="17.93094437102">
        <ele>79.6</ele>
        <time>2016-04-25T19:58:52Z</time>
        <extensions><gpxtpx:TrackPointExtension><gpxtpx:hr>166</gpxtpx:hr></gpxtpx:TrackPointExtension></extensions>
      </trkpt>
      <trkpt lat="59.225939286474" lon="17.930858121269">
        <ele>80</ele>
        <time>2016-04-25T19:58:53Z</time>
        <extensions><gpxtpx:TrackPointExtension><gpxtpx:hr>165</gpxtpx:hr></gpxtpx:TrackPointExtension></extensions>
      </trkpt>
      <trkpt lat="59.225897209336" lon="17.930132584005">
        <ele>80</ele>
        <time>2016-04-25T19:59:01Z</time>
        <extensions><gpxtpx:TrackPointExtension><gpxtpx:hr>163</gpxtpx:hr></gpxtpx:TrackPointExtension></extensions>
      </trkpt>
      <trkpt lat="59.225891425825" lon="17.929938123925">
        <ele>80.4</ele>
        <time>2016-04-25T19:59:03Z</time>
        <extensions><gpxtpx:TrackPointExtension><gpxtpx:hr>162</gpxtpx:hr></gpxtpx:TrackPointExtension></extensions>
      </trkpt>
      <trkpt lat="59.225887989246" lon="17.929843156998">
        <ele>80.8</ele>
        <time>2016-04-25T19:59:04Z</time>
        <extensions><gpxtpx:TrackPointExtension><gpxtpx:hr>162</gpxtpx:hr></gpxtpx:TrackPointExtension></extensions>
      </trkpt>
      <trkpt lat="59.225886145228" lon="17.929750117908">
        <ele>81.2</ele>
        <time>2016-04-25T19:59:05Z</time>
        <extensions><gpxtpx:TrackPointExtension><gpxtpx:hr>161</gpxtpx:hr></gpxtpx:TrackPointExtension></extensions>
      </trkpt>
      <trkpt lat="59.225886899599" lon="17.92965355842">
        <ele>81.8</ele>
        <time>2016-04-25T19:59:06Z</time>
        <extensions><gpxtpx:TrackPointExtension><gpxtpx:hr>161</gpxtpx:hr></gpxtpx:TrackPointExtension></extensions>
      </trkpt>
      <trkpt lat="59.22588933035" lon="17.929550712507">
        <ele>82.2</ele>
        <time>2016-04-25T19:59:07Z</time>
        <extensions><gpxtpx:TrackPointExtension><gpxtpx:hr>160</gpxtpx:hr></gpxtpx:TrackPointExtension></extensions>
      </trkpt>
      <trkpt lat="59.225890922911" lon="17.929445771119">
        <ele>82.2</ele>
        <time>2016-04-25T19:59:08Z</time>
        <extensions><gpxtpx:TrackPointExtension><gpxtpx:hr>160</gpxtpx:hr></gpxtpx:TrackPointExtension></extensions>
      </trkpt>
      <trkpt lat="59.225879942622" lon="17.928630882801">
        <ele>82.2</ele>
        <time>2016-04-25T19:59:16Z</time>
        <extensions><gpxtpx:TrackPointExtension><gpxtpx:hr>157</gpxtpx:hr></gpxtpx:TrackPointExtension></extensions>
      </trkpt>
      <trkpt lat="59.22586753741" lon="17.928424855699">
        <ele>82.2</ele>
        <time>2016-04-25T19:59:18Z</time>
        <extensions><gpxtpx:TrackPointExtension><gpxtpx:hr>156</gpxtpx:hr></gpxtpx:TrackPointExtension></extensions>
      </trkpt>
      <trkpt lat="59.225832501068" lon="17.92801322059">
        <ele>82.2</ele>
        <time>2016-04-25T19:59:22Z</time>
        <extensions><gpxtpx:TrackPointExtension><gpxtpx:hr>153</gpxtpx:hr></gpxtpx:TrackPointExtension></extensions>
      </trkpt>
      <trkpt lat="59.225783802229" lon="17.927719267357">
        <ele>82.2</ele>
        <time>2016-04-25T19:59:25Z</time>
        <extensions><gpxtpx:TrackPointExtension><gpxtpx:hr>152</gpxtpx:hr></gpxtpx:TrackPointExtension></extensions>
      </trkpt>
      <trkpt lat="59.225765697325" lon="17.927628072285">
        <ele>82.6</ele>
        <time>2016-04-25T19:59:26Z</time>
        <extensions><gpxtpx:TrackPointExtension><gpxtpx:hr>151</gpxtpx:hr></gpxtpx:TrackPointExtension></extensions>
      </trkpt>
      <trkpt lat="59.225747760059" lon="17.927535033195">
        <ele>83</ele>
        <time>2016-04-25T19:59:27Z</time>
        <extensions><gpxtpx:TrackPointExtension><gpxtpx:hr>151</gpxtpx:hr></gpxtpx:TrackPointExtension></extensions>
      </trkpt>
      <trkpt lat="59.225728565508" lon="17.927447358521">
        <ele>83.4</ele>
        <time>2016-04-25T19:59:28Z</time>
        <extensions><gpxtpx:TrackPointExtension><gpxtpx:hr>150</gpxtpx:hr></gpxtpx:TrackPointExtension></extensions>
      </trkpt>
      <trkpt lat="59.225706688749" lon="17.927360773494">
        <ele>83.8</ele>
        <time>2016-04-25T19:59:29Z</time>
        <extensions><gpxtpx:TrackPointExtension><gpxtpx:hr>149</gpxtpx:hr></gpxtpx:TrackPointExtension></extensions>
      </trkpt>
      <trkpt lat="59.225684392895" lon="17.927272931182">
        <ele>84.2</ele>
        <time>2016-04-25T19:59:30Z</time>
        <extensions><gpxtpx:TrackPointExtension><gpxtpx:hr>149</gpxtpx:hr></gpxtpx:TrackPointExtension></extensions>
      </trkpt>
      <trkpt lat="59.225594036013" lon="17.926999513604">
        <ele>84.2</ele>
        <time>2016-04-25T19:59:33Z</time>
        <extensions><gpxtpx:TrackPointExtension><gpxtpx:hr>147</gpxtpx:hr></gpxtpx:TrackPointExtension></extensions>
      </trkpt>
      <trkpt lat="59.225387422178" lon="17.926444380367">
        <ele>84.2</ele>
        <time>2016-04-25T19:59:38Z</time>
        <extensions><gpxtpx:TrackPointExtension><gpxtpx:hr>147</gpxtpx:hr></gpxtpx:TrackPointExtension></extensions>
      </trkpt>
      <trkpt lat="59.225335119122" lon="17.9263024748">
        <ele>83.8</ele>
        <time>2016-04-25T19:59:39Z</time>
        <extensions><gpxtpx:TrackPointExtension><gpxtpx:hr>146</gpxtpx:hr></gpxtpx:TrackPointExtension></extensions>
      </trkpt>
      <trkpt lat="59.22528331898" lon="17.926163251441">
        <ele>83.2</ele>
        <time>2016-04-25T19:59:40Z</time>
        <extensions><gpxtpx:TrackPointExtension><gpxtpx:hr>146</gpxtpx:hr></gpxtpx:TrackPointExtension></extensions>
      </trkpt>
      <trkpt lat="59.225233530494" lon="17.926017657838">
        <ele>81.8</ele>
        <time>2016-04-25T19:59:41Z</time>
        <extensions><gpxtpx:TrackPointExtension><gpxtpx:hr>146</gpxtpx:hr></gpxtpx:TrackPointExtension></extensions>
      </trkpt>
      <trkpt lat="59.225183742008" lon="17.925865442534">
        <ele>81</ele>
        <time>2016-04-25T19:59:42Z</time>
        <extensions><gpxtpx:TrackPointExtension><gpxtpx:hr>144</gpxtpx:hr></gpxtpx:TrackPointExtension></extensions>
      </trkpt>
      <trkpt lat="59.225132528599" lon="17.925716831447">
        <ele>80.4</ele>
        <time>2016-04-25T19:59:43Z</time>
        <extensions><gpxtpx:TrackPointExtension><gpxtpx:hr>143</gpxtpx:hr></gpxtpx:TrackPointExtension></extensions>
      </trkpt>
      <trkpt lat="59.225080057905" lon="17.925568890912">
        <ele>79.6</ele>
        <time>2016-04-25T19:59:44Z</time>
        <extensions><gpxtpx:TrackPointExtension><gpxtpx:hr>142</gpxtpx:hr></gpxtpx:TrackPointExtension></extensions>
      </trkpt>
      <trkpt lat="59.225029179772" lon="17.925425141327">
        <ele>78.8</ele>
        <time>2016-04-25T19:59:45Z</time>
        <extensions><gpxtpx:TrackPointExtension><gpxtpx:hr>140</gpxtpx:hr></gpxtpx:TrackPointExtension></extensions>
      </trkpt>
      <trkpt lat="59.2249212209" lon="17.925130349904">
        <ele>78.4</ele>
        <time>2016-04-25T19:59:47Z</time>
        <extensions><gpxtpx:TrackPointExtension><gpxtpx:hr>138</gpxtpx:hr></gpxtpx:TrackPointExtension></extensions>
      </trkpt>
      <trkpt lat="59.224869420758" lon="17.924989282527">
        <ele>78</ele>
        <time>2016-04-25T19:59:48Z</time>
        <extensions><gpxtpx:TrackPointExtension><gpxtpx:hr>137</gpxtpx:hr></gpxtpx:TrackPointExtension></extensions>
      </trkpt>
      <trkpt lat="59.22482399086" lon="17.92485659705">
        <ele>77.6</ele>
        <time>2016-04-25T19:59:49Z</time>
        <extensions><gpxtpx:TrackPointExtension><gpxtpx:hr>135</gpxtpx:hr></gpxtpx:TrackPointExtension></extensions>
      </trkpt>
      <trkpt lat="59.224777974229" lon="17.924720223537">
        <ele>77.2</ele>
        <time>2016-04-25T19:59:50Z</time>
        <extensions><gpxtpx:TrackPointExtension><gpxtpx:hr>133</gpxtpx:hr></gpxtpx:TrackPointExtension></extensions>
      </trkpt>
      <trkpt lat="59.224735310358" lon="17.92458250892">
        <ele>76.8</ele>
        <time>2016-04-25T19:59:51Z</time>
        <extensions><gpxtpx:TrackPointExtension><gpxtpx:hr>131</gpxtpx:hr></gpxtpx:TrackPointExtension></extensions>
      </trkpt>
      <trkpt lat="59.224661549638" lon="17.924308839885">
        <ele>76.8</ele>
        <time>2016-04-25T19:59:53Z</time>
        <extensions><gpxtpx:TrackPointExtension><gpxtpx:hr>128</gpxtpx:hr></gpxtpx:TrackPointExtension></extensions>
      </trkpt>
      <trkpt lat="59.224598266293" lon="17.924021592172">
        <ele>76.8</ele>
        <time>2016-04-25T19:59:55Z</time>
        <extensions><gpxtpx:TrackPointExtension><gpxtpx:hr>127</gpxtpx:hr></gpxtpx:TrackPointExtension></extensions>
      </trkpt>
      <trkpt lat="59.2243847793" lon="17.923052560713">
        <ele>76.8</ele>
        <time>2016-04-25T20:00:02Z</time>
        <extensions><gpxtpx:TrackPointExtension><gpxtpx:hr>128</gpxtpx:hr></gpxtpx:TrackPointExtension></extensions>
      </trkpt>
      <trkpt lat="59.224129634264" lon="17.922137257233">
        <ele>76.8</ele>
        <time>2016-04-25T20:00:09Z</time>
        <extensions><gpxtpx:TrackPointExtension><gpxtpx:hr>131</gpxtpx:hr></gpxtpx:TrackPointExtension></extensions>
      </trkpt>
      <trkpt lat="59.224035337889" lon="17.921764849416">
        <ele>77.2</ele>
        <time>2016-04-25T20:00:12Z</time>
        <extensions><gpxtpx:TrackPointExtension><gpxtpx:hr>131</gpxtpx:hr></gpxtpx:TrackPointExtension></extensions>
      </trkpt>
      <trkpt lat="59.224003654307" lon="17.921643228047">
        <ele>77.6</ele>
        <time>2016-04-25T20:00:13Z</time>
        <extensions><gpxtpx:TrackPointExtension><gpxtpx:hr>131</gpxtpx:hr></gpxtpx:TrackPointExtension></extensions>
      </trkpt>
      <trkpt lat="59.223970210526" lon="17.921525378533">
        <ele>78</ele>
        <time>2016-04-25T20:00:14Z</time>
        <extensions><gpxtpx:TrackPointExtension><gpxtpx:hr>133</gpxtpx:hr></gpxtpx:TrackPointExtension></extensions>
      </trkpt>
      <trkpt lat="59.223935341822" lon="17.921397973653">
        <ele>78.4</ele>
        <time>2016-04-25T20:00:15Z</time>
        <extensions><gpxtpx:TrackPointExtension><gpxtpx:hr>134</gpxtpx:hr></gpxtpx:TrackPointExtension></extensions>
      </trkpt>
      <trkpt lat="59.223903742059" lon="17.92127752575">
        <ele>78.8</ele>
        <time>2016-04-25T20:00:16Z</time>
        <extensions><gpxtpx:TrackPointExtension><gpxtpx:hr>134</gpxtpx:hr></gpxtpx:TrackPointExtension></extensions>
      </trkpt>
      <trkpt lat="59.223806009105" lon="17.920905537028">
        <ele>78.8</ele>
        <time>2016-04-25T20:00:19Z</time>
        <extensions><gpxtpx:TrackPointExtension><gpxtpx:hr>137</gpxtpx:hr></gpxtpx:TrackPointExtension></extensions>
      </trkpt>
      <trkpt lat="59.223719675535" lon="17.920538158351">
        <ele>78.8</ele>
        <time>2016-04-25T20:00:22Z</time>
        <extensions><gpxtpx:TrackPointExtension><gpxtpx:hr>137</gpxtpx:hr></gpxtpx:TrackPointExtension></extensions>
      </trkpt>
      <trkpt lat="59.223554803562" lon="17.919761323859">
        <ele>78.8</ele>
        <time>2016-04-25T20:00:28Z</time>
        <extensions><gpxtpx:TrackPointExtension><gpxtpx:hr>134</gpxtpx:hr></gpxtpx:TrackPointExtension></extensions>
      </trkpt>
      <trkpt lat="59.223506942913" lon="17.91947877001">
        <ele>78.8</ele>
        <time>2016-04-25T20:00:30Z</time>
        <extensions><gpxtpx:TrackPointExtension><gpxtpx:hr>133</gpxtpx:hr></gpxtpx:TrackPointExtension></extensions>
      </trkpt>
      <trkpt lat="59.223431086718" lon="17.91904039664">
        <ele>78.4</ele>
        <time>2016-04-25T20:00:33Z</time>
        <extensions><gpxtpx:TrackPointExtension><gpxtpx:hr>132</gpxtpx:hr></gpxtpx:TrackPointExtension></extensions>
      </trkpt>
      <trkpt lat="59.223406108656" lon="17.918891534096">
        <ele>78</ele>
        <time>2016-04-25T20:00:34Z</time>
        <extensions><gpxtpx:TrackPointExtension><gpxtpx:hr>131</gpxtpx:hr></gpxtpx:TrackPointExtension></extensions>
      </trkpt>
      <trkpt lat="59.223382471698" lon="17.918740408439">
        <ele>77.6</ele>
        <time>2016-04-25T20:00:35Z</time>
        <extensions><gpxtpx:TrackPointExtension><gpxtpx:hr>130</gpxtpx:hr></gpxtpx:TrackPointExtension></extensions>
      </trkpt>
      <trkpt lat="59.223356655446" lon="17.918590623886">
        <ele>77.2</ele>
        <time>2016-04-25T20:00:36Z</time>
        <extensions><gpxtpx:TrackPointExtension><gpxtpx:hr>130</gpxtpx:hr></gpxtpx:TrackPointExtension></extensions>
      </trkpt>
      <trkpt lat="59.223327402615" lon="17.9184402526">
        <ele>76.8</ele>
        <time>2016-04-25T20:00:37Z</time>
        <extensions><gpxtpx:TrackPointExtension><gpxtpx:hr>129</gpxtpx:hr></gpxtpx:TrackPointExtension></extensions>
      </trkpt>
      <trkpt lat="59.223165631945" lon="17.917724019245">
        <ele>76.4</ele>
        <time>2016-04-25T20:00:42Z</time>
        <extensions><gpxtpx:TrackPointExtension><gpxtpx:hr>127</gpxtpx:hr></gpxtpx:TrackPointExtension></extensions>
      </trkpt>
      <trkpt lat="59.223140234788" lon="17.917578844737">
        <ele>75.8</ele>
        <time>2016-04-25T20:00:43Z</time>
        <extensions><gpxtpx:TrackPointExtension><gpxtpx:hr>127</gpxtpx:hr></gpxtpx:TrackPointExtension></extensions>
      </trkpt>
      <trkpt lat="59.223112155423" lon="17.917435598066">
        <ele>75.4</ele>
        <time>2016-04-25T20:00:44Z</time>
        <extensions><gpxtpx:TrackPointExtension><gpxtpx:hr>126</gpxtpx:hr></gpxtpx:TrackPointExtension></extensions>
      </trkpt>
      <trkpt lat="59.223080136565" lon="17.917291680843">
        <ele>75</ele>
        <time>2016-04-25T20:00:45Z</time>
        <extensions><gpxtpx:TrackPointExtension><gpxtpx:hr>126</gpxtpx:hr></gpxtpx:TrackPointExtension></extensions>
      </trkpt>
      <trkpt lat="59.22304870444" lon="17.917152876579">
        <ele>74.6</ele>
        <time>2016-04-25T20:00:46Z</time>
        <extensions><gpxtpx:TrackPointExtension><gpxtpx:hr>126</gpxtpx:hr></gpxtpx:TrackPointExtension></extensions>
      </trkpt>
      <trkpt lat="59.222985672552" lon="17.916881805933">
        <ele>74.6</ele>
        <time>2016-04-25T20:00:48Z</time>
        <extensions><gpxtpx:TrackPointExtension><gpxtpx:hr>127</gpxtpx:hr></gpxtpx:TrackPointExtension></extensions>
      </trkpt>
      <trkpt lat="59.222851813609" lon="17.916387944385">
        <ele>74.6</ele>
        <time>2016-04-25T20:00:52Z</time>
        <extensions><gpxtpx:TrackPointExtension><gpxtpx:hr>128</gpxtpx:hr></gpxtpx:TrackPointExtension></extensions>
      </trkpt>
      <trkpt lat="59.22276539622" lon="17.916164482931">
        <ele>74.6</ele>
        <time>2016-04-25T20:00:54Z</time>
        <extensions><gpxtpx:TrackPointExtension><gpxtpx:hr>128</gpxtpx:hr></gpxtpx:TrackPointExtension></extensions>
      </trkpt>
      <trkpt lat="59.222714182811" lon="17.916064486864">
        <ele>74.6</ele>
        <time>2016-04-25T20:00:55Z</time>
        <extensions><gpxtpx:TrackPointExtension><gpxtpx:hr>128</gpxtpx:hr></gpxtpx:TrackPointExtension></extensions>
      </trkpt>
      <trkpt lat="59.222495834316" lon="17.915633321928">
        <ele>74.6</ele>
        <time>2016-04-25T20:00:59Z</time>
        <extensions><gpxtpx:TrackPointExtension><gpxtpx:hr>127</gpxtpx:hr></gpxtpx:TrackPointExtension></extensions>
      </trkpt>
      <trkpt lat="59.222368010341" lon="17.91539259376">
        <ele>74.2</ele>
        <time>2016-04-25T20:01:01Z</time>
        <extensions><gpxtpx:TrackPointExtension><gpxtpx:hr>128</gpxtpx:hr></gpxtpx:TrackPointExtension></extensions>
      </trkpt>
      <trkpt lat="59.222304978453" lon="17.915274744246">
        <ele>73.8</ele>
        <time>2016-04-25T20:01:02Z</time>
        <extensions><gpxtpx:TrackPointExtension><gpxtpx:hr>128</gpxtpx:hr></gpxtpx:TrackPointExtension></extensions>
      </trkpt>
      <trkpt lat="59.222241862746" lon="17.915156391818">
        <ele>73.2</ele>
        <time>2016-04-25T20:01:03Z</time>
        <extensions><gpxtpx:TrackPointExtension><gpxtpx:hr>129</gpxtpx:hr></gpxtpx:TrackPointExtension></extensions>
      </trkpt>
      <trkpt lat="59.222181429247" lon="17.915039967227">
        <ele>72.8</ele>
        <time>2016-04-25T20:01:04Z</time>
        <extensions><gpxtpx:TrackPointExtension><gpxtpx:hr>130</gpxtpx:hr></gpxtpx:TrackPointExtension></extensions>
      </trkpt>
      <trkpt lat="59.222120911929" lon="17.914925470473">
        <ele>72.4</ele>
        <time>2016-04-25T20:01:05Z</time>
        <extensions><gpxtpx:TrackPointExtension><gpxtpx:hr>130</gpxtpx:hr></gpxtpx:TrackPointExtension></extensions>
      </trkpt>
      <trkpt lat="59.22206131662" lon="17.914810722262">
        <ele>72</ele>
        <time>2016-04-25T20:01:06Z</time>
        <extensions><gpxtpx:TrackPointExtension><gpxtpx:hr>129</gpxtpx:hr></gpxtpx:TrackPointExtension></extensions>
      </trkpt>
      <trkpt lat="59.22200180513" lon="17.914698153345">
        <ele>71.4</ele>
        <time>2016-04-25T20:01:07Z</time>
        <extensions><gpxtpx:TrackPointExtension><gpxtpx:hr>128</gpxtpx:hr></gpxtpx:TrackPointExtension></extensions>
      </trkpt>
      <trkpt lat="59.221941874545" lon="17.914584494781">
        <ele>71</ele>
        <time>2016-04-25T20:01:08Z</time>
        <extensions><gpxtpx:TrackPointExtension><gpxtpx:hr>127</gpxtpx:hr></gpxtpx:TrackPointExtension></extensions>
      </trkpt>
      <trkpt lat="59.221883787978" lon="17.914474356615">
        <ele>70.6</ele>
        <time>2016-04-25T20:01:09Z</time>
        <extensions><gpxtpx:TrackPointExtension><gpxtpx:hr>125</gpxtpx:hr></gpxtpx:TrackPointExtension></extensions>
      </trkpt>
      <trkpt lat="59.221825617592" lon="17.914362290612">
        <ele>70.2</ele>
        <time>2016-04-25T20:01:10Z</time>
        <extensions><gpxtpx:TrackPointExtension><gpxtpx:hr>124</gpxtpx:hr></gpxtpx:TrackPointExtension></extensions>
      </trkpt>
      <trkpt lat="59.221717071987" lon="17.914146540506">
        <ele>70.2</ele>
        <time>2016-04-25T20:01:12Z</time>
        <extensions><gpxtpx:TrackPointExtension><gpxtpx:hr>121</gpxtpx:hr></gpxtpx:TrackPointExtension></extensions>
      </trkpt>
      <trkpt lat="59.221670384804" lon="17.914030954105">
        <ele>70.2</ele>
        <time>2016-04-25T20:01:13Z</time>
        <extensions><gpxtpx:TrackPointExtension><gpxtpx:hr>120</gpxtpx:hr></gpxtpx:TrackPointExtension></extensions>
      </trkpt>
      <trkpt lat="59.221645155285" lon="17.913902711035">
        <ele>70.2</ele>
        <time>2016-04-25T20:01:14Z</time>
        <extensions><gpxtpx:TrackPointExtension><gpxtpx:hr>118</gpxtpx:hr></gpxtpx:TrackPointExtension></extensions>
      </trkpt>
      <trkpt lat="59.221684298758" lon="17.913615714779">
        <ele>70.2</ele>
        <time>2016-04-25T20:01:16Z</time>
        <extensions><gpxtpx:TrackPointExtension><gpxtpx:hr>117</gpxtpx:hr></gpxtpx:TrackPointExtension></extensions>
      </trkpt>
      <trkpt lat="59.221834418587" lon="17.913360905019">
        <ele>70.2</ele>
        <time>2016-04-25T20:01:19Z</time>
        <extensions><gpxtpx:TrackPointExtension><gpxtpx:hr>118</gpxtpx:hr></gpxtpx:TrackPointExtension></extensions>
      </trkpt>
      <trkpt lat="59.222004654976" lon="17.913157895401">
        <ele>70.2</ele>
        <time>2016-04-25T20:01:23Z</time>
        <extensions><gpxtpx:TrackPointExtension><gpxtpx:hr>118</gpxtpx:hr></gpxtpx:TrackPointExtension></extensions>
      </trkpt>
      <trkpt lat="59.22204036187" lon="17.913120093032">
        <ele>71</ele>
        <time>2016-04-25T20:01:24Z</time>
        <extensions><gpxtpx:TrackPointExtension><gpxtpx:hr>119</gpxtpx:hr></gpxtpx:TrackPointExtension></extensions>
      </trkpt>
      <trkpt lat="59.22207305128" lon="17.913072148564">
        <ele>71.8</ele>
        <time>2016-04-25T20:01:25Z</time>
        <extensions><gpxtpx:TrackPointExtension><gpxtpx:hr>119</gpxtpx:hr></gpxtpx:TrackPointExtension></extensions>
      </trkpt>
      <trkpt lat="59.222106495061" lon="17.913021689526">
        <ele>72.4</ele>
        <time>2016-04-25T20:01:26Z</time>
        <extensions><gpxtpx:TrackPointExtension><gpxtpx:hr>119</gpxtpx:hr></gpxtpx:TrackPointExtension></extensions>
      </trkpt>
      <trkpt lat="59.222137088996" lon="17.912965949891">
        <ele>73.2</ele>
        <time>2016-04-25T20:01:27Z</time>
        <extensions><gpxtpx:TrackPointExtension><gpxtpx:hr>119</gpxtpx:hr></gpxtpx:TrackPointExtension></extensions>
      </trkpt>
      <trkpt lat="59.222164162533" lon="17.912899732881">
        <ele>74</ele>
        <time>2016-04-25T20:01:28Z</time>
        <extensions><gpxtpx:TrackPointExtension><gpxtpx:hr>120</gpxtpx:hr></gpxtpx:TrackPointExtension></extensions>
      </trkpt>
      <trkpt lat="59.222183440903" lon="17.912630087158">
        <ele>74</ele>
        <time>2016-04-25T20:01:31Z</time>
        <extensions><gpxtpx:TrackPointExtension><gpxtpx:hr>122</gpxtpx:hr></gpxtpx:TrackPointExtension></extensions>
      </trkpt>
      <trkpt lat="59.222183524722" lon="17.91253017491">
        <ele>74</ele>
        <time>2016-04-25T20:01:32Z</time>
        <extensions><gpxtpx:TrackPointExtension><gpxtpx:hr>123</gpxtpx:hr></gpxtpx:TrackPointExtension></extensions>
      </trkpt>
      <trkpt lat="59.222176567745" lon="17.912433112508">
        <ele>74</ele>
        <time>2016-04-25T20:01:33Z</time>
        <extensions><gpxtpx:TrackPointExtension><gpxtpx:hr>123</gpxtpx:hr></gpxtpx:TrackPointExtension></extensions>
      </trkpt>
      <trkpt lat="59.222138178643" lon="17.912142512035">
        <ele>74</ele>
        <time>2016-04-25T20:01:36Z</time>
        <extensions><gpxtpx:TrackPointExtension><gpxtpx:hr>125</gpxtpx:hr></gpxtpx:TrackPointExtension></extensions>
      </trkpt>
      <trkpt lat="59.222077074592" lon="17.911844619309">
        <ele>74</ele>
        <time>2016-04-25T20:01:39Z</time>
        <extensions><gpxtpx:TrackPointExtension><gpxtpx:hr>128</gpxtpx:hr></gpxtpx:TrackPointExtension></extensions>
      </trkpt>
      <trkpt lat="59.222018904206" lon="17.91152434691">
        <ele>74</ele>
        <time>2016-04-25T20:01:42Z</time>
        <extensions><gpxtpx:TrackPointExtension><gpxtpx:hr>129</gpxtpx:hr></gpxtpx:TrackPointExtension></extensions>
      </trkpt>
      <trkpt lat="59.22187607663" lon="17.910694957905">
        <ele>74</ele>
        <time>2016-04-25T20:01:50Z</time>
        <extensions><gpxtpx:TrackPointExtension><gpxtpx:hr>126</gpxtpx:hr></gpxtpx:TrackPointExtension></extensions>
      </trkpt>
      <trkpt lat="59.22184338722" lon="17.910492199744">
        <ele>74</ele>
        <time>2016-04-25T20:01:52Z</time>
        <extensions><gpxtpx:TrackPointExtension><gpxtpx:hr>123</gpxtpx:hr></gpxtpx:TrackPointExtension></extensions>
      </trkpt>
      <trkpt lat="59.221770883785" lon="17.90996698989">
        <ele>74</ele>
        <time>2016-04-25T20:01:57Z</time>
        <extensions><gpxtpx:TrackPointExtension><gpxtpx:hr>121</gpxtpx:hr></gpxtpx:TrackPointExtension></extensions>
      </trkpt>
      <trkpt lat="59.221712210485" lon="17.909555270962">
        <ele>74</ele>
        <time>2016-04-25T20:02:01Z</time>
        <extensions><gpxtpx:TrackPointExtension><gpxtpx:hr>118</gpxtpx:hr></gpxtpx:TrackPointExtension></extensions>
      </trkpt>
      <trkpt lat="59.221666696768" lon="17.909248241965">
        <ele>74</ele>
        <time>2016-04-25T20:02:04Z</time>
        <extensions><gpxtpx:TrackPointExtension><gpxtpx:hr>116</gpxtpx:hr></gpxtpx:TrackPointExtension></extensions>
      </trkpt>
      <trkpt lat="59.221550355996" lon="17.90862169494">
        <ele>74</ele>
        <time>2016-04-25T20:02:10Z</time>
        <extensions><gpxtpx:TrackPointExtension><gpxtpx:hr>115</gpxtpx:hr></gpxtpx:TrackPointExtension></extensions>
      </trkpt>
      <trkpt lat="59.221509703781" lon="17.90845992427">
        <ele>74</ele>
        <time>2016-04-25T20:02:12Z</time>
        <extensions><gpxtpx:TrackPointExtension><gpxtpx:hr>114</gpxtpx:hr></gpxtpx:TrackPointExtension></extensions>
      </trkpt>
      <trkpt lat="59.221486569737" lon="17.908290945166">
        <ele>74</ele>
        <time>2016-04-25T20:02:14Z</time>
        <extensions><gpxtpx:TrackPointExtension><gpxtpx:hr>113</gpxtpx:hr></gpxtpx:TrackPointExtension></extensions>
      </trkpt>
      <trkpt lat="59.221479864217" lon="17.908208131994">
        <ele>74</ele>
        <time>2016-04-25T20:02:15Z</time>
        <extensions><gpxtpx:TrackPointExtension><gpxtpx:hr>113</gpxtpx:hr></gpxtpx:TrackPointExtension></extensions>
      </trkpt>
      <trkpt lat="59.221452539223" lon="17.908073183404">
        <ele>74</ele>
        <time>2016-04-25T20:02:17Z</time>
        <extensions><gpxtpx:TrackPointExtension><gpxtpx:hr>112</gpxtpx:hr></gpxtpx:TrackPointExtension></extensions>
      </trkpt>
      <trkpt lat="59.22142093946" lon="17.908039823442">
        <ele>74</ele>
        <time>2016-04-25T20:02:18Z</time>
        <extensions><gpxtpx:TrackPointExtension><gpxtpx:hr>111</gpxtpx:hr></gpxtpx:TrackPointExtension></extensions>
      </trkpt>
      <trkpt lat="59.221329073836" lon="17.908049965541">
        <ele>74</ele>
        <time>2016-04-25T20:02:20Z</time>
        <extensions><gpxtpx:TrackPointExtension><gpxtpx:hr>108</gpxtpx:hr></gpxtpx:TrackPointExtension></extensions>
      </trkpt>
      <trkpt lat="59.221278698617" lon="17.908085001883">
        <ele>74</ele>
        <time>2016-04-25T20:02:21Z</time>
        <extensions><gpxtpx:TrackPointExtension><gpxtpx:hr>107</gpxtpx:hr></gpxtpx:TrackPointExtension></extensions>
      </trkpt>
      <trkpt lat="59.221224132448" lon="17.908122385157">
        <ele>73.6</ele>
        <time>2016-04-25T20:02:22Z</time>
        <extensions><gpxtpx:TrackPointExtension><gpxtpx:hr>107</gpxtpx:hr></gpxtpx:TrackPointExtension></extensions>
      </trkpt>
      <trkpt lat="59.22116529151" lon="17.908154739291">
        <ele>73.2</ele>
        <time>2016-04-25T20:02:23Z</time>
        <extensions><gpxtpx:TrackPointExtension><gpxtpx:hr>107</gpxtpx:hr></gpxtpx:TrackPointExtension></extensions>
      </trkpt>
      <trkpt lat="59.221098403948" lon="17.9081975708">
        <ele>72.8</ele>
        <time>2016-04-25T20:02:24Z</time>
        <extensions><gpxtpx:TrackPointExtension><gpxtpx:hr>107</gpxtpx:hr></gpxtpx:TrackPointExtension></extensions>
      </trkpt>
      <trkpt lat="59.221032186938" lon="17.908243000698">
        <ele>72.4</ele>
        <time>2016-04-25T20:02:25Z</time>
        <extensions><gpxtpx:TrackPointExtension><gpxtpx:hr>108</gpxtpx:hr></gpxtpx:TrackPointExtension></extensions>
      </trkpt>
      <trkpt lat="59.220963203901" lon="17.908290442252">
        <ele>71.8</ele>
        <time>2016-04-25T20:02:26Z</time>
        <extensions><gpxtpx:TrackPointExtension><gpxtpx:hr>108</gpxtpx:hr></gpxtpx:TrackPointExtension></extensions>
      </trkpt>
      <trkpt lat="59.220891538656" lon="17.908337883806">
        <ele>71.2</ele>
        <time>2016-04-25T20:02:27Z</time>
        <extensions><gpxtpx:TrackPointExtension><gpxtpx:hr>109</gpxtpx:hr></gpxtpx:TrackPointExtension></extensions>
      </trkpt>
      <trkpt lat="59.22081744266" lon="17.908392198518">
        <ele>70.6</ele>
        <time>2016-04-25T20:02:28Z</time>
        <extensions><gpxtpx:TrackPointExtension><gpxtpx:hr>109</gpxtpx:hr></gpxtpx:TrackPointExtension></extensions>
      </trkpt>
      <trkpt lat="59.220743095207" lon="17.908440226805">
        <ele>70</ele>
        <time>2016-04-25T20:02:29Z</time>
        <extensions><gpxtpx:TrackPointExtension><gpxtpx:hr>108</gpxtpx:hr></gpxtpx:TrackPointExtension></extensions>
      </trkpt>
      <trkpt lat="59.220676878197" lon="17.908482723038">
        <ele>69.2</ele>
        <time>2016-04-25T20:02:30Z</time>
        <extensions><gpxtpx:TrackPointExtension><gpxtpx:hr>107</gpxtpx:hr></gpxtpx:TrackPointExtension></extensions>
      </trkpt>
      <trkpt lat="59.220618623992" lon="17.908518513751">
        <ele>68.6</ele>
        <time>2016-04-25T20:02:31Z</time>
        <extensions><gpxtpx:TrackPointExtension><gpxtpx:hr>106</gpxtpx:hr></gpxtpx:TrackPointExtension></extensions>
      </trkpt>
      <trkpt lat="59.220561962348" lon="17.908546425478">
        <ele>67.8</ele>
        <time>2016-04-25T20:02:32Z</time>
        <extensions><gpxtpx:TrackPointExtension><gpxtpx:hr>104</gpxtpx:hr></gpxtpx:TrackPointExtension></extensions>
      </trkpt>
      <trkpt lat="59.22050479779" lon="17.908557070491">
        <ele>67</ele>
        <time>2016-04-25T20:02:33Z</time>
        <extensions><gpxtpx:TrackPointExtension><gpxtpx:hr>102</gpxtpx:hr></gpxtpx:TrackPointExtension></extensions>
      </trkpt>
      <trkpt lat="59.220387954104" lon="17.908503929245">
        <ele>67</ele>
        <time>2016-04-25T20:02:35Z</time>
        <extensions><gpxtpx:TrackPointExtension><gpxtpx:hr>100</gpxtpx:hr></gpxtpx:TrackPointExtension></extensions>
      </trkpt>
      <trkpt lat="59.220273289712" lon="17.908281892714">
        <ele>67</ele>
        <time>2016-04-25T20:02:38Z</time>
        <extensions><gpxtpx:TrackPointExtension><gpxtpx:hr>103</gpxtpx:hr></gpxtpx:TrackPointExtension></extensions>
      </trkpt>
      <trkpt lat="59.220072962302" lon="17.907883417188">
        <ele>67</ele>
        <time>2016-04-25T20:02:43Z</time>
        <extensions><gpxtpx:TrackPointExtension><gpxtpx:hr>105</gpxtpx:hr></gpxtpx:TrackPointExtension></extensions>
      </trkpt>
      <trkpt lat="59.219897193859" lon="17.907453593356">
        <ele>67</ele>
        <time>2016-04-25T20:02:48Z</time>
        <extensions><gpxtpx:TrackPointExtension><gpxtpx:hr>107</gpxtpx:hr></gpxtpx:TrackPointExtension></extensions>
      </trkpt>
      <trkpt lat="59.219811111746" lon="17.907228539341">
        <ele>67</ele>
        <time>2016-04-25T20:02:51Z</time>
        <extensions><gpxtpx:TrackPointExtension><gpxtpx:hr>107</gpxtpx:hr></gpxtpx:TrackPointExtension></extensions>
      </trkpt>
    </trkseg>
  </trk>
</gpx>